# Wetter Temperatur Luftdruck Luftfeuchtigkeit Sichtweite Windgeschwindigkeit Windrichtung Zeit
1 Clear 30 1008 45 10000 2.57 340 11:18 14.08.2022
2 Clouds 27 1008 69 10000 3.6 360 08:53 14.08.2022
3 Clear 26 1008 73 10000 1.54 10 06:23 14.08.2022
4 Clear 26 1008 73 10000 1.54 10 06:23 14.08.2022
5 Clear 26 1008 73 10000 1.54 10 06:23 14.08.2022
6 Clear 26 1008 73 10000 1.54 330 03:48 14.08.2022
7 Clear 26 1009 73 10000 3.6 360 00:42 14.08.2022
8 Clear 27 1009 65 10000 3.09 350 22:56 13.08.2022
9 Clear 28 1009 57 10000 5.14 350 21:55 13.08.2022
10 Clear 30 1008 42 10000 5.14 350 20:49 13.08.2022
11 Clear 31 1008 37 10000 4.12 340 19:46 13.08.2022
12 Clear 32 1007 31 10000 5.14 350 18:47 13.08.2022
13 Clear 33 1007 31 10000 4.63 310 16:23 13.08.2022
14 Clouds 34 1007 31 10000 4.12 320 14:41 13.08.2022
15 Clouds 33 1008 35 10000 5.14 330 13:48 13.08.2022
16 Clouds 32 1008 37 10000 5.14 290 13:23 13.08.2022
17 Clouds 30 1009 48 10000 2.57 330 10:44 13.08.2022
18 Clouds 28 1009 61 10000 2.57 330 09:23 13.08.2022
19 Clear 25 1009 83 6000 2.06 300 06:26 13.08.2022
20 Clear 26 1009 73 10000 2.57 340 01:36 13.08.2022
21 Clear 27 1009 69 10000 5.14 10 23:25 12.08.2022
22 Clear 29 1009 58 10000 6.17 10 21:35 12.08.2022
23 Clear 31 1008 40 10000 4.12 360 19:47 12.08.2022
24 Clear 31 1008 40 10000 3.6 340 19:22 12.08.2022
25 Clear 31 1008 40 10000 4.63 350 18:21 12.08.2022
26 Clear 33 1007 35 10000 3.6 350 16:26 12.08.2022
27 Clear 32 1007 37 10000 0 0 14:50 12.08.2022
28 Clear 32 1008 35 10000 3.6 340 13:30 12.08.2022
29 Clear 31 1009 40 10000 3.6 360 12:25 12.08.2022
30 Clouds 27 1009 69 10000 1.54 340 08:51 12.08.2022
31 Clear 26 1009 78 10000 2.06 50 07:45 12.08.2022
32 Clear 26 1008 78 10000 2.06 20 04:55 12.08.2022
33 Clear 27 1009 74 10000 3.6 50 00:32 12.08.2022
34 Clear 27 1009 74 10000 4.12 50 23:55 11.08.2022
35 Clear 28 1008 69 10000 4.63 30 22:45 11.08.2022
36 Clear 29 1008 65 10000 5.66 20 21:53 11.08.2022
37 Clear 30 1008 58 10000 5.66 10 21:28 11.08.2022
38 Clear 31 1007 42 10000 5.14 20 20:30 11.08.2022
39 Clear 32 1007 35 10000 4.63 340 19:33 11.08.2022
40 Clouds 32 1007 35 10000 4.63 360 18:53 11.08.2022
41 Clouds 34 1006 31 10000 4.12 330 16:47 11.08.2022
42 Clouds 34 1007 26 10000 5.14 310 15:43 11.08.2022
43 Clouds 34 1007 21 10000 4.63 290 14:40 11.08.2022
44 Clouds 31 1008 48 6000 2.06 290 11:59 11.08.2022
45 Mist 26 1009 78 4000 1.54 320 09:22 11.08.2022
46 Mist 26 1008 83 4000 3.09 320 06:49 11.08.2022
47 Clear 28 1007 74 10000 1.54 40 02:38 11.08.2022
48 Clear 29 1008 70 10000 4.12 50 23:57 10.08.2022
49 Clear 31 1008 55 10000 3.6 60 21:49 10.08.2022
50 Clear 31 1008 51 10000 4.12 30 21:18 10.08.2022
51 Clear 31 1008 51 10000 4.12 20 20:36 10.08.2022
52 Clouds 32 1007 43 10000 3.6 350 18:53 10.08.2022
53 Clouds 33 1007 40 10000 3.09 350 17:27 10.08.2022
54 Clouds 34 1007 36 10000 4.12 350 14:57 10.08.2022
55 Clear 33 1008 40 10000 3.6 330 13:34 10.08.2022
56 Clear 30 1009 51 10000 3.09 60 10:51 10.08.2022
57 Clouds 27 1009 74 10000 2.06 10 08:42 10.08.2022
58 Clouds 26 1009 78 10000 2.57 360 07:36 10.08.2022
59 Clear 26 1008 78 10000 4.12 360 05:46 10.08.2022
60 Clear 27 1008 74 10000 2.57 50 02:22 10.08.2022
61 Clear 28 1009 74 10000 5.14 40 23:33 09.08.2022
62 Clear 29 1009 70 10000 6.17 30 22:48 09.08.2022
63 Clear 30 1009 66 10000 5.14 40 21:33 09.08.2022
64 Clear 33 1007 38 10000 4.12 360 19:33 09.08.2022
65 Clear 34 1007 27 10000 3.6 340 17:59 09.08.2022
66 Clear 35 1007 28 10000 4.63 330 17:26 09.08.2022
67 Clear 35 1007 29 10000 3.6 320 16:40 09.08.2022
68 Clear 35 1007 26 10000 5.14 310 15:31 09.08.2022
69 Clear 34 1008 33 10000 1.54 250 12:20 09.08.2022
70 Clear 27 1008 74 6000 2.06 360 08:55 09.08.2022
71 Mist 27 1008 74 4000 2.06 360 08:26 09.08.2022
72 Mist 26 1009 83 3000 1.03 340 07:18 09.08.2022
73 Clear 29 1007 54 6000 0 0 02:54 09.08.2022
74 Clear 31 1008 45 10000 2.57 60 23:26 08.08.2022
75 Clear 31 1008 45 10000 2.06 70 22:52 08.08.2022
76 Clear 31 1008 48 10000 3.09 20 21:48 08.08.2022
77 Clear 32 1008 45 10000 3.6 340 20:52 08.08.2022
78 Clear 33 1007 38 10000 4.63 20 19:50 08.08.2022
79 Clear 35 1006 29 10000 2.06 350 18:19 08.08.2022
80 Clear 35 1007 26 10000 4.12 290 15:57 08.08.2022
81 Clear 35 1007 26 10000 4.12 290 15:38 08.08.2022
82 Clear 33 1007 29 10000 2.06 310 12:39 08.08.2022
83 Clear 32 1008 33 10000 1.54 300 11:48 08.08.2022
84 Clear 30 1008 48 10000 1.54 60 09:29 08.08.2022
85 Clear 26 1007 73 10000 2.06 90 05:35 08.08.2022
86 Clear 27 1006 74 10000 1.54 50 02:24 08.08.2022
87 Clear 29 1007 61 10000 4.63 350 22:20 07.08.2022
88 Clear 30 1006 54 10000 5.33 33 21:38 07.08.2022
89 Clear 31 1005 45 10000 4.12 340 20:25 07.08.2022
90 Clear 31 1005 45 10000 4.12 340 19:54 07.08.2022
91 Clear 32 1005 43 10000 3.6 340 19:29 07.08.2022
92 Clear 33 1004 40 10000 4.12 320 18:21 07.08.2022
93 Clear 33 1004 38 10000 4.12 310 16:53 07.08.2022
94 Clear 33 1004 40 10000 2.06 290 15:54 07.08.2022
95 Clear 32 1005 37 10000 3.09 340 14:39 07.08.2022
96 Clear 32 1005 37 10000 2.57 290 13:22 07.08.2022
97 Clear 29 1006 54 10000 1.03 340 10:59 07.08.2022
98 Clear 29 1006 54 10000 1.03 340 10:28 07.08.2022
99 Haze 25 1006 78 4000 2.06 350 05:48 07.08.2022
100 Clear 26 1005 69 10000 1.54 50 03:19 07.08.2022
101 Clear 28 1006 61 10000 2.57 10 23:37 06.08.2022
102 Clear 28 1007 65 10000 3.6 30 22:20 06.08.2022
103 Clear 30 1006 54 10000 6.17 360 20:24 06.08.2022
104 Clear 30 1006 54 10000 5.66 360 19:39 06.08.2022
105 Clear 32 1005 48 10000 5.14 340 18:25 06.08.2022
106 Clear 39 1003 15 10000 5.77 326 17:28 06.08.2022
107 Clear 33 1006 40 10000 4.63 330 14:31 06.08.2022
108 Clear 33 1006 43 10000 4.12 10 13:40 06.08.2022
109 Clear 30 1007 51 10000 3.09 360 11:24 06.08.2022
110 Clouds 28 1007 61 6000 3.09 300 09:51 06.08.2022
111 Clouds 26 1008 73 10000 2.57 340 08:28 06.08.2022
112 Clear 25 1007 78 10000 2.57 360 03:35 06.08.2022
113 Clear 27 1008 74 10000 4.12 350 23:34 05.08.2022
114 Clear 28 1008 69 10000 4.12 340 22:22 05.08.2022
115 Clear 32 1007 45 10000 5.14 360 19:32 05.08.2022
116 Clear 33 1006 40 10000 4.12 350 18:44 05.08.2022
117 Clear 34 1006 38 10000 3.6 330 17:27 05.08.2022
118 Clear 34 1006 36 10000 2.57 340 16:48 05.08.2022
119 Clear 34 1006 36 10000 2.57 340 16:48 05.08.2022
120 Clear 34 1006 36 10000 2.57 340 16:48 05.08.2022
121 Clear 35 1006 29 10000 4.12 320 15:22 05.08.2022
122 Clear 34 1007 29 10000 3.6 310 14:19 05.08.2022
123 Clear 33 1007 35 10000 2.06 360 13:23 05.08.2022
124 Clear 31 1008 40 10000 2.06 340 12:28 05.08.2022
125 Clear 30 1008 51 10000 2.06 310 10:49 05.08.2022
126 Clouds 26 1009 78 10000 2.57 360 08:27 05.08.2022
127 Clouds 25 1008 83 10000 3.09 360 06:41 05.08.2022
128 Clear 26 1008 78 10000 4.12 350 00:46 05.08.2022
129 Clear 28 1009 61 10000 4.63 360 22:31 04.08.2022
130 Clear 29 1008 58 10000 5.14 360 21:27 04.08.2022
131 Clear 30 1008 51 10000 6.17 10 20:43 04.08.2022
132 Clear 31 1008 51 10000 6.17 350 19:48 04.08.2022
133 Clear 32 1007 48 10000 6.17 360 18:42 04.08.2022
134 Clear 33 1007 46 10000 5.14 340 18:23 04.08.2022
135 Clear 33 1007 40 10000 5.14 360 14:39 04.08.2022
136 Clear 33 1008 35 10000 3.6 350 13:22 04.08.2022
137 Clear 31 1008 45 10000 2.06 320 11:33 04.08.2022
138 Clear 26 1008 69 10000 1.54 80 07:55 04.08.2022
139 Clear 26 1008 69 10000 1.54 80 07:26 04.08.2022
140 Clear 26 1008 69 10000 1.54 10 02:38 04.08.2022
141 Clear 27 1008 69 6000 4.12 340 23:49 03.08.2022
142 Clear 27 1008 69 6000 4.12 360 23:27 03.08.2022
143 Clear 30 1008 51 10000 4.12 330 20:57 03.08.2022
144 Clear 31 1007 40 10000 4.12 320 19:56 03.08.2022
145 Clear 32 1007 33 10000 4.12 320 18:40 03.08.2022
146 Clear 35 1006 28 10000 5.14 290 16:27 03.08.2022
147 Clear 34 1006 26 10000 4.63 320 15:53 03.08.2022
148 Clear 34 1007 27 10000 5.14 310 13:32 03.08.2022
149 Clear 31 1007 45 10000 2.06 320 10:44 03.08.2022
150 Clear 26 1007 69 10000 1.54 360 07:21 03.08.2022
151 Clear 25 1007 83 10000 1.54 320 04:22 03.08.2022
152 Clear 25 1007 83 10000 2.06 290 03:22 03.08.2022
153 Clear 26 1007 78 10000 4.12 310 00:46 03.08.2022
154 Clear 28 1007 69 10000 5.14 310 22:33 02.08.2022
155 Clear 29 1006 65 10000 4.63 300 21:50 02.08.2022
156 Clear 31 1006 58 10000 5.14 310 20:29 02.08.2022
157 Clear 34 1005 40 10000 4.63 320 17:47 02.08.2022
158 Clouds 34 1005 40 10000 3.09 290 14:39 02.08.2022
159 Clouds 30 1006 54 10000 3.6 310 10:49 02.08.2022
160 Clouds 27 1006 74 10000 2.57 300 08:54 02.08.2022
161 Clouds 27 1006 74 10000 2.57 300 08:54 02.08.2022
162 Clouds 26 1006 78 10000 2.06 270 07:52 02.08.2022
163 Clear 26 1006 73 10000 1.54 300 04:59 02.08.2022
164 Clear 26 1006 69 10000 3.6 300 03:36 02.08.2022
165 Clear 28 1006 65 10000 4.63 320 23:32 01.08.2022
166 Clear 29 1006 61 10000 4.63 310 22:21 01.08.2022
167 Clear 32 1005 48 10000 3.6 310 20:40 01.08.2022
168 Clear 33 1005 43 10000 4.12 330 19:22 01.08.2022
169 Clear 35 1004 36 10000 4.63 340 17:27 01.08.2022
170 Clear 35 1004 34 10000 4.63 340 16:50 01.08.2022
171 Clear 35 1004 31 10000 5.14 320 15:51 01.08.2022
172 Clear 35 1004 29 10000 4.63 320 15:28 01.08.2022
173 Clear 35 1004 34 10000 3.6 300 13:44 01.08.2022
174 Clear 33 1005 43 10000 3.6 300 11:49 01.08.2022
175 Clouds 28 1006 69 6000 2.57 310 09:38 01.08.2022
176 Clouds 26 1006 78 6000 3.09 290 08:20 01.08.2022
177 Clouds 25 1005 83 6000 1.54 350 04:45 01.08.2022
178 Clear 26 1005 83 6000 3.09 330 02:31 01.08.2022
179 Clear 28 1005 65 10000 3.6 340 23:43 31.07.2022
180 Clear 28 1005 65 10000 3.6 330 22:36 31.07.2022
181 Clear 30 1005 58 10000 4.12 350 20:50 31.07.2022
182 Clear 31 1004 55 10000 4.63 330 19:40 31.07.2022
183 Clear 33 1004 46 10000 4.12 330 17:44 31.07.2022
184 Clouds 34 1004 40 10000 4.63 290 15:30 31.07.2022
185 Clear 32 1005 45 10000 2.57 300 13:41 31.07.2022
186 Clouds 31 1006 51 10000 2.57 330 11:52 31.07.2022
187 Clouds 27 1007 65 10000 3.09 320 09:28 31.07.2022
188 Clouds 26 1007 65 6000 2.06 350 06:43 31.07.2022
189 Clear 26 1007 61 10000 1.54 80 02:57 31.07.2022
190 Clear 29 1008 48 10000 2.57 360 23:35 30.07.2022
191 Clear 29 1008 48 10000 3.6 10 22:19 30.07.2022
192 Clear 30 1008 42 10000 3.09 360 21:48 30.07.2022
193 Clear 30 1008 42 10000 4.63 10 20:56 30.07.2022
194 Clear 30 1008 51 10000 6.17 360 19:58 30.07.2022
195 Clear 32 1007 48 10000 6.17 350 18:51 30.07.2022
196 Clear 34 1007 26 10000 4.12 340 17:42 30.07.2022
197 Clear 35 1007 20 10000 3.6 330 15:49 30.07.2022
198 Clear 35 1007 23 10000 3.6 310 15:21 30.07.2022
199 Clear 34 1008 26 10000 3.6 330 12:55 30.07.2022
200 Clear 33 1008 31 10000 4.63 320 11:55 30.07.2022
201 Clear 32 1009 33 10000 2.06 360 10:31 30.07.2022
202 Clear 31 1009 40 10000 1.54 360 09:47 30.07.2022
203 Clear 27 1009 69 10000 1.54 90 07:55 30.07.2022
204 Clear 27 1008 54 10000 1.03 60 02:37 30.07.2022
205 Clear 28 1008 47 10000 1.03 50 01:49 30.07.2022
206 Clear 29 1009 51 10000 5.14 30 22:25 29.07.2022
207 Clear 30 1009 45 10000 6.17 360 21:23 29.07.2022
208 Clear 32 1008 35 10000 6.17 360 19:57 29.07.2022
209 Clear 35 1007 26 10000 5.66 360 17:59 29.07.2022
210 Clear 36 1007 24 10000 5.66 330 15:27 29.07.2022
211 Clear 35 1007 26 10000 5.14 350 13:18 29.07.2022
212 Clear 34 1008 29 10000 2.06 360 11:22 29.07.2022
213 Clear 29 1009 58 10000 2.57 360 08:50 29.07.2022
214 Clear 27 1008 69 10000 2.06 10 07:54 29.07.2022
215 Clear 27 1008 54 10000 1.54 40 01:52 29.07.2022
216 Clear 29 1009 45 10000 2.06 50 22:49 28.07.2022
217 Clear 31 1008 40 10000 5.14 20 21:20 28.07.2022
218 Clear 32 1007 40 10000 6.69 20 20:32 28.07.2022
219 Clear 32 1007 40 10000 6.17 20 19:43 28.07.2022
220 Clear 34 1006 33 10000 6.17 360 19:23 28.07.2022
221 Clear 35 1006 28 10000 5.14 350 17:44 28.07.2022
222 Clear 35 1006 24 10000 5.66 350 16:57 28.07.2022
223 Clear 36 1005 23 10000 6.17 350 16:28 28.07.2022
224 Clear 36 1006 20 10000 3.09 360 13:30 28.07.2022
225 Clear 34 1006 21 10000 4.12 30 11:27 28.07.2022
226 Clear 26 1006 69 10000 0 0 06:45 28.07.2022
227 Clear 26 1006 65 10000 1.54 40 05:31 28.07.2022
228 Clear 27 1005 65 10000 2.06 60 02:40 28.07.2022
229 Clear 30 1006 39 10000 2.06 50 22:45 27.07.2022
230 Clear 32 1005 23 10000 3.6 30 21:29 27.07.2022
231 Clear 33 1005 29 10000 4.63 20 19:44 27.07.2022
232 Clear 33 1004 24 10000 5.66 20 18:39 27.07.2022
233 Clear 35 1004 23 10000 5.66 330 15:52 27.07.2022
234 Clear 35 1004 18 10000 6.69 330 15:20 27.07.2022
235 Clear 35 1005 23 10000 5.14 350 14:40 27.07.2022
236 Clear 34 1005 24 10000 4.12 340 12:52 27.07.2022
237 Mist 26 1006 73 4000 1.03 80 08:55 27.07.2022
238 Mist 25 1006 83 2000 1.54 340 07:33 27.07.2022
239 Clear 26 1005 69 10000 3.6 340 02:43 27.07.2022
240 Clear 30 1005 62 10000 5.14 10 22:39 26.07.2022
241 Clear 33 1005 24 10000 2.06 20 21:23 26.07.2022
242 Clear 33 1004 25 10000 2.57 20 20:47 26.07.2022
243 Clear 35 1004 18 10000 4.12 20 18:46 26.07.2022
244 Clear 35 1004 18 10000 3.6 10 18:20 26.07.2022
245 Clear 35 1004 20 10000 4.12 320 16:46 26.07.2022
246 Clear 36 1004 16 10000 3.09 340 15:43 26.07.2022
247 Clear 36 1005 14 10000 4.63 320 14:00 26.07.2022
248 Clear 34 1005 24 10000 3.09 360 11:47 26.07.2022
249 Clear 29 1005 54 10000 2.06 10 09:35 26.07.2022
250 Clear 26 1005 78 10000 1.54 110 07:56 26.07.2022
251 Clear 27 1005 65 10000 2.06 80 01:44 26.07.2022
252 Clear 28 1005 61 10000 3.09 10 23:37 25.07.2022
253 Clear 29 1005 61 10000 5.14 350 22:33 25.07.2022
254 Clear 30 1005 58 10000 5.66 360 21:43 25.07.2022
255 Clear 32 1005 37 10000 5.14 360 20:42 25.07.2022
256 Clear 33 1004 31 10000 3.6 350 19:51 25.07.2022
257 Clear 35 1004 26 10000 4.63 340 18:23 25.07.2022
258 Clear 36 1003 23 10000 4.12 320 17:34 25.07.2022
259 Clear 36 1003 20 10000 5.14 300 16:40 25.07.2022
260 Haze 33 1005 35 4000 3.09 290 12:47 25.07.2022
261 Haze 30 1006 48 4000 2.06 280 10:42 25.07.2022
262 Mist 23 1005 94 3000 3.09 320 07:29 25.07.2022
263 Clear 28 1006 57 10000 2.06 20 23:57 24.07.2022
264 Clear 28 1006 57 10000 3.09 20 23:22 24.07.2022
265 Clear 28 1006 54 10000 4.12 10 22:41 24.07.2022
266 Clear 30 1006 48 10000 5.14 360 21:30 24.07.2022
267 Clear 30 1006 48 10000 4.63 350 20:57 24.07.2022
268 Clear 31 1005 48 10000 5.14 350 20:35 24.07.2022
269 Clear 33 1005 46 10000 5.66 350 18:59 24.07.2022
270 Clear 36 1005 20 10000 5.14 340 16:54 24.07.2022
271 Clear 36 1005 20 10000 5.14 350 15:54 24.07.2022
272 Clear 36 1005 28 10000 4.63 340 14:41 24.07.2022
273 Clear 34 1005 31 10000 3.6 320 13:47 24.07.2022
274 Clear 32 1006 33 10000 2.57 270 12:19 24.07.2022
275 Clear 31 1007 37 10000 1.03 70 11:29 24.07.2022
276 Clear 26 1007 65 6000 2.57 300 09:44 24.07.2022
277 Mist 24 1008 78 4000 2.06 290 07:53 24.07.2022
278 Mist 24 1008 78 4000 2.06 290 07:26 24.07.2022
279 Clear 26 1007 73 6000 1.54 330 02:52 24.07.2022
280 Clear 28 1008 65 10000 5.14 10 22:52 23.07.2022
281 Clear 30 1008 51 10000 5.14 340 20:47 23.07.2022
282 Clear 32 1007 40 10000 6.17 360 19:25 23.07.2022
283 Clear 33 1007 35 10000 6.17 360 18:36 23.07.2022
284 Clear 34 1007 27 10000 5.14 340 17:27 23.07.2022
285 Clear 35 1007 31 10000 5.14 350 16:24 23.07.2022
286 Clear 34 1008 29 10000 4.12 330 15:22 23.07.2022
287 Clear 34 1008 29 10000 4.63 360 14:52 23.07.2022
288 Clear 34 1008 33 10000 3.6 340 14:23 23.07.2022
289 Clear 31 1009 42 10000 2.06 340 11:56 23.07.2022
290 Haze 28 1010 57 4000 2.06 310 10:41 23.07.2022
291 Haze 27 1010 65 4000 2.06 320 09:44 23.07.2022
292 Mist 24 1010 83 4000 3.09 290 07:37 23.07.2022
293 Clear 25 1009 78 10000 2.06 330 03:37 23.07.2022
294 Clear 26 1010 73 10000 3.6 360 00:39 23.07.2022
295 Clear 29 1010 58 10000 6.17 360 21:38 22.07.2022
296 Clear 31 1009 51 10000 5.66 360 20:33 22.07.2022
297 Clear 33 1009 31 10000 4.63 20 18:57 22.07.2022
298 Clear 34 1008 29 10000 6.17 360 17:52 22.07.2022
299 Clear 34 1008 29 10000 5.14 10 16:31 22.07.2022
300 Clear 33 1008 31 10000 3.6 320 13:50 22.07.2022
301 Clear 29 1009 51 10000 2.06 350 10:41 22.07.2022
302 Clouds 26 1010 61 10000 2.06 350 09:25 22.07.2022
303 Clouds 25 1009 65 10000 3.6 350 08:26 22.07.2022
304 Clear 24 1008 78 10000 2.06 10 04:26 22.07.2022
305 Clear 26 1009 69 10000 3.09 310 23:45 21.07.2022
306 Clouds 28 1009 57 10000 3.09 320 22:25 21.07.2022
307 Clouds 29 1009 51 10000 4.12 340 20:48 21.07.2022
308 Clouds 32 1007 43 10000 5.66 340 18:54 21.07.2022
309 Clouds 33 1007 38 10000 5.66 340 17:39 21.07.2022
310 Clear 37 1006 18 10000 8.96 330 17:19 21.07.2022
311 Clouds 33 1007 35 10000 4.63 350 14:52 21.07.2022
312 Clouds 33 1007 35 10000 4.63 320 14:24 21.07.2022
313 Clouds 31 1008 45 10000 3.6 320 12:27 21.07.2022
314 Clouds 30 1008 48 10000 3.09 320 10:48 21.07.2022
315 Clouds 27 1009 65 10000 1.54 280 09:18 21.07.2022
316 Clouds 25 1009 78 10000 2.57 330 08:45 21.07.2022
317 Clear 24 1009 78 10000 2.06 290 07:32 21.07.2022
318 Clear 24 1008 83 10000 2.06 290 03:55 21.07.2022
319 Clear 27 1009 61 10000 2.57 340 00:24 21.07.2022
320 Clear 28 1010 54 10000 5.14 340 22:21 20.07.2022
321 Clear 30 1009 51 10000 5.66 330 20:54 20.07.2022
322 Clouds 32 1009 37 10000 5.66 340 19:50 20.07.2022
323 Clouds 32 1008 43 10000 6.17 340 19:24 20.07.2022
324 Clouds 33 1008 40 10000 6.69 350 18:34 20.07.2022
325 Clouds 34 1007 31 10000 5.14 350 17:59 20.07.2022
326 Clouds 35 1007 29 10000 5.14 20 16:45 20.07.2022
327 Clouds 35 1008 31 10000 3.09 330 15:31 20.07.2022
328 Clear 35 1008 29 10000 2.57 330 14:20 20.07.2022
329 Clear 31 1009 51 10000 3.09 330 11:34 20.07.2022
330 Clear 28 1009 65 6000 2.06 360 08:50 20.07.2022
331 Clear 26 1008 83 10000 1.54 360 03:47 20.07.2022
332 Clear 28 1008 74 10000 3.6 10 00:49 20.07.2022
333 Clear 29 1008 65 10000 2.06 340 23:41 19.07.2022
334 Clear 30 1008 62 10000 4.12 350 22:33 19.07.2022
335 Clear 31 1008 58 10000 5.66 360 21:31 19.07.2022
336 Clear 33 1006 35 10000 5.14 360 20:33 19.07.2022
337 Clear 34 1007 31 10000 3.6 330 18:58 19.07.2022
338 Clear 35 1006 29 10000 4.12 340 18:28 19.07.2022
339 Clear 36 1006 21 10000 3.6 10 16:37 19.07.2022
340 Clear 36 1006 21 10000 4.12 320 14:53 19.07.2022
341 Clear 33 1007 33 10000 2.57 300 11:44 19.07.2022
342 Clear 32 1007 45 6000 2.57 320 10:55 19.07.2022
343 Clear 29 1007 58 6000 1.54 300 09:25 19.07.2022
344 Clear 27 1007 69 6000 1.54 310 08:39 19.07.2022
345 Clear 27 1007 65 6000 1.54 350 07:19 19.07.2022
346 Clear 26 1007 69 6000 1.54 340 05:48 19.07.2022
347 Clear 27 1006 61 10000 1.54 360 04:56 19.07.2022
348 Clear 28 1006 57 10000 1.54 60 01:50 19.07.2022
349 Clear 30 1007 54 10000 3.6 360 23:49 18.07.2022
350 Clear 30 1007 54 10000 3.6 360 23:18 18.07.2022
351 Clear 30 1007 58 10000 4.63 360 22:22 18.07.2022
352 Clear 33 1006 49 10000 5.66 360 20:52 18.07.2022
353 Clear 34 1005 38 10000 4.12 350 19:33 18.07.2022
354 Clear 35 1005 34 10000 4.63 330 17:53 18.07.2022
355 Clear 35 1004 34 10000 5.14 320 16:28 18.07.2022
356 Clear 36 1005 34 10000 3.6 310 15:19 18.07.2022
357 Clear 34 1005 36 10000 3.09 10 13:31 18.07.2022
358 Clear 31 1006 45 10000 2.06 330 11:31 18.07.2022
359 Clear 28 1007 65 10000 1.54 320 09:54 18.07.2022
360 Clouds 24 1007 88 6000 2.06 360 07:49 18.07.2022
361 Clear 25 1007 73 10000 1.54 340 02:51 18.07.2022
362 Clear 28 1008 65 10000 3.09 350 22:55 17.07.2022
363 Clear 29 1008 58 10000 5.14 10 22:29 17.07.2022
364 Clear 29 1008 61 10000 4.12 350 21:35 17.07.2022
365 Clear 30 1007 54 10000 5.14 340 20:45 17.07.2022
366 Clear 32 1007 43 10000 4.63 340 19:49 17.07.2022
367 Clear 33 1006 40 10000 5.66 360 19:20 17.07.2022
368 Clear 34 1006 31 10000 5.66 360 17:42 17.07.2022
369 Clear 34 1006 29 10000 5.14 360 17:22 17.07.2022
370 Clear 34 1006 29 10000 5.14 330 16:32 17.07.2022
371 Clear 35 1006 24 10000 4.63 330 15:49 17.07.2022
372 Clear 35 1007 28 10000 4.63 340 13:51 17.07.2022
373 Clear 33 1007 35 10000 3.6 310 12:42 17.07.2022
374 Clouds 29 1008 54 10000 1.03 330 10:20 17.07.2022
375 Clouds 24 1009 78 10000 2.06 290 06:59 17.07.2022
376 Clouds 25 1008 73 10000 2.57 350 02:35 17.07.2022
377 Clear 26 1009 73 10000 4.63 10 23:26 16.07.2022
378 Clear 27 1009 65 10000 4.63 10 22:33 16.07.2022
379 Clear 30 1008 51 10000 4.63 350 20:40 16.07.2022
380 Clear 31 1007 40 10000 4.63 340 18:58 16.07.2022
381 Clear 32 1007 40 10000 5.14 310 17:47 16.07.2022
382 Clear 32 1007 33 10000 4.12 310 15:54 16.07.2022
383 Clear 30 1009 42 10000 3.09 270 12:37 16.07.2022
384 Clouds 27 1009 54 10000 4.12 300 10:29 16.07.2022
385 Clouds 26 1009 57 10000 2.06 300 09:26 16.07.2022
386 Clouds 26 1009 57 10000 2.57 330 08:41 16.07.2022
387 Clear 25 1009 69 6000 2.57 10 07:23 16.07.2022
388 Clear 25 1008 69 10000 2.57 10 03:35 16.07.2022
389 Clear 26 1009 61 10000 2.57 350 00:48 16.07.2022
390 Clear 27 1009 57 10000 3.09 330 22:57 15.07.2022
391 Clear 28 1009 54 10000 3.6 20 22:26 15.07.2022
392 Clear 30 1008 42 10000 4.63 340 20:44 15.07.2022
393 Clouds 30 1008 42 10000 4.12 350 19:35 15.07.2022
394 Clouds 32 1007 33 10000 3.6 300 18:23 15.07.2022
395 Clouds 32 1007 33 10000 3.6 340 17:19 15.07.2022
396 Clouds 32 1007 29 10000 5.14 280 14:24 15.07.2022
397 Clouds 30 1008 39 10000 1.54 260 12:38 15.07.2022
398 Clear 29 1008 42 10000 0 0 10:53 15.07.2022
399 Clear 24 1009 73 10000 1.54 360 07:55 15.07.2022
400 Clear 23 1008 78 10000 1.54 350 05:54 15.07.2022
401 Clear 24 1008 64 10000 3.6 340 00:47 15.07.2022
402 Clear 25 1009 61 10000 4.63 340 23:25 14.07.2022
403 Clear 25 1009 57 10000 5.14 350 22:42 14.07.2022
404 Clear 27 1008 57 10000 5.66 340 21:42 14.07.2022
405 Clear 27 1008 57 10000 5.66 340 21:24 14.07.2022
406 Clear 27 1008 54 10000 6.17 340 20:43 14.07.2022
407 Clear 28 1008 47 10000 6.17 350 20:19 14.07.2022
408 Clear 31 1007 40 10000 5.66 340 18:41 14.07.2022
409 Clear 33 1007 31 10000 5.14 340 16:21 14.07.2022
410 Clear 33 1007 33 10000 5.14 330 15:26 14.07.2022
411 Clouds 32 1008 37 10000 5.14 310 13:52 14.07.2022
412 Clouds 31 1008 40 10000 4.63 330 12:48 14.07.2022
413 Clouds 30 1009 45 10000 3.6 310 11:41 14.07.2022
414 Clouds 29 1009 45 10000 3.09 320 11:22 14.07.2022
415 Clouds 27 1009 57 10000 3.09 280 09:49 14.07.2022
416 Clouds 23 1010 83 10000 3.09 300 05:25 14.07.2022
417 Clouds 24 1010 73 10000 3.09 320 01:22 14.07.2022
418 Clouds 24 1010 78 10000 5.14 320 00:53 14.07.2022
419 Clear 26 1010 65 10000 5.14 310 22:33 13.07.2022
420 Clear 26 1010 65 10000 5.14 320 21:55 13.07.2022
421 Clear 27 1010 57 10000 5.66 320 20:45 13.07.2022
422 Clear 30 1009 45 10000 5.66 340 19:21 13.07.2022
423 Clear 31 1009 40 10000 5.14 330 17:51 13.07.2022
424 Clear 32 1008 37 10000 5.14 310 16:39 13.07.2022
425 Clear 32 1008 37 10000 5.14 350 15:24 13.07.2022
426 Clear 30 1010 37 10000 3.6 340 12:55 13.07.2022
427 Clouds 27 1011 57 10000 4.12 340 10:45 13.07.2022
428 Clouds 27 1011 57 10000 4.12 340 10:24 13.07.2022
429 Clouds 26 1011 65 10000 5.14 300 09:24 13.07.2022
430 Clouds 24 1011 78 10000 3.09 360 06:20 13.07.2022
431 Clear 25 1011 83 10000 3.6 350 02:38 13.07.2022
432 Clear 26 1011 78 10000 3.6 360 23:51 12.07.2022
433 Clear 27 1011 74 10000 4.63 340 21:58 12.07.2022
434 Clear 28 1011 65 10000 5.66 350 21:32 12.07.2022
435 Clear 29 1011 58 10000 5.14 350 20:41 12.07.2022
436 Clear 31 1010 51 10000 6.69 350 19:28 12.07.2022
437 Clear 33 1009 43 10000 5.66 350 17:54 12.07.2022
438 Clear 33 1010 43 10000 6.69 330 16:20 12.07.2022
439 Clear 33 1010 43 10000 6.69 330 16:20 12.07.2022
440 Clouds 32 1010 43 10000 4.12 340 14:31 12.07.2022
441 Clouds 32 1011 43 10000 4.63 10 13:20 12.07.2022
442 Clouds 29 1012 51 10000 4.12 320 11:37 12.07.2022
443 Clouds 28 1012 57 10000 3.6 320 10:18 12.07.2022
444 Clouds 25 1011 69 10000 1.54 10 08:26 12.07.2022
445 Clouds 24 1011 73 10000 4.12 330 07:38 12.07.2022
446 Clouds 24 1011 78 10000 2.06 350 05:42 12.07.2022
447 Clouds 24 1011 78 10000 3.6 350 03:50 12.07.2022
448 Clear 26 1010 65 10000 3.6 340 23:43 11.07.2022
449 Clear 27 1011 61 10000 5.14 350 22:36 11.07.2022
450 Clear 28 1010 57 10000 5.14 350 20:54 11.07.2022
451 Clear 29 1009 54 10000 5.14 340 20:29 11.07.2022
452 Clouds 31 1008 42 10000 4.63 350 18:39 11.07.2022
453 Clouds 31 1008 42 10000 4.63 340 17:57 11.07.2022
454 Clouds 32 1008 40 10000 4.63 340 16:22 11.07.2022
455 Clouds 31 1008 42 10000 1.54 340 14:58 11.07.2022
456 Clouds 30 1009 42 10000 4.63 360 12:38 11.07.2022
457 Clouds 29 1009 48 10000 3.09 340 10:56 11.07.2022
458 Clouds 27 1009 57 10000 1.54 310 09:54 11.07.2022
459 Clouds 27 1009 57 10000 1.54 310 09:25 11.07.2022
460 Clouds 25 1009 69 10000 3.6 10 08:30 11.07.2022
461 Clear 26 1008 65 10000 3.6 40 00:56 11.07.2022
462 Clear 26 1008 65 10000 4.63 10 23:53 10.07.2022
463 Clear 27 1008 61 10000 6.17 360 22:45 10.07.2022
464 Clear 30 1007 45 10000 5.66 340 20:55 10.07.2022
465 Clear 30 1007 45 10000 5.66 340 20:34 10.07.2022
466 Clouds 31 1006 42 10000 6.69 340 19:29 10.07.2022
467 Clouds 32 1005 43 10000 5.14 320 18:23 10.07.2022
468 Clouds 33 1005 40 10000 4.63 320 17:20 10.07.2022
469 Clouds 33 1005 40 10000 4.63 310 16:21 10.07.2022
470 Clouds 33 1005 43 10000 5.14 320 14:44 10.07.2022
471 Clear 33 1005 40 10000 2.06 310 13:30 10.07.2022
472 Clouds 30 1006 54 10000 1.54 30 11:44 10.07.2022
473 Clouds 27 1006 69 10000 3.09 20 09:45 10.07.2022
474 Clouds 27 1006 65 10000 2.06 360 08:44 10.07.2022
475 Mist 25 1006 83 5000 3.09 340 07:19 10.07.2022
476 Clear 29 1007 48 10000 2.57 340 23:53 09.07.2022
477 Clear 30 1007 45 10000 2.57 360 22:26 09.07.2022
478 Clear 30 1007 45 10000 2.57 360 22:26 09.07.2022
479 Clear 31 1007 40 10000 3.09 10 21:47 09.07.2022
480 Clear 32 1007 33 10000 3.6 350 19:50 09.07.2022
481 Clear 34 1006 31 10000 4.63 340 18:32 09.07.2022
482 Clear 34 1006 29 10000 5.66 350 17:32 09.07.2022
483 Clear 35 1006 29 10000 5.66 340 16:36 09.07.2022
484 Clear 35 1006 29 10000 4.63 350 15:39 09.07.2022
485 Clear 34 1006 31 10000 4.12 330 14:24 09.07.2022
486 Clear 34 1006 31 10000 4.12 340 13:48 09.07.2022
487 Clear 32 1007 37 10000 2.57 330 12:29 09.07.2022
488 Clear 28 1008 61 10000 3.09 330 10:42 09.07.2022
489 Clear 28 1008 61 10000 3.09 330 10:21 09.07.2022
490 Clouds 25 1008 73 10000 2.06 280 07:44 09.07.2022
491 Clouds 24 1008 83 10000 3.6 300 04:53 09.07.2022
492 Clear 25 1008 78 10000 3.6 350 00:43 09.07.2022
493 Clear 27 1008 69 10000 4.12 350 22:42 08.07.2022
494 Clouds 28 1008 61 10000 5.14 340 21:31 08.07.2022
495 Clouds 31 1007 48 10000 5.66 310 20:40 08.07.2022
496 Clouds 31 1006 48 10000 5.14 330 19:48 08.07.2022
497 Clouds 33 1006 43 10000 4.63 340 18:19 08.07.2022
498 Clouds 33 1007 43 10000 3.6 330 16:39 08.07.2022
499 Clouds 33 1007 40 10000 4.63 300 14:51 08.07.2022
500 Clouds 31 1008 45 10000 2.57 260 13:24 08.07.2022
501 Clouds 31 1008 45 10000 2.57 260 13:24 08.07.2022
502 Clouds 29 1008 54 10000 3.6 270 11:28 08.07.2022
503 Clouds 28 1009 57 10000 2.57 290 10:27 08.07.2022
504 Clouds 25 1010 69 10000 2.57 290 08:26 08.07.2022
505 Clouds 24 1008 78 10000 1.54 290 06:47 08.07.2022
506 Clear 26 1009 65 10000 3.6 320 01:19 08.07.2022
507 Clear 28 1009 57 10000 4.63 320 22:57 07.07.2022
508 Clear 28 1009 57 10000 4.63 320 22:27 07.07.2022
509 Clear 33 1008 27 10000 3.09 330 19:53 07.07.2022
510 Clear 33 1007 24 10000 3.6 300 18:18 07.07.2022
511 Clear 34 1007 18 10000 4.12 290 16:46 07.07.2022
512 Clear 34 1007 21 10000 2.57 340 14:32 07.07.2022
513 Clear 34 1008 18 10000 1.54 220 12:53 07.07.2022
514 Clear 32 1008 20 10000 3.09 320 12:23 07.07.2022
515 Clear 32 1009 23 10000 3.6 350 11:44 07.07.2022
516 Clear 32 1008 19 10000 1.96 323 11:24 07.07.2022
517 Clear 28 1008 51 10000 1.96 323 10:40 07.07.2022
518 Clear 28 1009 51 6000 1.54 10 10:22 07.07.2022
519 Clear 25 1008 73 10000 0 0 06:40 07.07.2022
520 Clear 28 1008 58 10000 3.42 28 00:32 07.07.2022
521 Clear 28 1008 58 10000 4.07 30 23:36 06.07.2022
522 Clear 28 1009 58 10000 4.76 27 23:18 06.07.2022
523 Clear 28 1008 57 10000 4.63 20 22:52 06.07.2022
524 Clear 28 1008 57 10000 4.63 20 22:34 06.07.2022
525 Clear 31 1008 45 10000 4.63 350 20:33 06.07.2022
526 Clear 32 1007 27 10000 5.66 350 19:33 06.07.2022
527 Clear 34 1006 24 10000 4.12 310 17:22 06.07.2022
528 Clear 34 1007 22 10000 4.12 340 15:58 06.07.2022
529 Clear 34 1007 22 10000 3.09 340 13:21 06.07.2022
530 Clear 34 1008 22 10000 4.63 300 12:28 06.07.2022
531 Clear 33 1008 25 10000 3.09 320 11:44 06.07.2022
532 Clear 30 1008 42 10000 2.06 10 10:18 06.07.2022
533 Clear 26 1008 73 6000 1.03 20 07:44 06.07.2022
534 Clear 25 1008 78 6000 1.03 10 07:19 06.07.2022
535 Clear 26 1008 73 10000 2.06 10 01:20 06.07.2022
536 Clear 28 1009 65 10000 4.12 10 22:44 05.07.2022
537 Clear 30 1008 62 10000 6.17 360 21:29 05.07.2022
538 Clear 34 1007 24 10000 5.14 350 20:35 05.07.2022
539 Clear 34 1007 24 10000 4.12 340 19:40 05.07.2022
540 Clear 35 1007 21 10000 4.12 330 18:23 05.07.2022
541 Clear 35 1006 20 10000 4.63 340 17:39 05.07.2022
542 Clear 36 1007 19 10000 3.6 310 16:36 05.07.2022
543 Clear 36 1007 16 10000 2.57 310 14:55 05.07.2022
544 Clear 35 1008 23 10000 3.09 330 13:36 05.07.2022
545 Clear 34 1008 26 10000 4.12 340 12:41 05.07.2022
546 Clear 31 1008 42 10000 1.54 320 10:46 05.07.2022
547 Clear 30 1008 54 6000 1.54 320 09:58 05.07.2022
548 Clear 27 1008 74 6000 1.54 300 08:23 05.07.2022
549 Mist 26 1009 83 4000 3.6 290 07:21 05.07.2022
550 Clear 26 1008 78 6000 3.09 330 04:40 05.07.2022
551 Clear 29 1008 54 10000 1.54 330 01:54 05.07.2022
552 Clear 30 1008 45 10000 3.6 60 23:40 04.07.2022
553 Clear 32 1007 43 10000 3.6 40 22:58 04.07.2022
554 Clear 32 1007 43 10000 3.6 40 22:20 04.07.2022
555 Clear 34 1005 26 10000 3.6 360 20:58 04.07.2022
556 Clear 34 1005 26 10000 3.6 360 20:38 04.07.2022
557 Clear 34 1006 25 10000 5 345 20:18 04.07.2022
558 Clear 35 1006 24 10000 3.6 10 19:43 04.07.2022
559 Clear 35 1006 24 10000 3.6 10 19:24 04.07.2022
560 Clear 36 1005 23 10000 3.09 330 17:40 04.07.2022
561 Clouds 36 1005 23 10000 5.14 300 15:42 04.07.2022
562 Clouds 36 1006 19 10000 4.63 310 14:39 04.07.2022
563 Clouds 35 1006 24 10000 1.54 280 13:20 04.07.2022
564 Clear 34 1006 33 6000 1.54 10 11:43 04.07.2022
565 Clear 32 1007 43 6000 3.09 350 10:33 04.07.2022
566 Clear 31 1006 48 6000 1.54 320 09:36 04.07.2022
567 Clear 27 1006 69 10000 1.54 300 06:50 04.07.2022
568 Clear 27 1006 69 10000 1.54 50 03:30 04.07.2022
569 Clear 28 1006 69 10000 2.57 70 00:27 04.07.2022
570 Clear 30 1007 66 10000 4.63 50 22:58 03.07.2022
571 Clear 33 1006 40 10000 5.14 20 20:47 03.07.2022
572 Clear 34 1006 26 10000 4.12 10 20:21 03.07.2022
573 Clear 35 1005 24 10000 4.12 350 19:26 03.07.2022
574 Clear 35 1005 23 10000 3.6 340 18:32 03.07.2022
575 Clear 36 1005 23 10000 3.6 340 17:43 03.07.2022
576 Clear 36 1005 23 10000 4.63 270 15:28 03.07.2022
577 Clear 36 1005 23 10000 4.12 300 14:58 03.07.2022
578 Clear 35 1005 24 10000 2.57 360 13:59 03.07.2022
579 Clear 35 1006 26 10000 3.09 310 13:27 03.07.2022
580 Clear 33 1006 31 6000 1.54 40 12:22 03.07.2022
581 Clear 31 1007 42 6000 1.54 320 11:18 03.07.2022
582 Clear 29 1007 61 6000 1.54 240 10:38 03.07.2022
583 Mist 26 1007 78 3000 1.54 280 08:59 03.07.2022
584 Clear 25 1007 83 6000 2.57 290 07:34 03.07.2022
585 Clear 27 1007 74 10000 2.57 60 01:39 03.07.2022
586 Clear 29 1008 65 10000 3.09 40 23:50 02.07.2022
587 Clear 31 1008 45 10000 4.63 360 22:33 02.07.2022
588 Clear 33 1008 31 10000 5.84 12 20:37 02.07.2022
589 Clear 33 1007 31 10000 4.63 360 19:51 02.07.2022
590 Clear 33 1007 31 10000 4.12 340 19:19 02.07.2022
591 Clear 34 1007 29 10000 4.12 330 17:41 02.07.2022
592 Clear 34 1007 29 10000 3.6 310 16:48 02.07.2022
593 Clear 34 1007 31 10000 2.57 340 13:51 02.07.2022
594 Clear 31 1008 40 10000 1.54 310 12:19 02.07.2022
595 Clouds 30 1009 48 6000 1.54 320 10:54 02.07.2022
596 Clouds 29 1009 58 6000 1.54 280 10:33 02.07.2022
597 Mist 26 1009 73 4000 1.54 360 08:55 02.07.2022
598 Mist 26 1009 73 4000 1.54 360 08:20 02.07.2022
599 Mist 24 1008 83 4000 2.06 10 06:59 02.07.2022
600 Clear 26 1008 73 10000 1.54 60 01:45 02.07.2022
601 Clear 28 1009 65 10000 5.14 360 23:56 01.07.2022
602 Clear 28 1009 65 10000 4.63 350 22:41 01.07.2022
603 Clouds 29 1009 61 10000 6.17 360 21:47 01.07.2022
604 Clouds 29 1009 61 10000 6.17 360 21:27 01.07.2022
605 Clouds 31 1008 40 10000 3.6 340 20:38 01.07.2022
606 Clouds 32 1008 37 10000 4.12 360 19:42 01.07.2022
607 Clouds 33 1007 29 10000 4.12 320 17:53 01.07.2022
608 Clouds 33 1007 31 10000 2.57 350 15:54 01.07.2022
609 Clouds 31 1008 40 10000 2.57 320 13:54 01.07.2022
610 Clouds 31 1008 40 10000 2.57 300 12:41 01.07.2022
611 Clouds 28 1009 57 6000 1.54 280 10:20 01.07.2022
612 Clouds 28 1009 57 6000 1.54 280 10:20 01.07.2022
613 Clouds 28 1009 57 6000 1.54 280 10:20 01.07.2022
614 Clouds 27 1009 65 6000 1.54 290 09:43 01.07.2022
615 Clear 25 1008 78 6000 3.09 10 04:49 01.07.2022
616 Clouds 27 1008 69 10000 3.09 10 00:26 01.07.2022
617 Clear 28 1009 65 10000 4.12 360 23:22 30.06.2022
618 Clear 28 1009 65 10000 4.12 360 22:44 30.06.2022
619 Clear 28 1009 65 10000 5.14 10 22:25 30.06.2022
620 Clear 29 1008 61 10000 5.14 340 21:45 30.06.2022
621 Clear 30 1007 45 10000 4.12 340 20:30 30.06.2022
622 Clear 31 1007 42 10000 4.63 350 19:54 30.06.2022
623 Clear 32 1007 37 10000 4.12 340 19:25 30.06.2022
624 Clouds 32 1007 37 10000 3.6 330 18:42 30.06.2022
625 Clouds 32 1006 37 10000 4.12 320 17:44 30.06.2022
626 Clouds 32 1006 37 10000 3.6 300 16:55 30.06.2022
627 Clouds 32 1006 37 10000 4.12 320 15:42 30.06.2022
628 Clouds 33 1007 33 10000 4.12 270 13:36 30.06.2022
629 Clouds 31 1007 42 10000 4.12 250 12:35 30.06.2022
630 Clouds 31 1008 42 10000 4.12 260 11:43 30.06.2022
631 Clouds 27 1008 69 6000 1.54 290 09:55 30.06.2022
632 Clouds 27 1008 69 6000 1.54 290 09:35 30.06.2022
633 Clouds 26 1008 73 6000 2.06 300 08:19 30.06.2022
634 Clouds 25 1008 78 6000 2.57 300 07:24 30.06.2022
635 Clouds 27 1007 69 10000 1.54 50 02:38 30.06.2022
636 Clouds 27 1008 69 10000 3.6 30 23:36 29.06.2022
637 Clouds 28 1008 65 10000 4.63 10 22:41 29.06.2022
638 Clouds 28 1008 65 10000 6.69 360 21:43 29.06.2022
639 Clear 30 1007 58 10000 7.2 330 20:34 29.06.2022
640 Clear 32 1007 29 10000 3.6 340 19:48 29.06.2022
641 Clear 33 1006 29 10000 3.09 320 17:54 29.06.2022
642 Clear 34 1007 26 10000 2.06 290 16:51 29.06.2022
643 Clear 34 1007 26 10000 2.06 290 16:51 29.06.2022
644 Clear 34 1007 27 10000 2.57 350 15:32 29.06.2022
645 Clear 32 1007 31 10000 2.57 320 13:36 29.06.2022
646 Clear 31 1008 35 10000 3.09 250 12:24 29.06.2022
647 Clouds 26 1009 61 10000 1.54 310 09:43 29.06.2022
648 Clouds 26 1009 61 10000 1.54 310 09:21 29.06.2022
649 Clouds 24 1008 78 6000 1.54 360 06:27 29.06.2022
650 Clear 26 1008 73 10000 2.57 340 02:21 29.06.2022
651 Clear 26 1008 73 10000 3.09 360 00:52 29.06.2022
652 Clear 26 1008 73 10000 3.09 360 00:33 29.06.2022
653 Clear 28 1009 57 10000 5.14 360 22:49 28.06.2022
654 Clear 29 1009 54 10000 4.63 360 21:57 28.06.2022
655 Clear 30 1008 51 10000 4.63 360 21:38 28.06.2022
656 Clear 30 1008 48 10000 4.63 360 20:57 28.06.2022
657 Clear 32 1007 35 10000 3.6 330 19:50 28.06.2022
658 Clear 32 1007 37 10000 3.6 310 19:24 28.06.2022
659 Clear 33 1006 33 10000 4.12 330 18:37 28.06.2022
660 Clear 33 1006 31 10000 4.12 330 16:47 28.06.2022
661 Clear 33 1006 31 10000 4.63 340 15:54 28.06.2022
662 Clear 32 1007 35 10000 2.57 330 14:48 28.06.2022
663 Clear 32 1007 33 10000 3.09 320 14:18 28.06.2022
664 Clear 32 1007 33 10000 3.09 320 13:45 28.06.2022
665 Clear 31 1008 35 10000 4.12 290 12:28 28.06.2022
666 Clear 27 1008 54 10000 2.06 290 09:53 28.06.2022
667 Clouds 25 1008 65 10000 2.57 310 08:55 28.06.2022
668 Clouds 24 1008 73 10000 2.06 290 08:26 28.06.2022
669 Clouds 24 1008 73 10000 2.06 310 07:20 28.06.2022
670 Clear 23 1008 78 10000 2.57 320 03:38 28.06.2022
671 Clear 26 1009 65 10000 4.63 300 23:51 27.06.2022
672 Clear 27 1009 57 10000 3.6 300 23:25 27.06.2022
673 Clear 28 1010 47 10000 5.14 320 21:53 27.06.2022
674 Clear 29 1009 48 10000 4.63 330 21:22 27.06.2022
675 Clear 31 1009 37 10000 4.63 330 20:21 27.06.2022
676 Clear 32 1008 35 10000 5.66 300 18:50 27.06.2022
677 Clear 33 1008 31 10000 5.66 310 17:33 27.06.2022
678 Clear 34 1008 27 10000 5.66 320 15:50 27.06.2022
679 Clear 37 1008 15 10000 8.85 304 14:18 27.06.2022
680 Clear 32 1010 35 10000 5.14 270 12:58 27.06.2022
681 Clear 31 1011 40 10000 4.63 280 11:40 27.06.2022
682 Clear 29 1011 45 10000 2.57 360 09:45 27.06.2022
683 Clear 28 1011 47 10000 2.06 350 08:43 27.06.2022
684 Clear 27 1011 61 10000 1.54 280 07:49 27.06.2022
685 Clear 25 1011 69 10000 1.03 270 05:50 27.06.2022
686 Clear 27 1011 54 6000 2.57 300 01:24 27.06.2022
687 Clear 29 1012 45 10000 2.06 350 23:22 26.06.2022
688 Clear 30 1011 37 10000 4.63 360 21:39 26.06.2022
689 Clear 32 1010 33 10000 5.14 350 20:33 26.06.2022
690 Clear 34 1009 26 10000 5.66 360 18:34 26.06.2022
691 Clear 34 1009 26 10000 5.14 360 17:47 26.06.2022
692 Clear 34 1009 24 10000 4.63 340 15:37 26.06.2022
693 Clear 33 1010 27 10000 4.63 330 14:23 26.06.2022
694 Clear 32 1010 29 10000 3.09 330 13:26 26.06.2022
695 Clear 31 1011 30 10000 3.09 320 11:49 26.06.2022
696 Clear 29 1011 39 10000 3.09 330 10:42 26.06.2022
697 Clear 28 1011 44 10000 1.54 310 10:22 26.06.2022
698 Clouds 25 1011 65 10000 1.54 360 08:36 26.06.2022
699 Clouds 24 1011 73 10000 2.57 360 06:31 26.06.2022
700 Clear 26 1011 57 10000 4.12 10 00:38 26.06.2022
701 Clear 26 1011 57 10000 4.12 10 00:19 26.06.2022
702 Clear 26 1011 53 10000 5.14 10 23:31 25.06.2022
703 Clear 27 1011 50 10000 5.14 10 22:48 25.06.2022
704 Clear 27 1011 50 10000 5.66 20 22:25 25.06.2022
705 Clear 28 1010 44 10000 6.17 10 21:21 25.06.2022
706 Clear 28 1010 44 10000 5.66 20 20:48 25.06.2022
707 Clear 29 1010 42 10000 7.2 10 20:25 25.06.2022
708 Clouds 32 1008 33 10000 5.66 350 18:26 25.06.2022
709 Clouds 33 1009 29 10000 6.69 360 17:27 25.06.2022
710 Clouds 33 1008 33 10000 5.66 340 16:29 25.06.2022
711 Clouds 33 1008 35 10000 5.66 330 14:43 25.06.2022
712 Clear 32 1008 35 10000 4.12 310 12:51 25.06.2022
713 Clear 32 1009 37 10000 5.14 310 12:32 25.06.2022
714 Clear 29 1009 54 10000 3.6 300 09:35 25.06.2022
715 Clouds 28 1009 65 6000 4.12 300 08:55 25.06.2022
716 Clouds 26 1008 78 6000 4.12 300 08:25 25.06.2022
717 Clouds 25 1008 83 6000 3.09 300 06:36 25.06.2022
718 Clear 30 1007 37 10000 5.66 300 01:31 25.06.2022
719 Clear 32 1007 35 10000 0 0 00:20 25.06.2022
720 Clear 32 1008 35 10000 2.06 320 22:29 24.06.2022
721 Clear 33 1007 35 10000 4.63 340 21:28 24.06.2022
722 Clear 34 1007 33 10000 5.66 320 20:24 24.06.2022
723 Clear 34 1007 36 10000 4.63 320 19:43 24.06.2022
724 Clear 35 1007 29 10000 5.14 310 19:18 24.06.2022
725 Clear 35 1007 29 10000 5.14 290 18:46 24.06.2022
726 Clear 36 1006 28 10000 5.14 310 18:28 24.06.2022
727 Clear 37 1006 26 10000 5.14 320 16:48 24.06.2022
728 Clear 37 1007 25 10000 4.12 300 15:27 24.06.2022
729 Clear 35 1008 28 10000 4.12 330 14:25 24.06.2022
730 Clear 35 1008 28 10000 4.12 330 13:46 24.06.2022
731 Clear 33 1009 31 10000 2.57 310 11:42 24.06.2022
732 Clear 31 1009 40 6000 3.6 340 10:42 24.06.2022
733 Clear 30 1010 42 6000 2.06 360 09:42 24.06.2022
734 Haze 29 1010 58 4000 0 0 08:54 24.06.2022
735 Haze 29 1010 58 4000 0 0 08:32 24.06.2022
736 Haze 26 1010 73 3000 1.03 50 06:45 24.06.2022
737 Haze 26 1010 73 3000 0 0 06:26 24.06.2022
738 Clear 25 1010 78 6000 1.54 340 04:50 24.06.2022
739 Clear 29 1009 54 10000 3.09 320 23:43 23.06.2022
740 Clear 30 1010 51 10000 3.09 20 22:43 23.06.2022
741 Clear 32 1010 37 10000 5.66 360 21:40 23.06.2022
742 Clear 32 1009 51 10000 7.2 360 20:42 23.06.2022
743 Clear 35 1009 23 10000 4.63 360 19:57 23.06.2022
744 Clear 35 1008 23 10000 5.66 350 18:43 23.06.2022
745 Clear 36 1008 19 10000 6.17 350 17:37 23.06.2022
746 Clear 36 1007 20 10000 5.14 340 16:32 23.06.2022
747 Clear 36 1008 21 10000 5.14 10 15:26 23.06.2022
748 Clear 35 1008 23 10000 4.63 360 14:45 23.06.2022
749 Clouds 32 1009 35 10000 1.54 290 11:49 23.06.2022
750 Clouds 31 1010 37 6000 1.54 60 10:42 23.06.2022
751 Haze 27 1010 61 4000 0 0 09:19 23.06.2022
752 Clouds 23 1008 88 6000 1.54 290 05:48 23.06.2022
753 Clear 25 1008 69 10000 3.09 340 01:21 23.06.2022
754 Clear 26 1009 61 10000 4.12 330 00:18 23.06.2022
755 Clear 27 1008 57 10000 4.12 320 23:22 22.06.2022
756 Clear 24 1008 69 10000 4.63 330 21:44 22.06.2022
757 Clear 29 1008 51 10000 4.63 330 20:52 22.06.2022
758 Clouds 31 1007 40 10000 5.14 320 20:20 22.06.2022
759 Clouds 31 1007 40 10000 5.14 320 19:43 22.06.2022
760 Clouds 32 1006 35 10000 6.17 320 17:40 22.06.2022
761 Clouds 33 1006 31 10000 5.66 340 16:43 22.06.2022
762 Clouds 33 1006 33 10000 5.66 330 15:29 22.06.2022
763 Clouds 33 1006 35 10000 4.63 310 14:51 22.06.2022
764 Clouds 33 1007 33 10000 5.14 320 13:48 22.06.2022
765 Clouds 31 1007 42 10000 5.14 280 13:24 22.06.2022
766 Clouds 31 1007 42 10000 5.14 280 12:31 22.06.2022
767 Clouds 30 1007 45 10000 4.12 310 11:45 22.06.2022
768 Clouds 30 1007 45 10000 4.12 310 11:45 22.06.2022
769 Clouds 28 1008 54 10000 3.6 300 10:47 22.06.2022
770 Clouds 27 1008 57 10000 4.63 300 09:42 22.06.2022
771 Clouds 24 1008 78 6000 4.63 270 07:22 22.06.2022
772 Clear 24 1009 64 10000 4.12 310 02:39 22.06.2022
773 Clear 25 1009 41 10000 4.12 310 00:57 22.06.2022
774 Clear 25 1009 41 10000 4.12 310 00:57 22.06.2022
775 Clear 26 1010 38 10000 4.63 310 22:57 21.06.2022
776 Clear 27 1010 44 10000 4.63 340 21:21 21.06.2022
777 Clear 29 1009 37 10000 6.17 330 19:30 21.06.2022
778 Clear 29 1009 37 10000 6.17 330 19:30 21.06.2022
779 Clear 30 1008 35 10000 6.17 330 17:56 21.06.2022
780 Clear 32 1008 29 10000 6.69 320 16:49 21.06.2022
781 Clear 30 1010 35 10000 5.14 310 12:23 21.06.2022
782 Clear 29 1011 39 10000 3.09 290 10:47 21.06.2022
783 Clear 26 1011 57 10000 1.54 360 09:35 21.06.2022
784 Clear 24 1011 69 10000 2.06 340 07:56 21.06.2022
785 Clear 22 1011 83 10000 2.57 80 04:59 21.06.2022
786 Clear 24 1013 64 10000 3.09 350 00:35 21.06.2022
787 Clear 26 1013 57 10000 4.12 10 22:22 20.06.2022
788 Clear 26 1013 57 10000 4.63 360 21:41 20.06.2022
789 Clear 29 1012 42 10000 6.17 350 20:30 20.06.2022
790 Clear 30 1011 37 10000 6.69 350 19:37 20.06.2022
791 Clear 30 1011 39 10000 5.66 340 18:44 20.06.2022
792 Clear 32 1011 31 10000 5.66 360 17:50 20.06.2022
793 Clear 33 1011 29 10000 7.2 10 16:55 20.06.2022
794 Clear 33 1011 31 10000 4.63 340 15:52 20.06.2022
795 Clear 30 1012 37 10000 3.09 330 12:38 20.06.2022
796 Clear 27 1013 50 10000 2.06 300 10:32 20.06.2022
797 Clear 24 1013 64 10000 3.09 30 08:57 20.06.2022
798 Clear 24 1013 64 10000 3.09 30 08:57 20.06.2022
799 Clear 24 1013 64 10000 3.09 30 08:21 20.06.2022
800 Clear 23 1012 68 10000 3.09 20 05:35 20.06.2022
801 Clear 24 1012 64 10000 3.09 10 01:44 20.06.2022
802 Clear 25 1012 61 10000 4.12 360 00:26 20.06.2022
803 Clear 26 1012 57 10000 5.14 10 22:50 19.06.2022
804 Clear 27 1012 57 10000 6.17 10 21:57 19.06.2022
805 Clear 28 1012 51 10000 6.17 10 21:39 19.06.2022
806 Clear 30 1011 42 10000 6.17 20 20:38 19.06.2022
807 Clear 31 1010 35 10000 6.17 10 19:47 19.06.2022
808 Clear 32 1010 29 10000 4.63 350 18:45 19.06.2022
809 Clear 32 1010 29 10000 5.14 20 17:54 19.06.2022
810 Clear 33 1009 25 10000 4.12 330 17:22 19.06.2022
811 Clear 33 1010 25 10000 3.6 330 16:35 19.06.2022
812 Clear 32 1010 25 10000 5.14 340 15:41 19.06.2022
813 Clear 32 1010 27 10000 4.63 320 14:57 19.06.2022
814 Clear 32 1010 27 10000 4.63 320 14:20 19.06.2022
815 Clear 31 1010 30 10000 3.6 350 13:23 19.06.2022
816 Clear 28 1011 44 10000 0 0 11:21 19.06.2022
817 Clear 27 1011 50 10000 0 0 10:31 19.06.2022
818 Clouds 24 1012 69 10000 2.57 340 08:49 19.06.2022
819 Clouds 24 1012 69 10000 2.57 340 08:19 19.06.2022
820 Clouds 22 1011 83 10000 3.09 30 05:42 19.06.2022
821 Clouds 23 1011 73 10000 2.57 330 02:26 19.06.2022
822 Clear 24 1011 69 10000 3.09 340 00:25 19.06.2022
823 Clear 25 1011 57 10000 6.17 360 23:36 18.06.2022
824 Clear 25 1011 57 10000 5.66 350 22:45 18.06.2022
825 Clear 27 1010 54 10000 5.66 350 21:38 18.06.2022
826 Clear 29 1009 42 10000 6.17 340 20:42 18.06.2022
827 Clouds 31 1009 37 10000 6.17 350 19:40 18.06.2022
828 Clouds 32 1008 33 10000 5.66 340 18:54 18.06.2022
829 Clouds 33 1008 29 10000 5.14 330 17:43 18.06.2022
830 Clouds 33 1008 29 10000 9.08 339 17:22 18.06.2022
831 Clear 33 1008 29 10000 4.63 350 15:37 18.06.2022
832 Clear 33 1008 29 10000 4.63 360 14:48 18.06.2022
833 Clouds 33 1008 31 10000 4.12 340 13:42 18.06.2022
834 Clouds 30 1009 45 10000 3.6 350 11:58 18.06.2022
835 Clear 29 1010 51 10000 4.12 350 10:56 18.06.2022
836 Clouds 26 1010 65 6000 3.09 10 09:28 18.06.2022
837 Clouds 25 1010 73 6000 3.09 350 08:32 18.06.2022
838 Clouds 24 1010 78 6000 3.6 350 07:23 18.06.2022
839 Mist 24 1009 78 4000 3.6 340 03:58 18.06.2022
840 Clear 24 1010 83 10000 3.09 340 01:27 18.06.2022
841 Clear 25 1010 78 10000 3.6 350 00:50 18.06.2022
842 Clear 25 1010 78 10000 3.6 350 00:21 18.06.2022
843 Clear 26 1010 65 10000 4.12 350 23:29 17.06.2022
844 Clear 27 1010 57 10000 5.66 10 21:44 17.06.2022
845 Clear 29 1010 48 10000 6.17 10 20:29 17.06.2022
846 Clear 30 1009 48 10000 6.69 350 18:59 17.06.2022
847 Clear 33 1008 33 10000 7.72 10 17:47 17.06.2022
848 Clear 33 1008 33 10000 7.2 360 16:43 17.06.2022
849 Clear 33 1008 33 10000 7.2 360 16:19 17.06.2022
850 Clear 33 1008 33 10000 6.69 340 15:37 17.06.2022
851 Clear 34 1009 33 10000 5.66 350 14:22 17.06.2022
852 Clear 33 1009 35 10000 6.17 360 13:57 17.06.2022
853 Clear 33 1009 35 10000 6.17 360 13:37 17.06.2022
854 Clear 31 1009 40 10000 6.17 10 12:20 17.06.2022
855 Clear 29 1010 51 10000 5.14 360 11:49 17.06.2022
856 Clear 29 1010 51 10000 5.14 360 11:30 17.06.2022
857 Clouds 26 1011 65 10000 4.63 350 08:45 17.06.2022
858 Clouds 25 1011 69 10000 5.14 360 08:24 17.06.2022
859 Clouds 24 1011 73 10000 5.14 10 06:35 17.06.2022
860 Clouds 24 1011 73 10000 5.14 10 03:25 17.06.2022
861 Clouds 24 1011 78 10000 5.66 10 01:27 17.06.2022
862 Clouds 26 1012 69 10000 6.17 10 23:34 16.06.2022
863 Clear 26 1012 69 10000 7.2 360 22:40 16.06.2022
864 Clear 27 1011 65 10000 6.69 20 21:21 16.06.2022
865 Clear 28 1011 57 10000 7.2 40 20:50 16.06.2022
866 Clear 28 1011 57 10000 6.17 40 20:21 16.06.2022
867 Clouds 30 1010 48 10000 7.72 30 19:31 16.06.2022
868 Clouds 32 1009 37 10000 7.2 20 17:54 16.06.2022
869 Clouds 32 1009 31 10000 6.69 20 17:33 16.06.2022
870 Clouds 32 1009 33 10000 7.2 10 16:24 16.06.2022
871 Clouds 33 1010 33 10000 6.69 30 15:21 16.06.2022
872 Clouds 32 1010 37 10000 6.17 10 14:27 16.06.2022
873 Clouds 31 1011 42 10000 6.17 350 12:56 16.06.2022
874 Clouds 30 1011 45 10000 5.14 30 12:34 16.06.2022
875 Clouds 29 1011 48 10000 5.14 10 11:48 16.06.2022
876 Clouds 28 1011 54 10000 5.14 10 10:42 16.06.2022
877 Clouds 26 1011 65 10000 4.63 50 09:43 16.06.2022
878 Clouds 26 1011 65 10000 4.12 50 09:19 16.06.2022
879 Clouds 24 1012 73 6000 5.14 50 07:57 16.06.2022
880 Clouds 24 1011 78 6000 4.63 40 06:49 16.06.2022
881 Clouds 23 1011 83 10000 3.6 10 04:28 16.06.2022
882 Clouds 24 1012 78 10000 3.09 40 01:53 16.06.2022
883 Clouds 25 1012 73 10000 3.09 50 01:32 16.06.2022
884 Clouds 25 1012 73 10000 3.09 50 00:36 16.06.2022
885 Clouds 26 1013 69 10000 4.63 40 23:23 15.06.2022
886 Clouds 27 1013 61 10000 5.66 20 21:59 15.06.2022
887 Clouds 27 1013 61 10000 6.17 10 21:20 15.06.2022
888 Clouds 28 1012 61 10000 7.2 10 20:38 15.06.2022
889 Clouds 28 1012 61 10000 7.72 10 20:19 15.06.2022
890 Clouds 31 1011 45 10000 6.69 20 18:51 15.06.2022
891 Clouds 32 1011 37 10000 6.17 30 17:55 15.06.2022
892 Clouds 33 1011 31 10000 5.14 340 16:38 15.06.2022
893 Clouds 32 1011 35 10000 3.6 350 15:26 15.06.2022
894 Clear 31 1012 37 10000 3.6 20 13:43 15.06.2022
895 Clear 31 1012 40 10000 3.6 360 12:53 15.06.2022
896 Clear 31 1012 37 10000 2.57 330 11:48 15.06.2022
897 Clear 28 1013 51 10000 3.09 20 10:23 15.06.2022
898 Clouds 26 1013 61 10000 2.57 40 09:38 15.06.2022
899 Clouds 25 1013 69 10000 3.6 50 08:27 15.06.2022
900 Clear 24 1012 78 6000 3.6 30 06:33 15.06.2022
901 Clear 25 1011 73 10000 2.06 70 03:45 15.06.2022
902 Clear 25 1011 69 10000 3.6 40 01:53 15.06.2022
903 Clear 26 1012 69 10000 3.6 60 00:50 15.06.2022
904 Clear 27 1012 61 10000 5.14 40 23:39 14.06.2022
905 Clear 27 1012 61 10000 5.14 40 23:18 14.06.2022
906 Clear 28 1012 57 10000 3.6 30 22:18 14.06.2022
907 Clear 28 1012 51 10000 5.66 20 21:33 14.06.2022
908 Clear 29 1011 51 10000 6.69 10 20:48 14.06.2022
909 Clear 29 1010 51 10000 6.17 350 20:28 14.06.2022
910 Clouds 31 1009 35 10000 5.14 330 18:56 14.06.2022
911 Clouds 32 1009 29 10000 5.66 350 17:40 14.06.2022
912 Clouds 33 1009 29 10000 5.14 290 16:43 14.06.2022
913 Clouds 33 1009 27 10000 4.12 300 15:50 14.06.2022
914 Clouds 33 1009 27 10000 4.12 300 15:50 14.06.2022
915 Clouds 32 1009 29 10000 5.14 290 15:22 14.06.2022
916 Clouds 33 1009 29 10000 4.12 320 14:32 14.06.2022
917 Clear 33 1010 29 10000 5.66 280 13:41 14.06.2022
918 Clear 32 1010 29 10000 4.12 310 12:42 14.06.2022
919 Clear 30 1011 37 10000 4.12 30 11:32 14.06.2022
920 Clear 31 1011 35 10000 4.12 300 10:47 14.06.2022
921 Clear 29 1010 42 10000 2.57 330 09:48 14.06.2022
922 Clear 28 1010 47 10000 2.06 330 08:47 14.06.2022
923 Clear 27 1010 57 10000 0 0 07:33 14.06.2022
924 Clear 25 1009 65 10000 1.54 90 05:21 14.06.2022
925 Clear 25 1009 69 10000 2.06 50 02:57 14.06.2022
926 Clear 26 1010 65 10000 3.09 60 00:32 14.06.2022
927 Clear 26 1010 65 10000 4.12 60 23:39 13.06.2022
928 Clear 27 1010 61 10000 4.12 60 22:26 13.06.2022
929 Clear 27 1010 61 10000 4.12 50 21:50 13.06.2022
930 Clear 29 1009 51 10000 6.17 360 20:42 13.06.2022
931 Clouds 31 1008 35 10000 3.09 350 19:35 13.06.2022
932 Clouds 31 1008 33 10000 3.6 320 18:28 13.06.2022
933 Clouds 31 1008 33 10000 4.63 330 17:47 13.06.2022
934 Clouds 31 1008 35 10000 4.63 320 16:52 13.06.2022
935 Clouds 31 1008 35 10000 5.14 320 15:39 13.06.2022
936 Clouds 31 1009 35 10000 4.12 290 14:47 13.06.2022
937 Clouds 30 1009 35 10000 4.63 300 13:55 13.06.2022
938 Clouds 30 1009 37 10000 3.09 310 12:49 13.06.2022
939 Clouds 29 1010 39 10000 1.54 280 11:37 13.06.2022
940 Clouds 27 1010 44 10000 1.54 350 10:27 13.06.2022
941 Clouds 26 1009 50 10000 1.54 350 09:42 13.06.2022
942 Clouds 25 1009 65 10000 1.54 130 08:24 13.06.2022
943 Clear 23 1009 73 10000 2.57 30 06:33 13.06.2022
944 Clear 24 1008 69 6000 2.57 10 03:28 13.06.2022
945 Clear 25 1009 61 10000 3.09 10 01:38 13.06.2022
946 Clear 26 1009 53 10000 3.6 350 00:22 13.06.2022
947 Clear 26 1009 53 10000 3.6 350 23:31 12.06.2022
948 Clear 27 1009 50 10000 4.12 340 22:23 12.06.2022
949 Clear 27 1009 47 10000 5.66 310 21:39 12.06.2022
950 Clear 28 1009 47 10000 4.63 320 20:39 12.06.2022
951 Clouds 30 1008 39 10000 5.14 330 19:41 12.06.2022
952 Clouds 31 1007 37 10000 5.66 320 18:43 12.06.2022
953 Clouds 32 1007 35 10000 5.14 310 16:44 12.06.2022
954 Clouds 33 1007 31 10000 5.14 300 15:32 12.06.2022
955 Clear 32 1007 31 10000 4.63 280 14:33 12.06.2022
956 Clear 33 1008 25 10000 5.14 290 13:57 12.06.2022
957 Clear 33 1008 27 10000 4.63 300 13:38 12.06.2022
958 Clear 30 1009 37 10000 3.09 330 11:48 12.06.2022
959 Clear 30 1009 37 10000 2.06 350 10:46 12.06.2022
960 Clear 28 1009 39 10000 3.09 350 09:36 12.06.2022
961 Clear 28 1009 44 10000 2.06 310 08:49 12.06.2022
962 Clear 28 1009 32 10000 1.03 330 07:47 12.06.2022
963 Clear 25 1009 65 10000 1.54 30 05:51 12.06.2022
964 Clear 26 1009 53 10000 2.06 10 03:38 12.06.2022
965 Clear 26 1009 53 10000 2.06 10 03:38 12.06.2022
966 Clear 27 1009 50 10000 2.57 360 01:44 12.06.2022
967 Clear 27 1009 50 10000 2.06 330 00:59 12.06.2022
968 Clear 28 1010 44 10000 4.12 340 00:36 12.06.2022
969 Clear 28 1010 44 10000 4.12 340 00:18 12.06.2022
970 Clear 29 1010 37 6000 5.14 340 22:53 11.06.2022
971 Clear 29 1010 54 6000 5.14 340 22:29 11.06.2022
972 Clear 32 1009 43 6000 7.2 310 20:55 11.06.2022
973 Clear 36 1008 30 6000 8.23 310 20:26 11.06.2022
974 Clear 39 1007 18 10000 6.17 300 19:33 11.06.2022
975 Clear 42 1006 9 10000 1.54 330 18:37 11.06.2022
976 Clear 42 1006 9 10000 1.54 330 18:37 11.06.2022
977 Clear 43 1006 9 10000 1.54 280 17:58 11.06.2022
978 Clear 43 1006 8 10000 1.54 270 17:38 11.06.2022
979 Clear 43 1006 8 10000 1.54 180 17:19 11.06.2022
980 Clear 43 1007 8 10000 2.57 280 16:38 11.06.2022
981 Clear 42 1007 9 10000 1.54 320 15:47 11.06.2022
982 Clear 41 1008 9 10000 2.06 340 14:23 11.06.2022
983 Clear 41 1008 10 10000 1.54 270 13:47 11.06.2022
984 Clear 38 1009 13 10000 2.06 310 11:36 11.06.2022
985 Clear 37 1009 12 10000 1.54 310 10:30 11.06.2022
986 Clear 37 1009 11 10000 1.54 140 09:40 11.06.2022
987 Clear 35 1009 16 10000 3.6 110 08:21 11.06.2022
988 Clear 28 1009 30 10000 0.51 320 06:32 11.06.2022
989 Clear 27 1009 34 10000 1.54 50 05:26 11.06.2022
990 Clear 27 1009 41 10000 3.6 80 02:42 11.06.2022
991 Clear 28 1010 36 10000 2.57 80 01:41 11.06.2022
992 Clear 28 1011 34 10000 2.57 70 00:54 11.06.2022
993 Clear 29 1012 37 10000 4.12 60 22:55 10.06.2022
994 Clear 29 1012 34 10000 5.14 60 22:20 10.06.2022
995 Clear 30 1012 32 10000 5.14 50 21:22 10.06.2022
996 Clear 31 1011 37 10000 5.66 50 20:37 10.06.2022
997 Clear 31 1011 37 10000 5.66 50 20:19 10.06.2022
998 Clear 33 1010 31 10000 7.2 30 19:19 10.06.2022
999 Clear 36 1010 23 10000 5.14 350 18:29 10.06.2022
1000 Clear 38 1009 18 10000 5.66 350 17:42 10.06.2022
1001 Clear 38 1009 17 10000 4.12 300 16:59 10.06.2022
1002 Clear 38 1009 17 10000 4.12 300 16:23 10.06.2022
1003 Clear 38 1010 17 10000 3.6 330 15:37 10.06.2022
1004 Clear 38 1010 17 10000 4.12 350 13:55 10.06.2022
1005 Clear 37 1010 18 10000 4.12 330 12:50 10.06.2022
1006 Clear 36 1011 20 10000 3.09 360 11:43 10.06.2022
1007 Clear 35 1011 21 10000 2.57 10 10:45 10.06.2022
1008 Clear 34 1011 26 10000 2.06 30 09:48 10.06.2022
1009 Clear 31 1011 40 10000 2.57 40 08:42 10.06.2022
1010 Clear 28 1011 51 10000 2.57 50 07:26 10.06.2022
1011 Clear 27 1010 54 10000 3.09 70 06:44 10.06.2022
1012 Clear 27 1010 54 10000 3.09 70 06:25 10.06.2022
1013 Clear 26 1010 61 10000 3.09 50 03:55 10.06.2022
1014 Clear 27 1010 50 10000 4.12 50 01:41 10.06.2022
1015 Clear 28 1010 47 10000 3.6 50 00:32 10.06.2022
1016 Clear 28 1010 47 10000 3.6 50 23:47 09.06.2022
1017 Clear 30 1011 39 10000 4.63 50 22:18 09.06.2022
1018 Clear 30 1010 42 10000 5.14 40 21:33 09.06.2022
1019 Clear 31 1010 42 10000 5.14 50 20:54 09.06.2022
1020 Clear 32 1009 43 10000 7.2 10 20:21 09.06.2022
1021 Clear 35 1008 34 10000 8.75 10 19:21 09.06.2022
1022 Clear 39 1007 16 10000 4.63 340 18:34 09.06.2022
1023 Clear 40 1006 15 10000 3.6 320 16:56 09.06.2022
1024 Clear 40 1007 12 10000 2.06 270 15:49 09.06.2022
1025 Clear 40 1008 11 10000 5.14 230 14:38 09.06.2022
1026 Clear 40 1008 13 10000 3.6 260 13:54 09.06.2022
1027 Clear 40 1008 13 10000 2.57 230 13:28 09.06.2022
1028 Clear 38 1009 17 10000 4.12 220 11:54 09.06.2022
1029 Clear 37 1010 19 10000 3.6 250 11:19 09.06.2022
1030 Clear 34 1010 27 6000 1.54 310 09:50 09.06.2022
1031 Clear 32 1010 25 6000 0 0 09:31 09.06.2022
1032 Clear 28 1010 39 10000 2.06 10 07:56 09.06.2022
1033 Clear 28 1009 39 10000 2.06 310 06:41 09.06.2022
1034 Clear 29 1008 37 10000 0 0 03:22 09.06.2022
1035 Clear 28 1011 44 10000 4.12 70 23:49 08.06.2022
1036 Clear 29 1011 45 10000 4.63 50 22:58 08.06.2022
1037 Clear 29 1011 45 10000 5.14 50 22:27 08.06.2022
1038 Clear 29 1011 48 10000 5.14 50 21:56 08.06.2022
1039 Clear 30 1011 42 10000 5.66 50 21:23 08.06.2022
1040 Clear 34 1010 27 10000 5.14 40 20:22 08.06.2022
1041 Clear 34 1010 27 10000 5.14 40 19:39 08.06.2022
1042 Clear 35 1010 24 10000 3.6 340 18:48 08.06.2022
1043 Clear 35 1009 21 10000 3.6 330 17:30 08.06.2022
1044 Clear 36 1009 21 10000 4.12 320 15:52 08.06.2022
1045 Clear 34 1010 26 10000 4.12 320 14:18 08.06.2022
1046 Clear 34 1010 26 10000 2.57 10 12:29 08.06.2022
1047 Clear 32 1010 33 6000 3.09 330 11:34 08.06.2022
1048 Clear 32 1010 31 10000 2.06 320 10:37 08.06.2022
1049 Clear 29 1010 39 10000 0 0 09:28 08.06.2022
1050 Clear 27 1010 57 6000 0 0 08:49 08.06.2022
1051 Clear 24 1010 78 10000 2.06 51 06:36 08.06.2022
1052 Clear 25 1009 69 10000 0 0 04:35 08.06.2022
1053 Clear 27 1009 61 10000 2.57 310 00:56 08.06.2022
1054 Clear 28 1009 54 10000 3.09 320 23:31 07.06.2022
1055 Clear 28 1009 54 10000 4.12 310 22:50 07.06.2022
1056 Clear 28 1009 54 10000 4.12 310 22:31 07.06.2022
1057 Clear 29 1009 48 10000 3.6 340 21:35 07.06.2022
1058 Clear 29 1009 48 10000 3.6 330 20:59 07.06.2022
1059 Clear 31 1008 40 10000 6.69 330 20:33 07.06.2022
1060 Clear 31 1008 42 10000 5.14 320 19:49 07.06.2022
1061 Clear 33 1007 35 10000 6.69 290 18:25 07.06.2022
1062 Clear 35 1006 28 10000 4.63 310 17:31 07.06.2022
1063 Clear 34 1007 27 10000 3.09 300 16:44 07.06.2022
1064 Clear 35 1007 24 10000 4.63 300 15:58 07.06.2022
1065 Clear 34 1007 27 10000 5.14 260 15:30 07.06.2022
1066 Clear 34 1007 26 10000 4.63 260 14:56 07.06.2022
1067 Clear 34 1007 24 10000 3.6 310 14:38 07.06.2022
1068 Clear 33 1008 27 10000 2.57 320 13:33 07.06.2022
1069 Clear 33 1008 27 10000 1.03 50 12:54 07.06.2022
1070 Clear 31 1009 33 10000 2.57 300 11:49 07.06.2022
1071 Clear 28 1009 44 10000 3.09 310 10:27 07.06.2022
1072 Clear 26 1009 50 10000 2.57 340 08:53 07.06.2022
1073 Clear 25 1009 53 10000 3.09 350 07:47 07.06.2022
1074 Clear 25 1009 57 10000 1.54 360 06:39 07.06.2022
1075 Clear 24 1009 64 10000 2.06 360 04:39 07.06.2022
1076 Clear 26 1009 57 10000 3.6 340 01:27 07.06.2022
1077 Clear 26 1010 61 10000 3.6 360 23:53 06.06.2022
1078 Clear 27 1010 54 10000 3.6 10 22:54 06.06.2022
1079 Clear 27 1010 54 10000 5.14 360 22:29 06.06.2022
1080 Clear 30 1009 39 10000 4.63 340 20:47 06.06.2022
1081 Clouds 31 1009 35 10000 4.12 350 19:28 06.06.2022
1082 Clouds 31 1009 35 10000 5.14 350 18:49 06.06.2022
1083 Clouds 32 1008 33 10000 3.6 330 18:21 06.06.2022
1084 Clouds 33 1008 31 10000 4.12 330 17:26 06.06.2022
1085 Clouds 33 1009 31 10000 4.12 360 16:18 06.06.2022
1086 Clouds 32 1009 33 10000 2.57 250 15:23 06.06.2022
1087 Clouds 32 1009 33 10000 3.09 320 14:30 06.06.2022
1088 Clear 32 1010 33 10000 2.57 340 13:22 06.06.2022
1089 Clear 32 1010 33 10000 2.57 340 12:36 06.06.2022
1090 Clear 31 1010 35 10000 3.6 330 11:53 06.06.2022
1091 Clear 29 1010 45 10000 2.57 360 10:21 06.06.2022
1092 Clear 26 1010 65 10000 1.54 360 09:24 06.06.2022
1093 Clear 24 1011 73 10000 2.57 50 08:31 06.06.2022
1094 Clear 23 1011 83 10000 3.6 50 07:28 06.06.2022
1095 Clear 24 1010 73 10000 3.6 40 05:18 06.06.2022
1096 Clear 24 1010 78 10000 2.06 40 02:42 06.06.2022
1097 Clear 25 1010 73 10000 3.09 60 01:18 06.06.2022
1098 Clear 25 1011 73 10000 3.6 60 00:37 06.06.2022
1099 Clear 26 1011 69 10000 3.6 70 23:28 05.06.2022
1100 Clear 27 1011 65 10000 3.09 70 22:45 05.06.2022
1101 Clear 27 1011 65 10000 3.09 70 22:45 05.06.2022
1102 Clear 28 1011 61 10000 6.17 10 20:46 05.06.2022
1103 Clear 30 1010 54 10000 6.69 20 19:38 05.06.2022
1104 Clear 34 1009 21 10000 4.63 310 18:29 05.06.2022
1105 Clear 34 1009 21 10000 4.63 320 17:51 05.06.2022
1106 Clear 34 1008 21 10000 4.63 300 17:25 05.06.2022
1107 Clear 35 1009 18 10000 4.63 320 16:50 05.06.2022
1108 Clear 35 1009 18 10000 4.63 320 16:30 05.06.2022
1109 Clear 34 1009 27 10000 3.6 300 14:25 05.06.2022
1110 Clear 33 1010 29 10000 4.12 320 12:55 05.06.2022
1111 Clear 33 1010 29 10000 4.12 320 12:55 05.06.2022
1112 Clear 32 1010 37 10000 3.09 320 11:45 05.06.2022
1113 Clear 31 1010 42 10000 2.06 340 10:34 05.06.2022
1114 Clear 29 1011 48 10000 2.06 50 09:59 05.06.2022
1115 Clear 25 1011 73 10000 2.57 50 08:32 05.06.2022
1116 Clear 24 1011 78 10000 2.57 50 07:44 05.06.2022
1117 Clear 24 1010 78 10000 2.57 30 05:22 05.06.2022
1118 Clear 24 1010 73 10000 2.06 50 04:19 05.06.2022
1119 Clear 26 1010 57 10000 2.57 50 01:32 05.06.2022
1120 Clear 26 1011 57 10000 3.6 40 00:33 05.06.2022
1121 Clear 27 1011 61 6000 5.14 50 22:36 04.06.2022
1122 Clear 29 1011 58 6000 6.69 20 20:33 04.06.2022
1123 Clear 32 1009 48 10000 8.75 10 18:45 04.06.2022
1124 Clear 35 1009 20 10000 4.63 320 16:47 04.06.2022
1125 Clear 35 1009 20 10000 3.6 320 16:18 04.06.2022
1126 Clear 35 1009 21 10000 4.12 310 14:53 04.06.2022
1127 Clear 34 1010 20 10000 3.09 360 12:38 04.06.2022
1128 Clear 34 1010 21 10000 1.54 20 11:19 04.06.2022
1129 Clear 32 1010 29 10000 1.03 50 10:44 04.06.2022
1130 Clear 31 1010 37 10000 1.54 30 09:44 04.06.2022
1131 Clear 28 1011 47 10000 1.54 70 08:43 04.06.2022
1132 Clear 26 1010 61 10000 1.54 60 07:42 04.06.2022
1133 Clear 25 1010 69 10000 1.54 50 05:30 04.06.2022
1134 Clear 26 1010 69 10000 5.66 80 01:42 04.06.2022
1135 Clear 27 1011 69 10000 4.63 70 23:59 03.06.2022
1136 Clear 30 1011 48 10000 6.17 40 22:40 03.06.2022
1137 Clear 30 1011 48 10000 6.17 350 21:39 03.06.2022
1138 Clear 30 1010 48 10000 5.14 340 20:37 03.06.2022
1139 Clear 30 1010 48 10000 5.14 340 20:37 03.06.2022
1140 Clear 33 1009 19 10000 3.6 310 18:41 03.06.2022
1141 Clear 34 1009 16 10000 3.09 320 16:49 03.06.2022
1142 Clear 33 1009 17 10000 2.06 190 15:37 03.06.2022
1143 Clear 33 1010 21 10000 3.6 300 13:48 03.06.2022
1144 Clear 30 1011 35 10000 2.57 320 11:50 03.06.2022
1145 Haze 28 1011 47 4000 1.54 330 09:50 03.06.2022
1146 Haze 27 1011 57 4000 1.54 310 09:28 03.06.2022
1147 Mist 24 1010 73 4000 1.03 40 07:27 03.06.2022
1148 Mist 23 1009 78 4000 1.54 360 06:44 03.06.2022
1149 Mist 23 1009 83 4000 1.54 10 06:26 03.06.2022
1150 Clear 25 1009 73 10000 2.57 70 01:23 03.06.2022
1151 Clear 27 1009 61 10000 3.6 340 23:34 02.06.2022
1152 Clear 28 1009 51 10000 4.12 310 21:57 02.06.2022
1153 Clear 30 1008 37 10000 4.12 310 20:25 02.06.2022
1154 Clear 31 1008 30 10000 4.12 320 19:53 02.06.2022
1155 Clear 31 1008 27 10000 3.6 320 19:35 02.06.2022
1156 Clear 32 1007 29 10000 4.12 310 17:59 02.06.2022
1157 Clear 32 1007 31 10000 4.63 330 16:28 02.06.2022
1158 Clear 31 1007 35 10000 3.6 280 14:58 02.06.2022
1159 Clear 30 1008 37 10000 4.63 260 13:30 02.06.2022
1160 Clear 30 1008 37 10000 4.12 290 12:42 02.06.2022
1161 Clear 26 1009 57 10000 3.09 290 10:32 02.06.2022
1162 Clear 25 1009 61 10000 2.57 280 09:28 02.06.2022
1163 Clear 23 1010 68 10000 2.06 330 08:29 02.06.2022
1164 Clouds 22 1009 73 10000 4.12 300 07:58 02.06.2022
1165 Clouds 22 1009 73 10000 3.6 310 06:20 02.06.2022
1166 Clear 22 1008 83 10000 3.6 300 03:48 02.06.2022
1167 Clear 24 1010 64 10000 3.09 300 00:31 02.06.2022
1168 Clear 26 1010 57 10000 4.63 310 22:57 01.06.2022
1169 Clear 27 1010 50 10000 4.63 310 21:45 01.06.2022
1170 Clear 28 1009 44 10000 5.66 310 21:22 01.06.2022
1171 Clear 29 1009 39 10000 4.63 330 20:38 01.06.2022
1172 Clear 29 1009 39 10000 5.14 330 19:49 01.06.2022
1173 Clear 30 1008 32 10000 4.12 320 18:19 01.06.2022
1174 Clear 30 1008 32 10000 4.63 300 16:48 01.06.2022
1175 Clear 31 1008 33 10000 5.14 300 15:42 01.06.2022
1176 Clear 30 1009 37 10000 3.6 350 14:35 01.06.2022
1177 Clear 29 1010 39 10000 1.54 40 12:46 01.06.2022
1178 Clear 26 1011 47 10000 4.12 40 10:42 01.06.2022
1179 Clear 25 1011 53 10000 3.09 30 09:27 01.06.2022
1180 Clear 23 1011 68 10000 1.54 30 07:59 01.06.2022
1181 Clear 22 1011 78 10000 2.06 20 07:20 01.06.2022
1182 Clear 23 1011 69 10000 4.39 354 03:22 01.06.2022
1183 Clear 25 1012 57 10000 4.12 10 23:47 31.05.2022
1184 Clear 26 1012 53 10000 5.14 20 22:38 31.05.2022
1185 Clear 26 1012 53 10000 5.14 20 22:19 31.05.2022
1186 Clear 27 1012 47 10000 6.69 20 21:23 31.05.2022
1187 Clear 28 1012 44 10000 6.69 20 20:42 31.05.2022
1188 Clear 30 1011 37 10000 5.66 350 19:22 31.05.2022
1189 Clear 32 1010 35 10000 6.17 340 18:26 31.05.2022
1190 Clear 33 1010 29 10000 5.14 330 17:37 31.05.2022
1191 Clear 34 1010 27 6000 4.12 10 15:45 31.05.2022
1192 Clear 34 1010 27 6000 6.17 360 15:22 31.05.2022
1193 Clear 32 1011 35 6000 4.12 350 12:41 31.05.2022
1194 Clear 31 1012 42 6000 4.12 350 12:18 31.05.2022
1195 Clear 28 1013 54 6000 2.57 360 10:25 31.05.2022
1196 Haze 24 1013 78 3000 3.6 340 07:46 31.05.2022
1197 Haze 23 1012 73 4000 4.12 340 06:19 31.05.2022
1198 Clear 25 1012 41 6000 3.6 350 03:49 31.05.2022
1199 Clear 29 1012 23 10000 2.06 60 23:45 30.05.2022
1200 Clear 30 1012 20 10000 3.6 70 23:24 30.05.2022
1201 Clear 31 1012 23 10000 3.6 60 22:37 30.05.2022
1202 Clear 31 1012 23 10000 4.63 50 21:40 30.05.2022
1203 Clear 33 1011 21 10000 6.69 40 20:51 30.05.2022
1204 Clear 35 1010 21 10000 5.14 10 19:43 30.05.2022
1205 Clear 38 1010 15 10000 5.66 350 18:18 30.05.2022
1206 Clear 38 1010 15 10000 5.66 350 17:23 30.05.2022
1207 Clear 38 1010 14 10000 5.66 350 16:22 30.05.2022
1208 Clear 37 1011 9 10000 5.14 10 13:32 30.05.2022
1209 Clear 35 1012 11 10000 4.12 40 11:40 30.05.2022
1210 Clear 33 1012 18 10000 2.57 80 09:58 30.05.2022
1211 Clear 31 1012 22 10000 4.12 80 08:52 30.05.2022
1212 Clear 25 1011 38 10000 3.6 90 06:26 30.05.2022
1213 Clear 24 1011 41 10000 1.54 80 04:52 30.05.2022
1214 Clear 27 1011 36 10000 2.06 60 01:23 30.05.2022
1215 Clear 29 1012 37 10000 4.12 50 22:49 29.05.2022
1216 Clear 29 1012 37 10000 4.12 50 22:28 29.05.2022
1217 Clear 33 1010 24 10000 5.14 50 20:29 29.05.2022
1218 Clear 35 1010 15 10000 5.66 10 19:29 29.05.2022
1219 Clear 36 1010 14 10000 4.63 360 18:34 29.05.2022
1220 Clear 37 1009 13 10000 4.63 20 16:40 29.05.2022
1221 Clear 37 1010 13 10000 4.12 20 15:47 29.05.2022
1222 Clear 36 1010 15 10000 2.57 20 14:55 29.05.2022
1223 Clear 36 1011 16 10000 2.57 350 13:18 29.05.2022
1224 Clear 34 1011 21 10000 2.06 50 11:31 29.05.2022
1225 Clear 31 1011 29 10000 3.09 30 10:37 29.05.2022
1226 Clear 28 1012 42 10000 1.54 30 08:36 29.05.2022
1227 Clear 24 1011 53 10000 1.03 90 04:59 29.05.2022
1228 Clear 24 1011 53 10000 1.03 90 04:39 29.05.2022
1229 Clear 26 1011 44 10000 1.54 40 02:24 29.05.2022
1230 Clear 28 1011 36 10000 4.63 60 23:48 28.05.2022
1231 Clear 27 1011 34 10000 4.04 21 23:25 28.05.2022
1232 Clear 29 1011 30 10000 3.6 50 22:21 28.05.2022
1233 Clear 30 1011 30 10000 4.63 30 21:31 28.05.2022
1234 Clear 33 1009 21 10000 6.17 10 19:21 28.05.2022
1235 Clear 34 1009 17 10000 6.69 10 18:45 28.05.2022
1236 Clear 35 1008 17 10000 5.66 360 17:35 28.05.2022
1237 Clear 35 1008 18 10000 5.66 350 16:35 28.05.2022
1238 Clear 35 1009 18 10000 6.17 350 15:38 28.05.2022
1239 Clear 34 1009 21 6000 6.17 360 13:57 28.05.2022
1240 Clear 33 1010 27 6000 3.6 350 12:44 28.05.2022
1241 Clear 32 1010 31 6000 2.06 10 11:57 28.05.2022
1242 Haze 29 1011 45 4000 2.06 290 10:49 28.05.2022
1243 Haze 28 1011 51 4000 2.06 340 09:56 28.05.2022
1244 Haze 25 1011 65 4000 1.54 20 08:43 28.05.2022
1245 Haze 23 1011 73 4000 2.57 350 07:23 28.05.2022
1246 Clear 23 1010 68 10000 2.06 360 05:24 28.05.2022
1247 Clear 25 1011 50 10000 2.06 10 02:38 28.05.2022
1248 Clear 27 1011 41 10000 3.6 50 00:31 28.05.2022
1249 Clear 29 1012 30 10000 4.63 20 22:51 27.05.2022
1250 Clear 29 1012 30 10000 3.6 30 21:43 27.05.2022
1251 Clear 30 1011 28 10000 4.63 20 20:49 27.05.2022
1252 Clear 30 1011 28 10000 5.66 20 20:23 27.05.2022
1253 Clear 31 1011 27 10000 5.14 20 19:42 27.05.2022
1254 Clear 31 1011 27 10000 6.17 10 19:21 27.05.2022
1255 Clear 33 1010 25 10000 8.75 360 17:52 27.05.2022
1256 Clear 34 1010 27 10000 6.17 30 16:38 27.05.2022
1257 Clear 34 1010 21 10000 8.23 350 15:22 27.05.2022
1258 Clear 34 1011 22 10000 7.72 20 13:53 27.05.2022
1259 Clear 32 1012 25 10000 5.66 30 12:39 27.05.2022
1260 Clear 30 1012 32 10000 3.6 10 11:33 27.05.2022
1261 Clear 30 1012 35 6000 4.12 40 10:54 27.05.2022
1262 Clear 29 1013 37 6000 3.6 10 10:29 27.05.2022
1263 Clear 26 1013 50 6000 1.54 10 09:34 27.05.2022
1264 Clear 24 1013 69 6000 2.06 360 07:50 27.05.2022
1265 Clear 22 1013 78 10000 2.06 30 05:32 27.05.2022
1266 Clear 23 1014 60 10000 3.09 40 02:26 27.05.2022
1267 Clear 25 1014 53 10000 3.6 10 00:26 27.05.2022
1268 Clear 26 1015 47 10000 4.12 40 22:35 26.05.2022
1269 Clear 28 1014 36 10000 5.66 10 21:37 26.05.2022
1270 Clear 29 1013 32 10000 6.17 10 19:58 26.05.2022
1271 Clear 30 1013 32 10000 7.2 10 19:19 26.05.2022
1272 Clear 33 1013 24 10000 8.23 20 17:37 26.05.2022
1273 Clear 33 1013 25 10000 7.72 30 16:36 26.05.2022
1274 Clear 33 1013 22 10000 8.23 20 15:45 26.05.2022
1275 Clear 33 1014 24 10000 8.23 360 14:24 26.05.2022
1276 Clear 31 1015 27 10000 5.14 10 12:37 26.05.2022
1277 Clear 29 1015 30 10000 6.17 10 11:23 26.05.2022
1278 Clear 27 1016 34 10000 4.12 30 09:41 26.05.2022
1279 Clear 26 1016 47 10000 3.6 30 09:23 26.05.2022
1280 Clear 23 1016 64 6000 3.6 40 07:57 26.05.2022
1281 Clear 22 1015 73 10000 4.12 40 03:53 26.05.2022
1282 Clear 24 1016 50 10000 3.09 50 00:33 26.05.2022
1283 Clear 24 1016 50 10000 4.12 50 23:40 25.05.2022
1284 Clear 26 1016 38 10000 5.66 30 21:56 25.05.2022
1285 Clear 26 1016 38 10000 5.66 30 21:31 25.05.2022
1286 Clear 27 1016 36 10000 5.66 40 20:35 25.05.2022
1287 Clear 30 1014 25 10000 7.2 40 19:21 25.05.2022
1288 Clear 32 1013 25 10000 7.72 10 17:40 25.05.2022
1289 Clear 32 1013 27 10000 5.66 340 16:37 25.05.2022
1290 Clear 32 1013 25 10000 5.14 330 15:54 25.05.2022
1291 Clear 32 1014 27 10000 5.66 330 14:51 25.05.2022
1292 Clear 32 1014 27 10000 5.66 330 14:33 25.05.2022
1293 Clear 32 1014 27 10000 4.63 20 13:45 25.05.2022
1294 Clear 31 1015 27 10000 4.12 20 12:38 25.05.2022
1295 Clear 28 1015 36 10000 3.09 30 10:43 25.05.2022
1296 Clear 26 1015 47 10000 3.6 20 09:54 25.05.2022
1297 Clear 25 1015 53 10000 3.65 19 08:37 25.05.2022
1298 Clear 22 1015 73 10000 3.44 28 07:23 25.05.2022
1299 Clear 22 1014 64 10000 2.57 60 03:34 25.05.2022
1300 Clear 25 1014 53 10000 3.09 10 23:57 24.05.2022
1301 Clear 25 1014 53 10000 3.6 40 23:31 24.05.2022
1302 Clear 26 1014 47 10000 4.96 13 22:32 24.05.2022
1303 Clear 26 1014 44 10000 4.12 10 21:40 24.05.2022
1304 Clear 27 1014 44 10000 3.6 350 21:20 24.05.2022
1305 Clear 29 1012 26 10000 5.14 320 19:48 24.05.2022
1306 Clear 31 1011 25 10000 5.14 340 18:54 24.05.2022
1307 Clear 33 1011 19 10000 4.63 320 16:53 24.05.2022
1308 Clear 33 1011 19 10000 4.12 340 16:23 24.05.2022
1309 Clear 33 1012 21 10000 4.12 310 14:59 24.05.2022
1310 Clear 32 1012 22 10000 3.6 310 14:21 24.05.2022
1311 Clear 30 1013 26 10000 4.12 330 12:50 24.05.2022
1312 Clear 28 1013 28 6000 2.57 310 11:40 24.05.2022
1313 Clear 25 1013 50 6000 1.03 320 09:46 24.05.2022
1314 Clear 22 1013 68 6000 1.54 300 08:50 24.05.2022
1315 Clear 21 1013 78 6000 1.03 360 06:58 24.05.2022
1316 Clear 21 1012 78 10000 1.03 10 04:30 24.05.2022
1317 Clear 22 998 68 10000 1.54 360 02:42 24.05.2022
1318 Clear 22 998 68 10000 1.54 360 01:42 24.05.2022
1319 Clear 23 999 60 10000 2.57 300 23:43 23.05.2022
1320 Clear 26 1013 38 10000 3.6 300 21:59 23.05.2022
1321 Clear 26 1013 38 10000 3.6 300 21:41 23.05.2022
1322 Clear 27 998 32 10000 3.6 300 20:42 23.05.2022
1323 Clear 28 998 28 10000 5.14 310 19:41 23.05.2022
1324 Clear 29 997 26 10000 5.14 330 19:00 23.05.2022
1325 Clear 29 997 26 10000 6.69 300 18:37 23.05.2022
1326 Clear 31 996 23 10000 6.17 330 17:55 23.05.2022
1327 Clear 32 996 17 10000 6.17 290 15:47 23.05.2022
1328 Clear 31 997 22 10000 4.12 250 13:44 23.05.2022
1329 Clear 28 999 28 10000 5.14 250 11:36 23.05.2022
1330 Clear 28 999 28 10000 5.14 280 10:44 23.05.2022
1331 Clear 26 999 38 10000 3.09 240 09:45 23.05.2022
1332 Clear 26 999 38 10000 3.6 240 08:44 23.05.2022
1333 Clear 21 999 64 10000 3.09 240 06:48 23.05.2022
1334 Clear 21 999 64 10000 3.09 240 06:24 23.05.2022
1335 Clear 21 998 60 10000 2.06 260 02:36 23.05.2022
1336 Clear 22 999 53 10000 2.06 260 01:48 23.05.2022
1337 Clear 22 999 53 10000 2.57 280 01:23 23.05.2022
1338 Clear 23 999 40 10000 3.6 300 22:48 22.05.2022
1339 Clear 24 999 35 10000 4.12 300 22:21 22.05.2022
1340 Clear 24 999 35 10000 3.6 300 21:50 22.05.2022
1341 Clear 24 999 35 10000 3.6 290 20:43 22.05.2022
1342 Clear 26 999 33 10000 5.14 300 20:20 22.05.2022
1343 Clouds 26 998 29 10000 5.66 310 18:58 22.05.2022
1344 Clouds 26 998 29 10000 6.17 300 18:37 22.05.2022
1345 Clouds 27 998 26 10000 6.17 300 18:19 22.05.2022
1346 Clouds 28 997 26 10000 6.17 310 16:51 22.05.2022
1347 Clouds 28 997 28 10000 8.23 290 15:25 22.05.2022
1348 Clouds 29 997 26 10000 4.63 280 14:44 22.05.2022
1349 Clear 27 998 28 10000 10.29 280 12:54 22.05.2022
1350 Clear 27 998 28 10000 7.72 250 12:33 22.05.2022
1351 Clear 24 999 33 10000 7.72 250 10:53 22.05.2022
1352 Clear 24 999 35 10000 5.66 250 09:31 22.05.2022
1353 Clear 22 999 37 10000 5.14 250 07:49 22.05.2022
1354 Clear 21 999 46 10000 3.09 260 07:20 22.05.2022
1355 Clear 21 998 49 10000 3.6 270 04:30 22.05.2022
1356 Clear 21 999 49 10000 2.57 290 01:19 22.05.2022
1357 Clear 21 999 46 10000 2.57 290 23:57 21.05.2022
1358 Clear 21 999 46 10000 2.57 290 23:32 21.05.2022
1359 Clear 22 999 46 10000 4.12 320 22:22 21.05.2022
1360 Clear 23 999 43 10000 3.6 310 21:39 21.05.2022
1361 Clear 24 999 50 10000 3.6 320 20:48 21.05.2022
1362 Clear 26 998 44 10000 6.17 310 19:59 21.05.2022
1363 Clear 26 998 44 10000 5.66 310 19:24 21.05.2022
1364 Clear 29 997 34 10000 4.63 310 17:35 21.05.2022
1365 Clear 29 998 37 10000 5.14 280 15:37 21.05.2022
1366 Clear 29 998 39 10000 5.14 270 14:36 21.05.2022
1367 Clear 27 1012 47 10000 6.69 300 13:36 21.05.2022
1368 Clouds 31 1012 25 10000 5.39 284 12:40 21.05.2022
1369 Clouds 25 1013 53 10000 4.12 320 11:54 21.05.2022
1370 Clear 23 999 64 10000 4.12 300 10:22 21.05.2022
1371 Clear 22 999 68 10000 3.6 300 09:20 21.05.2022
1372 Clear 21 999 77 10000 4.12 300 08:47 21.05.2022
1373 Clouds 21 999 82 10000 5.73 317 06:22 21.05.2022
1374 Clear 21 998 82 10000 5.14 290 02:24 21.05.2022
1375 Clear 22 999 73 10000 6.17 310 23:47 20.05.2022
1376 Clear 23 999 68 6000 5.14 310 22:42 20.05.2022
1377 Clear 24 999 60 6000 5.66 320 22:22 20.05.2022
1378 Clear 26 998 57 6000 7.72 310 21:32 20.05.2022
1379 Clear 26 998 54 6000 7.2 310 20:53 20.05.2022
1380 Sand 28 1011 54 4000 10.29 290 19:56 20.05.2022
1381 Clear 29 996 54 6000 5.14 310 18:59 20.05.2022
1382 Clear 32 995 38 6000 5.14 310 18:27 20.05.2022
1383 Clear 36 995 11 10000 2.57 280 16:50 20.05.2022
1384 Clear 36 995 11 10000 2.06 280 15:57 20.05.2022
1385 Clear 36 995 11 10000 2.06 280 15:39 20.05.2022
1386 Clear 36 996 13 10000 2.57 290 14:29 20.05.2022
1387 Clear 36 997 13 10000 2.06 320 13:44 20.05.2022
1388 Clear 31 999 20 10000 2.06 310 10:56 20.05.2022
1389 Clear 28 1012 26 10000 2.57 300 09:51 20.05.2022
1390 Clear 27 1012 28 10000 2.57 320 08:41 20.05.2022
1391 Clear 26 1011 24 10000 1.54 230 06:46 20.05.2022
1392 Clear 26 997 20 10000 1.03 270 06:21 20.05.2022
1393 Clear 27 996 14 10000 2.06 80 04:22 20.05.2022
1394 Clear 26 998 31 10000 4.63 90 00:24 20.05.2022
1395 Clear 26 999 34 10000 4.63 80 22:44 19.05.2022
1396 Clear 28 1000 26 10000 4.12 70 21:59 19.05.2022
1397 Clear 28 1000 26 10000 4.12 60 21:40 19.05.2022
1398 Clear 28 1000 26 10000 4.12 60 21:22 19.05.2022
1399 Clear 29 999 26 10000 3.6 60 20:25 19.05.2022
1400 Clear 31 998 23 10000 5.14 50 19:34 19.05.2022
1401 Clear 33 998 19 10000 5.14 50 17:59 19.05.2022
1402 Clear 34 998 15 10000 6.17 50 16:31 19.05.2022
1403 Clear 34 998 16 10000 4.12 360 14:52 19.05.2022
1404 Clear 34 999 16 10000 5.66 20 14:23 19.05.2022
1405 Clear 32 1000 15 10000 4.63 30 12:35 19.05.2022
1406 Clear 31 1000 16 10000 3.6 10 11:25 19.05.2022
1407 Clear 29 1000 21 10000 4.12 100 09:19 19.05.2022
1408 Clear 26 1000 27 10000 3.6 80 07:48 19.05.2022
1409 Clear 21 999 56 10000 2.57 40 05:32 19.05.2022
1410 Clear 23 1000 53 10000 2.57 50 01:59 19.05.2022
1411 Clear 24 1000 50 10000 3.09 60 23:55 18.05.2022
1412 Clear 26 1000 44 10000 4.63 60 22:47 18.05.2022
1413 Clear 26 1000 36 10000 4.12 50 21:47 18.05.2022
1414 Clear 26 1000 36 10000 5.14 50 21:26 18.05.2022
1415 Clear 28 1013 26 10000 6.17 50 20:41 18.05.2022
1416 Clear 28 999 26 10000 6.17 50 20:18 18.05.2022
1417 Clear 31 998 25 10000 5.66 50 18:28 18.05.2022
1418 Clear 32 998 22 10000 8.84 51 17:41 18.05.2022
1419 Clear 32 998 22 10000 5.14 30 17:23 18.05.2022
1420 Clear 32 998 21 10000 5.14 50 16:31 18.05.2022
1421 Clear 32 998 19 10000 5.66 10 15:40 18.05.2022
1422 Clear 32 999 22 10000 3.6 30 14:35 18.05.2022
1423 Clear 31 999 22 10000 4.12 20 13:35 18.05.2022
1424 Clear 31 999 28 10000 4.12 30 12:42 18.05.2022
1425 Clear 28 1000 32 10000 4.63 50 11:34 18.05.2022
1426 Clear 28 1000 34 10000 4.12 30 10:56 18.05.2022
1427 Clear 26 1001 44 10000 2.57 50 09:24 18.05.2022
1428 Clear 22 1000 56 10000 1.54 70 07:36 18.05.2022
1429 Clear 21 1000 64 10000 0.51 80 05:56 18.05.2022
1430 Clear 22 1001 43 10000 2.57 50 01:22 18.05.2022
1431 Clear 22 1001 49 10000 3.09 60 00:22 18.05.2022
1432 Clear 26 1015 34 10000 5.66 20 21:57 17.05.2022
1433 Clear 26 1001 34 10000 5.66 20 21:20 17.05.2022
1434 Clear 26 1001 34 10000 5.66 20 21:20 17.05.2022
1435 Clear 27 1000 34 10000 6.69 10 20:19 17.05.2022
1436 Clear 28 1000 30 10000 6.17 360 19:28 17.05.2022
1437 Clear 31 999 27 10000 4.63 340 17:52 17.05.2022
1438 Clear 31 999 23 10000 4.12 350 16:59 17.05.2022
1439 Clear 31 999 23 10000 5.14 350 16:30 17.05.2022
1440 Clear 31 1000 22 10000 5.14 360 15:32 17.05.2022
1441 Clear 31 1000 23 10000 4.63 30 14:30 17.05.2022
1442 Clear 31 1001 28 10000 3.6 40 13:37 17.05.2022
1443 Clear 29 1002 32 10000 3.6 10 11:46 17.05.2022
1444 Clear 22 1002 60 10000 3.09 30 09:38 17.05.2022
1445 Clear 20 1016 73 6000 1.54 40 08:36 17.05.2022
1446 Clouds 18 1002 88 6000 2.57 20 06:50 17.05.2022
1447 Clear 21 1003 72 10000 2.06 360 03:45 17.05.2022
1448 Clear 22 1003 56 10000 1.54 350 00:46 17.05.2022
1449 Clear 23 1003 49 10000 3.6 360 22:44 16.05.2022
1450 Clouds 23 1003 49 6000 4.63 10 21:52 16.05.2022
1451 Clouds 24 1003 46 6000 5.66 360 20:49 16.05.2022
1452 Clouds 24 1003 46 6000 5.14 360 19:57 16.05.2022
1453 Clouds 26 1002 44 6000 7.2 360 18:21 16.05.2022
1454 Clear 28 1002 34 10000 5.66 20 16:24 16.05.2022
1455 Clear 28 1003 32 10000 4.12 340 14:42 16.05.2022
1456 Clear 28 1003 30 10000 5.66 20 13:25 16.05.2022
1457 Clear 26 1005 38 10000 4.12 360 11:33 16.05.2022
1458 Clear 23 1005 49 10000 3.09 360 10:24 16.05.2022
1459 Clouds 19 1004 82 6000 3.09 20 07:34 16.05.2022
1460 Clouds 18 1004 82 6000 2.57 30 05:23 16.05.2022
1461 Clear 21 1005 64 10000 3.09 50 23:56 15.05.2022
1462 Clear 22 1005 56 10000 5.14 10 22:36 15.05.2022
1463 Clear 23 1004 49 10000 5.14 10 21:48 15.05.2022
1464 Clear 24 1004 46 10000 6.17 360 21:21 15.05.2022
1465 Clear 26 1003 41 10000 5.66 360 20:34 15.05.2022
1466 Clear 29 1002 30 10000 4.63 350 17:56 15.05.2022
1467 Clear 29 1001 32 10000 5.14 350 16:36 15.05.2022
1468 Clear 28 1016 32 10000 7.2 20 14:18 15.05.2022
1469 Clear 27 1017 34 10000 6.17 10 13:35 15.05.2022
1470 Clear 27 1003 34 10000 5.66 350 11:55 15.05.2022
1471 Clear 24 1018 43 10000 3.09 350 10:40 15.05.2022
1472 Clear 22 1003 56 10000 2.57 10 08:52 15.05.2022
1473 Clear 18 1002 77 10000 2.06 300 06:59 15.05.2022
1474 Clear 18 1002 77 10000 2.06 300 06:40 15.05.2022
1475 Clear 21 1001 59 10000 5.14 340 02:38 15.05.2022
1476 Clouds 21 1001 56 6000 5.14 340 23:59 14.05.2022
1477 Clouds 21 1001 64 6000 5.14 340 23:35 14.05.2022
1478 Clouds 23 1000 60 6000 5.66 350 21:45 14.05.2022
1479 Clouds 23 1000 60 6000 6.17 360 21:24 14.05.2022
1480 Clouds 26 999 36 6000 5.14 30 19:54 14.05.2022
1481 Clouds 26 999 34 6000 5.66 50 19:20 14.05.2022
1482 Clouds 27 999 34 6000 5.66 50 18:51 14.05.2022
1483 Clouds 27 999 34 6000 5.66 50 18:51 14.05.2022
1484 Clouds 27 999 30 6000 7.2 20 17:43 14.05.2022
1485 Clouds 31 998 27 6000 8.23 40 15:55 14.05.2022
1486 Clouds 28 1012 30 6000 7.51 25 14:38 14.05.2022
1487 Clouds 29 1012 32 6000 6.17 340 13:24 14.05.2022
1488 Clear 26 1013 50 10000 5.66 50 11:42 14.05.2022
1489 Clear 25 1013 57 10000 6.69 10 10:39 14.05.2022
1490 Clear 26 999 57 10000 6.69 10 10:18 14.05.2022
1491 Clouds 23 999 78 10000 6.69 20 09:19 14.05.2022
1492 Clear 21 998 73 10000 5.66 40 07:26 14.05.2022
1493 Clear 21 997 68 10000 6.17 30 04:32 14.05.2022
1494 Clear 23 999 43 10000 5.14 30 00:25 14.05.2022
1495 Clear 23 1000 46 10000 5.14 50 23:25 13.05.2022
1496 Clear 23 999 46 10000 7.2 60 22:54 13.05.2022
1497 Clear 23 1000 43 10000 6.17 50 22:21 13.05.2022
1498 Clear 24 1000 33 10000 7.2 50 20:58 13.05.2022
1499 Clear 26 1000 33 10000 7.2 50 20:32 13.05.2022
1500 Clear 26 1000 33 10000 7.72 50 19:51 13.05.2022
1501 Clear 27 999 30 10000 7.72 40 18:47 13.05.2022
1502 Clouds 31 999 19 10000 10.97 40 17:30 13.05.2022
1503 Clear 31 1013 19 10000 7.72 30 16:29 13.05.2022
1504 Clear 31 1013 18 10000 7.2 40 15:45 13.05.2022
1505 Clear 31 1015 23 10000 6.69 30 14:29 13.05.2022
1506 Clear 29 1015 28 10000 7.2 50 12:51 13.05.2022
1507 Clear 29 1016 28 10000 5.14 50 11:54 13.05.2022
1508 Clear 25 1017 33 10000 5.66 30 09:54 13.05.2022
1509 Clear 24 1002 35 10000 7.72 70 09:26 13.05.2022
1510 Clear 21 1016 56 10000 7.2 40 07:51 13.05.2022
1511 Clear 21 1002 64 10000 5.14 50 06:50 13.05.2022
1512 Clear 19 1002 72 10000 3.6 60 04:54 13.05.2022
1513 Clear 21 1004 68 10000 5.66 60 00:57 13.05.2022
1514 Clear 21 1005 60 10000 5.14 50 22:59 12.05.2022
1515 Clear 21 1005 52 10000 6.69 50 22:34 12.05.2022
1516 Clear 23 1005 43 10000 5.14 50 21:24 12.05.2022
1517 Clear 26 1004 29 10000 7.72 30 19:49 12.05.2022
1518 Clear 27 1003 34 10000 6.69 30 18:27 12.05.2022
1519 Clear 29 1003 23 10000 5.14 40 16:45 12.05.2022
1520 Clear 29 1003 23 10000 4.63 10 14:57 12.05.2022
1521 Clear 29 1004 23 10000 5.66 20 13:50 12.05.2022
1522 Clear 27 1005 24 10000 4.63 40 11:55 12.05.2022
1523 Clear 24 1005 43 10000 5.66 50 10:34 12.05.2022
1524 Clear 22 1005 49 10000 4.63 70 08:56 12.05.2022
1525 Clear 21 1004 72 10000 6.17 70 08:35 12.05.2022
1526 Clear 21 1005 72 10000 4.63 40 07:25 12.05.2022
1527 Clear 19 1004 77 10000 3.6 50 04:32 12.05.2022
1528 Clear 21 1005 56 10000 4.12 60 01:37 12.05.2022
1529 Clear 22 1005 46 10000 3.6 20 23:36 11.05.2022
1530 Clear 22 1006 43 10000 4.12 10 22:21 11.05.2022
1531 Clear 23 1005 46 10000 4.63 30 21:26 11.05.2022
1532 Clear 23 1005 46 10000 4.63 30 21:26 11.05.2022
1533 Clear 26 1004 44 10000 5.66 350 20:20 11.05.2022
1534 Clear 28 1002 30 10000 4.63 320 17:43 11.05.2022
1535 Clear 29 1001 28 10000 2.57 280 16:39 11.05.2022
1536 Clear 29 1002 28 10000 2.57 310 14:48 11.05.2022
1537 Clear 29 1002 28 10000 2.57 310 14:25 11.05.2022
1538 Clear 29 1002 23 10000 3.6 340 13:37 11.05.2022
1539 Clouds 27 1002 34 6000 2.06 20 11:48 11.05.2022
1540 Clouds 22 1003 64 6000 1.54 20 09:34 11.05.2022
1541 Clouds 19 1002 77 6000 3.6 350 06:59 11.05.2022
1542 Clear 21 1001 56 10000 2.06 340 03:38 11.05.2022
1543 Clear 22 1001 53 10000 3.6 40 23:45 10.05.2022
1544 Clear 23 1002 49 10000 4.12 60 22:30 10.05.2022
1545 Clear 23 1001 49 10000 4.63 50 21:43 10.05.2022
1546 Clear 26 1001 38 10000 4.63 40 20:48 10.05.2022
1547 Clear 28 1000 26 10000 6.69 20 19:18 10.05.2022
1548 Clear 31 999 20 10000 3.6 330 17:44 10.05.2022
1549 Clear 31 999 19 10000 3.09 60 16:39 10.05.2022
1550 Clear 31 1000 23 10000 2.57 70 13:54 10.05.2022
1551 Clear 28 1001 26 10000 4.12 360 12:30 10.05.2022
1552 Clear 26 1015 31 10000 3.09 50 11:42 10.05.2022
1553 Clear 26 1001 31 10000 3.09 40 11:18 10.05.2022
1554 Clear 24 1001 43 10000 4.12 40 09:52 10.05.2022
1555 Clear 21 1001 60 10000 3.09 60 08:29 10.05.2022
1556 Clear 19 1000 77 10000 2.06 60 06:35 10.05.2022
1557 Clear 21 1000 68 10000 3.09 70 02:48 10.05.2022
1558 Clear 21 1000 60 10000 3.6 50 00:23 10.05.2022
1559 Clear 23 1000 43 10000 5.14 30 22:43 09.05.2022
1560 Clear 24 1000 38 10000 4.12 40 21:48 09.05.2022
1561 Clear 26 998 34 10000 4.63 360 20:23 09.05.2022
1562 Clear 29 997 24 10000 5.66 290 18:43 09.05.2022
1563 Clear 31 996 22 10000 8.23 280 17:39 09.05.2022
1564 Clear 31 996 18 10000 8.23 280 16:28 09.05.2022
1565 Clear 33 995 15 6000 7.2 270 15:48 09.05.2022
1566 Clear 33 996 12 6000 8.23 250 14:47 09.05.2022
1567 Clear 33 996 12 6000 8.75 250 14:22 09.05.2022
1568 Clear 33 996 14 6000 10.29 250 13:32 09.05.2022
1569 Clear 32 996 12 6000 6.17 210 11:56 09.05.2022
1570 Clear 32 996 13 6000 5.66 200 10:50 09.05.2022
1571 Clear 31 996 12 6000 6.69 210 10:31 09.05.2022
1572 Clear 25 1010 22 6000 1.54 240 08:23 09.05.2022
1573 Clear 25 1010 22 10000 0 0 07:44 09.05.2022
1574 Clear 21 996 30 10000 5.66 80 02:55 09.05.2022
1575 Clear 22 999 37 10000 5.14 70 23:29 08.05.2022
1576 Clear 23 1000 33 10000 6.17 60 22:51 08.05.2022
1577 Clear 26 1000 27 10000 6.69 50 21:48 08.05.2022
1578 Clear 26 1000 27 10000 6.69 50 21:48 08.05.2022
1579 Clear 28 999 20 10000 6.17 50 20:33 08.05.2022
1580 Clear 30 1013 10 10000 3.6 50 19:43 08.05.2022
1581 Clear 31 998 10 10000 4.12 60 18:52 08.05.2022
1582 Clear 31 998 8 10000 5.14 70 17:57 08.05.2022
1583 Clear 32 998 8 10000 4.63 80 16:42 08.05.2022
1584 Clear 31 998 8 10000 6.17 50 15:26 08.05.2022
1585 Clear 31 999 8 10000 2.06 70 14:39 08.05.2022
1586 Clear 29 1001 12 10000 1.54 30 12:21 08.05.2022
1587 Clear 26 1002 19 10000 3.6 50 10:27 08.05.2022
1588 Clear 26 1002 19 10000 3.09 50 09:56 08.05.2022
1589 Clear 26 1001 19 10000 4.63 100 08:55 08.05.2022
1590 Clear 19 1001 42 10000 1.54 250 06:57 08.05.2022
1591 Clear 21 1001 39 10000 1.54 60 03:26 08.05.2022
1592 Clear 21 1001 39 10000 1.54 60 02:41 08.05.2022
1593 Clear 22 1001 30 10000 3.6 70 00:21 08.05.2022
1594 Clear 22 1001 32 10000 3.6 70 23:47 07.05.2022
1595 Clear 23 1002 33 10000 3.6 70 22:46 07.05.2022
1596 Clear 23 1001 33 10000 5.66 70 21:58 07.05.2022
1597 Clear 24 1001 31 10000 5.66 70 21:33 07.05.2022
1598 Clouds 26 1001 27 10000 3.09 350 20:28 07.05.2022
1599 Clear 26 1000 25 10000 3.6 340 19:23 07.05.2022
1600 Clear 27 999 22 10000 4.12 10 17:34 07.05.2022
1601 Clouds 27 1000 19 10000 2.06 30 15:41 07.05.2022
1602 Clear 26 1001 22 10000 2.57 40 13:39 07.05.2022
1603 Clear 22 1002 37 10000 1.03 330 10:41 07.05.2022
1604 Clear 18 1001 59 10000 2.06 60 08:57 07.05.2022
1605 Clear 18 1001 63 10000 0.51 100 07:50 07.05.2022
1606 Clear 18 1001 63 10000 0.51 130 06:43 07.05.2022
1607 Clear 17 1000 67 10000 2.06 20 04:41 07.05.2022
1608 Clear 18 1001 72 10000 3.09 20 01:19 07.05.2022
1609 Clear 19 1001 55 10000 4.12 350 23:36 06.05.2022
1610 Clear 21 1001 43 10000 5.14 350 22:26 06.05.2022
1611 Clear 22 1014 40 10000 5.14 20 21:41 06.05.2022
1612 Clear 23 999 40 10000 5.66 340 20:33 06.05.2022
1613 Clear 26 999 31 10000 5.14 330 19:29 06.05.2022
1614 Clear 26 999 31 10000 5.14 330 19:29 06.05.2022
1615 Clear 26 999 25 10000 5.14 300 18:57 06.05.2022
1616 Clear 26 998 29 10000 4.63 340 17:38 06.05.2022
1617 Clear 27 999 28 10000 3.09 300 16:23 06.05.2022
1618 Clear 26 1013 25 10000 4.63 330 15:39 06.05.2022
1619 Clear 26 1013 25 10000 4.63 280 14:46 06.05.2022
1620 Clear 26 1000 29 10000 3.6 310 12:54 06.05.2022
1621 Clear 24 1001 31 10000 3.6 350 12:33 06.05.2022
1622 Clear 24 1001 31 10000 4.12 330 11:41 06.05.2022
1623 Clear 21 1002 49 10000 3.6 10 10:27 06.05.2022
1624 Clear 21 1002 59 10000 1.54 270 09:45 06.05.2022
1625 Clear 18 1002 72 10000 2.57 300 08:27 06.05.2022
1626 Clear 16 1002 77 10000 2.06 320 06:42 06.05.2022
1627 Clear 16 1002 72 10000 4.63 310 04:51 06.05.2022
1628 Clear 17 1002 67 10000 4.63 300 02:45 06.05.2022
1629 Clear 18 1003 63 10000 4.63 300 23:45 05.05.2022
1630 Clear 19 1004 52 10000 5.66 310 21:53 05.05.2022
1631 Clear 19 1003 52 10000 5.66 310 21:19 05.05.2022
1632 Clear 21 1002 43 10000 6.17 310 19:53 05.05.2022
1633 Clear 23 1002 35 10000 6.69 300 18:26 05.05.2022
1634 Clear 26 1001 29 10000 8.23 290 16:20 05.05.2022
1635 Clear 26 1001 29 10000 6.17 310 14:49 05.05.2022
1636 Clouds 24 1002 38 10000 5.66 300 13:22 05.05.2022
1637 Clouds 23 1002 43 10000 4.12 290 12:25 05.05.2022
1638 Clouds 21 1004 56 10000 3.09 290 10:37 05.05.2022
1639 Clouds 21 1004 59 10000 3.09 300 09:39 05.05.2022
1640 Clear 18 1003 77 10000 3.09 310 07:35 05.05.2022
1641 Clear 17 1002 77 10000 3.6 300 04:42 05.05.2022
1642 Clear 18 1002 72 10000 2.57 300 01:53 05.05.2022
1643 Clear 18 1003 67 10000 2.57 300 01:24 05.05.2022
1644 Clear 19 1003 63 10000 4.12 330 23:47 04.05.2022
1645 Clear 21 1002 56 10000 4.12 330 22:30 04.05.2022
1646 Clear 21 1002 56 10000 5.66 320 21:49 04.05.2022
1647 Clear 21 1002 56 10000 6.17 330 21:26 04.05.2022
1648 Clear 22 1001 43 10000 4.12 330 20:24 04.05.2022
1649 Clouds 23 1001 38 10000 5.14 320 19:53 04.05.2022
1650 Clouds 23 1000 40 10000 5.14 330 18:56 04.05.2022
1651 Clouds 24 1000 41 10000 5.14 330 18:22 04.05.2022
1652 Clouds 24 1000 41 10000 5.14 340 17:42 04.05.2022
1653 Clouds 26 1014 36 10000 5.66 300 15:41 04.05.2022
1654 Clouds 26 1014 36 10000 5.66 300 15:23 04.05.2022
1655 Clouds 26 1014 36 10000 5.14 300 14:21 04.05.2022
1656 Clouds 26 1000 41 10000 5.14 330 13:33 04.05.2022
1657 Clouds 24 1000 43 10000 4.63 290 12:33 04.05.2022
1658 Clouds 22 1001 40 10000 4.63 290 10:41 04.05.2022
1659 Clouds 21 1001 68 10000 5.14 290 09:43 04.05.2022
1660 Clouds 21 1001 77 10000 4.12 300 08:47 04.05.2022
1661 Clouds 21 1001 77 10000 4.12 300 08:47 04.05.2022
1662 Clear 21 1000 77 10000 4.63 290 06:47 04.05.2022
1663 Clear 21 998 72 10000 5.14 290 02:59 04.05.2022
1664 Clear 19 998 77 10000 6.17 290 00:47 04.05.2022
1665 Clear 22 998 60 6000 4.12 300 22:40 03.05.2022
1666 Clear 23 997 56 6000 5.66 290 21:46 03.05.2022
1667 Clear 24 997 53 6000 5.14 310 20:54 03.05.2022
1668 Sand 24 996 50 4000 8.23 300 20:30 03.05.2022
1669 Sand 27 995 39 4000 7.72 300 18:54 03.05.2022
1670 Sand 28 994 37 4000 6.69 300 18:21 03.05.2022
1671 Sand 31 993 31 3000 6.17 300 17:19 03.05.2022
1672 Sand 32 993 21 3000 8.23 280 15:43 03.05.2022
1673 Sand 31 993 22 4000 8.75 240 13:28 03.05.2022
1674 Sand 31 993 23 4000 7.72 250 12:27 03.05.2022
1675 Sand 29 993 28 4000 7.72 250 10:57 03.05.2022
1676 Sand 28 993 30 4000 7.2 240 09:46 03.05.2022
1677 Clear 26 992 33 10000 6.17 250 07:59 03.05.2022
1678 Clear 24 991 31 10000 7.72 230 06:45 03.05.2022
1679 Clear 26 989 23 10000 1.54 60 01:52 03.05.2022
1680 Clear 27 992 14 10000 10.8 80 22:45 02.05.2022
1681 Clear 26 993 24 10000 10.8 50 21:55 02.05.2022
1682 Clear 26 993 24 10000 10.8 50 21:24 02.05.2022
1683 Clear 26 1008 38 10000 10.8 60 18:57 02.05.2022
1684 Clear 26 1008 38 10000 10.8 60 18:25 02.05.2022
1685 Clear 27 1010 34 10000 4.63 30 17:37 02.05.2022
1686 Clear 27 1011 34 10000 7.72 330 16:25 02.05.2022
1687 Clear 29 1010 28 10000 7.2 340 15:40 02.05.2022
1688 Clear 32 1009 17 10000 5.14 350 14:19 02.05.2022
1689 Clear 30 1009 15 10000 3.6 80 12:52 02.05.2022
1690 Clear 29 996 17 10000 2.57 70 11:24 02.05.2022
1691 Clear 26 997 23 10000 4.63 80 09:32 02.05.2022
1692 Clear 23 997 33 10000 6.17 80 07:57 02.05.2022
1693 Clear 21 997 59 10000 2.57 60 05:59 02.05.2022
1694 Clear 23 999 46 10000 2.57 70 00:40 02.05.2022
1695 Clear 23 999 46 10000 2.57 70 00:21 02.05.2022
1696 Clear 24 1000 41 10000 2.57 60 22:49 01.05.2022
1697 Clear 26 1013 34 10000 4.63 360 21:41 01.05.2022
1698 Clear 27 999 32 10000 3.6 320 20:29 01.05.2022
1699 Clear 28 998 32 10000 3.09 300 19:20 01.05.2022
1700 Clear 28 998 30 10000 3.09 340 18:52 01.05.2022
1701 Clear 29 998 28 10000 3.09 320 17:47 01.05.2022
1702 Clear 31 998 25 10000 2.57 280 16:29 01.05.2022
1703 Clear 31 998 25 10000 1.03 310 15:45 01.05.2022
1704 Clear 29 1013 26 10000 3.09 360 14:45 01.05.2022
1705 Clear 30 1014 20 10000 3.64 316 12:23 01.05.2022
1706 Clear 24 1001 41 10000 0 0 10:22 01.05.2022
1707 Clear 21 1001 60 10000 1.54 290 08:49 01.05.2022
1708 Clear 19 1001 72 10000 2.06 300 06:31 01.05.2022
1709 Clear 21 1000 68 10000 3.6 300 01:56 01.05.2022
1710 Clear 22 1000 56 10000 4.12 300 22:18 30.04.2022
1711 Clear 22 1000 60 10000 5.14 300 21:32 30.04.2022
1712 Clear 24 998 41 10000 5.66 300 19:54 30.04.2022
1713 Clear 26 997 27 10000 5.14 300 18:53 30.04.2022
1714 Clear 28 996 23 10000 6.69 320 17:31 30.04.2022
1715 Clear 31 995 28 10000 7.72 320 15:51 30.04.2022
1716 Clear 31 995 28 10000 7.72 320 15:51 30.04.2022
1717 Clear 31 995 28 10000 6.17 300 15:18 30.04.2022
1718 Clear 31 995 25 10000 6.17 300 13:59 30.04.2022
1719 Clear 27 1009 41 10000 5.66 280 11:48 30.04.2022
1720 Clear 27 1009 41 10000 5.66 280 11:26 30.04.2022
1721 Clear 23 1009 64 10000 5.66 260 09:57 30.04.2022
1722 Clear 23 994 56 10000 7.72 250 07:47 30.04.2022
1723 Clouds 28 990 12 6000 4.63 200 04:25 30.04.2022
1724 Clouds 31 990 13 6000 0 0 23:57 29.04.2022
1725 Clear 32 989 9 10000 0 0 22:51 29.04.2022
1726 Clear 32 989 8 10000 3.6 120 21:56 29.04.2022
1727 Clear 33 989 7 10000 4.12 140 21:25 29.04.2022
1728 Clear 34 989 7 10000 6.69 120 20:24 29.04.2022
1729 Clear 36 989 8 10000 3.6 110 19:28 29.04.2022
1730 Clear 36 989 8 10000 3.09 60 17:35 29.04.2022
1731 Clear 36 1003 8 10000 5.66 80 16:38 29.04.2022
1732 Clear 35 1006 10 10000 2.06 10 14:37 29.04.2022
1733 Clear 34 1006 13 10000 2.57 290 13:42 29.04.2022
1734 Clear 34 994 9 10000 2.57 300 12:38 29.04.2022
1735 Clear 32 994 11 10000 3.09 30 10:44 29.04.2022
1736 Clear 22 1009 35 10000 1.54 10 07:57 29.04.2022
1737 Clear 20 1009 42 10000 1.54 60 07:26 29.04.2022
1738 Clear 16 1009 59 10000 3.09 50 06:32 29.04.2022
1739 Clear 21 995 42 10000 2.06 60 02:50 29.04.2022
1740 Clear 22 997 40 10000 2.06 70 00:18 29.04.2022
1741 Clear 22 997 40 10000 3.6 60 23:26 28.04.2022
1742 Clear 23 997 40 10000 4.12 60 22:37 28.04.2022
1743 Clear 24 997 38 10000 4.63 60 21:44 28.04.2022
1744 Clear 26 996 36 10000 4.12 50 20:49 28.04.2022
1745 Clear 26 996 31 10000 5.66 50 19:57 28.04.2022
1746 Clear 27 1010 29 10000 5.66 50 19:38 28.04.2022
1747 Clear 27 996 30 10000 5.66 50 19:19 28.04.2022
1748 Clear 31 995 16 10000 4.63 10 17:56 28.04.2022
1749 Clear 31 995 16 10000 4.63 350 16:58 28.04.2022
1750 Clear 31 994 15 10000 3.6 20 16:21 28.04.2022
1751 Clear 31 994 15 10000 4.63 30 15:52 28.04.2022
1752 Clear 31 994 18 10000 5.14 20 15:21 28.04.2022
1753 Clear 31 996 16 10000 3.6 10 13:43 28.04.2022
1754 Clear 28 1011 18 10000 2.57 30 12:32 28.04.2022
1755 Clear 27 1011 18 10000 2.06 60 11:38 28.04.2022
1756 Clear 26 997 22 10000 4.63 40 10:29 28.04.2022
1757 Clear 26 997 25 10000 4.12 50 09:50 28.04.2022
1758 Clear 19 997 55 10000 2.57 60 07:44 28.04.2022
1759 Clear 18 997 67 10000 1.54 60 06:54 28.04.2022
1760 Clear 17 996 72 10000 1.54 50 05:54 28.04.2022
1761 Clear 17 996 72 10000 1.54 90 04:43 28.04.2022
1762 Clear 18 997 72 10000 2.06 60 03:28 28.04.2022
1763 Clear 21 998 49 10000 4.12 50 23:43 27.04.2022
1764 Clear 21 999 46 10000 3.09 50 22:25 27.04.2022
1765 Clear 22 998 40 10000 5.66 50 21:50 27.04.2022
1766 Clear 23 998 35 10000 6.17 60 20:51 27.04.2022
1767 Clear 23 998 35 10000 6.17 60 20:32 27.04.2022
1768 Clear 26 997 36 10000 6.17 40 19:36 27.04.2022
1769 Clear 28 1010 26 10000 7.2 10 18:52 27.04.2022
1770 Clear 29 995 20 10000 7.2 20 18:21 27.04.2022
1771 Clear 31 995 18 10000 5.14 350 16:23 27.04.2022
1772 Clear 31 996 23 10000 3.6 360 13:51 27.04.2022
1773 Clear 27 1012 29 10000 3.6 20 11:39 27.04.2022
1774 Clear 26 998 36 10000 4.12 40 11:20 27.04.2022
1775 Clear 21 998 60 10000 5.14 40 08:58 27.04.2022
1776 Clear 18 998 82 10000 3.09 60 06:45 27.04.2022
1777 Clear 18 997 77 10000 4.12 50 03:41 27.04.2022
1778 Clear 19 998 68 10000 5.14 30 01:30 27.04.2022
1779 Clear 21 998 59 10000 4.12 30 00:36 27.04.2022
1780 Clear 21 998 56 10000 4.63 30 23:25 26.04.2022
1781 Clear 21 998 56 10000 4.63 50 22:57 26.04.2022
1782 Clear 21 998 52 10000 4.63 50 22:38 26.04.2022
1783 Clear 23 998 26 10000 4.12 60 21:26 26.04.2022
1784 Clear 25 1011 23 10000 4.63 50 20:40 26.04.2022
1785 Clear 26 997 25 10000 7.2 50 19:49 26.04.2022
1786 Clear 26 996 27 10000 6.69 30 19:30 26.04.2022
1787 Clear 27 996 30 10000 6.17 40 18:44 26.04.2022
1788 Clear 29 995 26 10000 6.69 40 17:50 26.04.2022
1789 Clear 32 995 21 10000 6.69 30 16:28 26.04.2022
1790 Clouds 31 996 23 10000 4.98 42 13:59 26.04.2022
1791 Clouds 34 1008 9 10000 4.43 40 13:31 26.04.2022
1792 Clear 28 1011 28 10000 3.6 10 11:48 26.04.2022
1793 Clear 27 998 28 10000 3.6 40 10:34 26.04.2022
1794 Clouds 21 1012 56 6000 2.57 60 08:47 26.04.2022
1795 Clear 19 997 63 10000 2.57 30 06:57 26.04.2022
1796 Clear 21 996 52 10000 2.06 60 04:23 26.04.2022
1797 Clear 21 996 52 10000 2.06 60 04:23 26.04.2022
1798 Clear 21 997 43 10000 5.14 40 01:22 26.04.2022
1799 Clear 21 997 56 10000 4.12 50 00:25 26.04.2022
1800 Clear 23 997 56 10000 4.63 30 22:21 25.04.2022
1801 Clear 23 997 56 6000 4.63 50 21:39 25.04.2022
1802 Sand 26 996 44 4000 6.69 10 20:35 25.04.2022
1803 Sand 29 995 32 2000 6.69 10 18:54 25.04.2022
1804 Sand 31 994 30 2000 7.2 20 17:43 25.04.2022
1805 Sand 31 995 31 2000 6.17 10 16:52 25.04.2022
1806 Sand 31 1008 29 2000 6.17 10 15:24 25.04.2022
1807 Clear 30 1009 30 6000 4.12 40 14:34 25.04.2022
1808 Clear 29 1009 32 6000 5.14 30 13:30 25.04.2022
1809 Clear 22 1011 56 6000 4.63 360 11:37 25.04.2022
1810 Haze 21 1011 64 4000 4.12 10 10:23 25.04.2022
1811 Haze 19 997 77 4000 3.09 350 08:35 25.04.2022
1812 Clear 18 996 72 6000 2.57 10 06:38 25.04.2022
1813 Clear 19 996 59 6000 3.09 350 03:44 25.04.2022
1814 Clear 21 996 37 6000 2.57 10 00:43 25.04.2022
1815 Clear 22 996 32 6000 2.57 360 23:51 24.04.2022
1816 Clear 22 996 30 10000 2.57 10 22:41 24.04.2022
1817 Clear 23 996 28 10000 2.57 350 22:18 24.04.2022
1818 Clear 24 996 29 10000 4.12 350 21:24 24.04.2022
1819 Clear 24 995 29 10000 5.14 360 20:48 24.04.2022
1820 Clear 26 995 33 10000 4.63 350 20:29 24.04.2022
1821 Clear 26 995 31 10000 4.12 340 19:45 24.04.2022
1822 Clear 28 994 24 10000 5.14 340 18:20 24.04.2022
1823 Clear 31 993 23 10000 5.14 340 17:27 24.04.2022
1824 Clear 31 993 23 10000 5.66 350 16:58 24.04.2022
1825 Clear 31 993 23 10000 5.66 330 16:32 24.04.2022
1826 Clear 29 1008 24 10000 4.63 340 15:54 24.04.2022
1827 Clear 29 1008 24 10000 5.66 330 14:58 24.04.2022
1828 Clear 29 1008 24 10000 5.66 360 13:56 24.04.2022
1829 Clear 28 1008 26 6000 3.6 350 13:24 24.04.2022
1830 Clear 26 1009 36 6000 2.57 350 11:56 24.04.2022
1831 Clear 24 1009 38 6000 3.09 350 11:27 24.04.2022
1832 Haze 22 1009 56 4000 2.06 360 10:24 24.04.2022
1833 Haze 21 995 68 4000 2.57 10 09:19 24.04.2022
1834 Clear 16 994 87 6000 0 0 06:18 24.04.2022
1835 Clouds 17 994 82 6000 0.51 70 03:37 24.04.2022
1836 Clouds 18 995 77 6000 1.54 360 01:37 24.04.2022
1837 Clouds 18 995 77 6000 4.63 10 00:22 24.04.2022
1838 Clouds 19 995 68 6000 3.6 10 23:26 23.04.2022
1839 Clear 19 995 68 10000 3.6 360 22:55 23.04.2022
1840 Clear 21 995 56 10000 5.14 350 21:51 23.04.2022
1841 Clear 21 995 56 10000 5.14 350 21:32 23.04.2022
1842 Clear 23 994 40 10000 4.63 350 20:36 23.04.2022
1843 Clear 26 1007 27 10000 4.63 10 19:46 23.04.2022
1844 Clear 27 993 26 10000 4.63 360 19:19 23.04.2022
1845 Clear 27 993 24 10000 4.63 360 18:46 23.04.2022
1846 Clear 28 993 24 10000 4.63 340 17:50 23.04.2022
1847 Clear 29 993 26 10000 4.12 330 16:56 23.04.2022
1848 Clear 29 992 26 10000 3.6 330 16:23 23.04.2022
1849 Clear 28 993 26 10000 4.63 330 14:57 23.04.2022
1850 Clouds 25 1008 31 10000 2.57 350 12:35 23.04.2022
1851 Clouds 20 1010 60 10000 3.6 10 10:41 23.04.2022
1852 Clouds 18 996 67 10000 3.09 350 08:55 23.04.2022
1853 Clouds 16 995 82 10000 3.6 40 05:47 23.04.2022
1854 Clouds 17 1009 77 10000 4.63 20 03:54 23.04.2022
1855 Clear 17 996 82 10000 4.12 50 00:53 23.04.2022
1856 Clear 17 997 82 10000 6.17 40 23:29 22.04.2022
1857 Clear 18 997 77 10000 5.66 40 22:19 22.04.2022
1858 Clear 18 997 72 10000 6.17 30 21:41 22.04.2022
1859 Clear 19 997 63 10000 5.14 40 20:46 22.04.2022
1860 Clear 21 996 49 10000 5.66 50 20:26 22.04.2022
1861 Clear 22 996 35 10000 6.69 20 19:18 22.04.2022
1862 Clear 23 996 35 10000 4.12 40 18:36 22.04.2022
1863 Clear 24 996 35 10000 6.69 10 17:39 22.04.2022
1864 Clear 24 996 38 10000 7.2 30 16:46 22.04.2022
1865 Clear 26 996 38 10000 7.72 10 15:32 22.04.2022
1866 Clear 24 1011 41 10000 5.14 20 14:44 22.04.2022
1867 Clear 24 1011 35 10000 6.17 50 13:43 22.04.2022
1868 Clear 23 1012 40 10000 5.66 20 12:57 22.04.2022
1869 Clear 22 1012 46 10000 5.66 10 11:48 22.04.2022
1870 Clear 21 1013 46 10000 5.66 60 11:21 22.04.2022
1871 Clear 21 1013 49 10000 6.17 20 10:48 22.04.2022
1872 Clear 19 1013 55 10000 5.66 50 10:29 22.04.2022
1873 Clear 19 1013 59 10000 5.66 50 09:50 22.04.2022
1874 Clear 17 999 67 10000 5.66 50 08:50 22.04.2022
1875 Clear 16 999 76 10000 5.14 50 06:56 22.04.2022
1876 Clear 16 999 72 10000 6.69 50 01:53 22.04.2022
1877 Clear 16 1000 72 10000 6.17 50 00:51 22.04.2022
1878 Clear 17 1001 67 10000 6.17 50 22:59 21.04.2022
1879 Clear 17 1001 67 10000 6.69 40 21:59 21.04.2022
1880 Clear 19 1001 55 10000 7.72 30 20:36 21.04.2022
1881 Clear 19 1001 55 10000 7.72 30 20:18 21.04.2022
1882 Clear 23 999 40 10000 7.2 50 18:35 21.04.2022
1883 Clear 23 1000 38 10000 7.2 30 17:54 21.04.2022
1884 Clear 26 999 31 10000 6.17 30 16:30 21.04.2022
1885 Clear 26 999 33 10000 6.69 30 15:21 21.04.2022
1886 Clear 26 1000 33 10000 6.17 30 14:38 21.04.2022
1887 Clear 26 1000 31 10000 6.17 30 13:23 21.04.2022
1888 Clear 24 1001 35 10000 6.17 30 12:53 21.04.2022
1889 Clouds 21 1003 46 10000 6.17 40 10:47 21.04.2022
1890 Clouds 19 1003 52 10000 6.17 50 08:55 21.04.2022
1891 Clouds 16 1003 67 10000 3.6 40 07:24 21.04.2022
1892 Clouds 16 1002 76 10000 3.09 40 05:42 21.04.2022
1893 Clouds 16 1002 77 10000 3.09 60 03:30 21.04.2022
1894 Clouds 16 1002 77 10000 4.12 40 02:47 21.04.2022
1895 Clouds 16 1002 77 10000 4.12 40 02:47 21.04.2022
1896 Clouds 17 1003 67 10000 4.12 40 00:45 21.04.2022
1897 Clouds 17 1003 72 10000 6.17 30 23:50 20.04.2022
1898 Clouds 18 1003 67 10000 5.14 50 23:22 20.04.2022
1899 Clouds 18 1003 67 10000 5.14 40 22:49 20.04.2022
1900 Clouds 18 1003 63 10000 7.2 40 22:30 20.04.2022
1901 Clouds 19 1003 63 10000 6.69 50 21:27 20.04.2022
1902 Clouds 21 1002 56 10000 6.69 40 20:24 20.04.2022
1903 Clouds 21 1002 52 10000 6.69 50 19:52 20.04.2022
1904 Clouds 22 1002 43 10000 5.66 10 19:20 20.04.2022
1905 Clouds 23 1002 38 10000 4.12 10 18:22 20.04.2022
1906 Clouds 24 1001 35 10000 5.14 360 16:54 20.04.2022
1907 Clouds 24 1001 35 10000 5.14 360 16:36 20.04.2022
1908 Clouds 24 1002 38 10000 4.12 340 13:59 20.04.2022
1909 Clouds 21 1004 40 10000 4.12 360 11:50 20.04.2022
1910 Clouds 21 1004 43 10000 4.63 360 11:21 20.04.2022
1911 Clouds 19 1004 52 10000 3.09 360 10:22 20.04.2022
1912 Clouds 18 1004 59 10000 3.09 350 09:25 20.04.2022
1913 Clouds 17 1004 67 6000 2.06 30 08:22 20.04.2022
1914 Mist 16 1004 77 4000 3.6 360 07:37 20.04.2022
1915 Clear 16 1003 77 10000 2.57 10 03:49 20.04.2022
1916 Clear 17 1003 72 10000 4.12 10 00:23 20.04.2022
1917 Clear 17 1003 72 10000 5.14 360 23:56 19.04.2022
1918 Clear 18 1003 63 10000 6.17 10 22:27 19.04.2022
1919 Clear 19 1003 59 10000 6.69 360 21:57 19.04.2022
1920 Clear 19 1003 59 10000 6.69 360 21:33 19.04.2022
1921 Clear 21 1001 49 10000 5.66 340 20:46 19.04.2022
1922 Clear 21 1001 49 10000 5.66 340 20:26 19.04.2022
1923 Clear 22 1000 49 10000 6.69 350 19:19 19.04.2022
1924 Clear 22 1000 49 10000 6.69 350 19:19 19.04.2022
1925 Clear 26 999 19 10000 5.14 300 17:51 19.04.2022
1926 Clear 27 998 19 10000 5.14 290 16:43 19.04.2022
1927 Clear 27 998 19 10000 3.09 250 16:24 19.04.2022
1928 Clear 26 999 25 10000 2.57 270 14:51 19.04.2022
1929 Clear 27 999 24 10000 5.14 280 14:30 19.04.2022
1930 Clear 26 1000 27 10000 4.12 290 12:51 19.04.2022
1931 Clear 26 1000 29 10000 6.17 270 12:26 19.04.2022
1932 Clear 26 1000 31 10000 2.06 340 10:50 19.04.2022
1933 Clear 23 1000 40 10000 0 0 09:25 19.04.2022
1934 Clouds 18 998 82 6000 1.54 30 06:30 19.04.2022
1935 Clouds 18 997 82 6000 2.57 360 04:19 19.04.2022
1936 Clouds 19 997 77 6000 3.09 10 00:56 19.04.2022
1937 Clouds 19 997 77 6000 4.63 10 23:38 18.04.2022
1938 Clouds 21 996 64 6000 4.63 330 21:39 18.04.2022
1939 Clouds 21 996 64 6000 4.63 330 21:20 18.04.2022
1940 Clouds 22 995 64 6000 6.69 20 20:36 18.04.2022
1941 Clouds 23 995 60 6000 4.63 10 19:57 18.04.2022
1942 Clouds 24 995 53 6000 4.63 350 19:27 18.04.2022
1943 Haze 26 994 50 2000 4.12 360 18:33 18.04.2022
1944 Haze 26 994 50 2000 4.12 360 17:38 18.04.2022
1945 Haze 25 1008 50 2000 4.12 360 17:18 18.04.2022
1946 Haze 25 1008 47 2000 4.63 350 16:35 18.04.2022
1947 Haze 26 1008 41 2000 4.12 330 15:27 18.04.2022
1948 Haze 26 1008 38 2000 4.63 340 13:42 18.04.2022
1949 Haze 26 1008 38 2000 4.63 340 13:42 18.04.2022
1950 Haze 26 1008 36 2000 4.63 360 12:40 18.04.2022
1951 Haze 26 1008 41 2000 4.63 340 11:42 18.04.2022
1952 Haze 27 994 34 2000 3.09 30 10:43 18.04.2022
1953 Haze 24 994 41 2000 2.57 340 09:31 18.04.2022
1954 Haze 25 1007 36 2000 2.06 350 08:29 18.04.2022
1955 Haze 24 1006 35 3000 3.09 30 05:58 18.04.2022
1956 Clouds 32 1003 12 6000 3.6 170 01:38 18.04.2022
1957 Clouds 34 990 7 6000 5.14 170 22:53 17.04.2022
1958 Clouds 34 990 9 6000 4.12 170 22:31 17.04.2022
1959 Clear 36 990 10 10000 3.09 190 21:32 17.04.2022
1960 Clear 36 990 8 10000 5.14 270 20:50 17.04.2022
1961 Clouds 37 1003 6 6000 5.14 160 19:53 17.04.2022
1962 Sand 39 989 7 4000 5.14 170 18:34 17.04.2022
1963 Sand 41 989 6 4000 5.14 200 16:44 17.04.2022
1964 Sand 41 990 6 4000 5.66 200 15:33 17.04.2022
1965 Sand 39 990 6 4000 7.2 190 14:28 17.04.2022
1966 Sand 39 991 7 4000 7.72 220 13:23 17.04.2022
1967 Sand 38 992 8 4000 6.69 210 12:30 17.04.2022
1968 Haze 34 993 14 4000 3.09 290 10:48 17.04.2022
1969 Haze 33 993 14 4000 3.6 280 10:29 17.04.2022
1970 Haze 33 993 10 4000 1.54 290 09:50 17.04.2022
1971 Haze 29 993 13 4000 0 0 08:59 17.04.2022
1972 Haze 26 1007 19 4000 0 0 08:29 17.04.2022
1973 Clear 22 993 35 6000 0 0 05:33 17.04.2022
1974 Clear 22 995 40 10000 2.57 60 01:47 17.04.2022
1975 Clear 23 996 38 10000 1.54 50 23:59 16.04.2022
1976 Clear 24 996 31 10000 3.09 80 22:56 16.04.2022
1977 Clear 24 996 35 10000 4.12 70 21:45 16.04.2022
1978 Clear 26 996 31 10000 4.12 70 20:54 16.04.2022
1979 Clear 28 996 15 10000 4.63 50 19:21 16.04.2022
1980 Clear 29 1010 14 10000 4.63 50 18:35 16.04.2022
1981 Clear 31 996 10 10000 4.63 50 16:51 16.04.2022
1982 Clear 31 996 8 10000 5.14 80 15:48 16.04.2022
1983 Clear 31 997 9 10000 3.09 60 14:58 16.04.2022
1984 Clear 31 997 10 10000 5.14 60 14:37 16.04.2022
1985 Clear 29 1012 12 10000 5.14 50 13:49 16.04.2022
1986 Clear 28 1012 11 10000 5.66 70 12:43 16.04.2022
1987 Clear 25 1013 22 10000 6.17 60 11:33 16.04.2022
1988 Clear 23 1013 33 10000 5.14 60 10:29 16.04.2022
1989 Clear 21 999 40 10000 6.17 60 09:36 16.04.2022
1990 Clear 20 1013 42 10000 6.69 60 08:42 16.04.2022
1991 Clouds 17 999 77 6000 5.66 80 07:21 16.04.2022
1992 Clear 16 999 87 10000 3.6 60 04:58 16.04.2022
1993 Clear 17 999 77 10000 4.63 60 01:23 16.04.2022
1994 Clear 17 1000 77 10000 5.14 60 23:45 15.04.2022
1995 Clear 18 1000 67 10000 4.63 60 22:48 15.04.2022
1996 Clear 18 1000 67 10000 5.66 60 22:28 15.04.2022
1997 Clear 18 1000 63 10000 4.63 50 21:21 15.04.2022
1998 Clear 19 1000 59 10000 6.17 40 20:38 15.04.2022
1999 Clear 21 1000 52 10000 5.66 40 19:44 15.04.2022
2000 Clear 21 1000 49 10000 6.17 30 18:59 15.04.2022
2001 Clear 21 1000 49 10000 6.17 30 18:41 15.04.2022
2002 Clear 23 999 40 10000 7.2 30 18:21 15.04.2022
2003 Clear 25 1013 33 10000 6.69 20 17:26 15.04.2022
2004 Clear 26 999 27 10000 6.17 20 16:25 15.04.2022
2005 Clear 26 999 25 10000 5.66 10 15:45 15.04.2022
2006 Clear 26 999 31 10000 4.12 40 13:55 15.04.2022
2007 Clear 23 1014 35 10000 6.69 50 12:52 15.04.2022
2008 Clear 23 1014 35 10000 6.69 50 12:24 15.04.2022
2009 Clear 22 1014 37 10000 6.69 20 11:50 15.04.2022
2010 Clear 21 1015 43 10000 4.63 40 10:46 15.04.2022
2011 Clear 21 1015 43 10000 4.63 40 10:46 15.04.2022
2012 Clear 21 1001 45 10000 4.63 60 10:20 15.04.2022
2013 Clear 18 1001 55 10000 6.69 50 09:22 15.04.2022
2014 Clear 17 1000 63 10000 5.66 60 08:40 15.04.2022
2015 Clear 14 1000 76 10000 3.6 50 06:50 15.04.2022
2016 Clear 14 1000 76 10000 3.6 30 04:49 15.04.2022
2017 Clear 16 1001 67 10000 3.6 50 00:46 15.04.2022
2018 Clear 16 1002 67 10000 4.63 50 23:26 14.04.2022
2019 Clear 17 1002 59 10000 4.63 50 22:46 14.04.2022
2020 Clear 17 1002 59 10000 5.66 50 22:27 14.04.2022
2021 Clear 17 1002 59 10000 6.17 50 21:50 14.04.2022
2022 Clear 19 1001 52 10000 8.23 30 19:51 14.04.2022
2023 Clear 21 1001 45 10000 7.72 30 19:22 14.04.2022
2024 Clear 23 1000 33 10000 8.75 30 17:46 14.04.2022
2025 Clear 24 999 31 10000 7.2 30 17:18 14.04.2022
2026 Clear 24 999 31 10000 6.69 40 16:21 14.04.2022
2027 Clear 24 1000 31 10000 5.14 30 13:54 14.04.2022
2028 Clear 24 1000 33 10000 4.12 10 13:25 14.04.2022
2029 Clear 22 1014 35 10000 7.2 30 12:33 14.04.2022
2030 Clear 22 1001 35 10000 6.69 30 11:47 14.04.2022
2031 Clear 21 1001 37 10000 6.17 40 11:20 14.04.2022
2032 Clear 19 1015 45 10000 7.2 50 10:33 14.04.2022
2033 Clear 18 1001 51 10000 7.2 70 09:50 14.04.2022
2034 Clear 18 1001 55 10000 6.69 60 08:35 14.04.2022
2035 Clear 14 1000 76 10000 3.6 50 06:24 14.04.2022
2036 Clear 16 1001 72 10000 5.66 40 01:49 14.04.2022
2037 Clear 16 1001 67 10000 6.69 40 22:41 13.04.2022
2038 Clear 17 1001 63 10000 6.17 40 21:44 13.04.2022
2039 Clear 17 1001 55 10000 6.69 40 20:47 13.04.2022
2040 Clear 18 1000 51 10000 6.69 40 20:18 13.04.2022
2041 Clear 21 999 43 10000 6.69 20 18:50 13.04.2022
2042 Clear 22 998 43 10000 7.2 20 17:54 13.04.2022
2043 Clear 23 998 38 10000 6.69 20 17:23 13.04.2022
2044 Clear 23 998 38 10000 5.14 10 16:24 13.04.2022
2045 Clear 24 999 33 10000 4.12 350 15:31 13.04.2022
2046 Clear 24 999 33 10000 5.14 10 14:46 13.04.2022
2047 Clear 23 999 35 10000 4.12 40 13:57 13.04.2022
2048 Clear 21 1014 40 10000 7.2 10 12:59 13.04.2022
2049 Clear 21 1000 42 10000 4.12 40 12:19 13.04.2022
2050 Clear 19 1001 45 10000 4.63 20 10:46 13.04.2022
2051 Clear 16 1001 55 10000 5.14 40 08:57 13.04.2022
2052 Clear 16 1001 58 10000 5.14 40 08:31 13.04.2022
2053 Clear 13 1001 66 10000 3.6 10 06:51 13.04.2022
2054 Clear 13 1001 66 10000 3.09 360 06:25 13.04.2022
2055 Clear 14 1001 62 10000 3.6 10 03:31 13.04.2022
2056 Clear 16 1002 58 10000 4.12 20 00:20 13.04.2022
2057 Clear 16 1002 62 10000 5.14 20 22:46 12.04.2022
2058 Clear 16 1002 58 10000 6.17 360 21:57 12.04.2022
2059 Clear 17 1002 55 10000 5.14 350 20:49 12.04.2022
2060 Clear 17 1002 55 10000 8.23 10 20:27 12.04.2022
2061 Clear 18 1001 51 10000 6.69 360 19:47 12.04.2022
2062 Clear 19 1001 48 10000 7.2 350 19:28 12.04.2022
2063 Clear 21 1000 40 10000 5.14 350 17:59 12.04.2022
2064 Clear 22 1000 35 10000 4.63 350 16:53 12.04.2022
2065 Clear 22 1014 37 10000 4.63 350 15:52 12.04.2022
2066 Clear 22 1014 35 10000 5.14 360 15:25 12.04.2022
2067 Clear 22 1015 35 10000 4.63 360 14:21 12.04.2022
2068 Clear 21 1016 37 10000 4.12 340 13:28 12.04.2022
2069 Clear 20 1016 40 10000 4.12 300 12:44 12.04.2022
2070 Clear 21 1003 39 10000 3.09 300 11:42 12.04.2022
2071 Clouds 18 1004 48 10000 4.12 320 10:30 12.04.2022
2072 Clouds 17 1003 51 10000 5.14 360 08:54 12.04.2022
2073 Clouds 17 1003 51 10000 5.14 360 08:54 12.04.2022
2074 Clouds 16 1003 55 6000 4.12 360 07:51 12.04.2022
2075 Clear 16 1002 62 10000 2.06 10 05:49 12.04.2022
2076 Clear 15 1016 63 10000 3.6 350 04:46 12.04.2022
2077 Clear 16 1003 58 10000 5.14 350 23:49 11.04.2022
2078 Clear 16 1003 63 10000 5.14 350 22:44 11.04.2022
2079 Clear 18 1002 55 10000 6.17 340 21:37 11.04.2022
2080 Clear 19 1016 52 10000 6.17 310 20:55 11.04.2022
2081 Clear 19 1002 52 10000 6.17 310 20:28 11.04.2022
2082 Clear 21 1014 49 10000 6.17 320 19:37 11.04.2022
2083 Clear 21 1000 49 10000 6.17 320 19:18 11.04.2022
2084 Clear 23 1013 46 10000 6.69 330 18:40 11.04.2022
2085 Clear 26 998 41 10000 6.17 330 17:56 11.04.2022
2086 Clear 26 998 27 10000 6.69 320 16:54 11.04.2022
2087 Clear 27 1012 24 10000 5.66 340 15:45 11.04.2022
2088 Clear 26 1013 21 6000 4.63 330 13:53 11.04.2022
2089 Clear 25 1013 29 6000 4.63 340 12:44 11.04.2022
2090 Clear 24 1014 33 6000 3.6 310 12:25 11.04.2022
2091 Clear 23 1000 38 6000 4.63 360 11:30 11.04.2022
2092 Clear 21 1000 40 6000 2.57 10 10:21 11.04.2022
2093 Clear 18 1000 77 6000 2.06 360 08:50 11.04.2022
2094 Clear 16 998 93 6000 3.6 360 05:38 11.04.2022
2095 Clear 18 998 77 10000 3.6 50 00:57 11.04.2022
2096 Clear 18 999 77 10000 4.63 50 22:33 10.04.2022
2097 Clear 19 999 72 10000 6.69 40 21:55 10.04.2022
2098 Clear 21 998 68 10000 5.14 50 21:26 10.04.2022
2099 Clear 21 998 60 10000 6.17 50 20:30 10.04.2022
2100 Clear 23 998 49 10000 6.69 40 19:41 10.04.2022
2101 Clear 24 997 43 10000 7.2 40 19:18 10.04.2022
2102 Clear 26 997 44 10000 6.17 40 18:38 10.04.2022
2103 Clear 26 997 41 10000 6.17 10 17:51 10.04.2022
2104 Clear 26 1011 41 10000 6.17 10 17:31 10.04.2022
2105 Clear 28 1011 34 10000 5.14 10 15:53 10.04.2022
2106 Clear 27 1011 39 10000 5.14 360 14:49 10.04.2022
2107 Clear 27 1011 36 10000 4.63 20 13:49 10.04.2022
2108 Clear 24 1012 43 10000 4.12 50 12:33 10.04.2022
2109 Clear 24 1012 46 10000 4.12 40 11:45 10.04.2022
2110 Clear 22 1012 53 10000 5.14 40 11:24 10.04.2022
2111 Clear 20 1013 64 10000 4.12 360 10:38 10.04.2022
2112 Clear 20 1013 64 10000 5.14 20 09:46 10.04.2022
2113 Clear 18 1013 77 10000 5.14 40 08:55 10.04.2022
2114 Clear 18 999 72 10000 6.17 20 08:20 10.04.2022
2115 Clear 16 998 82 10000 4.12 20 06:59 10.04.2022
2116 Clear 16 998 82 10000 4.12 60 04:36 10.04.2022
2117 Clear 17 999 82 10000 5.14 40 02:19 10.04.2022
2118 Clear 17 1000 82 10000 6.17 40 23:54 09.04.2022
2119 Clear 17 1000 82 10000 6.17 40 23:54 09.04.2022
2120 Clear 18 1000 67 10000 6.17 30 23:25 09.04.2022
2121 Clear 19 1000 63 10000 5.66 40 22:39 09.04.2022
2122 Clear 21 999 59 10000 5.14 50 21:28 09.04.2022
2123 Clear 22 999 53 10000 5.14 50 20:31 09.04.2022
2124 Clear 22 998 53 10000 6.69 40 19:57 09.04.2022
2125 Clear 22 998 53 10000 6.69 40 19:39 09.04.2022
2126 Clear 26 997 41 10000 7.2 20 18:24 09.04.2022
2127 Clear 26 997 39 10000 7.2 10 17:50 09.04.2022
2128 Clear 27 997 30 10000 6.17 360 16:59 09.04.2022
2129 Clear 27 997 30 10000 6.17 360 16:40 09.04.2022
2130 Clear 28 997 24 10000 4.12 30 15:50 09.04.2022
2131 Clear 27 998 26 10000 5.14 20 15:26 09.04.2022
2132 Clear 26 1012 29 10000 5.14 40 14:26 09.04.2022
2133 Clear 25 1013 31 10000 5.66 30 13:33 09.04.2022
2134 Clear 26 999 31 10000 5.14 40 12:56 09.04.2022
2135 Clear 23 1014 40 10000 6.17 40 11:50 09.04.2022
2136 Clear 21 1014 49 10000 5.14 40 10:52 09.04.2022
2137 Clear 21 1001 52 10000 5.14 40 10:18 09.04.2022
2138 Clear 18 1001 67 10000 3.6 40 09:23 09.04.2022
2139 Clouds 16 1001 82 10000 4.63 50 08:26 09.04.2022
2140 Clear 16 1000 82 10000 2.57 40 04:38 09.04.2022
2141 Clear 17 1002 72 10000 5.14 40 00:35 09.04.2022
2142 Clear 18 1002 67 10000 4.63 30 23:24 08.04.2022
2143 Clear 18 1002 67 10000 6.17 360 21:53 08.04.2022
2144 Clear 19 1001 63 10000 5.14 10 20:44 08.04.2022
2145 Clear 21 1000 60 10000 6.69 360 19:57 08.04.2022
2146 Clear 22 1000 53 10000 4.12 350 18:59 08.04.2022
2147 Clear 23 1000 49 10000 5.66 340 18:24 08.04.2022
2148 Clear 26 999 44 10000 6.17 350 17:29 08.04.2022
2149 Clear 26 999 39 10000 5.14 350 16:58 08.04.2022
2150 Clear 26 1013 36 10000 4.63 340 16:32 08.04.2022
2151 Clear 26 1013 29 10000 6.17 310 15:38 08.04.2022
2152 Clear 26 1013 31 10000 5.66 330 14:52 08.04.2022
2153 Clear 26 1013 36 10000 4.63 330 14:21 08.04.2022
2154 Clear 26 1013 41 10000 5.14 300 13:41 08.04.2022
2155 Clear 26 1013 41 10000 6.17 310 13:22 08.04.2022
2156 Clouds 24 1014 46 6000 6.69 300 11:43 08.04.2022
2157 Clouds 23 1000 56 6000 4.63 300 10:26 08.04.2022
2158 Clouds 21 1013 64 6000 1.54 320 09:20 08.04.2022
2159 Clouds 21 999 68 6000 4.12 300 08:25 08.04.2022
2160 Dust 21 997 64 4000 3.6 320 06:47 08.04.2022
2161 Dust 27 1010 26 4000 3.09 290 03:48 08.04.2022
2162 Clouds 34 1010 8 6000 3.6 190 00:32 08.04.2022
2163 Clouds 34 1010 8 6000 8.23 170 23:59 07.04.2022
2164 Clouds 34 996 7 6000 5.14 170 22:58 07.04.2022
2165 Clouds 34 996 7 6000 5.66 170 22:37 07.04.2022
2166 Clouds 34 996 7 6000 5.66 170 22:19 07.04.2022
2167 Clouds 34 996 7 6000 5.66 170 21:47 07.04.2022
2168 Clouds 35 1010 8 6000 5.66 180 20:57 07.04.2022
2169 Clouds 34 996 10 6000 4.63 170 20:28 07.04.2022
2170 Clouds 37 996 9 6000 4.12 190 17:51 07.04.2022
2171 Clouds 37 997 9 6000 3.6 190 17:24 07.04.2022
2172 Clouds 38 997 8 6000 4.12 220 16:42 07.04.2022
2173 Clouds 38 997 8 6000 4.12 220 16:18 07.04.2022
2174 Clouds 37 998 7 6000 2.06 210 14:31 07.04.2022
2175 Dust 36 998 8 4000 2.06 200 13:41 07.04.2022
2176 Dust 34 1000 9 4000 1.54 30 12:40 07.04.2022
2177 Dust 32 1000 11 4000 1.54 30 10:58 07.04.2022
2178 Dust 29 1014 15 4000 2.06 60 09:36 07.04.2022
2179 Dust 26 999 27 4000 0 0 08:37 07.04.2022
2180 Dust 21 999 52 4000 0.51 70 06:42 07.04.2022
2181 Dust 22 1000 53 4000 3.09 10 02:43 07.04.2022
2182 Dust 22 1000 56 4000 3.09 20 01:52 07.04.2022
2183 Dust 24 1001 50 4000 2.06 320 23:57 06.04.2022
2184 Clouds 26 1001 41 6000 0 0 22:46 06.04.2022
2185 Clouds 26 1001 44 6000 1.54 360 22:25 06.04.2022
2186 Clouds 26 1001 39 6000 2.06 310 21:32 06.04.2022
2187 Clouds 28 1000 32 6000 5.14 320 20:28 06.04.2022
2188 Clouds 28 999 32 6000 5.14 340 19:53 06.04.2022
2189 Clouds 31 998 30 6000 5.14 320 18:51 06.04.2022
2190 Clouds 31 998 29 6000 5.14 290 17:57 06.04.2022
2191 Clouds 33 998 21 6000 5.14 290 17:35 06.04.2022
2192 Clear 34 998 15 6000 6.17 280 16:36 06.04.2022
2193 Clear 36 998 12 6000 6.69 270 15:48 06.04.2022
2194 Clear 36 998 34 6000 6.69 290 14:35 06.04.2022
2195 Clouds 36 999 9 6000 5.14 280 12:58 06.04.2022
2196 Clouds 36 999 9 6000 4.63 250 12:22 06.04.2022
2197 Clouds 32 1014 9 6000 3.09 280 10:47 06.04.2022
2198 Clouds 32 1000 9 6000 3.09 280 10:24 06.04.2022
2199 Clouds 31 1000 10 6000 4.12 250 09:40 06.04.2022
2200 Clouds 31 999 8 6000 4.63 210 08:32 06.04.2022
2201 Clear 29 998 12 10000 3.09 210 07:47 06.04.2022
2202 Clear 29 996 12 10000 1.54 230 03:53 06.04.2022
2203 Clouds 29 998 16 6000 4.63 160 23:52 05.04.2022
2204 Clear 31 998 15 6000 3.09 150 22:31 05.04.2022
2205 Clear 31 998 14 6000 3.09 150 21:20 05.04.2022
2206 Clouds 34 1011 13 6000 0 0 20:25 05.04.2022
2207 Clouds 34 1012 12 6000 1.03 290 19:41 05.04.2022
2208 Clouds 37 996 7 6000 2.57 280 18:18 05.04.2022
2209 Clouds 39 996 5 6000 3.6 250 16:54 05.04.2022
2210 Clouds 39 997 4 6000 2.57 290 15:56 05.04.2022
2211 Clouds 39 997 4 6000 2.57 290 15:34 05.04.2022
2212 Clouds 38 997 5 6000 3.09 270 14:35 05.04.2022
2213 Clouds 37 998 7 6000 2.57 290 13:35 05.04.2022
2214 Clouds 34 999 9 6000 0 0 11:51 05.04.2022
2215 Clouds 33 1000 10 6000 0 0 11:32 05.04.2022
2216 Clouds 31 1000 13 6000 0 0 09:59 05.04.2022
2217 Clear 27 1014 19 10000 0 0 08:54 05.04.2022
2218 Clear 19 1014 30 10000 1.03 150 06:58 05.04.2022
2219 Clear 21 1000 39 10000 3.09 80 01:58 05.04.2022
2220 Clear 21 1002 40 10000 4.63 70 22:44 04.04.2022
2221 Clear 22 1002 35 10000 5.14 60 22:26 04.04.2022
2222 Clear 24 1002 29 10000 4.12 50 21:21 04.04.2022
2223 Clear 26 1016 19 10000 5.14 30 20:50 04.04.2022
2224 Clear 28 1015 15 10000 5.14 60 19:58 04.04.2022
2225 Clear 29 1014 14 10000 6.17 60 19:26 04.04.2022
2226 Clear 30 1014 11 10000 6.69 60 18:33 04.04.2022
2227 Clear 33 1000 10 10000 7.2 60 16:37 04.04.2022
2228 Clear 33 1000 9 10000 7.72 60 15:58 04.04.2022
2229 Clear 33 1000 9 10000 7.72 60 15:33 04.04.2022
2230 Clear 33 1000 9 10000 8.75 60 14:46 04.04.2022
2231 Clear 32 1002 9 10000 9.26 60 13:33 04.04.2022
2232 Clear 31 1002 9 10000 10.8 60 12:23 04.04.2022
2233 Clear 29 1003 12 10000 8.23 70 11:29 04.04.2022
2234 Clear 24 1003 17 10000 6.17 60 09:20 04.04.2022
2235 Clear 18 1002 45 10000 4.12 60 05:27 04.04.2022
2236 Clear 19 1002 45 10000 5.66 60 02:41 04.04.2022
2237 Clear 21 1002 32 10000 5.14 50 22:47 03.04.2022
2238 Clear 22 1002 30 10000 6.17 60 21:48 03.04.2022
2239 Clear 22 1002 28 10000 6.17 50 21:25 03.04.2022
2240 Clear 23 1002 28 10000 6.69 50 19:52 03.04.2022
2241 Clouds 26 1001 22 6000 7.72 50 18:34 03.04.2022
2242 Clouds 27 1000 17 6000 9.26 40 17:49 03.04.2022
2243 Clouds 28 1000 16 6000 8.75 50 17:27 03.04.2022
2244 Clouds 28 1000 16 6000 9.26 40 16:48 03.04.2022
2245 Clouds 31 1000 12 6000 7.72 40 15:42 03.04.2022
2246 Clouds 28 1001 21 6000 8.23 40 13:58 03.04.2022
2247 Clouds 28 1001 21 6000 8.23 50 12:58 03.04.2022
2248 Clouds 24 1017 33 6000 6.17 50 11:34 03.04.2022
2249 Clouds 23 1002 38 6000 5.14 40 09:52 03.04.2022
2250 Haze 21 1002 52 4000 5.14 60 08:57 03.04.2022
2251 Haze 19 1000 68 4000 2.06 70 05:45 03.04.2022
2252 Haze 19 1000 68 4000 2.06 70 05:45 03.04.2022
2253 Clouds 21 1000 72 6000 1.54 360 02:55 03.04.2022
2254 Clouds 23 1000 53 6000 4.12 340 23:35 02.04.2022
2255 Clouds 26 1000 36 6000 3.6 10 22:43 02.04.2022
2256 Clouds 26 1000 39 6000 3.09 10 21:55 02.04.2022
2257 Clouds 27 1000 32 6000 2.57 50 21:19 02.04.2022
2258 Clouds 28 1014 30 6000 3.09 50 20:36 02.04.2022
2259 Clouds 31 998 30 6000 3.09 10 18:47 02.04.2022
2260 Clouds 31 998 27 6000 3.09 340 18:19 02.04.2022
2261 Clouds 32 998 18 6000 4.12 340 16:50 02.04.2022
2262 Clouds 33 998 14 6000 4.12 340 15:44 02.04.2022
2263 Clear 33 998 15 10000 3.09 340 15:19 02.04.2022
2264 Clear 33 998 7 10000 3.09 310 14:31 02.04.2022
2265 Haze 33 999 11 4000 3.09 280 13:34 02.04.2022
2266 Haze 33 999 16 5000 2.06 330 12:21 02.04.2022
2267 Clouds 28 999 20 6000 1.03 340 10:31 02.04.2022
2268 Clouds 22 1013 33 6000 0 0 08:26 02.04.2022
2269 Clouds 21 998 42 6000 0 0 04:59 02.04.2022
2270 Clouds 21 998 46 6000 1.03 150 02:56 02.04.2022
2271 Clouds 24 999 46 6000 0 0 23:54 01.04.2022
2272 Clouds 24 1000 46 6000 2.06 10 22:51 01.04.2022
2273 Clouds 26 999 44 6000 1.54 100 21:24 01.04.2022
2274 Haze 26 999 41 4000 1.54 50 20:48 01.04.2022
2275 Haze 27 998 36 4000 1.54 360 19:46 01.04.2022
2276 Haze 27 998 36 4000 1.54 360 19:26 01.04.2022
2277 Haze 28 998 37 4000 2.57 340 18:38 01.04.2022
2278 Haze 31 1011 19 4000 2.57 330 17:43 01.04.2022
2279 Clouds 32 998 13 6000 1.54 310 16:24 01.04.2022
2280 Clouds 32 998 9 6000 2.57 300 14:56 01.04.2022
2281 Clouds 29 999 26 6000 3.09 290 13:56 01.04.2022
2282 Clouds 29 999 26 6000 1.54 290 13:31 01.04.2022
2283 Clouds 27 1000 32 6000 2.06 280 12:26 01.04.2022
2284 Clouds 22 1014 43 6000 0 0 10:54 01.04.2022
2285 Clouds 21 1015 46 6000 0 0 09:49 01.04.2022
2286 Clouds 16 1014 72 6000 1.54 30 07:50 01.04.2022
2287 Clear 16 1000 76 10000 2.06 30 05:45 01.04.2022
2288 Clear 16 1000 82 10000 1.54 50 04:43 01.04.2022
2289 Clear 16 1000 82 10000 2.57 50 03:20 01.04.2022
2290 Clear 16 1001 77 10000 3.09 50 01:52 01.04.2022
2291 Clear 19 1002 39 10000 3.6 50 22:37 31.03.2022
2292 Clear 21 1002 34 10000 3.6 50 21:44 31.03.2022
2293 Clear 22 1001 24 10000 5.14 50 20:51 31.03.2022
2294 Clear 22 1001 24 10000 5.14 50 20:28 31.03.2022
2295 Clear 22 1001 24 10000 4.63 50 19:44 31.03.2022
2296 Clear 26 1014 22 10000 6.17 30 18:35 31.03.2022
2297 Clear 28 1000 11 10000 5.14 40 17:25 31.03.2022
2298 Clear 29 1000 10 10000 5.14 50 15:58 31.03.2022
2299 Clear 29 1000 9 10000 4.12 60 15:29 31.03.2022
2300 Clear 29 1001 9 10000 3.09 70 14:49 31.03.2022
2301 Clear 29 1001 9 10000 3.09 70 14:19 31.03.2022
2302 Clear 27 1003 10 10000 4.12 50 11:31 31.03.2022
2303 Clear 27 1003 9 10000 4.63 50 10:41 31.03.2022
2304 Clouds 24 1003 13 6000 2.06 70 09:43 31.03.2022
2305 Clear 19 1002 19 10000 1.03 30 07:49 31.03.2022
2306 Clear 17 1001 23 10000 2.06 40 03:57 31.03.2022
2307 Clear 19 1002 37 10000 2.57 70 23:27 30.03.2022
2308 Clear 19 1003 45 10000 3.09 80 22:20 30.03.2022
2309 Clear 21 1002 45 6000 4.12 60 21:32 30.03.2022
2310 Clear 21 1002 43 6000 4.63 60 20:44 30.03.2022
2311 Clear 23 1001 35 6000 4.12 10 19:57 30.03.2022
2312 Clear 24 1001 31 6000 4.63 20 18:50 30.03.2022
2313 Clear 26 1000 22 6000 3.09 340 17:52 30.03.2022
2314 Clear 26 1000 22 6000 3.09 340 17:52 30.03.2022
2315 Clear 26 1000 22 6000 3.09 340 17:52 30.03.2022
2316 Clear 26 1000 19 6000 3.6 10 17:32 30.03.2022
2317 Clear 26 1000 20 6000 3.09 350 16:42 30.03.2022
2318 Clear 26 1000 20 6000 3.09 350 16:19 30.03.2022
2319 Clear 26 1001 20 6000 4.12 330 14:47 30.03.2022
2320 Clear 26 1001 20 6000 3.09 340 13:26 30.03.2022
2321 Clear 24 1002 29 6000 2.57 350 12:32 30.03.2022
2322 Clear 22 1003 32 6000 2.06 340 10:48 30.03.2022
2323 Clear 21 1002 37 6000 1.54 50 09:58 30.03.2022
2324 Mist 14 1002 82 3000 3.6 90 08:29 30.03.2022
2325 Mist 13 1002 87 2000 2.57 80 07:29 30.03.2022
2326 Mist 13 1001 100 2000 3.09 360 05:40 30.03.2022
2327 Mist 16 1001 93 2000 2.06 10 03:20 30.03.2022
2328 Clear 18 1002 77 10000 3.09 350 22:56 29.03.2022
2329 Clouds 19 1002 68 6000 1.54 20 21:58 29.03.2022
2330 Clouds 19 1002 68 6000 4.12 360 21:37 29.03.2022
2331 Clouds 21 1015 60 6000 3.6 340 20:30 29.03.2022
2332 Clear 22 1001 53 6000 3.09 350 19:34 29.03.2022
2333 Clear 23 1001 46 6000 3.09 350 18:54 29.03.2022
2334 Clear 23 1000 46 6000 4.12 350 17:57 29.03.2022
2335 Clear 24 1014 41 6000 3.6 330 17:20 29.03.2022
2336 Clear 24 1014 43 6000 4.63 320 16:54 29.03.2022
2337 Clear 24 1014 38 6000 3.09 360 15:44 29.03.2022
2338 Clear 24 1014 38 6000 3.09 30 14:43 29.03.2022
2339 Clear 24 1014 38 6000 3.09 30 14:43 29.03.2022
2340 Clear 22 1017 49 6000 4.12 20 13:36 29.03.2022
2341 Clear 21 1017 52 6000 3.6 350 12:39 29.03.2022
2342 Clouds 18 1018 63 10000 3.09 30 11:24 29.03.2022
2343 Clouds 17 1005 67 10000 3.6 360 10:23 29.03.2022
2344 Clear 16 1005 82 10000 4.63 50 08:57 29.03.2022
2345 Clear 13 1004 81 10000 2.57 50 06:53 29.03.2022
2346 Clear 13 1005 76 10000 4.63 50 02:55 29.03.2022
2347 Clear 14 1008 71 10000 5.66 60 23:40 28.03.2022
2348 Clear 14 1008 71 10000 5.14 60 22:58 28.03.2022
2349 Clear 14 1008 71 10000 5.14 60 22:58 28.03.2022
2350 Clear 16 1009 62 10000 6.17 50 22:35 28.03.2022
2351 Clear 16 1009 62 10000 5.66 60 21:48 28.03.2022
2352 Clear 16 1009 55 10000 8.23 40 20:41 28.03.2022
2353 Clear 18 1009 45 10000 7.2 50 19:59 28.03.2022
2354 Clear 18 1009 45 10000 7.2 50 19:40 28.03.2022
2355 Clear 20 1022 40 10000 8.23 20 18:51 28.03.2022
2356 Clear 21 1008 40 10000 5.66 40 17:41 28.03.2022
2357 Clear 22 1009 35 10000 7.72 50 16:58 28.03.2022
2358 Clear 22 1009 35 10000 7.72 30 15:35 28.03.2022
2359 Clear 22 1009 30 10000 8.23 30 14:24 28.03.2022
2360 Clear 21 1011 37 10000 6.17 40 13:26 28.03.2022
2361 Clouds 21 1012 37 10000 6.69 50 11:53 28.03.2022
2362 Clouds 18 1013 45 10000 7.72 60 10:35 28.03.2022
2363 Clouds 16 1013 58 10000 5.14 50 09:21 28.03.2022
2364 Clear 14 1013 76 10000 5.14 50 08:40 28.03.2022
2365 Clear 14 1013 76 10000 5.14 50 08:20 28.03.2022
2366 Clear 13 1012 81 10000 4.12 50 07:23 28.03.2022
2367 Clear 13 1012 76 10000 4.12 40 02:44 28.03.2022
2368 Clear 16 1014 62 10000 4.12 50 22:38 27.03.2022
2369 Clear 16 1013 58 10000 6.17 20 21:48 27.03.2022
2370 Clear 16 1013 58 10000 6.17 20 21:28 27.03.2022
2371 Clear 17 1013 59 10000 6.17 20 20:41 27.03.2022
2372 Clear 19 1026 42 10000 5.66 360 19:43 27.03.2022
2373 Clear 21 1012 32 10000 5.14 360 18:45 27.03.2022
2374 Clear 21 1012 35 10000 5.14 360 18:24 27.03.2022
2375 Clear 21 1011 35 10000 5.14 20 17:37 27.03.2022
2376 Clear 22 1011 30 10000 4.63 340 15:51 27.03.2022
2377 Clear 21 1026 35 10000 3.6 340 13:59 27.03.2022
2378 Clear 20 1026 37 10000 3.6 10 13:25 27.03.2022
2379 Clouds 18 1027 48 6000 2.57 340 11:41 27.03.2022
2380 Clouds 16 1014 62 6000 3.6 360 09:49 27.03.2022
2381 Clouds 16 1014 62 6000 3.6 360 09:49 27.03.2022
2382 Clouds 13 1014 76 6000 2.06 10 07:47 27.03.2022
2383 Clear 12 1013 81 6000 1.54 360 04:49 27.03.2022
2384 Clear 14 1013 76 6000 2.57 360 00:26 27.03.2022
2385 Clear 16 1027 67 10000 2.57 10 22:52 26.03.2022
2386 Clear 16 1013 67 10000 2.57 10 22:25 26.03.2022
2387 Clear 16 1013 63 10000 4.12 360 21:31 26.03.2022
2388 Clear 18 1012 48 6000 5.14 10 19:39 26.03.2022
2389 Clear 20 1025 26 10000 3.09 360 18:44 26.03.2022
2390 Clear 21 1011 22 10000 3.6 10 17:44 26.03.2022
2391 Clear 21 1011 19 10000 3.6 350 16:46 26.03.2022
2392 Clear 21 1011 22 10000 1.54 290 15:43 26.03.2022
2393 Clear 22 1011 17 10000 4.12 340 14:18 26.03.2022
2394 Clear 21 1011 18 10000 4.12 340 13:47 26.03.2022
2395 Clear 21 1012 24 10000 3.09 10 12:31 26.03.2022
2396 Clear 19 1013 29 10000 4.12 330 10:56 26.03.2022
2397 Clear 17 1013 45 10000 3.09 350 09:21 26.03.2022
2398 Clear 14 1012 62 6000 0 0 07:34 26.03.2022
2399 Clear 11 1012 71 6000 1.03 160 05:49 26.03.2022
2400 Clear 12 1011 62 10000 0 0 02:34 26.03.2022
2401 Clear 14 1011 47 10000 0 0 22:50 25.03.2022
2402 Clear 14 1010 47 10000 2.06 340 20:58 25.03.2022
2403 Clear 14 1010 47 10000 2.06 340 20:26 25.03.2022
2404 Clear 16 1010 44 10000 4.12 330 19:20 25.03.2022
2405 Clear 16 1009 38 10000 5.14 310 18:36 25.03.2022
2406 Clear 16 1009 38 10000 5.14 320 17:34 25.03.2022
2407 Clouds 18 1007 36 10000 6.69 310 16:29 25.03.2022
2408 Clouds 18 1007 39 10000 6.69 310 15:37 25.03.2022
2409 Clouds 18 1007 42 10000 5.14 290 13:32 25.03.2022
2410 Clouds 17 1007 39 10000 5.66 280 11:38 25.03.2022
2411 Clouds 16 1007 44 10000 5.66 280 09:43 25.03.2022
2412 Clear 16 1007 47 10000 4.63 260 08:56 25.03.2022
2413 Clear 13 1007 54 10000 4.63 230 07:46 25.03.2022
2414 Clear 13 1006 54 10000 4.63 240 07:19 25.03.2022
2415 Clear 12 1005 62 10000 5.14 250 03:45 25.03.2022
2416 Clear 12 1006 62 10000 5.66 270 23:49 24.03.2022
2417 Clear 12 1005 62 10000 5.14 270 22:24 24.03.2022
2418 Clear 13 1005 58 10000 4.12 260 21:24 24.03.2022
2419 Clear 13 1005 54 10000 3.6 290 19:50 24.03.2022
2420 Clear 14 1004 54 10000 2.57 290 18:45 24.03.2022
2421 Clouds 14 1004 58 10000 6.17 310 17:36 24.03.2022
2422 Clouds 16 1003 47 10000 4.12 310 16:39 24.03.2022
2423 Clouds 16 1003 58 10000 5.14 320 14:53 24.03.2022
2424 Clouds 16 1003 47 10000 3.6 220 14:32 24.03.2022
2425 Clouds 16 1003 51 10000 3.09 280 13:36 24.03.2022
2426 Clouds 16 1004 44 6000 5.66 240 12:35 24.03.2022
2427 Clouds 16 1004 47 10000 5.14 260 11:31 24.03.2022
2428 Clouds 12 1019 71 6000 4.12 220 09:34 24.03.2022
2429 Clouds 12 1005 57 10000 5.14 230 08:39 24.03.2022
2430 Clouds 11 1004 61 10000 6.69 230 05:45 24.03.2022
2431 Clouds 12 1002 46 10000 5.66 260 01:20 24.03.2022
2432 Clouds 14 1003 50 10000 1.54 200 22:26 23.03.2022
2433 Clouds 14 1003 50 10000 2.06 290 21:25 23.03.2022
2434 Clouds 16 1003 44 10000 1.54 310 20:46 23.03.2022
2435 Clouds 16 1003 44 10000 2.06 320 19:33 23.03.2022
2436 Clouds 16 1002 31 10000 7.2 290 18:22 23.03.2022
2437 Clouds 17 1002 29 10000 5.14 250 17:31 23.03.2022
2438 Clouds 17 1001 27 10000 6.69 260 16:18 23.03.2022
2439 Clouds 17 1002 29 10000 7.72 250 14:49 23.03.2022
2440 Clouds 17 1002 29 10000 8.75 210 13:34 23.03.2022
2441 Clouds 16 1003 33 10000 8.75 260 11:38 23.03.2022
2442 Clear 13 1004 43 10000 8.75 250 08:51 23.03.2022
2443 Clear 11 1004 57 10000 3.6 230 06:26 23.03.2022
2444 Clear 11 1003 61 10000 1.54 220 03:52 23.03.2022
2445 Clouds 12 1003 62 10000 1.54 120 00:29 23.03.2022
2446 Clouds 12 1003 62 10000 1.54 120 00:29 23.03.2022
2447 Clouds 13 1004 58 6000 1.54 20 22:25 22.03.2022
2448 Clouds 13 1004 58 6000 2.57 350 21:29 22.03.2022
2449 Clouds 13 1003 58 6000 3.09 340 20:34 22.03.2022
2450 Clouds 14 1003 50 10000 3.09 340 19:31 22.03.2022
2451 Clouds 14 1003 47 10000 4.12 340 18:54 22.03.2022
2452 Clouds 16 1002 44 10000 2.06 340 17:46 22.03.2022
2453 Clouds 16 1002 38 10000 3.09 330 17:23 22.03.2022
2454 Clouds 16 1001 36 6000 4.63 310 15:52 22.03.2022
2455 Clouds 16 1001 33 6000 2.06 270 15:21 22.03.2022
2456 Clouds 16 1001 33 6000 2.06 320 14:46 22.03.2022
2457 Clouds 16 1001 36 6000 3.6 320 14:24 22.03.2022
2458 Haze 16 1002 47 4000 2.06 310 12:46 22.03.2022
2459 Haze 14 1003 50 4000 1.54 320 11:36 22.03.2022
2460 Haze 14 1003 50 4000 2.57 350 10:23 22.03.2022
2461 Haze 11 1003 71 3000 1.54 30 07:48 22.03.2022
2462 Haze 9 1002 75 3000 2.06 10 05:19 22.03.2022
2463 Clouds 11 1002 66 6000 1.54 350 03:38 22.03.2022
2464 Clouds 11 1003 66 10000 1.54 360 23:49 21.03.2022
2465 Clouds 12 1003 57 10000 4.63 10 21:58 21.03.2022
2466 Clouds 12 1003 57 10000 3.09 10 20:45 21.03.2022
2467 Clouds 12 1003 57 10000 3.6 20 20:26 21.03.2022
2468 Clouds 12 1003 57 10000 5.14 10 19:57 21.03.2022
2469 Clouds 12 1003 57 10000 5.14 10 19:25 21.03.2022
2470 Clouds 14 1002 50 10000 6.17 10 17:53 21.03.2022
2471 Clouds 14 1001 50 10000 5.14 20 17:18 21.03.2022
2472 Clouds 16 1001 47 10000 5.14 40 16:39 21.03.2022
2473 Clouds 16 1001 47 10000 6.17 20 15:47 21.03.2022
2474 Clouds 16 1001 47 10000 6.17 30 14:56 21.03.2022
2475 Clouds 14 1015 51 10000 6.17 10 13:46 21.03.2022
2476 Clouds 14 1015 54 10000 6.17 20 12:34 21.03.2022
2477 Clouds 13 1016 58 10000 5.66 40 11:44 21.03.2022
2478 Clouds 13 1016 58 10000 5.66 30 10:34 21.03.2022
2479 Clouds 12 1002 57 10000 5.14 40 08:30 21.03.2022
2480 Clouds 11 1002 61 10000 4.12 40 06:38 21.03.2022
2481 Clouds 11 999 66 10000 5.14 50 02:48 21.03.2022
2482 Clouds 11 1002 61 10000 5.66 50 23:41 20.03.2022
2483 Clouds 11 1002 61 10000 7.2 60 22:44 20.03.2022
2484 Clouds 11 1004 61 10000 6.17 40 21:51 20.03.2022
2485 Clouds 11 1004 61 10000 6.17 40 21:23 20.03.2022
2486 Clouds 11 1003 66 10000 7.72 60 20:43 20.03.2022
2487 Clouds 12 1004 54 10000 6.17 60 19:59 20.03.2022
2488 Clouds 12 1005 54 10000 8.23 50 19:28 20.03.2022
2489 Clouds 13 1004 50 10000 7.72 40 18:19 20.03.2022
2490 Clouds 14 1003 50 10000 8.75 30 17:33 20.03.2022
2491 Clouds 14 1003 50 10000 8.75 30 17:33 20.03.2022
2492 Clouds 14 1003 50 10000 9.26 30 16:57 20.03.2022
2493 Clear 16 1003 44 10000 7.72 40 15:34 20.03.2022
2494 Clear 18 1003 39 10000 7.72 20 14:34 20.03.2022
2495 Clear 17 1003 33 10000 7.2 50 12:30 20.03.2022
2496 Clear 16 1004 35 10000 7.2 60 11:23 20.03.2022
2497 Clear 13 1005 47 10000 6.17 40 09:26 20.03.2022
2498 Clear 11 1006 50 10000 7.72 20 07:28 20.03.2022
2499 Clear 11 1006 57 10000 6.69 20 05:40 20.03.2022
2500 Clear 11 1006 66 10000 7.72 20 01:56 20.03.2022
2501 Clear 11 1006 66 10000 7.2 30 00:45 20.03.2022
2502 Clear 11 1006 66 10000 6.69 50 23:19 19.03.2022
2503 Clear 12 1007 62 10000 6.69 40 21:28 19.03.2022
2504 Clear 13 1007 58 10000 8.23 30 20:58 19.03.2022
2505 Clear 14 1006 62 10000 8.23 30 18:58 19.03.2022
2506 Clear 16 1006 58 10000 7.2 40 18:24 19.03.2022
2507 Clouds 16 1005 55 10000 7.72 30 17:35 19.03.2022
2508 Clouds 18 1004 42 10000 5.14 10 15:46 19.03.2022
2509 Clouds 19 1004 39 10000 4.63 10 14:57 19.03.2022
2510 Clouds 18 1019 42 10000 3.6 360 13:19 19.03.2022
2511 Clouds 18 1020 45 10000 5.14 360 12:40 19.03.2022
2512 Clouds 18 1006 45 10000 5.14 10 11:54 19.03.2022
2513 Clouds 18 1006 45 10000 5.14 10 11:54 19.03.2022
2514 Clouds 17 1007 51 6000 5.14 360 10:53 19.03.2022
2515 Haze 12 1007 76 3000 2.57 330 07:33 19.03.2022
2516 Haze 12 1006 81 4000 1.54 10 03:49 19.03.2022
2517 Clear 12 1006 76 6000 0.51 360 02:29 19.03.2022
2518 Haze 13 1008 76 4000 1.54 340 23:46 18.03.2022
2519 Clear 14 1008 67 6000 3.6 350 22:28 18.03.2022
2520 Clear 14 1008 67 6000 4.12 350 21:46 18.03.2022
2521 Clouds 17 1021 59 10000 5.14 360 19:54 18.03.2022
2522 Clouds 17 1007 59 10000 5.14 360 19:22 18.03.2022
2523 Clouds 18 1007 55 10000 5.14 360 18:18 18.03.2022
2524 Clouds 19 1006 48 10000 5.14 350 16:51 18.03.2022
2525 Clouds 19 1006 42 10000 4.12 340 15:43 18.03.2022
2526 Clouds 21 1006 42 10000 4.12 340 14:24 18.03.2022
2527 Clear 18 1007 48 10000 4.63 10 12:39 18.03.2022
2528 Clear 18 1008 42 10000 4.12 20 11:21 18.03.2022
2529 Clear 16 1009 51 10000 2.06 40 09:34 18.03.2022
2530 Clear 16 1009 54 10000 1.54 40 08:42 18.03.2022
2531 Clear 12 1008 62 10000 1.54 110 06:40 18.03.2022
2532 Clear 11 1008 66 6000 1.03 80 03:30 18.03.2022
2533 Clear 12 1008 62 6000 2.06 70 00:53 18.03.2022
2534 Clear 13 1009 58 6000 3.09 30 23:52 17.03.2022
2535 Clear 14 1009 54 6000 3.09 40 22:26 17.03.2022
2536 Clear 14 1009 54 6000 3.09 10 21:51 17.03.2022
2537 Clear 16 1009 51 6000 3.09 360 21:27 17.03.2022
2538 Clear 16 1023 44 10000 2.06 20 20:52 17.03.2022
2539 Clear 16 1009 44 10000 1.54 30 19:55 17.03.2022
2540 Clear 16 1009 44 10000 2.57 30 19:33 17.03.2022
2541 Clear 16 1008 44 10000 3.09 40 18:51 17.03.2022
2542 Clear 17 1008 39 10000 3.6 20 17:27 17.03.2022
2543 Clear 18 1008 31 10000 3.6 10 15:57 17.03.2022
2544 Clear 18 1008 31 10000 3.6 10 15:36 17.03.2022
2545 Clear 18 1008 31 10000 3.09 340 14:55 17.03.2022
2546 Clear 18 1009 29 10000 1.54 350 13:22 17.03.2022
2547 Clear 17 1010 27 10000 3.6 350 12:38 17.03.2022
2548 Clear 16 1010 31 10000 2.57 350 11:31 17.03.2022
2549 Clear 16 1011 33 10000 3.09 60 10:38 17.03.2022
2550 Clear 14 1011 38 10000 3.09 70 08:42 17.03.2022
2551 Clear 12 1011 43 10000 2.57 70 07:57 17.03.2022
2552 Clear 9 1010 53 10000 0 0 05:49 17.03.2022
2553 Clear 9 1010 57 10000 1.03 80 03:46 17.03.2022
2554 Clear 11 1011 50 10000 1.54 50 00:24 17.03.2022
2555 Clear 12 1012 46 10000 2.57 50 22:52 16.03.2022
2556 Clear 12 1012 46 10000 4.12 70 22:33 16.03.2022
2557 Clear 12 1012 46 10000 3.09 70 21:55 16.03.2022
2558 Clear 13 1012 43 10000 3.6 70 20:40 16.03.2022
2559 Clear 14 1012 35 10000 4.63 20 19:23 16.03.2022
2560 Clouds 16 1012 35 10000 4.12 30 18:42 16.03.2022
2561 Clouds 16 1011 31 10000 3.09 10 17:45 16.03.2022
2562 Clouds 16 1011 31 10000 3.09 10 17:27 16.03.2022
2563 Clouds 16 1010 31 10000 3.09 360 15:56 16.03.2022
2564 Clouds 16 1010 29 10000 3.6 360 14:38 16.03.2022
2565 Clouds 16 1011 33 10000 5.14 30 13:35 16.03.2022
2566 Clouds 16 1012 36 10000 5.14 30 12:18 16.03.2022
2567 Clouds 16 1012 47 10000 5.14 30 11:23 16.03.2022
2568 Clouds 14 1013 38 10000 4.12 10 10:30 16.03.2022
2569 Clouds 14 1013 38 10000 3.6 360 09:56 16.03.2022
2570 Haze 11 1013 61 4000 1.54 360 07:23 16.03.2022
2571 Clear 11 1012 61 6000 1.54 320 02:44 16.03.2022
2572 Clouds 11 1014 50 10000 1.54 10 22:54 15.03.2022
2573 Clouds 11 1014 50 10000 1.54 10 22:35 15.03.2022
2574 Clouds 11 1014 50 10000 3.09 10 20:55 15.03.2022
2575 Clouds 12 1013 46 10000 5.14 10 19:37 15.03.2022
2576 Clouds 13 1013 43 10000 6.17 10 17:42 15.03.2022
2577 Clouds 14 1012 35 10000 6.69 350 16:38 15.03.2022
2578 Clouds 14 1012 41 10000 5.66 340 15:38 15.03.2022
2579 Clouds 14 1012 38 10000 6.17 350 14:53 15.03.2022
2580 Clouds 16 1011 38 10000 5.66 320 13:56 15.03.2022
2581 Clouds 14 1012 44 10000 7.2 10 13:21 15.03.2022
2582 Clouds 13 1027 47 10000 6.17 360 11:33 15.03.2022
2583 Clouds 14 1013 38 10000 6.17 360 10:27 15.03.2022
2584 Clouds 13 1014 47 10000 4.12 10 09:20 15.03.2022
2585 Clouds 11 1014 61 10000 2.06 340 08:24 15.03.2022
2586 Clouds 9 1013 70 10000 3.6 330 07:36 15.03.2022
2587 Clouds 8 1012 75 10000 3.6 340 05:56 15.03.2022
2588 Clouds 9 1012 70 10000 3.6 300 00:31 15.03.2022
2589 Clouds 11 1012 61 10000 3.6 300 23:29 14.03.2022
2590 Clouds 11 1012 61 10000 4.63 310 22:49 14.03.2022
2591 Clear 11 1012 53 10000 4.63 320 21:53 14.03.2022
2592 Clouds 11 1012 53 10000 4.63 320 20:55 14.03.2022
2593 Clouds 12 1012 46 10000 3.09 320 20:24 14.03.2022
2594 Clouds 12 1011 40 10000 5.14 350 19:24 14.03.2022
2595 Clouds 13 1011 37 10000 6.17 330 17:57 14.03.2022
2596 Clouds 13 1011 37 10000 6.17 330 17:39 14.03.2022
2597 Clouds 13 1010 35 10000 6.17 350 16:33 14.03.2022
2598 Clouds 13 1024 35 10000 7.72 350 14:48 14.03.2022
2599 Clouds 13 1024 35 10000 6.69 340 13:29 14.03.2022
2600 Clouds 12 1011 34 10000 5.14 10 11:26 14.03.2022
2601 Clouds 13 1012 32 10000 5.14 10 09:57 14.03.2022
2602 Clouds 12 1012 37 10000 4.63 340 09:34 14.03.2022
2603 Clouds 11 1012 43 6000 4.63 360 08:57 14.03.2022
2604 Clouds 11 1012 43 6000 4.63 360 08:28 14.03.2022
2605 Clouds 9 1011 53 6000 3.6 350 06:47 14.03.2022
2606 Clouds 8 1010 56 6000 2.57 320 02:59 14.03.2022
2607 Clouds 9 1024 49 6000 2.06 350 01:39 14.03.2022
2608 Clear 8 1010 56 10000 2.06 350 23:41 13.03.2022
2609 Clouds 9 1011 53 10000 4.12 20 21:49 13.03.2022
2610 Clouds 9 1010 53 10000 6.17 10 21:21 13.03.2022
2611 Clouds 11 1010 53 10000 5.14 10 20:46 13.03.2022
2612 Clouds 11 1010 53 10000 5.14 10 20:22 13.03.2022
2613 Clouds 11 1010 53 10000 5.14 20 19:42 13.03.2022
2614 Clouds 11 1010 53 10000 5.14 20 19:22 13.03.2022
2615 Clouds 11 1010 53 10000 5.14 20 19:22 13.03.2022
2616 Clouds 11 1009 53 10000 6.69 10 18:45 13.03.2022
2617 Clouds 11 1009 53 10000 6.69 10 18:25 13.03.2022
2618 Clouds 12 1008 54 10000 6.69 360 17:36 13.03.2022
2619 Clouds 12 1008 57 10000 7.2 340 16:45 13.03.2022
2620 Clouds 12 1008 57 10000 6.69 360 16:21 13.03.2022
2621 Clouds 13 1007 58 10000 6.69 340 15:39 13.03.2022
2622 Clouds 14 1007 50 10000 4.63 340 14:37 13.03.2022
2623 Clouds 14 1007 54 10000 6.17 350 13:28 13.03.2022
2624 Clouds 14 1007 54 10000 6.69 330 12:22 13.03.2022
2625 Clouds 16 1008 41 10000 5.14 350 11:39 13.03.2022
2626 Clouds 16 1008 38 10000 6.17 10 10:50 13.03.2022
2627 Clear 14 1008 41 10000 3.09 340 10:28 13.03.2022
2628 Clear 14 1008 38 10000 3.09 330 09:42 13.03.2022
2629 Clear 12 1008 40 10000 2.57 340 08:50 13.03.2022
2630 Clear 12 1008 43 10000 1.54 20 08:29 13.03.2022
2631 Clouds 9 1007 53 10000 1.54 10 06:41 13.03.2022
2632 Clouds 9 1005 49 10000 0 0 04:57 13.03.2022
2633 Clouds 9 1006 53 10000 2.57 100 01:47 13.03.2022
2634 Clouds 11 1007 46 10000 2.06 100 23:26 12.03.2022
2635 Clouds 11 1008 43 10000 2.57 70 21:32 12.03.2022
2636 Clouds 12 1008 40 10000 3.6 40 20:19 12.03.2022
2637 Clouds 12 1008 37 10000 5.14 30 19:44 12.03.2022
2638 Clouds 13 1007 32 10000 5.66 30 18:40 12.03.2022
2639 Clouds 14 1007 26 10000 7.2 20 17:49 12.03.2022
2640 Clouds 14 1006 28 10000 6.69 20 16:28 12.03.2022
2641 Clouds 16 1006 28 10000 6.17 340 15:48 12.03.2022
2642 Clouds 16 1006 28 10000 6.17 340 15:19 12.03.2022
2643 Clouds 16 1007 30 10000 6.17 360 13:53 12.03.2022
2644 Clouds 14 1008 38 10000 7.2 330 12:27 12.03.2022
2645 Clouds 14 1008 38 10000 6.17 330 11:52 12.03.2022
2646 Clouds 14 1008 38 10000 6.17 330 11:32 12.03.2022
2647 Clouds 13 1008 43 10000 6.17 360 10:24 12.03.2022
2648 Clouds 13 1008 47 10000 3.09 330 09:43 12.03.2022
2649 Clouds 11 1009 61 10000 2.06 350 07:52 12.03.2022
2650 Clouds 11 1008 66 10000 1.54 330 06:30 12.03.2022
2651 Clouds 11 1007 57 10000 1.54 330 00:31 12.03.2022
2652 Clouds 11 1007 53 10000 2.06 10 23:41 11.03.2022
2653 Clouds 11 1008 57 10000 2.06 360 22:32 11.03.2022
2654 Clouds 11 1008 57 10000 3.09 340 21:24 11.03.2022
2655 Clouds 12 1008 54 10000 3.09 360 20:46 11.03.2022
2656 Clouds 12 1008 50 10000 3.09 350 20:22 11.03.2022
2657 Clouds 12 1007 50 10000 3.09 350 19:32 11.03.2022
2658 Clouds 13 1006 50 10000 4.63 350 17:53 11.03.2022
2659 Clouds 13 1006 43 10000 5.14 330 17:24 11.03.2022
2660 Clouds 14 1006 38 10000 5.14 320 15:58 11.03.2022
2661 Clouds 16 1005 35 10000 7.2 300 15:29 11.03.2022
2662 Clouds 16 1005 35 10000 6.17 300 13:42 11.03.2022
2663 Clouds 16 1005 35 10000 4.63 270 12:37 11.03.2022
2664 Clouds 16 1005 38 10000 5.66 290 11:57 11.03.2022
2665 Clouds 16 1005 41 10000 5.66 300 10:30 11.03.2022
2666 Clouds 14 1005 47 10000 7.2 270 09:33 11.03.2022
2667 Clear 12 1005 57 10000 5.14 270 08:28 11.03.2022
2668 Clear 12 1005 62 10000 5.66 290 07:48 11.03.2022
2669 Clear 11 1004 66 10000 5.14 280 06:26 11.03.2022
2670 Clouds 11 1002 66 10000 6.17 250 04:28 11.03.2022
2671 Clear 12 1002 57 10000 8.75 250 01:20 11.03.2022
2672 Clear 14 1001 44 10000 9.77 250 22:32 10.03.2022
2673 Clear 14 1001 41 10000 8.75 260 21:53 10.03.2022
2674 Clear 14 1001 44 6000 5.66 250 21:24 10.03.2022
2675 Clear 14 1001 44 6000 5.66 250 21:24 10.03.2022
2676 Clear 16 1001 44 6000 6.17 260 20:34 10.03.2022
2677 Clouds 16 1000 44 6000 8.23 270 19:20 10.03.2022
2678 Clouds 16 999 51 6000 8.23 290 17:50 10.03.2022
2679 Clouds 17 998 33 6000 8.75 270 16:52 10.03.2022
2680 Sand 18 997 25 4000 11.83 270 15:28 10.03.2022
2681 Sand 19 997 27 4000 11.32 250 13:42 10.03.2022
2682 Clouds 21 997 26 10000 11.83 250 12:38 10.03.2022
2683 Clouds 19 997 32 10000 10.8 240 11:28 10.03.2022
2684 Clouds 18 999 42 10000 8.23 200 09:29 10.03.2022
2685 Clear 16 999 63 10000 4.12 210 07:48 10.03.2022
2686 Clear 15 1013 72 10000 2.57 230 05:30 10.03.2022
2687 Clear 15 1013 67 10000 1.03 110 01:59 10.03.2022
2688 Clear 15 1013 67 10000 1.03 10 23:32 09.03.2022
2689 Clear 16 1013 63 10000 2.06 10 22:22 09.03.2022
2690 Clouds 16 1013 63 10000 1.54 60 21:44 09.03.2022
2691 Clouds 16 1013 63 10000 4.63 360 20:36 09.03.2022
2692 Clouds 18 1011 59 10000 4.12 350 18:41 09.03.2022
2693 Clouds 19 1011 55 10000 5.14 350 17:28 09.03.2022
2694 Clouds 19 1011 55 10000 5.66 320 16:39 09.03.2022
2695 Clouds 20 1010 52 10000 5.14 330 15:32 09.03.2022
2696 Clouds 20 1009 52 10000 5.14 310 14:19 09.03.2022
2697 Clear 20 1009 56 6000 4.63 310 12:59 09.03.2022
2698 Clear 20 1009 56 6000 4.63 300 12:20 09.03.2022
2699 Clear 20 1009 56 6000 2.57 320 11:45 09.03.2022
2700 Clear 19 1009 63 6000 3.6 310 10:50 09.03.2022
2701 Clear 17 1008 77 6000 2.57 340 09:22 09.03.2022
2702 Mist 16 1008 82 4000 4.12 340 08:42 09.03.2022
2703 Clear 16 991 77 10000 4.63 80 04:49 09.03.2022
2704 Clear 16 993 77 10000 5.14 60 00:55 09.03.2022
2705 Clear 16 993 72 10000 4.63 60 23:37 08.03.2022
2706 Clear 17 993 63 10000 5.14 60 22:45 08.03.2022
2707 Clear 17 993 63 10000 4.12 80 21:43 08.03.2022
2708 Clear 17 993 63 10000 3.09 70 21:18 08.03.2022
2709 Clear 18 994 63 10000 6.17 20 19:59 08.03.2022
2710 Clear 21 993 45 10000 5.14 10 18:53 08.03.2022
2711 Clear 23 992 25 10000 4.12 360 17:51 08.03.2022
2712 Clear 24 990 19 10000 4.12 70 16:35 08.03.2022
2713 Clear 24 993 22 10000 4.12 80 14:23 08.03.2022
2714 Clear 22 994 24 10000 4.12 70 13:22 08.03.2022
2715 Clouds 21 995 26 10000 5.66 60 12:19 08.03.2022
2716 Clouds 21 995 28 10000 4.12 80 11:41 08.03.2022
2717 Clouds 21 997 34 10000 4.12 60 10:27 08.03.2022
2718 Clouds 17 998 55 10000 5.14 60 08:28 08.03.2022
2719 Clear 16 999 76 10000 2.57 70 05:48 08.03.2022
2720 Clear 16 999 67 10000 2.57 60 01:48 08.03.2022
2721 Clear 17 1000 55 10000 3.6 50 22:24 07.03.2022
2722 Clear 17 1000 59 10000 3.09 60 21:35 07.03.2022
2723 Clouds 17 1000 63 10000 5.14 60 20:54 07.03.2022
2724 Clouds 18 1000 55 10000 4.12 50 20:26 07.03.2022
2725 Clouds 18 1000 59 10000 5.14 40 19:41 07.03.2022
2726 Clouds 19 999 55 10000 5.66 40 18:47 07.03.2022
2727 Clouds 21 999 49 10000 5.14 20 18:25 07.03.2022
2728 Clouds 21 999 43 10000 4.12 360 16:56 07.03.2022
2729 Clouds 21 999 43 10000 4.12 360 16:34 07.03.2022
2730 Clouds 22 999 40 10000 4.12 40 14:40 07.03.2022
2731 Clouds 21 999 46 10000 5.14 20 12:33 07.03.2022
2732 Clouds 21 1000 52 10000 5.14 30 10:48 07.03.2022
2733 Clouds 19 1000 55 10000 5.66 30 10:25 07.03.2022
2734 Clouds 16 1000 82 6000 3.6 40 07:24 07.03.2022
2735 Clouds 16 998 82 10000 3.6 340 00:37 07.03.2022
2736 Clouds 16 998 82 10000 3.6 340 00:19 07.03.2022
2737 Clouds 16 998 87 10000 4.12 340 23:18 06.03.2022
2738 Clouds 17 998 82 10000 3.6 310 22:25 06.03.2022
2739 Clear 17 997 72 10000 4.63 300 20:56 06.03.2022
2740 Clear 18 996 59 10000 4.63 300 20:28 06.03.2022
2741 Clear 19 996 55 10000 5.66 290 19:35 06.03.2022
2742 Clouds 21 995 37 6000 7.2 280 18:40 06.03.2022
2743 Sand 26 1006 18 2000 8.75 260 17:36 06.03.2022
2744 Sand 26 1006 18 2000 8.75 260 17:18 06.03.2022
2745 Sand 27 992 12 2000 7.72 250 16:25 06.03.2022
2746 Sand 28 991 8 2000 10.29 250 15:23 06.03.2022
2747 Sand 28 991 8 1500 10.29 260 14:41 06.03.2022
2748 Sand 29 990 11 2000 11.83 250 13:48 06.03.2022
2749 Sand 29 990 10 2000 11.32 230 12:39 06.03.2022
2750 Sand 28 991 10 2000 10.8 220 11:39 06.03.2022
2751 Sand 28 991 9 3000 12.35 220 10:33 06.03.2022
2752 Sand 27 990 8 3000 10.29 210 09:18 06.03.2022
2753 Sand 27 989 8 3000 9.77 190 08:27 06.03.2022
2754 Clouds 21 989 22 6000 6.69 230 07:23 06.03.2022
2755 Clear 17 993 41 10000 1.54 100 01:54 06.03.2022
2756 Clear 17 995 55 10000 1.54 50 00:34 06.03.2022
2757 Clear 17 995 55 10000 3.09 60 23:57 05.03.2022
2758 Clear 17 996 55 10000 3.6 70 23:18 05.03.2022
2759 Clear 17 997 55 10000 3.09 70 22:31 05.03.2022
2760 Clear 18 997 51 10000 4.12 70 21:25 05.03.2022
2761 Clear 18 998 51 10000 3.6 60 20:27 05.03.2022
2762 Clear 18 998 55 10000 5.66 60 19:18 05.03.2022
2763 Clear 21 997 32 10000 3.09 50 18:37 05.03.2022
2764 Clear 22 997 28 10000 3.6 50 17:31 05.03.2022
2765 Clear 23 997 26 10000 4.12 80 16:18 05.03.2022
2766 Clear 23 998 26 10000 4.12 70 14:54 05.03.2022
2767 Clear 23 998 26 10000 4.12 70 14:35 05.03.2022
2768 Clear 23 998 26 10000 4.12 70 14:35 05.03.2022
2769 Clear 22 999 28 10000 4.12 50 13:39 05.03.2022
2770 Clear 21 1000 30 10000 6.17 70 12:35 05.03.2022
2771 Clear 21 1001 34 10000 4.63 40 11:20 05.03.2022
2772 Clear 19 1002 37 10000 6.69 70 10:52 05.03.2022
2773 Clear 17 1002 45 10000 7.2 70 09:30 05.03.2022
2774 Clear 17 1003 45 10000 6.17 70 08:24 05.03.2022
2775 Clear 13 1002 66 10000 2.57 90 06:33 05.03.2022
2776 Clear 12 1002 76 10000 2.06 60 05:22 05.03.2022
2777 Clouds 14 1002 62 6000 2.06 50 00:32 05.03.2022
2778 Clouds 16 1003 58 6000 5.14 90 22:45 04.03.2022
2779 Clouds 16 1002 58 6000 8.23 120 22:25 04.03.2022
2780 Clear 16 1002 58 10000 6.69 110 21:43 04.03.2022
2781 Clear 16 1005 47 10000 3.09 50 20:39 04.03.2022
2782 Clear 17 1018 45 10000 4.12 40 19:37 04.03.2022
2783 Clear 17 1004 45 10000 4.12 40 18:56 04.03.2022
2784 Clear 17 1004 48 10000 3.09 360 18:33 04.03.2022
2785 Clear 18 1003 42 10000 2.57 350 17:29 04.03.2022
2786 Clouds 18 1003 42 10000 2.57 330 15:54 04.03.2022
2787 Clouds 18 1003 39 10000 3.6 330 15:24 04.03.2022
2788 Clouds 19 1003 37 10000 1.54 350 13:36 04.03.2022
2789 Clouds 18 1004 36 10000 2.06 50 12:38 04.03.2022
2790 Clouds 17 1005 39 10000 2.57 10 11:37 04.03.2022
2791 Clouds 17 1006 41 10000 0 0 10:25 04.03.2022
2792 Clouds 16 1006 47 10000 0 0 09:27 04.03.2022
2793 Clear 16 1006 54 10000 0 0 07:48 04.03.2022
2794 Clear 12 1005 66 10000 0 0 06:21 04.03.2022
2795 Clear 13 1005 62 10000 1.54 300 01:46 04.03.2022
2796 Clear 14 1005 58 10000 2.06 300 23:35 03.03.2022
2797 Clear 14 1005 58 10000 2.57 320 22:18 03.03.2022
2798 Clear 14 1006 58 10000 3.09 310 21:36 03.03.2022
2799 Clear 16 1006 51 10000 2.06 310 20:48 03.03.2022
2800 Clear 16 1005 44 10000 4.63 310 19:29 03.03.2022
2801 Clear 16 1004 44 10000 4.63 310 18:26 03.03.2022
2802 Clouds 17 1004 41 10000 5.66 300 17:39 03.03.2022
2803 Clouds 17 1004 41 10000 5.66 300 17:18 03.03.2022
2804 Clouds 19 1002 34 10000 7.2 280 15:46 03.03.2022
2805 Clouds 19 1002 34 10000 8.23 280 14:45 03.03.2022
2806 Clouds 19 1002 37 10000 6.17 300 14:27 03.03.2022
2807 Clouds 18 1002 36 10000 7.2 280 12:43 03.03.2022
2808 Clouds 17 1002 41 10000 6.17 260 11:31 03.03.2022
2809 Clouds 17 1002 45 10000 7.2 260 10:38 03.03.2022
2810 Sand 16 1003 54 4000 7.72 270 08:44 03.03.2022
2811 Sand 13 1001 54 4000 8.75 250 06:58 03.03.2022
2812 Sand 13 1001 54 4000 7.72 250 06:23 03.03.2022
2813 Clouds 17 997 63 6000 7.2 280 00:40 03.03.2022
2814 Clear 17 997 67 10000 6.17 290 23:28 02.03.2022
2815 Clear 17 997 67 10000 6.17 290 22:48 02.03.2022
2816 Clouds 21 1010 37 6000 9.26 290 21:23 02.03.2022
2817 Clouds 21 1010 37 6000 9.26 290 21:23 02.03.2022
2818 Clouds 25 1008 27 6000 5.14 190 20:30 02.03.2022
2819 Clear 25 1008 27 10000 4.63 180 19:49 02.03.2022
2820 Clear 26 994 29 10000 2.06 200 19:30 02.03.2022
2821 Clear 26 994 25 10000 3.09 200 18:39 02.03.2022
2822 Clouds 26 993 20 6000 3.09 190 17:50 02.03.2022
2823 Clouds 27 994 18 6000 5.14 210 16:59 02.03.2022
2824 Clouds 27 994 18 6000 5.14 210 16:41 02.03.2022
2825 Clouds 29 994 18 6000 6.69 230 14:43 02.03.2022
2826 Clouds 29 994 16 3000 4.12 280 13:24 02.03.2022
2827 Clouds 29 994 16 4000 4.63 210 12:42 02.03.2022
2828 Clouds 27 996 21 6000 0 0 11:40 02.03.2022
2829 Clouds 26 997 25 6000 0 0 11:21 02.03.2022
2830 Clouds 22 998 28 6000 0 0 09:41 02.03.2022
2831 Clouds 21 999 37 6000 0 0 08:54 02.03.2022
2832 Clouds 16 999 44 6000 1.54 360 07:28 02.03.2022
2833 Clear 17 999 41 10000 1.54 360 06:51 02.03.2022
2834 Clear 16 1000 51 10000 3.09 60 01:33 02.03.2022
2835 Clear 17 1002 41 10000 3.09 40 23:49 01.03.2022
2836 Clear 18 1002 45 10000 2.57 60 22:45 01.03.2022
2837 Clear 16 1003 51 10000 4.63 60 21:58 01.03.2022
2838 Clear 19 1004 42 10000 5.14 50 21:25 01.03.2022
2839 Clear 21 1003 45 10000 4.63 20 20:30 01.03.2022
2840 Clear 21 1003 45 10000 4.63 20 20:30 01.03.2022
2841 Clear 21 1003 45 10000 4.63 20 20:30 01.03.2022
2842 Clear 21 1003 45 10000 4.63 20 20:30 01.03.2022
2843 Clear 21 1003 43 10000 4.12 40 19:38 01.03.2022
2844 Clear 21 1002 43 10000 3.6 50 18:49 01.03.2022
2845 Clear 22 1002 40 10000 4.12 40 18:20 01.03.2022
2846 Clear 23 1002 35 10000 5.14 30 17:22 01.03.2022
2847 Clear 24 1002 29 10000 4.63 30 16:33 01.03.2022
2848 Clear 24 1002 29 10000 5.14 20 15:38 01.03.2022
2849 Clear 24 1002 27 10000 5.66 30 14:35 01.03.2022
2850 Clear 24 1003 27 10000 5.66 20 13:52 01.03.2022
2851 Clear 24 1003 25 10000 4.12 10 13:24 01.03.2022
2852 Clear 23 1004 25 10000 3.6 30 12:32 01.03.2022
2853 Clear 22 1006 26 10000 3.6 30 10:36 01.03.2022
2854 Clear 19 1006 32 10000 3.6 80 08:42 01.03.2022
2855 Clear 17 1006 48 10000 0.51 110 07:53 01.03.2022
2856 Clear 13 1006 66 10000 1.03 50 06:20 01.03.2022
2857 Clear 14 1006 67 10000 1.54 60 02:44 01.03.2022
2858 Clear 14 1006 67 10000 3.09 100 00:34 01.03.2022
2859 Clear 16 1007 67 10000 3.09 50 23:31 28.02.2022
2860 Clear 16 1007 67 10000 3.6 50 22:18 28.02.2022
2861 Clear 16 1007 63 10000 3.09 60 21:39 28.02.2022
2862 Clear 18 1006 55 10000 3.6 10 19:59 28.02.2022
2863 Clear 18 1006 55 10000 3.6 10 19:40 28.02.2022
2864 Clear 18 1006 45 10000 4.63 10 18:44 28.02.2022
2865 Clear 19 1006 45 10000 4.63 10 17:33 28.02.2022
2866 Clear 21 1005 39 10000 4.63 10 16:43 28.02.2022
2867 Clear 21 1005 37 10000 4.12 30 15:27 28.02.2022
2868 Clear 21 1005 37 10000 3.6 360 14:32 28.02.2022
2869 Clear 21 1005 32 10000 4.12 20 13:48 28.02.2022
2870 Clear 21 1006 32 10000 3.09 350 12:50 28.02.2022
2871 Clear 19 1006 37 10000 2.57 20 11:59 28.02.2022
2872 Clear 19 1006 37 10000 2.57 20 11:18 28.02.2022
2873 Clear 18 1007 42 10000 3.6 20 10:22 28.02.2022
2874 Clear 18 1007 39 10000 2.06 40 09:41 28.02.2022
2875 Clear 17 1007 41 10000 1.54 20 08:51 28.02.2022
2876 Clear 16 1007 58 10000 0 0 07:57 28.02.2022
2877 Clear 12 1007 76 10000 1.54 70 05:53 28.02.2022
2878 Clear 12 1007 76 10000 1.03 50 04:30 28.02.2022
2879 Clear 13 1007 71 10000 2.06 70 00:42 28.02.2022
2880 Clear 14 1008 67 10000 4.12 20 22:38 27.02.2022
2881 Clear 16 1008 58 10000 4.12 40 21:58 27.02.2022
2882 Clear 16 1008 58 10000 4.12 40 21:36 27.02.2022
2883 Clear 16 1008 58 10000 4.12 60 20:43 27.02.2022
2884 Clear 17 1008 55 10000 1.54 30 20:18 27.02.2022
2885 Clear 17 1008 55 10000 2.57 20 19:48 27.02.2022
2886 Clear 17 1008 55 10000 3.6 360 19:21 27.02.2022
2887 Clear 18 1007 48 10000 3.09 350 18:24 27.02.2022
2888 Clear 19 1007 42 10000 3.6 340 17:45 27.02.2022
2889 Clear 19 1006 42 10000 1.37 318 16:23 27.02.2022
2890 Clear 21 1006 39 10000 4.63 360 15:21 27.02.2022
2891 Clear 19 1007 39 10000 1.03 30 12:37 27.02.2022
2892 Clear 18 1007 42 10000 2.57 10 11:51 27.02.2022
2893 Clear 17 1009 45 10000 2.06 50 10:37 27.02.2022
2894 Clear 16 1009 51 10000 2.06 60 09:58 27.02.2022
2895 Clear 16 1009 58 10000 3.6 50 09:24 27.02.2022
2896 Clear 16 1010 58 6000 1.54 60 08:48 27.02.2022
2897 Clear 11 1008 71 10000 0.51 70 06:26 27.02.2022
2898 Clear 12 1008 66 10000 1.54 70 03:44 27.02.2022
2899 Clear 13 1008 66 10000 2.06 80 00:31 27.02.2022
2900 Clear 14 1008 62 10000 3.09 50 22:48 26.02.2022
2901 Clear 14 1008 62 10000 4.63 40 21:29 26.02.2022
2902 Clear 16 1008 58 10000 5.14 20 20:43 26.02.2022
2903 Clear 16 1008 58 10000 4.12 360 19:58 26.02.2022
2904 Clear 16 1008 58 10000 4.12 360 19:33 26.02.2022
2905 Clear 17 1008 51 10000 3.6 20 18:40 26.02.2022
2906 Clear 18 1007 42 10000 4.12 20 17:38 26.02.2022
2907 Clear 18 1006 42 10000 4.12 10 16:48 26.02.2022
2908 Clouds 18 1006 42 10000 3.6 340 15:45 26.02.2022
2909 Clouds 18 1006 42 10000 4.12 350 15:20 26.02.2022
2910 Clouds 19 1006 39 10000 4.63 320 14:51 26.02.2022
2911 Clouds 19 1006 37 10000 4.12 320 14:24 26.02.2022
2912 Clouds 18 1006 39 10000 1.54 290 12:59 26.02.2022
2913 Clouds 18 1007 39 10000 4.12 310 11:54 26.02.2022
2914 Clouds 17 1007 41 10000 3.09 260 11:28 26.02.2022
2915 Clouds 16 1007 47 10000 2.06 290 10:31 26.02.2022
2916 Clear 16 1008 54 10000 2.06 280 08:45 26.02.2022
2917 Clouds 13 1007 62 10000 4.12 230 06:46 26.02.2022
2918 Clouds 16 1005 58 10000 3.6 300 00:38 26.02.2022
2919 Clouds 16 1005 58 10000 4.63 280 22:47 25.02.2022
2920 Clouds 16 1005 58 10000 5.14 290 21:40 25.02.2022
2921 Clouds 16 1005 62 10000 4.12 290 21:21 25.02.2022
2922 Clouds 16 1005 55 10000 4.12 280 20:32 25.02.2022
2923 Clouds 16 1004 58 10000 3.09 310 18:41 25.02.2022
2924 Clouds 16 1003 55 10000 4.12 340 17:23 25.02.2022
2925 Clouds 16 1002 47 10000 5.66 290 16:24 25.02.2022
2926 Clouds 17 1002 48 10000 4.63 300 15:43 25.02.2022
2927 Clouds 18 1002 48 10000 4.63 300 15:20 25.02.2022
2928 Clouds 17 1002 51 10000 5.66 310 14:42 25.02.2022
2929 Clouds 18 1001 36 10000 7.72 280 13:36 25.02.2022
2930 Clouds 18 1002 39 10000 7.72 270 12:56 25.02.2022
2931 Clouds 17 1002 48 10000 6.69 270 11:28 25.02.2022
2932 Clouds 16 1003 51 10000 9.26 250 10:40 25.02.2022
2933 Clouds 16 1003 51 10000 9.26 250 10:22 25.02.2022
2934 Clouds 16 1003 58 10000 7.72 250 09:18 25.02.2022
2935 Clouds 13 1002 66 10000 10.29 260 07:41 25.02.2022
2936 Clouds 13 1000 71 10000 5.66 230 05:49 25.02.2022
2937 Clear 12 999 71 6000 4.63 220 04:41 25.02.2022
2938 Clear 13 999 66 10000 4.12 200 00:22 25.02.2022
2939 Clear 14 999 62 10000 3.6 200 21:58 24.02.2022
2940 Clear 14 999 62 10000 3.6 200 21:58 24.02.2022
2941 Clouds 16 1000 58 10000 4.63 210 21:39 24.02.2022
2942 Clouds 16 1000 58 10000 4.63 210 21:19 24.02.2022
2943 Clouds 16 999 58 10000 4.63 220 19:53 24.02.2022
2944 Clouds 16 999 58 6000 5.14 220 18:45 24.02.2022
2945 Clouds 16 999 58 6000 5.14 220 18:19 24.02.2022
2946 Clouds 16 998 55 6000 5.14 220 17:40 24.02.2022
2947 Clouds 16 998 54 6000 6.17 210 16:50 24.02.2022
2948 Clouds 16 998 51 6000 8.23 210 16:24 24.02.2022
2949 Clouds 16 998 51 6000 9.26 220 14:56 24.02.2022
2950 Clouds 16 998 51 6000 9.26 220 14:36 24.02.2022
2951 Clouds 17 997 48 6000 8.75 230 13:42 24.02.2022
2952 Clouds 17 997 41 6000 8.75 210 13:24 24.02.2022
2953 Clouds 16 998 47 10000 12.86 240 10:43 24.02.2022
2954 Clear 16 998 47 6000 9.26 220 09:41 24.02.2022
2955 Clear 14 998 50 6000 6.17 210 08:42 24.02.2022
2956 Haze 12 997 66 2000 4.12 190 06:25 24.02.2022
2957 Haze 13 997 66 2000 3.6 200 05:36 24.02.2022
2958 Clouds 16 998 58 10000 3.6 270 00:30 24.02.2022
2959 Clouds 16 998 72 10000 6.17 280 21:55 23.02.2022
2960 Clouds 16 997 67 10000 5.14 290 20:32 23.02.2022
2961 Clouds 17 997 67 10000 6.69 300 19:55 23.02.2022
2962 Clouds 19 1009 48 6000 0 0 18:59 23.02.2022
2963 Clouds 21 995 45 6000 3.6 360 17:47 23.02.2022
2964 Clouds 24 994 25 10000 5.14 230 15:47 23.02.2022
2965 Haze 25 1008 27 3000 4.12 240 13:34 23.02.2022
2966 Clouds 25 1009 25 6000 3.09 230 12:29 23.02.2022
2967 Clouds 25 1010 25 6000 1.03 220 10:55 23.02.2022
2968 Haze 22 1011 35 4000 0 0 09:38 23.02.2022
2969 Haze 20 1011 42 4000 0 0 08:36 23.02.2022
2970 Haze 17 1011 51 4000 0 0 07:25 23.02.2022
2971 Haze 16 1012 55 4000 1.03 150 02:23 23.02.2022
2972 Clouds 17 1013 51 6000 0 0 23:50 22.02.2022
2973 Clouds 18 1013 45 6000 0 0 23:31 22.02.2022
2974 Clouds 20 1013 39 6000 2.06 150 22:28 22.02.2022
2975 Clear 20 1013 42 10000 2.06 130 21:44 22.02.2022
2976 Clear 20 1014 42 10000 2.06 120 21:20 22.02.2022
2977 Clear 21 1013 35 10000 1.03 180 20:31 22.02.2022
2978 Clear 21 1013 39 10000 2.06 160 19:56 22.02.2022
2979 Clear 21 1013 39 10000 2.06 160 19:33 22.02.2022
2980 Clear 21 1013 35 10000 2.06 80 18:35 22.02.2022
2981 Clear 22 1013 28 10000 0 0 17:34 22.02.2022
2982 Clear 23 1012 23 10000 1.03 210 16:56 22.02.2022
2983 Clear 23 1013 25 10000 1.54 250 16:21 22.02.2022
2984 Clear 25 1013 25 10000 1.54 260 15:30 22.02.2022
2985 Clear 25 1013 27 10000 0 0 14:28 22.02.2022
2986 Clouds 22 1015 30 6000 1.03 230 11:39 22.02.2022
2987 Clouds 22 1015 30 6000 1.03 230 11:39 22.02.2022
2988 Clouds 21 1016 37 6000 2.57 260 09:45 22.02.2022
2989 Haze 16 1016 58 4000 0 0 07:38 22.02.2022
2990 Haze 16 1016 58 4000 0 0 07:19 22.02.2022
2991 Clear 15 1017 67 6000 0 0 02:51 22.02.2022
2992 Clouds 16 1017 67 6000 1.54 120 23:42 21.02.2022
2993 Clouds 17 1018 59 6000 1.54 80 22:37 21.02.2022
2994 Clouds 18 1019 55 6000 2.57 170 21:21 21.02.2022
2995 Clouds 20 1018 48 6000 0 0 18:58 21.02.2022
2996 Clouds 21 1018 42 6000 0 0 18:39 21.02.2022
2997 Clouds 21 1018 40 6000 2.06 330 16:30 21.02.2022
2998 Clouds 22 1019 35 6000 0 0 14:24 21.02.2022
2999 Clouds 21 1020 32 6000 2.57 290 13:40 21.02.2022
3000 Clouds 21 1020 43 6000 2.06 290 12:57 21.02.2022
3001 Clouds 21 1021 45 6000 3.09 260 12:21 21.02.2022
3002 Clouds 20 1023 48 6000 0 0 10:31 21.02.2022
3003 Mist 15 1023 82 4000 0 0 07:51 21.02.2022
3004 Clouds 15 1024 76 6000 2.06 140 00:36 21.02.2022
3005 Clouds 16 1024 76 6000 0 0 22:37 20.02.2022
3006 Clouds 16 1024 72 6000 0 0 21:51 20.02.2022
3007 Clouds 16 1024 72 6000 2.06 120 21:25 20.02.2022
3008 Clouds 16 1024 67 6000 0 0 20:45 20.02.2022
3009 Haze 16 1024 67 2000 1.03 60 19:51 20.02.2022
3010 Haze 17 1024 63 3000 1.03 350 18:57 20.02.2022
3011 Haze 17 1024 63 4000 1.03 360 18:37 20.02.2022
3012 Clear 17 1024 63 10000 2.06 340 17:56 20.02.2022
3013 Clear 18 1023 59 10000 2.57 350 17:24 20.02.2022
3014 Clear 20 1022 42 10000 1.54 20 15:29 20.02.2022
3015 Clear 18 1022 45 10000 2.57 70 14:20 20.02.2022
3016 Clear 18 1023 51 10000 1.54 340 12:49 20.02.2022
3017 Clear 16 1024 55 10000 1.54 20 11:56 20.02.2022
3018 Clear 16 1024 55 10000 1.54 20 11:56 20.02.2022
3019 Clear 16 1024 58 10000 2.57 40 10:21 20.02.2022
3020 Clear 15 1024 67 10000 2.57 80 09:46 20.02.2022
3021 Mist 8 1022 100 2000 0 0 06:30 20.02.2022
3022 Clear 12 1020 76 10000 1.54 300 00:33 20.02.2022
3023 Clear 12 1020 76 10000 1.03 290 23:39 19.02.2022
3024 Clear 12 1020 76 10000 2.06 280 22:24 19.02.2022
3025 Clouds 12 1019 76 10000 1.54 270 21:50 19.02.2022
3026 Clouds 12 1019 76 10000 0 0 20:41 19.02.2022
3027 Clouds 12 1018 76 10000 2.06 320 19:35 19.02.2022
3028 Clouds 12 1017 76 10000 1.54 320 18:41 19.02.2022
3029 Clouds 12 1016 81 10000 0 0 17:58 19.02.2022
3030 Clouds 11 1016 81 10000 1.54 30 17:23 19.02.2022
3031 Clouds 15 1015 62 10000 2.57 330 15:59 19.02.2022
3032 Clouds 15 1014 62 6000 6.17 260 14:55 19.02.2022
3033 Clouds 15 1014 67 6000 2.57 170 13:58 19.02.2022
3034 Clouds 13 1014 76 10000 1.54 160 11:53 19.02.2022
3035 Clouds 11 1014 87 10000 2.06 210 11:24 19.02.2022
3036 Clouds 13 1014 81 6000 6.17 250 08:59 19.02.2022
3037 Mist 12 1014 81 4000 2.57 210 06:48 19.02.2022
3038 Clouds 12 1013 81 10000 2.57 310 00:42 19.02.2022
3039 Clouds 15 1013 76 10000 3.6 10 22:28 18.02.2022
3040 Clouds 15 1013 76 10000 2.57 360 21:26 18.02.2022
3041 Clouds 16 1013 72 10000 5.14 360 20:24 18.02.2022
3042 Clouds 16 1013 72 10000 5.66 360 19:50 18.02.2022
3043 Clouds 16 1012 63 10000 6.69 20 18:37 18.02.2022
3044 Clouds 16 1012 63 10000 6.69 20 18:18 18.02.2022
3045 Clouds 16 1012 67 10000 4.63 350 17:18 18.02.2022
3046 Clouds 18 1011 55 10000 6.17 330 14:31 18.02.2022
3047 Clouds 17 1010 55 10000 5.14 340 13:47 18.02.2022
3048 Clouds 18 1010 51 6000 3.09 360 12:50 18.02.2022
3049 Clouds 18 1011 55 6000 5.14 50 11:57 18.02.2022
3050 Clouds 17 1011 59 6000 4.12 40 10:45 18.02.2022
3051 Mist 16 1012 72 4000 3.6 10 09:20 18.02.2022
3052 Mist 11 1012 93 4000 0 0 06:48 18.02.2022
3053 Mist 11 1011 93 4000 1.54 80 05:34 18.02.2022
3054 Clouds 13 1012 81 6000 2.57 80 22:39 17.02.2022
3055 Clouds 15 1012 76 6000 3.6 60 21:41 17.02.2022
3056 Clouds 15 1012 76 6000 3.09 50 20:52 17.02.2022
3057 Clouds 15 1012 76 6000 3.09 30 20:33 17.02.2022
3058 Clouds 15 1012 76 6000 3.09 20 19:42 17.02.2022
3059 Clouds 16 1012 63 6000 3.6 360 18:29 17.02.2022
3060 Clouds 16 1012 63 6000 4.12 360 17:45 17.02.2022
3061 Clouds 16 1011 63 10000 6.17 20 16:19 17.02.2022
3062 Clouds 17 1011 59 10000 5.66 350 14:30 17.02.2022
3063 Clouds 17 1011 59 10000 5.66 360 13:47 17.02.2022
3064 Clouds 17 1013 51 10000 4.12 50 11:57 17.02.2022
3065 Clouds 17 1013 48 10000 5.14 50 11:21 17.02.2022
3066 Clouds 15 1014 71 6000 4.12 60 07:57 17.02.2022
3067 Clouds 13 1017 81 6000 3.09 60 00:20 17.02.2022
3068 Clouds 15 1018 71 6000 3.09 50 22:38 16.02.2022
3069 Clouds 15 1019 67 6000 4.12 60 20:32 16.02.2022
3070 Clouds 16 1019 58 6000 3.6 40 19:27 16.02.2022
3071 Clouds 16 1018 58 6000 5.66 30 18:35 16.02.2022
3072 Clouds 17 1018 51 6000 4.63 10 17:33 16.02.2022
3073 Clear 18 1018 45 10000 6.69 10 15:24 16.02.2022
3074 Clear 18 1019 48 10000 5.14 340 14:29 16.02.2022
3075 Clear 18 1020 45 10000 5.14 20 12:31 16.02.2022
3076 Clear 17 1021 48 10000 4.12 20 11:46 16.02.2022
3077 Clouds 16 1021 51 10000 4.12 10 10:37 16.02.2022
3078 Clouds 16 1021 51 10000 4.12 10 10:18 16.02.2022
3079 Haze 11 1022 76 3000 0 0 06:44 16.02.2022
3080 Haze 11 1022 76 3000 1.03 360 03:41 16.02.2022
3081 Haze 13 1023 66 4000 2.06 350 22:35 15.02.2022
3082 Clouds 13 1023 66 6000 3.09 340 21:52 15.02.2022
3083 Clouds 13 1023 66 6000 3.6 350 21:31 15.02.2022
3084 Clouds 13 1023 66 10000 3.6 340 20:58 15.02.2022
3085 Clouds 13 1023 66 10000 3.6 340 20:38 15.02.2022
3086 Clouds 16 1022 58 10000 4.63 340 19:48 15.02.2022
3087 Clouds 16 1022 58 10000 4.12 350 18:40 15.02.2022
3088 Clouds 16 1022 55 10000 4.63 360 18:18 15.02.2022
3089 Clouds 16 1022 55 10000 4.63 360 17:46 15.02.2022
3090 Clouds 17 1021 48 10000 4.63 350 16:20 15.02.2022
3091 Clouds 18 1020 51 10000 6.69 350 14:35 15.02.2022
3092 Clouds 18 1020 45 10000 5.66 350 13:26 15.02.2022
3093 Clouds 17 1021 45 10000 5.14 360 11:52 15.02.2022
3094 Clouds 16 1022 51 10000 6.17 20 10:39 15.02.2022
3095 Clouds 16 1023 54 10000 6.17 20 09:23 15.02.2022
3096 Mist 11 1022 87 3000 0 0 06:48 15.02.2022
3097 Clouds 15 1021 76 10000 2.57 360 00:26 15.02.2022
3098 Clear 15 1021 71 10000 2.57 30 21:59 14.02.2022
3099 Clear 15 1021 67 10000 3.09 340 21:19 14.02.2022
3100 Clouds 16 1021 62 10000 5.66 10 20:23 14.02.2022
3101 Clouds 16 1021 55 10000 2.57 30 19:30 14.02.2022
3102 Clouds 17 1020 55 10000 3.09 20 18:27 14.02.2022
3103 Clouds 17 1020 48 10000 3.6 10 17:43 14.02.2022
3104 Clouds 17 1020 48 10000 3.6 10 17:23 14.02.2022
3105 Clouds 18 1019 42 10000 4.63 350 15:58 14.02.2022
3106 Clouds 20 1019 42 10000 4.12 340 13:38 14.02.2022
3107 Clouds 20 1019 42 10000 4.12 340 13:18 14.02.2022
3108 Clouds 18 1020 42 10000 5.14 30 12:32 14.02.2022
3109 Clouds 17 1021 45 10000 6.17 360 11:47 14.02.2022
3110 Clear 17 1022 51 10000 2.06 340 10:25 14.02.2022
3111 Clear 15 1022 62 10000 0 0 08:34 14.02.2022
3112 Clear 12 1021 71 10000 1.54 90 07:26 14.02.2022
3113 Clouds 14 1022 67 10000 1.54 60 23:41 13.02.2022
3114 Clouds 15 1022 67 10000 2.57 40 22:42 13.02.2022
3115 Clouds 15 1022 67 10000 3.6 40 22:23 13.02.2022
3116 Clouds 16 1022 67 10000 3.6 40 21:28 13.02.2022
3117 Clouds 16 1022 67 10000 4.63 40 20:32 13.02.2022
3118 Clouds 16 1021 72 10000 5.66 20 19:24 13.02.2022
3119 Clouds 15 1021 72 6000 5.66 10 18:42 13.02.2022
3120 Clouds 16 1021 67 6000 5.66 20 17:57 13.02.2022
3121 Clouds 20 1020 48 6000 4.63 360 15:54 13.02.2022
3122 Clouds 20 1020 48 6000 4.63 360 15:20 13.02.2022
3123 Clouds 20 1020 52 6000 3.6 350 13:59 13.02.2022
3124 Clouds 20 1020 52 6000 3.6 350 13:59 13.02.2022
3125 Clouds 20 1020 55 6000 3.6 20 12:50 13.02.2022
3126 Clouds 18 1021 59 6000 2.57 360 11:35 13.02.2022
3127 Clouds 16 1022 76 6000 3.6 30 10:32 13.02.2022
3128 Mist 16 1022 76 3000 3.09 30 09:45 13.02.2022
3129 Mist 10 1022 100 2000 1.54 30 07:21 13.02.2022
3130 Clear 12 1022 81 10000 3.09 60 00:35 13.02.2022
3131 Clear 13 1022 76 10000 3.6 60 23:39 12.02.2022
3132 Clear 13 1023 76 10000 4.12 60 22:33 12.02.2022
3133 Clear 15 1023 67 10000 4.12 60 21:27 12.02.2022
3134 Clear 15 1023 62 10000 4.12 60 20:34 12.02.2022
3135 Clear 16 1023 55 10000 6.17 60 19:27 12.02.2022
3136 Clear 16 1023 55 10000 6.17 50 18:53 12.02.2022
3137 Clear 16 1023 55 10000 6.17 50 18:35 12.02.2022
3138 Clear 20 1022 30 10000 5.66 50 16:58 12.02.2022
3139 Clear 21 1022 28 10000 5.66 70 16:26 12.02.2022
3140 Clear 21 1022 28 10000 5.14 60 15:51 12.02.2022
3141 Clear 21 1022 30 10000 6.17 70 14:31 12.02.2022
3142 Clear 21 1022 32 10000 6.69 50 13:19 12.02.2022
3143 Clear 17 1024 45 10000 7.72 60 10:42 12.02.2022
3144 Clear 16 1025 55 10000 7.2 70 09:50 12.02.2022
3145 Clear 16 1025 62 10000 9.26 70 09:26 12.02.2022
3146 Clear 16 1025 62 10000 9.26 70 08:44 12.02.2022
3147 Clear 11 1023 81 10000 4.63 70 05:40 12.02.2022
3148 Clear 10 1024 81 10000 1.54 80 04:30 12.02.2022
3149 Clear 11 1024 76 10000 1.03 90 02:18 12.02.2022
3150 Clear 12 1025 71 10000 2.06 70 22:55 11.02.2022
3151 Clear 13 1025 66 10000 2.57 60 22:18 11.02.2022
3152 Clear 15 1024 62 10000 3.09 60 20:43 11.02.2022
3153 Clear 15 1024 58 10000 4.12 40 19:48 11.02.2022
3154 Clear 16 1024 54 10000 5.14 50 19:27 11.02.2022
3155 Clouds 16 1023 51 10000 4.63 40 18:26 11.02.2022
3156 Clouds 17 1023 45 10000 6.17 20 17:26 11.02.2022
3157 Clouds 17 1023 45 10000 5.14 30 16:26 11.02.2022
3158 Clouds 18 1022 42 10000 6.69 20 14:57 11.02.2022
3159 Clouds 18 1022 42 10000 6.69 20 14:36 11.02.2022
3160 Clouds 18 1022 39 10000 5.66 30 14:18 11.02.2022
3161 Clouds 17 1022 41 10000 5.14 40 13:39 11.02.2022
3162 Clouds 18 1022 42 10000 4.12 10 12:19 11.02.2022
3163 Clouds 16 1024 55 6000 1.54 350 10:28 11.02.2022
3164 Haze 15 1024 62 4000 0 0 09:19 11.02.2022
3165 Haze 13 1023 66 4000 0 0 08:28 11.02.2022
3166 Haze 11 1023 81 4000 1.03 170 07:34 11.02.2022
3167 Clouds 11 1021 71 6000 0 0 02:40 11.02.2022
3168 Clouds 11 1021 71 6000 0 0 02:20 11.02.2022
3169 Clouds 12 1021 66 6000 0 0 23:36 10.02.2022
3170 Clouds 13 1021 62 6000 2.06 320 21:53 10.02.2022
3171 Clouds 13 1021 62 10000 1.54 320 21:24 10.02.2022
3172 Clouds 13 1021 58 10000 2.57 320 20:48 10.02.2022
3173 Clouds 13 1020 54 10000 3.09 310 19:37 10.02.2022
3174 Clouds 13 1020 54 10000 3.09 310 19:18 10.02.2022
3175 Clouds 16 1019 47 10000 4.12 300 17:39 10.02.2022
3176 Clouds 16 1019 47 10000 4.12 300 17:19 10.02.2022
3177 Clouds 16 1018 44 10000 5.14 310 16:23 10.02.2022
3178 Clouds 16 1018 44 10000 5.14 310 15:34 10.02.2022
3179 Clouds 16 1018 47 10000 5.14 300 14:49 10.02.2022
3180 Clouds 16 1018 47 10000 6.17 290 14:30 10.02.2022
3181 Clouds 16 1018 47 10000 4.63 280 13:33 10.02.2022
3182 Clouds 16 1018 47 10000 5.66 290 12:51 10.02.2022
3183 Clouds 16 1019 47 10000 5.14 270 11:44 10.02.2022
3184 Clouds 16 1019 51 10000 5.66 260 11:25 10.02.2022
3185 Clouds 15 1020 54 10000 6.17 230 10:19 10.02.2022
3186 Clouds 12 1020 62 6000 5.66 210 09:25 10.02.2022
3187 Clouds 11 1019 66 10000 7.2 230 07:57 10.02.2022
3188 Clouds 11 1018 61 10000 5.66 250 05:53 10.02.2022
3189 Clouds 11 1018 66 10000 5.14 240 01:58 10.02.2022
3190 Clouds 11 1018 66 10000 5.14 240 00:51 10.02.2022
3191 Clouds 11 1018 66 10000 5.14 240 00:29 10.02.2022
3192 Clouds 12 1018 62 10000 7.72 270 23:28 09.02.2022
3193 Clouds 12 1019 57 10000 7.2 270 22:45 09.02.2022
3194 Clouds 12 1018 57 10000 8.23 260 22:25 09.02.2022
3195 Clouds 12 1019 57 10000 7.2 270 21:38 09.02.2022
3196 Clouds 12 1019 57 10000 5.14 290 21:18 09.02.2022
3197 Clouds 12 1019 57 10000 7.2 290 20:41 09.02.2022
3198 Clouds 13 1019 50 10000 5.66 280 20:20 09.02.2022
3199 Clouds 13 1019 50 10000 6.17 280 19:38 09.02.2022
3200 Clouds 15 1018 44 10000 5.66 290 17:43 09.02.2022
3201 Clouds 16 1017 44 10000 7.2 300 16:54 09.02.2022
3202 Clouds 16 1016 36 10000 7.72 280 15:55 09.02.2022
3203 Clouds 16 1016 36 10000 7.72 280 15:19 09.02.2022
3204 Clouds 17 1016 39 10000 6.17 260 12:42 09.02.2022
3205 Clouds 17 1016 39 10000 6.17 260 12:42 09.02.2022
3206 Clouds 16 1017 47 10000 4.63 290 11:20 09.02.2022
3207 Clouds 16 1017 58 10000 4.63 290 10:32 09.02.2022
3208 Clouds 16 1017 62 10000 5.66 300 09:42 09.02.2022
3209 Clouds 16 1017 62 10000 5.66 300 09:20 09.02.2022
3210 Clouds 15 1017 71 10000 4.63 270 08:26 09.02.2022
3211 Clear 14 1016 44 6000 2.57 230 05:31 09.02.2022
3212 Clear 15 1015 41 6000 3.6 240 03:51 09.02.2022
3213 Haze 16 1015 36 4000 4.12 170 01:33 09.02.2022
3214 Clear 17 1016 33 6000 2.06 200 23:39 08.02.2022
3215 Clear 16 1016 36 6000 1.54 220 22:53 08.02.2022
3216 Clear 18 1016 29 6000 1.54 190 22:22 08.02.2022
3217 Clear 18 1016 29 10000 1.54 200 21:52 08.02.2022
3218 Clear 18 1016 29 10000 2.06 180 21:21 08.02.2022
3219 Clear 19 1017 27 10000 2.57 190 20:55 08.02.2022
3220 Clear 20 1017 27 10000 1.54 170 20:23 08.02.2022
3221 Clear 20 1017 22 10000 1.03 190 18:53 08.02.2022
3222 Clear 21 1016 19 10000 2.06 180 17:50 08.02.2022
3223 Clear 22 1016 18 10000 2.57 200 16:42 08.02.2022
3224 Clear 23 1016 17 10000 3.09 220 15:39 08.02.2022
3225 Clear 23 1016 17 10000 3.6 240 14:57 08.02.2022
3226 Clear 22 1017 23 10000 2.57 220 13:29 08.02.2022
3227 Clear 21 1018 26 10000 3.6 250 12:20 08.02.2022
3228 Clear 21 1019 26 10000 3.6 210 10:45 08.02.2022
3229 Clear 20 1020 32 10000 3.6 200 09:46 08.02.2022
3230 Clear 17 1020 41 10000 2.06 240 08:27 08.02.2022
3231 Clear 12 1021 54 10000 0 0 05:45 08.02.2022
3232 Clear 12 1020 54 10000 0 0 04:39 08.02.2022
3233 Clear 12 1020 54 10000 0 0 04:21 08.02.2022
3234 Clear 12 1020 54 10000 3.09 160 03:36 08.02.2022
3235 Clear 12 1020 54 10000 3.09 160 03:18 08.02.2022
3236 Clear 12 1021 57 10000 3.09 160 02:59 08.02.2022
3237 Clear 12 1021 57 10000 3.09 160 02:36 08.02.2022
3238 Clear 13 1021 54 10000 4.12 150 02:18 08.02.2022
3239 Clear 13 1021 58 10000 4.12 150 01:44 08.02.2022
3240 Clear 15 1021 54 10000 2.57 150 01:24 08.02.2022
3241 Clear 15 1021 54 10000 2.57 150 00:55 08.02.2022
3242 Clear 15 1022 50 10000 1.54 140 23:58 07.02.2022
3243 Clear 16 1022 47 10000 1.54 100 23:40 07.02.2022
3244 Clear 16 1022 47 10000 1.36 37 23:18 07.02.2022
3245 Clear 16 1022 51 10000 0 0 22:56 07.02.2022
3246 Clear 16 1022 51 10000 0 0 22:18 07.02.2022
3247 Clear 16 1022 51 10000 0.51 110 21:47 07.02.2022
3248 Clear 17 1022 45 10000 0.51 360 21:26 07.02.2022
3249 Clear 17 1022 41 10000 0 0 20:41 07.02.2022
3250 Clear 17 1022 41 10000 0 0 20:18 07.02.2022
3251 Clear 18 1022 36 10000 0 0 19:45 07.02.2022
3252 Clear 20 1022 34 10000 0 0 18:22 07.02.2022
3253 Clear 21 1021 28 10000 2.06 310 16:53 07.02.2022
3254 Clear 21 1021 28 10000 2.57 280 16:21 07.02.2022
3255 Clear 22 1021 26 10000 2.57 290 15:48 07.02.2022
3256 Clear 21 1021 30 10000 4.12 240 13:39 07.02.2022
3257 Clear 21 1021 30 10000 4.12 240 13:21 07.02.2022
3258 Clear 20 1023 37 10000 4.63 230 11:58 07.02.2022
3259 Clear 20 1023 37 10000 4.63 230 11:37 07.02.2022
3260 Clear 18 1023 42 6000 4.63 220 10:53 07.02.2022
3261 Clear 18 1024 39 6000 4.12 200 10:32 07.02.2022
3262 Clear 17 1024 45 6000 4.63 210 09:53 07.02.2022
3263 Clear 17 1024 45 6000 3.6 220 09:18 07.02.2022
3264 Haze 16 1024 54 4000 2.57 200 08:44 07.02.2022
3265 Clear 12 1024 66 6000 1.03 240 07:30 07.02.2022
3266 Clouds 12 1023 66 6000 0 0 06:34 07.02.2022
3267 Clear 11 1022 71 6000 0 0 03:49 07.02.2022
3268 Clear 13 1024 66 6000 2.57 150 00:47 07.02.2022
3269 Clear 13 1025 66 6000 1.03 160 23:50 06.02.2022
3270 Clear 13 1025 66 6000 1.54 150 23:19 06.02.2022
3271 Clear 15 1025 62 6000 0 0 22:34 06.02.2022
3272 Clear 16 1025 58 6000 0 0 21:36 06.02.2022
3273 Clear 16 1025 58 10000 0 0 20:58 06.02.2022
3274 Clear 16 1025 55 10000 1.03 150 20:36 06.02.2022
3275 Clear 16 1025 55 10000 0 0 19:46 06.02.2022
3276 Clear 17 1024 51 10000 0 0 18:50 06.02.2022
3277 Clear 17 1024 51 10000 0 0 18:24 06.02.2022
3278 Clouds 18 1024 48 6000 1.03 340 17:26 06.02.2022
3279 Clouds 18 1023 45 6000 3.09 300 16:48 06.02.2022
3280 Clouds 18 1023 48 6000 1.54 330 15:50 06.02.2022
3281 Clouds 18 1023 45 6000 2.57 280 15:27 06.02.2022
3282 Clouds 18 1023 45 6000 1.03 340 14:50 06.02.2022
3283 Clear 18 1024 48 6000 1.03 330 13:51 06.02.2022
3284 Clear 18 1024 48 6000 1.03 330 13:20 06.02.2022
3285 Clear 16 1025 55 6000 0 0 11:39 06.02.2022
3286 Clear 16 1026 55 6000 3.6 220 10:31 06.02.2022
3287 Clear 15 1026 62 6000 2.57 230 09:26 06.02.2022
3288 Clear 15 1026 62 6000 3.09 240 08:41 06.02.2022
3289 Clouds 11 1025 81 6000 0 0 06:19 06.02.2022
3290 Clouds 11 1024 81 6000 0 0 03:31 06.02.2022
3291 Clouds 11 1024 76 6000 0 0 02:25 06.02.2022
3292 Clouds 13 1025 66 6000 0 0 00:30 06.02.2022
3293 Clouds 13 1025 66 6000 0 0 23:25 05.02.2022
3294 Clouds 14 1025 62 6000 2.06 300 21:38 05.02.2022
3295 Clouds 15 1024 62 6000 1.54 300 20:25 05.02.2022
3296 Clouds 15 1024 58 6000 1.54 360 19:50 05.02.2022
3297 Clouds 16 1024 58 6000 1.54 310 19:27 05.02.2022
3298 Clouds 16 1023 51 10000 2.06 300 18:23 05.02.2022
3299 Clouds 16 1023 47 10000 2.06 300 17:31 05.02.2022
3300 Clouds 17 1022 45 10000 4.63 290 15:42 05.02.2022
3301 Clouds 17 1022 45 10000 4.63 290 15:24 05.02.2022
3302 Clouds 16 1022 47 10000 5.14 260 13:22 05.02.2022
3303 Clouds 16 1022 47 10000 5.14 260 12:42 05.02.2022
3304 Clouds 16 1023 54 10000 3.09 230 10:57 05.02.2022
3305 Clouds 15 1024 58 10000 4.12 230 10:38 05.02.2022
3306 Clouds 15 1024 58 10000 4.12 230 09:47 05.02.2022
3307 Clouds 12 1023 71 10000 3.6 220 08:20 05.02.2022
3308 Clouds 11 1022 81 10000 3.09 220 06:58 05.02.2022
3309 Clouds 11 1021 87 10000 3.6 220 04:55 05.02.2022
3310 Clouds 12 1020 71 10000 4.63 250 01:40 05.02.2022
3311 Clouds 13 1021 71 10000 4.56 285 01:18 05.02.2022
3312 Clouds 13 1020 71 10000 3.6 240 23:59 04.02.2022
3313 Clouds 13 1020 71 10000 3.6 240 23:33 04.02.2022
3314 Clouds 13 1020 71 10000 3.6 260 22:18 04.02.2022
3315 Clouds 13 1020 71 10000 4.63 270 21:36 04.02.2022
3316 Clouds 13 1020 71 10000 4.63 270 21:18 04.02.2022
3317 Clouds 15 1019 67 10000 5.66 270 20:20 04.02.2022
3318 Clouds 15 1018 71 10000 4.12 290 17:45 04.02.2022
3319 Clouds 16 1016 62 10000 7.2 280 15:55 04.02.2022
3320 Clouds 16 1016 62 10000 7.2 280 15:55 04.02.2022
3321 Clouds 16 1015 58 10000 7.72 280 14:56 04.02.2022
3322 Clouds 16 1014 55 10000 7.2 270 13:55 04.02.2022
3323 Clouds 16 1014 58 6000 6.69 250 12:43 04.02.2022
3324 Clouds 16 1014 67 6000 6.17 250 11:43 04.02.2022
3325 Sand 13 1014 76 2000 6.17 230 10:37 04.02.2022
3326 Sand 11 1014 87 2000 6.17 230 08:49 04.02.2022
3327 Sand 11 1012 66 2000 10.29 200 06:57 04.02.2022
3328 Clouds 12 1012 54 6000 5.66 210 02:48 04.02.2022
3329 Clouds 12 1012 57 6000 7.2 200 01:56 04.02.2022
3330 Clouds 15 1012 44 6000 6.17 210 23:31 03.02.2022
3331 Clouds 15 1012 44 6000 6.69 200 22:46 03.02.2022
3332 Clouds 15 1013 41 6000 4.12 200 21:49 03.02.2022
3333 Clouds 15 1013 41 6000 4.12 200 21:49 03.02.2022
3334 Clouds 15 1013 44 6000 8.23 220 20:41 03.02.2022
3335 Clouds 16 1013 41 6000 8.75 220 20:20 03.02.2022
3336 Clouds 16 1013 41 6000 6.69 220 19:32 03.02.2022
3337 Clouds 16 1012 39 6000 6.17 220 18:40 03.02.2022
3338 Clouds 16 1012 41 10000 4.12 220 17:42 03.02.2022
3339 Clouds 16 1012 44 10000 8.75 240 16:35 03.02.2022
3340 Clouds 17 1011 31 10000 9.77 240 14:52 03.02.2022
3341 Clouds 17 1011 29 10000 9.77 240 12:59 03.02.2022
3342 Clear 17 1012 33 10000 6.17 210 11:23 03.02.2022
3343 Sand 15 1012 41 4000 10.29 200 08:37 03.02.2022
3344 Clear 15 1010 33 10000 5.14 170 05:26 03.02.2022
3345 Clear 16 1012 58 10000 5.14 170 00:32 03.02.2022
3346 Clear 13 1012 43 10000 5.14 160 23:44 02.02.2022
3347 Clear 16 1013 38 10000 3.09 160 22:32 02.02.2022
3348 Clear 16 1013 41 10000 3.09 160 21:34 02.02.2022
3349 Clear 16 1013 41 10000 3.09 170 20:51 02.02.2022
3350 Clear 16 1013 38 10000 3.09 150 19:59 02.02.2022
3351 Clear 16 1013 38 10000 3.09 150 19:27 02.02.2022
3352 Clear 17 1013 33 10000 1.54 170 18:46 02.02.2022
3353 Clear 18 1013 31 10000 2.06 190 17:57 02.02.2022
3354 Clear 18 1013 31 10000 2.06 190 17:19 02.02.2022
3355 Clear 18 1013 31 10000 3.6 210 16:42 02.02.2022
3356 Clear 20 1014 29 10000 6.17 190 13:35 02.02.2022
3357 Clear 20 1014 29 10000 4.63 200 12:25 02.02.2022
3358 Clear 20 1015 29 10000 4.63 190 11:34 02.02.2022
3359 Clear 18 1016 34 10000 3.09 210 10:31 02.02.2022
3360 Clear 12 1017 62 10000 4.12 150 07:37 02.02.2022
3361 Clouds 13 1018 58 6000 0 0 22:52 01.02.2022
3362 Clouds 15 1018 54 10000 2.57 150 21:52 01.02.2022
3363 Clouds 16 1018 47 10000 4.12 110 20:36 01.02.2022
3364 Clouds 17 1018 41 10000 1.54 220 17:50 01.02.2022
3365 Clouds 17 1017 41 10000 3.6 210 16:40 01.02.2022
3366 Clear 18 1017 39 10000 3.6 210 14:49 01.02.2022
3367 Clear 18 1018 42 10000 3.6 200 12:47 01.02.2022
3368 Clear 17 1019 48 10000 4.12 210 11:34 01.02.2022
3369 Mist 11 1018 81 4000 4.12 180 05:43 01.02.2022
3370 Clouds 13 1017 76 10000 2.06 210 23:51 31.01.2022
3371 Clouds 13 1017 76 10000 2.06 210 23:28 31.01.2022
3372 Clouds 14 1016 72 10000 4.12 270 21:59 31.01.2022
3373 Clouds 14 1016 67 10000 3.6 270 21:32 31.01.2022
3374 Clouds 15 1016 63 10000 4.12 280 20:33 31.01.2022
3375 Clouds 15 1015 63 10000 3.6 280 19:46 31.01.2022
3376 Clouds 16 1015 62 10000 3.6 300 18:29 31.01.2022
3377 Clouds 16 1014 55 10000 4.12 280 17:46 31.01.2022
3378 Clouds 16 1013 55 10000 4.12 290 16:48 31.01.2022
3379 Clouds 16 1012 58 10000 3.09 270 15:43 31.01.2022
3380 Clouds 16 1012 63 6000 5.66 250 14:25 31.01.2022
3381 Clouds 13 1013 76 6000 4.63 200 12:51 31.01.2022
3382 Clouds 12 1013 87 6000 5.14 210 11:59 31.01.2022
3383 Clouds 11 1014 87 6000 4.63 200 10:52 31.01.2022
3384 Clouds 12 1014 66 6000 6.17 220 10:34 31.01.2022
3385 Clouds 11 1014 66 6000 6.17 200 09:27 31.01.2022
3386 Clouds 11 1014 61 6000 5.14 200 08:52 31.01.2022
3387 Clouds 11 1014 61 6000 5.14 200 08:52 31.01.2022
3388 Clouds 11 1014 61 6000 5.14 200 08:20 31.01.2022
3389 Clouds 11 1013 53 6000 4.63 200 06:36 31.01.2022
3390 Clouds 11 1013 46 6000 3.6 190 05:20 31.01.2022
3391 Clouds 15 1016 38 10000 5.14 240 23:20 30.01.2022
3392 Clouds 12 1016 47 10000 3.18 227 22:30 30.01.2022
3393 Clouds 15 1016 36 10000 3.6 230 21:44 30.01.2022
3394 Clouds 15 1016 36 10000 4.12 230 21:21 30.01.2022
3395 Clouds 15 1016 36 10000 3.09 180 20:50 30.01.2022
3396 Clouds 16 1016 38 10000 2.57 180 20:30 30.01.2022
3397 Clouds 16 1016 39 10000 2.57 180 19:54 30.01.2022
3398 Clouds 16 1016 36 10000 2.57 170 18:51 30.01.2022
3399 Clouds 16 1016 36 10000 2.57 170 18:21 30.01.2022
3400 Clouds 17 1015 33 10000 4.12 200 17:30 30.01.2022
3401 Clouds 17 1015 33 10000 3.6 200 16:42 30.01.2022
3402 Clouds 17 1015 33 10000 4.12 210 16:22 30.01.2022
3403 Clouds 18 1015 31 10000 4.63 220 15:53 30.01.2022
3404 Clouds 18 1015 31 10000 4.63 220 15:32 30.01.2022
3405 Clouds 17 1015 33 10000 5.14 220 14:47 30.01.2022
3406 Clouds 18 1016 34 10000 6.17 230 13:37 30.01.2022
3407 Clouds 18 1016 34 10000 5.66 230 12:41 30.01.2022
3408 Clear 16 1019 44 10000 6.69 220 10:39 30.01.2022
3409 Clear 16 1019 47 10000 5.14 210 09:58 30.01.2022
3410 Clear 16 1019 47 10000 5.14 200 09:21 30.01.2022
3411 Clouds 13 1018 54 10000 4.12 170 07:57 30.01.2022
3412 Clouds 11 1019 61 6000 1.54 200 02:44 30.01.2022
3413 Clouds 11 1020 61 6000 2.06 180 01:52 30.01.2022
3414 Clouds 12 1020 57 6000 1.03 190 23:46 29.01.2022
3415 Clouds 13 1020 54 10000 1.54 210 22:48 29.01.2022
3416 Clouds 15 1021 54 10000 1.54 130 21:28 29.01.2022
3417 Clouds 13 1021 58 10000 0 0 20:53 29.01.2022
3418 Clouds 15 1021 54 10000 0 0 19:51 29.01.2022
3419 Clouds 15 1020 54 10000 0 0 19:30 29.01.2022
3420 Clouds 15 1020 54 10000 0 0 18:43 29.01.2022
3421 Clouds 16 1020 51 10000 1.54 360 17:46 29.01.2022
3422 Clouds 16 1020 44 10000 1.54 270 16:43 29.01.2022
3423 Clouds 16 1020 41 10000 2.06 250 15:25 29.01.2022
3424 Clouds 16 1020 47 6000 4.63 230 13:48 29.01.2022
3425 Clouds 16 1021 47 6000 3.6 230 13:26 29.01.2022
3426 Clouds 16 1021 47 6000 3.6 230 12:52 29.01.2022
3427 Clouds 16 1022 51 6000 3.09 210 11:39 29.01.2022
3428 Clouds 15 1023 54 6000 3.09 230 10:32 29.01.2022
3429 Haze 11 1023 61 4000 2.57 190 07:57 29.01.2022
3430 Clouds 12 1023 57 10000 2.06 190 01:38 29.01.2022
3431 Clouds 12 1023 62 10000 2.06 190 00:31 29.01.2022
3432 Clouds 12 1023 62 10000 2.06 190 00:31 29.01.2022
3433 Clouds 13 1023 54 10000 4.63 250 23:29 28.01.2022
3434 Clouds 14 1023 44 10000 2.57 200 22:46 28.01.2022
3435 Clouds 14 1023 44 10000 2.57 200 22:18 28.01.2022
3436 Clouds 14 1023 47 10000 1.54 220 20:41 28.01.2022
3437 Clouds 15 1024 47 10000 1.54 230 19:56 28.01.2022
3438 Clouds 15 1024 47 10000 1.54 250 18:52 28.01.2022
3439 Clouds 15 1023 47 10000 2.06 230 17:52 28.01.2022
3440 Clouds 16 1023 47 10000 4.12 230 15:50 28.01.2022
3441 Clouds 16 1023 47 10000 3.09 250 14:50 28.01.2022
3442 Clouds 15 1024 54 6000 4.12 250 12:42 28.01.2022
3443 Clouds 12 1025 62 6000 3.6 230 11:43 28.01.2022
3444 Haze 11 1026 66 4000 3.09 200 10:26 28.01.2022
3445 Haze 11 1026 71 2000 3.09 200 09:46 28.01.2022
3446 Haze 11 1026 71 2000 4.12 210 07:41 28.01.2022
3447 Clouds 10 1025 75 10000 2.06 230 05:31 28.01.2022
3448 Clouds 11 1024 76 10000 1.54 210 03:51 28.01.2022
3449 Clouds 11 1024 76 10000 1.54 220 02:25 28.01.2022
3450 Clouds 11 1025 71 10000 2.06 220 01:37 28.01.2022
3451 Clouds 11 1024 71 10000 3.09 240 00:39 28.01.2022
3452 Clouds 11 1024 66 10000 2.06 230 22:20 27.01.2022
3453 Clouds 11 1024 66 10000 1.54 230 21:34 27.01.2022
3454 Clouds 11 1024 66 10000 1.54 240 20:59 27.01.2022
3455 Clouds 12 1024 62 10000 1.54 270 19:37 27.01.2022
3456 Clouds 12 1024 62 10000 3.09 300 18:19 27.01.2022
3457 Clouds 13 1023 54 10000 3.6 280 16:45 27.01.2022
3458 Clouds 12 1023 62 10000 4.63 220 13:57 27.01.2022
3459 Clouds 12 1023 62 6000 6.17 210 12:49 27.01.2022
3460 Clouds 11 1024 61 6000 6.17 210 11:53 27.01.2022
3461 Clouds 10 1024 66 6000 6.17 210 09:48 27.01.2022
3462 Clouds 10 1024 66 6000 5.66 200 08:40 27.01.2022
3463 Clouds 8 1023 70 6000 5.14 190 07:52 27.01.2022
3464 Clouds 7 1021 75 10000 5.66 250 03:34 27.01.2022
3465 Clouds 8 1021 75 10000 6.17 230 00:23 27.01.2022
3466 Clouds 10 1021 70 10000 6.69 240 22:28 26.01.2022
3467 Clouds 10 1021 70 10000 6.69 240 21:44 26.01.2022
3468 Clouds 10 1021 70 10000 7.2 240 20:49 26.01.2022
3469 Clouds 10 1020 70 10000 6.69 250 20:31 26.01.2022
3470 Clouds 10 1020 70 10000 6.17 250 19:49 26.01.2022
3471 Clouds 10 1020 75 10000 5.66 240 18:48 26.01.2022
3472 Clouds 10 1020 75 10000 5.66 240 18:24 26.01.2022
3473 Clouds 10 1019 70 10000 5.66 250 17:33 26.01.2022
3474 Clouds 10 1018 70 10000 6.17 280 16:49 26.01.2022
3475 Clouds 10 1018 70 10000 6.17 280 16:23 26.01.2022
3476 Clouds 11 1016 61 10000 8.75 250 14:40 26.01.2022
3477 Clouds 10 1016 81 10000 5.14 220 12:22 26.01.2022
3478 Mist 8 1018 87 3000 6.17 240 10:52 26.01.2022
3479 Mist 8 1018 87 3000 6.17 240 10:52 26.01.2022
3480 Clouds 8 1018 81 3000 8.75 260 09:55 26.01.2022
3481 Clouds 8 1018 81 3000 8.75 260 09:36 26.01.2022
3482 Haze 11 1017 46 3000 4.63 210 06:42 26.01.2022
3483 Clear 12 1018 46 10000 3.09 200 00:24 26.01.2022
3484 Clear 12 1018 46 10000 2.06 200 23:43 25.01.2022
3485 Clear 12 1019 50 10000 2.57 230 22:49 25.01.2022
3486 Clear 13 1019 47 10000 2.06 220 22:19 25.01.2022
3487 Clear 13 1019 47 10000 3.09 250 21:27 25.01.2022
3488 Clear 12 1019 46 10000 3.6 250 20:45 25.01.2022
3489 Clear 13 1019 47 10000 3.6 240 19:57 25.01.2022
3490 Clear 15 1019 44 10000 3.6 260 19:28 25.01.2022
3491 Clear 15 1019 41 10000 6.17 260 17:56 25.01.2022
3492 Clear 15 1019 41 10000 6.17 260 17:37 25.01.2022
3493 Clear 16 1018 35 10000 6.17 260 16:35 25.01.2022
3494 Clear 16 1018 31 10000 6.69 240 15:39 25.01.2022
3495 Clear 16 1018 31 10000 6.69 240 15:19 25.01.2022
3496 Clear 16 1018 30 10000 6.69 260 14:56 25.01.2022
3497 Clear 16 1019 30 10000 3.6 220 12:21 25.01.2022
3498 Clear 12 1021 34 6000 4.12 220 09:35 25.01.2022
3499 Haze 11 1021 39 4000 3.6 210 08:21 25.01.2022
3500 Haze 10 1021 45 4000 3.09 240 07:27 25.01.2022
3501 Clear 10 1021 45 10000 1.03 200 05:26 25.01.2022
3502 Clouds 11 1021 49 6000 2.57 220 00:57 25.01.2022
3503 Clouds 11 1021 53 10000 1.54 250 23:36 24.01.2022
3504 Clouds 11 1021 53 10000 1.54 250 23:18 24.01.2022
3505 Clouds 11 1022 53 10000 3.09 270 22:53 24.01.2022
3506 Clouds 12 1022 46 10000 1.54 260 22:35 24.01.2022
3507 Clouds 12 1022 46 10000 0 0 21:42 24.01.2022
3508 Clouds 12 1022 46 10000 0 0 21:24 24.01.2022
3509 Clouds 12 1022 46 10000 0.51 0 20:28 24.01.2022
3510 Clouds 13 1022 43 10000 1.54 80 19:38 24.01.2022
3511 Clouds 13 1021 47 10000 0 0 18:50 24.01.2022
3512 Clouds 15 1021 41 10000 1.54 340 17:42 24.01.2022
3513 Clouds 15 1021 41 10000 1.54 340 17:22 24.01.2022
3514 Clouds 15 1021 41 10000 1.54 340 17:22 24.01.2022
3515 Clouds 15 1020 24 10000 1.54 100 16:32 24.01.2022
3516 Clouds 16 1020 35 10000 0 0 15:51 24.01.2022
3517 Clouds 15 1020 38 10000 1.03 220 14:19 24.01.2022
3518 Clouds 15 1021 41 10000 1.54 330 12:35 24.01.2022
3519 Clouds 13 1021 43 10000 1.54 290 11:45 24.01.2022
3520 Clouds 13 1021 54 10000 0 0 10:23 24.01.2022
3521 Clouds 13 1022 58 10000 0 0 09:46 24.01.2022
3522 Clouds 11 1022 76 10000 1.54 230 08:18 24.01.2022
3523 Clear 11 1019 57 10000 3.6 230 02:29 24.01.2022
3524 Clear 11 1019 61 10000 1.03 250 01:27 24.01.2022
3525 Clear 11 1019 61 10000 1.03 250 01:27 24.01.2022
3526 Clear 11 1019 61 10000 1.54 200 00:32 24.01.2022
3527 Clear 11 1019 61 10000 1.54 230 23:46 23.01.2022
3528 Clear 12 1019 62 10000 2.06 230 22:21 23.01.2022
3529 Clear 12 1019 66 10000 2.06 220 21:42 23.01.2022
3530 Clear 12 1019 66 10000 2.06 220 21:23 23.01.2022
3531 Clouds 12 1019 66 10000 2.06 300 20:28 23.01.2022
3532 Clouds 13 1019 62 10000 4.63 320 19:19 23.01.2022
3533 Clouds 13 1019 62 10000 4.63 320 18:41 23.01.2022
3534 Clouds 15 1018 62 10000 3.09 320 17:25 23.01.2022
3535 Clouds 16 1017 54 10000 5.66 290 16:27 23.01.2022
3536 Clouds 17 1017 42 10000 6.69 270 14:54 23.01.2022
3537 Clouds 17 1017 42 10000 6.69 270 14:19 23.01.2022
3538 Clouds 16 1017 51 10000 7.72 270 12:47 23.01.2022
3539 Clouds 16 1017 51 10000 7.72 270 12:21 23.01.2022
3540 Clouds 17 1017 48 6000 6.69 270 11:51 23.01.2022
3541 Clouds 15 1018 44 6000 5.66 230 11:18 23.01.2022
3542 Clear 14 1019 44 6000 5.66 220 10:26 23.01.2022
3543 Clear 14 1019 44 6000 6.17 210 09:37 23.01.2022
3544 Clear 12 1019 47 6000 5.14 200 08:51 23.01.2022
3545 Clear 10 1018 50 6000 3.6 190 05:37 23.01.2022
3546 Clear 11 1018 46 6000 3.6 180 01:46 23.01.2022
3547 Clear 12 1018 47 6000 4.63 190 01:23 23.01.2022
3548 Clear 13 1018 44 10000 3.6 210 00:22 23.01.2022
3549 Clear 13 1018 44 10000 2.57 210 23:19 22.01.2022
3550 Clear 14 1019 41 10000 3.6 200 22:34 22.01.2022
3551 Clouds 14 1019 41 10000 2.57 210 21:19 22.01.2022
3552 Clouds 14 1019 41 10000 2.57 220 19:49 22.01.2022
3553 Clouds 14 1019 38 10000 3.09 230 18:45 22.01.2022
3554 Clouds 15 1019 36 10000 2.57 240 17:56 22.01.2022
3555 Clouds 15 1019 36 10000 2.57 240 17:35 22.01.2022
3556 Clouds 16 1019 33 10000 4.63 280 16:55 22.01.2022
3557 Clouds 16 1019 33 10000 4.12 290 15:49 22.01.2022
3558 Clouds 16 1019 33 10000 4.12 290 14:57 22.01.2022
3559 Clouds 16 1019 33 6000 5.14 280 13:39 22.01.2022
3560 Clouds 16 1019 36 6000 4.63 290 12:48 22.01.2022
3561 Clouds 15 1020 41 6000 4.63 300 12:28 22.01.2022
3562 Clear 14 1021 41 6000 4.12 290 10:56 22.01.2022
3563 Haze 14 1022 47 4000 3.09 280 10:29 22.01.2022
3564 Haze 13 1022 54 4000 1.54 270 09:58 22.01.2022
3565 Haze 10 1022 66 4000 0 0 08:51 22.01.2022
3566 Haze 9 1022 71 4000 0 0 07:34 22.01.2022
3567 Clear 7 1021 76 10000 0 0 04:52 22.01.2022
3568 Clear 8 1022 66 10000 0 0 01:34 22.01.2022
3569 Clear 9 1023 61 10000 0 0 23:38 21.01.2022
3570 Clear 9 1023 61 10000 0 0 23:38 21.01.2022
3571 Clear 10 1024 57 10000 1.54 80 22:28 21.01.2022
3572 Clear 12 1024 50 10000 3.09 40 20:22 21.01.2022
3573 Clouds 13 1024 44 10000 2.06 40 18:39 21.01.2022
3574 Clouds 14 1023 41 10000 2.06 50 17:28 21.01.2022
3575 Clouds 15 1024 36 10000 5.14 60 15:30 21.01.2022
3576 Clouds 15 1024 36 10000 4.12 60 13:37 21.01.2022
3577 Clear 15 1024 35 10000 3.23 53 12:38 21.01.2022
3578 Clear 14 1026 38 10000 4.12 70 11:28 21.01.2022
3579 Clear 13 1027 44 10000 4.63 70 10:19 21.01.2022
3580 Clear 9 1027 61 10000 2.57 60 08:24 21.01.2022
3581 Clear 6 1027 65 10000 0 0 06:57 21.01.2022
3582 Clear 9 1029 57 10000 1.03 80 23:36 20.01.2022
3583 Clear 9 1029 57 10000 1.03 80 22:41 20.01.2022
3584 Clear 10 1029 57 10000 1.54 60 21:43 20.01.2022
3585 Clear 11 1029 54 10000 3.09 50 20:53 20.01.2022
3586 Clear 12 1029 43 10000 2.57 20 19:20 20.01.2022
3587 Clear 12 1028 43 10000 3.09 20 18:50 20.01.2022
3588 Clouds 13 1028 41 10000 4.12 20 17:29 20.01.2022
3589 Clouds 13 1028 41 10000 3.6 20 15:44 20.01.2022
3590 Clouds 14 1028 35 10000 3.09 20 15:22 20.01.2022
3591 Clouds 14 1028 35 10000 2.57 330 13:42 20.01.2022
3592 Clouds 13 1028 38 10000 1.54 320 12:35 20.01.2022
3593 Clouds 13 1028 38 10000 1.54 320 11:57 20.01.2022
3594 Clouds 12 1029 37 10000 3.09 330 10:40 20.01.2022
3595 Clouds 12 1030 40 10000 2.06 310 09:40 20.01.2022
3596 Clear 11 1030 46 10000 0 0 08:32 20.01.2022
3597 Clouds 10 1028 46 10000 2.06 330 05:34 20.01.2022
3598 Clear 10 1027 50 10000 1.54 310 23:35 19.01.2022
3599 Clear 10 1027 50 10000 3.09 310 22:32 19.01.2022
3600 Clear 10 1027 53 10000 2.57 310 21:24 19.01.2022
3601 Clear 10 1027 53 10000 2.57 310 20:50 19.01.2022
3602 Clear 11 1026 46 10000 3.09 300 19:58 19.01.2022
3603 Clear 11 1026 46 10000 2.57 300 18:43 19.01.2022
3604 Clouds 12 1025 43 10000 5.66 310 17:49 19.01.2022
3605 Clouds 13 1024 44 10000 5.66 320 16:57 19.01.2022
3606 Clouds 14 1024 33 10000 4.63 320 14:42 19.01.2022
3607 Clouds 14 1023 47 10000 6.17 320 12:53 19.01.2022
3608 Clouds 14 1023 54 10000 5.14 310 11:42 19.01.2022
3609 Clouds 13 1024 62 6000 3.09 250 10:37 19.01.2022
3610 Clouds 12 1024 71 6000 4.12 240 09:34 19.01.2022
3611 Clouds 10 1023 66 6000 3.09 230 07:18 19.01.2022
3612 Clouds 11 1021 54 10000 4.63 210 05:18 19.01.2022
3613 Clouds 12 1022 47 10000 3.6 220 23:41 18.01.2022
3614 Clouds 12 1022 47 10000 3.6 220 23:18 18.01.2022
3615 Clouds 13 1023 44 10000 4.12 240 21:20 18.01.2022
3616 Clouds 13 1023 44 10000 4.12 250 19:55 18.01.2022
3617 Clouds 13 1023 44 10000 4.12 250 19:37 18.01.2022
3618 Clouds 14 1023 41 10000 3.6 250 18:57 18.01.2022
3619 Clouds 14 1023 41 10000 3.6 260 17:59 18.01.2022
3620 Clouds 14 1023 41 10000 5.14 270 17:27 18.01.2022
3621 Clouds 15 1022 38 10000 2.06 260 15:50 18.01.2022
3622 Clouds 15 1022 38 10000 2.06 260 15:23 18.01.2022
3623 Clouds 15 1023 36 10000 2.06 280 13:32 18.01.2022
3624 Clouds 14 1025 38 6000 0 0 10:49 18.01.2022
3625 Haze 13 1026 50 6000 0 0 09:39 18.01.2022
3626 Haze 10 1026 62 4000 1.03 0 07:58 18.01.2022
3627 Haze 8 1026 71 4000 0 0 07:21 18.01.2022
3628 Clouds 8 1024 66 10000 1.03 0 00:21 18.01.2022
3629 Clouds 10 1025 57 10000 0 0 22:31 17.01.2022
3630 Clouds 10 1025 57 10000 0 0 21:36 17.01.2022
3631 Clouds 10 1024 57 10000 1.03 90 20:33 17.01.2022
3632 Clouds 11 1024 54 10000 1.54 60 18:42 17.01.2022
3633 Clouds 12 1023 50 10000 2.57 50 17:55 17.01.2022
3634 Clouds 13 1022 50 10000 4.12 10 16:53 17.01.2022
3635 Clouds 13 1022 44 10000 4.63 40 15:31 17.01.2022
3636 Clouds 13 1022 47 10000 4.63 40 14:58 17.01.2022
3637 Clouds 13 1022 54 10000 7.2 30 13:42 17.01.2022
3638 Clouds 13 1021 54 10000 4.63 20 12:58 17.01.2022
3639 Clouds 14 1021 47 10000 5.66 30 11:51 17.01.2022
3640 Clouds 14 1022 47 10000 5.66 10 10:43 17.01.2022
3641 Clouds 12 1022 66 10000 3.6 350 09:35 17.01.2022
3642 Clouds 11 1022 66 10000 2.57 20 08:18 17.01.2022
3643 Clouds 10 1021 76 10000 2.06 20 07:19 17.01.2022
3644 Clouds 10 1018 87 10000 4.12 70 00:57 17.01.2022
3645 Clouds 11 1018 82 10000 5.14 40 23:27 16.01.2022
3646 Clouds 12 1018 71 10000 4.12 10 20:41 16.01.2022
3647 Clouds 13 1017 67 10000 4.63 360 19:44 16.01.2022
3648 Clouds 13 1017 62 10000 3.09 340 18:42 16.01.2022
3649 Clouds 14 1016 58 10000 2.06 340 17:45 16.01.2022
3650 Clouds 14 1015 62 6000 6.17 10 16:50 16.01.2022
3651 Clouds 16 1014 55 6000 6.17 340 15:34 16.01.2022
3652 Clouds 17 1014 48 6000 5.14 270 14:29 16.01.2022
3653 Clouds 16 1014 51 6000 4.12 220 12:51 16.01.2022
3654 Clouds 16 1015 48 6000 5.14 230 11:48 16.01.2022
3655 Clouds 14 1016 51 6000 5.66 210 10:58 16.01.2022
3656 Clouds 14 1016 51 6000 5.66 230 10:26 16.01.2022
3657 Clouds 13 1016 54 6000 5.14 210 09:56 16.01.2022
3658 Clouds 13 1016 54 6000 6.17 220 09:23 16.01.2022
3659 Clouds 12 1016 54 6000 5.14 210 08:47 16.01.2022
3660 Clear 11 1014 54 10000 4.63 210 03:58 16.01.2022
3661 Clear 12 1015 50 10000 3.6 230 23:51 15.01.2022
3662 Clear 13 1015 47 10000 2.57 210 22:35 15.01.2022
3663 Clouds 13 1017 47 10000 2.57 220 21:20 15.01.2022
3664 Clouds 13 1015 47 10000 2.57 240 20:40 15.01.2022
3665 Clouds 13 1016 47 10000 3.6 240 19:52 15.01.2022
3666 Clouds 14 1015 44 10000 4.12 240 19:19 15.01.2022
3667 Clouds 14 1015 41 10000 4.63 250 17:35 15.01.2022
3668 Clouds 14 1015 44 10000 4.63 270 16:37 15.01.2022
3669 Clouds 16 1015 39 10000 6.17 250 13:57 15.01.2022
3670 Clouds 15 1015 44 10000 7.2 240 12:20 15.01.2022
3671 Clouds 14 1016 54 10000 5.66 240 10:43 15.01.2022
3672 Clouds 12 1017 58 10000 5.66 240 08:36 15.01.2022
3673 Clear 11 1016 66 10000 5.14 240 00:49 15.01.2022
3674 Clear 12 1017 62 10000 4.12 270 21:56 14.01.2022
3675 Clear 13 1017 58 10000 4.63 270 20:42 14.01.2022
3676 Clouds 13 1017 54 10000 5.14 270 20:23 14.01.2022
3677 Clouds 14 1016 54 10000 4.63 280 19:40 14.01.2022
3678 Clouds 14 1016 58 10000 4.12 280 18:27 14.01.2022
3679 Clouds 14 1015 58 10000 3.09 290 16:50 14.01.2022
3680 Clouds 14 1016 58 10000 5.66 300 15:48 14.01.2022
3681 Clouds 14 1016 67 8000 3.09 300 14:46 14.01.2022
3682 Clouds 15 1016 58 10000 4.63 270 13:37 14.01.2022
3683 Clouds 14 1016 62 6000 3.09 270 12:29 14.01.2022
3684 Clouds 14 1018 67 6000 4.63 230 10:57 14.01.2022
3685 Clouds 14 1018 67 6000 4.63 230 09:50 14.01.2022
3686 Clouds 13 1018 76 10000 4.63 230 08:51 14.01.2022
3687 Clouds 13 1018 76 10000 3.09 210 06:57 14.01.2022
3688 Clouds 13 1017 76 10000 4.63 280 01:33 14.01.2022
3689 Clouds 14 1017 72 10000 4.12 280 23:32 13.01.2022
3690 Clouds 14 1017 72 10000 4.12 280 21:40 13.01.2022
3691 Clouds 14 1017 72 10000 4.12 280 21:22 13.01.2022
3692 Clouds 15 1017 67 10000 4.63 300 19:40 13.01.2022
3693 Clouds 15 1017 67 10000 4.63 300 19:22 13.01.2022
3694 Clouds 15 1017 67 10000 4.63 300 19:22 13.01.2022
3695 Clouds 16 1016 59 10000 7.2 310 17:53 13.01.2022
3696 Clouds 18 1014 42 10000 5.66 290 16:21 13.01.2022
3697 Clouds 18 1014 42 10000 5.66 290 16:21 13.01.2022
3698 Clouds 19 1014 39 10000 7.72 250 15:37 13.01.2022
3699 Clouds 19 1014 37 10000 7.2 250 14:47 13.01.2022
3700 Clouds 19 1014 39 10000 8.75 250 12:45 13.01.2022
3701 Clear 17 1016 42 10000 4.63 230 10:25 13.01.2022
3702 Clouds 16 1017 41 6000 4.12 230 09:20 13.01.2022
3703 Haze 15 1017 41 3000 3.09 220 08:27 13.01.2022
3704 Clouds 14 1016 41 6000 1.54 200 07:24 13.01.2022
3705 Clouds 14 1016 41 6000 2.06 180 05:59 13.01.2022
3706 Clouds 13 1016 44 6000 1.54 230 05:19 13.01.2022
3707 Clouds 14 1016 38 6000 2.06 170 02:33 13.01.2022
3708 Clear 15 1016 33 10000 1.03 210 00:55 13.01.2022
3709 Clear 16 1016 29 10000 1.03 210 23:49 12.01.2022
3710 Clear 16 1016 29 10000 1.03 210 23:49 12.01.2022
3711 Clear 15 1015 31 10000 0 0 23:24 12.01.2022
3712 Clear 17 1016 25 10000 2.57 200 21:57 12.01.2022
3713 Clear 17 1016 27 10000 1.54 200 21:23 12.01.2022
3714 Clear 17 1016 27 10000 1.54 210 20:57 12.01.2022
3715 Clouds 17 1016 29 10000 1.54 220 19:55 12.01.2022
3716 Clouds 18 1015 25 10000 1.54 210 18:43 12.01.2022
3717 Clouds 19 1015 24 10000 3.09 220 17:50 12.01.2022
3718 Clouds 19 1014 24 10000 4.12 210 16:38 12.01.2022
3719 Clouds 20 1014 24 10000 4.63 200 14:49 12.01.2022
3720 Clear 20 1014 24 10000 4.63 210 13:32 12.01.2022
3721 Clear 19 1015 24 10000 5.14 200 12:34 12.01.2022
3722 Clear 16 1016 23 10000 5.66 190 08:45 12.01.2022
3723 Clear 16 1016 23 10000 5.14 190 07:52 12.01.2022
3724 Clear 16 1016 23 10000 5.14 190 07:32 12.01.2022
3725 Clear 16 1015 25 10000 2.57 170 23:53 11.01.2022
3726 Clear 17 1015 23 10000 3.09 170 22:57 11.01.2022
3727 Clear 17 1015 23 10000 4.12 170 22:23 11.01.2022
3728 Clear 17 1015 23 10000 4.12 180 21:25 11.01.2022
3729 Clear 17 1015 23 10000 4.63 170 20:33 11.01.2022
3730 Clear 18 1015 24 10000 4.12 180 18:48 11.01.2022
3731 Clear 18 1014 25 10000 4.12 200 17:42 11.01.2022
3732 Clear 19 1014 26 10000 4.12 200 16:38 11.01.2022
3733 Clear 19 1014 24 10000 6.69 200 15:59 11.01.2022
3734 Clear 20 1014 22 10000 7.2 180 14:44 11.01.2022
3735 Clear 20 1014 22 10000 7.2 180 14:18 11.01.2022
3736 Clear 19 1014 26 10000 5.66 200 13:42 11.01.2022
3737 Clear 19 1014 26 10000 5.14 190 13:24 11.01.2022
3738 Clear 18 1014 27 10000 6.69 210 12:23 11.01.2022
3739 Clear 18 1016 24 10000 5.14 190 10:25 11.01.2022
3740 Clear 14 1015 33 10000 6.17 180 07:38 11.01.2022
3741 Clear 13 1014 41 10000 2.57 190 02:57 11.01.2022
3742 Clear 14 1014 41 10000 4.12 200 00:24 11.01.2022
3743 Clear 15 1014 41 10000 4.63 200 23:38 10.01.2022
3744 Clear 15 1014 44 10000 4.12 190 22:20 10.01.2022
3745 Clear 15 1014 44 10000 4.12 190 21:56 10.01.2022
3746 Clear 15 1014 44 10000 4.12 190 21:33 10.01.2022
3747 Clear 15 1014 44 10000 4.63 190 20:58 10.01.2022
3748 Clear 15 1014 44 10000 2.06 190 20:29 10.01.2022
3749 Clear 15 1013 44 10000 4.12 180 19:48 10.01.2022
3750 Clear 15 1013 47 10000 5.14 170 19:23 10.01.2022
3751 Clear 15 1013 44 10000 5.66 170 18:55 10.01.2022
3752 Clear 15 1013 47 10000 5.66 170 18:37 10.01.2022
3753 Clear 16 1012 44 10000 5.14 190 16:48 10.01.2022
3754 Clear 16 1012 44 10000 4.63 190 16:18 10.01.2022
3755 Clear 17 1012 45 10000 5.14 200 14:42 10.01.2022
3756 Clear 17 1012 42 10000 4.63 200 12:50 10.01.2022
3757 Clouds 16 1013 41 10000 5.14 200 11:55 10.01.2022
3758 Clouds 14 1014 44 10000 6.17 210 10:46 10.01.2022
3759 Clouds 13 1014 38 10000 6.17 200 08:59 10.01.2022
3760 Clouds 12 1013 40 10000 3.6 200 05:51 10.01.2022
3761 Clouds 12 1013 43 10000 6.17 200 02:30 10.01.2022
3762 Clouds 13 1013 41 10000 5.66 200 01:20 10.01.2022
3763 Clouds 13 1014 44 10000 6.17 210 00:19 10.01.2022
3764 Clouds 13 1014 44 10000 5.14 210 22:44 09.01.2022
3765 Clouds 14 1014 44 10000 5.14 220 22:18 09.01.2022
3766 Clouds 14 1014 44 10000 4.63 220 21:41 09.01.2022
3767 Clouds 14 1014 44 10000 5.14 220 21:22 09.01.2022
3768 Clouds 14 1014 44 10000 5.66 220 20:46 09.01.2022
3769 Clouds 15 1014 41 10000 6.69 220 20:28 09.01.2022
3770 Clouds 16 1014 39 10000 6.17 220 19:39 09.01.2022
3771 Clouds 16 1014 39 10000 6.17 220 19:20 09.01.2022
3772 Clouds 16 1014 36 10000 6.17 210 18:38 09.01.2022
3773 Clouds 16 1014 36 10000 6.17 210 18:18 09.01.2022
3774 Clouds 16 1013 33 10000 6.69 200 17:30 09.01.2022
3775 Clouds 16 1013 36 10000 6.17 210 16:49 09.01.2022
3776 Clouds 18 1012 32 10000 7.2 210 15:51 09.01.2022
3777 Clouds 18 1012 32 10000 7.2 210 15:32 09.01.2022
3778 Clouds 18 1012 34 6000 7.72 210 14:39 09.01.2022
3779 Clouds 19 1012 32 6000 8.75 230 13:49 09.01.2022
3780 Clouds 17 1013 36 6000 9.26 220 12:19 09.01.2022
3781 Clouds 17 1013 36 6000 10.29 230 11:38 09.01.2022
3782 Clouds 15 1014 47 6000 6.17 220 09:55 09.01.2022
3783 Clouds 15 1015 51 6000 5.66 210 09:29 09.01.2022
3784 Clouds 13 1014 58 6000 5.66 210 08:18 09.01.2022
3785 Haze 15 1011 47 2000 2.57 170 01:31 09.01.2022
3786 Haze 13 1012 54 2000 1.54 170 00:53 09.01.2022
3787 Haze 13 1012 58 2000 1.54 160 23:37 08.01.2022
3788 Haze 13 1013 71 2000 1.54 150 22:58 08.01.2022
3789 Haze 13 1013 71 2000 1.54 150 22:58 08.01.2022
3790 Haze 13 1013 76 3000 1.54 150 21:32 08.01.2022
3791 Haze 13 1013 76 3000 1.54 150 21:32 08.01.2022
3792 Haze 15 1013 72 3000 0 0 20:44 08.01.2022
3793 Haze 15 1013 72 3000 0 0 20:23 08.01.2022
3794 Haze 15 1013 72 3000 0 0 19:55 08.01.2022
3795 Haze 17 1012 72 3000 1.03 70 17:49 08.01.2022
3796 Haze 18 1012 59 2000 1.54 30 16:57 08.01.2022
3797 Haze 20 1012 45 2000 1.54 340 15:37 08.01.2022
3798 Haze 20 1012 45 2000 1.54 330 14:40 08.01.2022
3799 Haze 20 1013 40 3000 0 0 12:36 08.01.2022
3800 Haze 19 1015 48 3000 0 0 10:49 08.01.2022
3801 Haze 17 1016 55 3000 0 0 10:24 08.01.2022
3802 Haze 17 1016 55 3000 0 0 09:43 08.01.2022
3803 Mist 10 1016 81 2000 0 0 07:18 08.01.2022
3804 Mist 11 1017 82 4000 1.54 130 02:33 08.01.2022
3805 Clear 12 1017 76 6000 0.51 70 00:40 08.01.2022
3806 Mist 13 1016 76 4000 1.54 130 22:40 07.01.2022
3807 Mist 14 1017 82 3000 1.03 150 20:56 07.01.2022
3808 Mist 14 1017 88 3000 1.54 120 19:56 07.01.2022
3809 Mist 14 1017 88 3000 1.54 120 19:56 07.01.2022
3810 Mist 15 1017 82 2000 1.03 100 18:54 07.01.2022
3811 Mist 15 1017 88 2000 1.03 80 18:34 07.01.2022
3812 Haze 16 1017 77 2000 1.03 360 17:25 07.01.2022
3813 Haze 18 1016 55 2000 2.06 350 16:23 07.01.2022
3814 Haze 18 1016 63 2000 1.54 310 13:53 07.01.2022
3815 Haze 18 1016 63 2000 1.54 310 13:21 07.01.2022
3816 Haze 18 1016 59 2000 1.54 330 12:48 07.01.2022
3817 Mist 13 1019 88 2000 1.54 20 09:21 07.01.2022
3818 Clear 12 1017 82 6000 0 0 02:54 07.01.2022
3819 Clear 12 1017 76 6000 0 0 01:53 07.01.2022
3820 Clouds 13 1017 76 6000 0 0 01:27 07.01.2022
3821 Clouds 13 1017 82 6000 0 0 00:57 07.01.2022
3822 Clouds 15 1018 82 6000 0 0 22:46 06.01.2022
3823 Clouds 15 1017 77 6000 1.54 100 21:23 06.01.2022
3824 Clouds 16 1017 72 6000 1.03 90 20:21 06.01.2022
3825 Clouds 16 1017 77 6000 1.54 10 19:44 06.01.2022
3826 Clear 18 1017 55 10000 1.03 60 17:54 06.01.2022
3827 Clear 18 1017 42 10000 0 0 17:34 06.01.2022
3828 Clear 19 1016 39 10000 1.54 60 16:42 06.01.2022
3829 Clouds 20 1016 34 10000 1.54 80 15:46 06.01.2022
3830 Clouds 19 1017 37 10000 1.03 280 15:25 06.01.2022
3831 Clear 20 1016 37 10000 1.03 90 14:43 06.01.2022
3832 Clear 20 1017 37 10000 2.06 80 14:18 06.01.2022
3833 Clear 19 1017 42 10000 1.54 70 12:43 06.01.2022
3834 Clear 19 1021 42 10000 2.06 40 11:42 06.01.2022
3835 Clear 19 1021 48 10000 2.06 60 11:22 06.01.2022
3836 Clouds 14 1021 72 6000 3.09 60 08:51 06.01.2022
3837 Clear 13 1021 71 6000 3.09 100 00:53 06.01.2022
3838 Clear 14 1021 67 6000 3.6 100 23:37 05.01.2022
3839 Clear 14 1022 67 6000 1.03 0 22:56 05.01.2022
3840 Clear 14 1022 67 6000 1.03 0 22:32 05.01.2022
3841 Clear 14 1022 72 6000 2.06 100 21:48 05.01.2022
3842 Clear 15 1022 67 6000 1.54 80 20:57 05.01.2022
3843 Clear 16 1022 67 6000 2.06 50 20:18 05.01.2022
3844 Clear 17 1022 59 6000 2.57 20 18:42 05.01.2022
3845 Clear 18 1022 52 6000 1.54 350 17:26 05.01.2022
3846 Clear 19 1022 48 6000 2.57 310 16:50 05.01.2022
3847 Clear 19 1021 48 6000 1.54 300 15:26 05.01.2022
3848 Clear 19 1021 48 6000 1.54 280 13:51 05.01.2022
3849 Clear 19 1021 48 10000 1.03 290 12:59 05.01.2022
3850 Clear 18 1023 52 10000 1.54 280 10:34 05.01.2022
3851 Mist 15 1024 67 2000 0 0 07:47 05.01.2022
3852 Mist 15 1024 67 2000 0 0 07:47 05.01.2022
3853 Mist 11 1024 82 2000 0 0 06:25 05.01.2022
3854 Haze 13 1023 76 3000 0 0 00:58 05.01.2022
3855 Haze 15 1023 67 3000 1.03 210 23:28 04.01.2022
3856 Haze 15 1023 67 3000 1.03 220 23:28 04.01.2022
3857 Haze 15 1023 67 3000 1.03 220 22:46 04.01.2022
3858 Haze 16 1023 63 4000 2.06 180 21:24 04.01.2022
3859 Clouds 17 1023 55 6000 1.54 210 19:20 04.01.2022
3860 Clouds 17 1023 55 10000 2.06 270 17:51 04.01.2022
3861 Clouds 18 1023 48 10000 2.06 300 16:43 04.01.2022
3862 Clouds 18 1023 52 10000 3.09 270 16:23 04.01.2022
3863 Clouds 18 1023 48 10000 2.57 280 14:54 04.01.2022
3864 Clouds 18 1022 52 10000 3.09 280 14:34 04.01.2022
3865 Clouds 18 1023 52 10000 3.09 300 13:27 04.01.2022
3866 Clouds 18 1024 48 10000 2.06 320 10:41 04.01.2022
3867 Mist 16 1024 77 2000 1.54 210 09:20 04.01.2022
3868 Mist 15 1024 82 1500 1.54 230 08:30 04.01.2022
3869 Mist 14 1023 88 2000 0 0 02:31 04.01.2022
3870 Mist 15 1023 82 2000 0.51 220 00:41 04.01.2022
3871 Mist 15 1022 82 2000 0 0 23:26 03.01.2022
3872 Haze 15 1022 77 4000 0 0 21:52 03.01.2022
3873 Haze 15 1022 77 4000 0 0 21:32 03.01.2022
3874 Haze 16 1022 77 4000 1.54 330 20:22 03.01.2022
3875 Haze 18 1021 63 4000 2.06 300 18:54 03.01.2022
3876 Haze 18 1021 63 4000 2.06 300 18:28 03.01.2022
3877 Clouds 19 1020 55 10000 1.54 300 16:58 03.01.2022
3878 Clouds 19 1020 59 10000 3.6 300 15:39 03.01.2022
3879 Clouds 19 1020 59 10000 3.09 280 14:30 03.01.2022
3880 Haze 19 1020 63 4000 3.6 250 12:48 03.01.2022
3881 Mist 18 1020 68 4000 2.06 270 11:38 03.01.2022
3882 Mist 17 1020 77 2000 3.6 220 10:36 03.01.2022
3883 Mist 15 1020 88 1000 1.54 240 08:48 03.01.2022
3884 Fog 14 1020 88 800 1.54 230 07:36 03.01.2022
3885 Mist 14 1019 88 2000 1.54 220 23:56 02.01.2022
3886 Mist 14 1019 88 2000 1.54 220 23:22 02.01.2022
3887 Mist 14 1019 88 2000 1.54 220 22:53 02.01.2022
3888 Clouds 15 1019 82 6000 1.03 240 21:46 02.01.2022
3889 Clouds 16 1019 72 6000 1.54 300 20:38 02.01.2022
3890 Clouds 16 1019 72 6000 1.54 300 20:18 02.01.2022
3891 Clouds 16 1018 77 6000 0 0 19:31 02.01.2022
3892 Clouds 16 1018 72 6000 0 0 18:46 02.01.2022
3893 Clouds 16 1018 72 6000 1.54 330 17:54 02.01.2022
3894 Clouds 16 1017 77 6000 2.57 300 17:36 02.01.2022
3895 Clouds 16 1017 77 6000 2.57 300 17:18 02.01.2022
3896 Clouds 18 1017 68 6000 1.54 280 16:26 02.01.2022
3897 Haze 18 1016 68 4000 2.06 310 14:34 02.01.2022
3898 Mist 17 1016 72 4000 1.54 290 12:54 02.01.2022
3899 Mist 17 1016 72 4000 2.06 280 12:22 02.01.2022
3900 Mist 16 1017 77 4000 2.57 280 11:33 02.01.2022
3901 Mist 16 1017 72 4000 3.09 270 10:49 02.01.2022
3902 Mist 16 1017 72 3000 3.09 280 09:45 02.01.2022
3903 Mist 12 1017 94 1500 2.06 220 07:26 02.01.2022
3904 Mist 12 1015 94 1000 1.03 270 02:19 02.01.2022
3905 Mist 13 1015 94 1500 0 0 23:40 01.01.2022
3906 Mist 13 1015 94 2000 0 0 22:58 01.01.2022
3907 Mist 13 1015 94 2000 0 0 22:23 01.01.2022
3908 Mist 13 1016 88 2000 2.06 350 21:44 01.01.2022
3909 Mist 14 1015 88 1000 2.57 290 20:56 01.01.2022
3910 Mist 14 1015 82 2000 3.6 350 19:59 01.01.2022
3911 Mist 15 1015 82 2000 3.09 360 19:30 01.01.2022
3912 Clouds 16 1014 72 6000 4.12 330 18:20 01.01.2022
3913 Clouds 16 1013 67 6000 2.57 340 16:51 01.01.2022
3914 Clouds 17 1013 63 6000 2.57 330 16:29 01.01.2022
3915 Clouds 17 1013 63 10000 2.57 340 15:30 01.01.2022
3916 Clouds 17 1013 63 10000 3.09 340 14:21 01.01.2022
3917 Clouds 17 1012 59 10000 0 0 12:50 01.01.2022
3918 Clouds 17 1013 59 10000 0 0 11:59 01.01.2022
3919 Clouds 17 1014 59 10000 0 0 11:24 01.01.2022
3920 Clouds 16 1014 63 10000 0 0 10:42 01.01.2022
3921 Clouds 16 1014 67 10000 0 0 09:47 01.01.2022
3922 Clouds 15 1014 72 6000 0 0 08:26 01.01.2022
3923 Clouds 12 1014 82 6000 2.06 130 07:56 01.01.2022
3924 Clouds 12 1014 82 6000 2.06 130 07:37 01.01.2022
3925 Clouds 11 1013 87 6000 1.54 120 06:42 01.01.2022
3926 Clouds 11 1013 82 6000 0 0 04:38 01.01.2022
3927 Clouds 11 1013 87 6000 1.54 80 03:38 01.01.2022
3928 Clouds 13 1013 82 10000 2.06 180 23:52 31.12.2021
3929 Clouds 14 1013 82 6000 5.14 180 21:55 31.12.2021
3930 Clouds 14 1013 82 10000 4.12 190 20:49 31.12.2021
3931 Clouds 14 1012 82 10000 4.12 200 19:31 31.12.2021
3932 Clouds 14 1012 82 10000 3.6 200 18:46 31.12.2021
3933 Clouds 14 1012 82 10000 5.14 170 17:45 31.12.2021
3934 Clouds 15 1012 72 10000 5.14 190 17:22 31.12.2021
3935 Clouds 15 1011 72 10000 6.17 180 16:46 31.12.2021
3936 Clouds 15 1010 82 10000 5.14 170 15:59 31.12.2021
3937 Clouds 15 1010 82 10000 5.14 170 15:40 31.12.2021
3938 Clouds 15 1011 82 10000 5.14 170 15:19 31.12.2021
3939 Clouds 16 1010 77 10000 3.09 200 14:37 31.12.2021
3940 Clouds 15 1010 77 6000 4.63 200 13:44 31.12.2021
3941 Clouds 15 1010 82 6000 5.14 170 12:50 31.12.2021
3942 Clouds 15 1010 88 6000 4.63 180 12:19 31.12.2021
3943 Clouds 16 1011 77 10000 5.66 180 11:41 31.12.2021
3944 Clouds 17 1011 59 10000 6.69 200 10:48 31.12.2021
3945 Clouds 18 1011 52 10000 7.2 190 10:25 31.12.2021
3946 Clouds 18 1011 48 10000 7.2 180 09:34 31.12.2021
3947 Clouds 18 1011 48 10000 6.69 180 08:50 31.12.2021
3948 Clouds 17 1010 59 10000 5.14 170 07:49 31.12.2021
3949 Clouds 17 1010 59 10000 5.66 170 02:36 31.12.2021
3950 Clouds 17 1011 63 10000 5.66 190 23:18 30.12.2021
3951 Clouds 17 1011 63 10000 5.14 210 22:27 30.12.2021
3952 Clouds 18 1011 55 10000 5.14 190 21:39 30.12.2021
3953 Clouds 18 1011 55 10000 4.63 190 20:59 30.12.2021
3954 Clouds 18 1011 55 10000 4.63 180 20:38 30.12.2021
3955 Clouds 18 1011 55 10000 4.12 190 19:53 30.12.2021
3956 Clouds 18 1011 55 10000 5.14 180 19:28 30.12.2021
3957 Clouds 18 1011 52 10000 5.66 180 18:26 30.12.2021
3958 Clouds 17 1011 51 10000 4.63 190 16:50 30.12.2021
3959 Clouds 17 1011 51 10000 4.63 190 15:53 30.12.2021
3960 Clouds 17 1011 51 10000 5.66 190 14:54 30.12.2021
3961 Clouds 17 1011 51 10000 4.63 200 14:35 30.12.2021
3962 Clouds 16 1011 59 10000 7.2 200 13:25 30.12.2021
3963 Clouds 17 1011 51 10000 5.66 200 11:53 30.12.2021
3964 Clouds 17 1013 39 10000 6.69 190 10:35 30.12.2021
3965 Clouds 17 1013 39 10000 7.72 200 09:46 30.12.2021
3966 Clouds 15 1013 41 6000 5.66 190 06:58 30.12.2021
3967 Clouds 16 1012 39 10000 5.14 190 05:20 30.12.2021
3968 Clouds 16 1012 39 10000 5.14 190 05:20 30.12.2021
3969 Clouds 15 1012 38 10000 7.72 170 03:40 30.12.2021
3970 Clouds 16 1012 39 10000 5.14 190 02:28 30.12.2021
3971 Clouds 15 1014 47 10000 4.63 180 23:37 29.12.2021
3972 Clouds 16 1014 44 10000 2.57 180 22:42 29.12.2021
3973 Clouds 16 1015 44 10000 4.12 170 21:56 29.12.2021
3974 Clouds 16 1015 44 10000 4.63 180 20:58 29.12.2021
3975 Clouds 16 1016 44 10000 3.09 180 20:29 29.12.2021
3976 Clouds 16 1016 44 10000 3.6 160 19:38 29.12.2021
3977 Clouds 17 1016 42 10000 3.6 170 18:43 29.12.2021
3978 Clouds 17 1016 42 10000 5.14 220 17:51 29.12.2021
3979 Clouds 17 1016 42 10000 3.6 210 17:27 29.12.2021
3980 Clouds 18 1016 39 10000 3.09 210 16:22 29.12.2021
3981 Clouds 18 1016 39 10000 4.63 220 15:26 29.12.2021
3982 Clouds 18 1015 42 6000 3.6 210 13:42 29.12.2021
3983 Clouds 18 1016 39 6000 5.14 230 12:36 29.12.2021
3984 Haze 18 1017 42 4000 4.12 220 11:26 29.12.2021
3985 Haze 16 1018 63 2000 2.57 200 09:46 29.12.2021
3986 Mist 12 1018 82 2000 0 0 07:47 29.12.2021
3987 Mist 12 1018 82 3000 0 0 06:37 29.12.2021
3988 Mist 12 1017 82 3000 0 0 05:58 29.12.2021
3989 Mist 12 1017 82 3000 0 0 05:36 29.12.2021
3990 Haze 12 1017 76 4000 0.51 110 02:22 29.12.2021
3991 Clouds 13 1017 76 6000 0 0 00:19 29.12.2021
3992 Clouds 14 1017 72 6000 0 0 23:31 28.12.2021
3993 Clouds 14 1017 72 6000 0 0 22:42 28.12.2021
3994 Clouds 14 1018 72 6000 0 0 22:23 28.12.2021
3995 Clouds 15 1018 67 6000 1.03 310 21:36 28.12.2021
3996 Clouds 15 1018 67 6000 2.06 310 20:36 28.12.2021
3997 Clouds 16 1018 63 6000 1.54 330 19:22 28.12.2021
3998 Clouds 16 1018 63 10000 2.06 340 18:35 28.12.2021
3999 Clouds 17 1017 51 10000 2.06 340 17:59 28.12.2021
4000 Clouds 18 1017 48 10000 4.12 320 16:34 28.12.2021
4001 Clouds 18 1017 45 10000 4.63 330 15:49 28.12.2021
4002 Clouds 18 1016 52 10000 5.66 340 15:20 28.12.2021
4003 Clouds 18 1016 48 10000 5.66 310 14:47 28.12.2021
4004 Clouds 18 1016 52 10000 6.17 310 14:21 28.12.2021
4005 Clouds 18 1016 52 10000 7.2 310 13:42 28.12.2021
4006 Clouds 19 1016 52 10000 5.66 310 13:24 28.12.2021
4007 Clouds 18 1016 52 10000 6.17 340 12:49 28.12.2021
4008 Clouds 18 1017 59 6000 0 0 11:36 28.12.2021
4009 Mist 14 1019 82 2000 3.09 270 08:30 28.12.2021
4010 Mist 13 1018 88 2000 1.54 270 06:41 28.12.2021
4011 Clear 14 1019 72 10000 0 0 23:43 27.12.2021
4012 Clear 14 1019 72 10000 1.54 20 22:59 27.12.2021
4013 Clear 15 1020 67 10000 0.51 0 21:42 27.12.2021
4014 Clear 15 1020 67 10000 0.51 0 21:20 27.12.2021
4015 Clear 16 1020 63 10000 3.09 20 19:58 27.12.2021
4016 Clear 16 1020 59 10000 2.06 360 19:39 27.12.2021
4017 Clouds 17 1020 51 10000 2.06 10 18:34 27.12.2021
4018 Clouds 17 1020 51 10000 2.57 10 17:48 27.12.2021
4019 Clouds 19 1019 42 10000 4.12 360 16:40 27.12.2021
4020 Clouds 19 1019 39 10000 5.14 10 15:52 27.12.2021
4021 Clouds 19 1019 42 10000 6.17 350 14:33 27.12.2021
4022 Clouds 19 1019 45 10000 3.6 360 13:39 27.12.2021
4023 Clouds 19 1019 39 10000 5.14 30 12:36 27.12.2021
4024 Clear 17 1021 59 6000 3.09 20 10:31 27.12.2021
4025 Clear 16 1021 59 6000 2.57 10 09:47 27.12.2021
4026 Clear 12 1022 82 6000 0 0 07:50 27.12.2021
4027 Clear 10 1021 93 6000 1.54 150 07:29 27.12.2021
4028 Clear 10 1021 87 6000 0 0 02:21 27.12.2021
4029 Clear 12 1021 76 10000 1.03 90 23:58 26.12.2021
4030 Clear 12 1021 76 10000 1.03 90 23:39 26.12.2021
4031 Clear 12 1022 76 10000 1.03 90 22:36 26.12.2021
4032 Clear 14 1022 67 10000 1.54 50 20:59 26.12.2021
4033 Clear 15 1022 63 10000 2.57 30 19:49 26.12.2021
4034 Clear 16 1022 55 10000 4.63 20 18:24 26.12.2021
4035 Clear 17 1021 45 10000 5.14 30 17:24 26.12.2021
4036 Clear 19 1020 39 10000 7.2 40 14:32 26.12.2021
4037 Clear 18 1020 42 10000 5.14 40 13:43 26.12.2021
4038 Clear 18 1020 42 10000 5.14 40 13:20 26.12.2021
4039 Clear 18 1021 42 10000 6.69 40 12:33 26.12.2021
4040 Clear 16 1022 51 10000 5.14 40 10:43 26.12.2021
4041 Clear 14 1023 58 6000 1.54 70 09:28 26.12.2021
4042 Clear 13 1023 62 6000 1.54 60 08:44 26.12.2021
4043 Clear 11 1023 66 6000 1.54 70 07:59 26.12.2021
4044 Clear 11 1022 66 6000 1.54 60 01:30 26.12.2021
4045 Clear 11 1022 66 6000 1.54 90 23:58 25.12.2021
4046 Clear 12 1022 62 10000 1.54 70 23:28 25.12.2021
4047 Clear 12 1023 62 10000 2.06 70 22:28 25.12.2021
4048 Clear 13 1023 58 10000 2.06 60 21:18 25.12.2021
4049 Clear 15 1023 47 6000 2.57 50 19:28 25.12.2021
4050 Clear 15 1023 44 10000 3.09 40 18:57 25.12.2021
4051 Clear 16 1023 41 10000 3.09 20 18:25 25.12.2021
4052 Clear 17 1023 39 10000 4.63 360 16:46 25.12.2021
4053 Clear 18 1022 32 10000 5.14 30 15:30 25.12.2021
4054 Clear 19 1022 32 10000 3.6 20 13:47 25.12.2021
4055 Clear 17 1023 45 6000 2.06 60 12:19 25.12.2021
4056 Haze 15 1025 63 4000 2.06 20 10:36 25.12.2021
4057 Haze 14 1025 67 4000 2.06 20 09:48 25.12.2021
4058 Mist 10 1025 87 3000 0 0 07:21 25.12.2021
4059 Clouds 11 1023 71 6000 1.54 150 01:36 25.12.2021
4060 Clouds 11 1023 71 6000 0 0 00:19 25.12.2021
4061 Clouds 13 1023 62 10000 0 0 21:51 24.12.2021
4062 Clouds 14 1023 54 10000 1.54 10 19:27 24.12.2021
4063 Clouds 15 1023 51 10000 1.03 10 18:55 24.12.2021
4064 Clouds 16 1022 48 10000 3.6 350 16:44 24.12.2021
4065 Clouds 16 1021 51 10000 3.09 340 15:50 24.12.2021
4066 Clouds 16 1021 51 10000 3.09 340 15:50 24.12.2021
4067 Clouds 17 1021 45 10000 6.17 350 15:20 24.12.2021
4068 Clouds 17 1021 48 10000 3.6 340 14:34 24.12.2021
4069 Clouds 17 1021 51 10000 4.63 350 13:54 24.12.2021
4070 Clouds 17 1021 51 10000 4.63 350 13:32 24.12.2021
4071 Clouds 17 1021 51 10000 2.57 330 12:40 24.12.2021
4072 Clouds 16 1021 55 10000 5.66 330 11:45 24.12.2021
4073 Clouds 16 1022 55 10000 5.66 320 11:24 24.12.2021
4074 Clouds 15 1022 63 10000 3.09 340 10:35 24.12.2021
4075 Clouds 14 1023 67 6000 2.06 340 08:58 24.12.2021
4076 Clouds 13 1023 71 6000 1.54 10 08:19 24.12.2021
4077 Mist 12 1022 76 3000 1.54 360 07:42 24.12.2021
4078 Mist 13 1021 88 3000 0 0 00:47 24.12.2021
4079 Mist 13 1021 88 3000 0 0 23:50 23.12.2021
4080 Mist 13 1021 88 3000 1.03 360 22:53 23.12.2021
4081 Clouds 13 1021 82 6000 1.54 350 22:24 23.12.2021
4082 Clouds 14 1021 77 6000 1.54 340 21:50 23.12.2021
4083 Clouds 14 1021 77 6000 1.54 350 20:53 23.12.2021
4084 Clouds 14 1020 82 6000 2.06 360 19:31 23.12.2021
4085 Clouds 15 1020 72 6000 2.57 340 18:28 23.12.2021
4086 Clouds 15 1020 72 10000 6.17 310 17:46 23.12.2021
4087 Clouds 16 1019 63 10000 3.09 320 16:40 23.12.2021
4088 Clouds 16 1019 63 10000 3.09 320 16:20 23.12.2021
4089 Clouds 17 1019 59 10000 3.09 300 15:31 23.12.2021
4090 Clouds 16 1019 63 10000 4.12 320 14:42 23.12.2021
4091 Clouds 16 1019 63 10000 4.12 320 14:19 23.12.2021
4092 Clouds 17 1019 59 6000 3.6 280 12:39 23.12.2021
4093 Mist 16 1021 67 2000 2.57 300 10:41 23.12.2021
4094 Clouds 15 1021 72 6000 0 0 09:34 23.12.2021
4095 Clouds 15 1021 72 6000 0 0 09:34 23.12.2021
4096 Clouds 14 1021 77 6000 0 0 08:59 23.12.2021
4097 Mist 11 1021 87 4000 0 0 06:48 23.12.2021
4098 Mist 11 1021 93 4000 0 0 03:41 23.12.2021
4099 Clouds 14 1022 82 10000 1.03 50 22:57 22.12.2021
4100 Clouds 14 1022 82 10000 1.03 50 22:32 22.12.2021
4101 Clouds 14 1022 82 10000 1.54 80 21:53 22.12.2021
4102 Clouds 14 1022 82 10000 1.03 80 21:28 22.12.2021
4103 Clouds 15 1022 77 10000 1.03 80 20:41 22.12.2021
4104 Clouds 15 1022 77 10000 1.54 60 20:20 22.12.2021
4105 Clouds 15 1022 77 10000 2.06 50 19:19 22.12.2021
4106 Clouds 17 1022 63 10000 2.06 340 17:39 22.12.2021
4107 Clouds 17 1021 63 10000 2.57 340 16:36 22.12.2021
4108 Clouds 18 1021 52 10000 0 0 15:39 22.12.2021
4109 Clouds 18 1021 52 10000 3.6 220 13:32 22.12.2021
4110 Clouds 17 1022 55 10000 4.12 240 12:31 22.12.2021
4111 Haze 15 1024 63 4000 4.12 220 09:53 22.12.2021
4112 Haze 15 1024 63 4000 4.12 220 09:33 22.12.2021
4113 Haze 12 1023 71 2000 2.57 190 07:25 22.12.2021
4114 Haze 12 1023 71 4000 3.09 200 05:42 22.12.2021
4115 Haze 12 1023 71 4000 3.09 200 05:24 22.12.2021
4116 Haze 12 1023 66 4000 3.09 200 04:47 22.12.2021
4117 Haze 12 1023 66 4000 3.09 200 04:24 22.12.2021
4118 Haze 12 1024 66 4000 3.09 210 03:32 22.12.2021
4119 Haze 13 1024 67 4000 3.09 180 00:33 22.12.2021
4120 Haze 14 1024 62 4000 3.09 180 22:52 21.12.2021
4121 Haze 14 1024 62 4000 4.12 180 22:27 21.12.2021
4122 Haze 14 1024 67 4000 2.06 210 21:43 21.12.2021
4123 Haze 14 1024 67 4000 3.09 210 20:55 21.12.2021
4124 Haze 14 1024 67 4000 2.57 220 20:21 21.12.2021
4125 Haze 15 1024 63 4000 3.09 210 19:41 21.12.2021
4126 Clouds 15 1024 63 10000 3.6 200 18:45 21.12.2021
4127 Clouds 15 1024 63 10000 2.57 190 18:21 21.12.2021
4128 Clouds 15 1024 63 10000 2.57 190 18:21 21.12.2021
4129 Clouds 16 1024 59 10000 3.09 210 17:41 21.12.2021
4130 Clouds 17 1023 51 6000 4.12 190 15:59 21.12.2021
4131 Clouds 17 1023 51 6000 5.66 180 15:20 21.12.2021
4132 Clouds 16 1022 55 6000 5.66 220 13:50 21.12.2021
4133 Clouds 16 1022 51 6000 5.66 210 13:30 21.12.2021
4134 Clouds 15 1023 55 6000 5.66 200 11:49 21.12.2021
4135 Clouds 13 1024 58 6000 6.69 210 10:24 21.12.2021
4136 Clouds 13 1024 54 6000 6.17 210 09:23 21.12.2021
4137 Clouds 11 1024 58 6000 5.14 200 07:58 21.12.2021
4138 Clouds 10 1024 62 6000 5.14 190 07:27 21.12.2021
4139 Clouds 10 1023 62 6000 4.63 200 06:50 21.12.2021
4140 Clouds 10 1022 62 6000 6.17 180 02:51 21.12.2021
4141 Clear 11 1022 62 10000 4.63 210 23:59 20.12.2021
4142 Clear 11 1022 62 10000 4.63 210 23:29 20.12.2021
4143 Clear 12 1022 54 10000 5.66 210 22:30 20.12.2021
4144 Clear 12 1022 54 10000 5.14 220 21:47 20.12.2021
4145 Clear 12 1022 54 10000 5.14 220 21:23 20.12.2021
4146 Clear 12 1022 54 10000 5.66 230 20:45 20.12.2021
4147 Clouds 13 1021 54 10000 7.2 240 19:54 20.12.2021
4148 Clouds 13 1021 54 10000 7.2 240 19:31 20.12.2021
4149 Clouds 13 1021 58 10000 5.66 240 18:54 20.12.2021
4150 Clouds 13 1020 54 10000 6.17 260 17:53 20.12.2021
4151 Clouds 13 1020 54 10000 6.17 260 17:25 20.12.2021
4152 Clouds 14 1018 51 10000 8.75 260 16:42 20.12.2021
4153 Clouds 15 1018 47 10000 8.75 260 15:51 20.12.2021
4154 Clouds 15 1018 51 10000 8.23 240 14:53 20.12.2021
4155 Clouds 14 1017 58 10000 8.75 220 13:18 20.12.2021
4156 Clouds 13 1018 62 10000 9.26 210 11:19 20.12.2021
4157 Clouds 11 1017 71 10000 8.23 210 09:48 20.12.2021
4158 Clouds 11 1017 71 10000 8.23 210 09:29 20.12.2021
4159 Clouds 11 1017 71 10000 9.77 210 08:42 20.12.2021
4160 Clouds 11 1016 71 10000 7.2 200 07:50 20.12.2021
4161 Clouds 11 1016 71 10000 7.2 200 07:50 20.12.2021
4162 Clear 10 1018 76 10000 8.82 238 07:30 20.12.2021
4163 Clouds 10 1014 76 10000 8.23 240 04:24 20.12.2021
4164 Clouds 14 1013 67 10000 8.23 280 23:59 19.12.2021
4165 Clouds 16 1013 41 10000 8.75 210 22:51 19.12.2021
4166 Clouds 17 1013 36 10000 5.66 200 21:50 19.12.2021
4167 Clouds 17 1013 36 10000 6.17 200 21:30 19.12.2021
4168 Clouds 17 1013 39 10000 5.14 200 20:32 19.12.2021
4169 Clouds 17 1014 42 6000 4.63 190 19:51 19.12.2021
4170 Clouds 17 1014 42 6000 6.17 190 19:27 19.12.2021
4171 Clouds 17 1014 45 6000 6.17 190 18:30 19.12.2021
4172 Clouds 17 1013 48 6000 6.17 180 17:53 19.12.2021
4173 Clouds 17 1013 48 6000 6.17 180 17:19 19.12.2021
4174 Clouds 17 1013 45 6000 6.69 210 16:26 19.12.2021
4175 Clouds 18 1014 42 6000 7.72 220 15:43 19.12.2021
4176 Clouds 18 1014 42 6000 7.72 220 15:20 19.12.2021
4177 Clouds 18 1014 42 6000 7.2 210 14:42 19.12.2021
4178 Clouds 18 1014 45 6000 8.23 210 13:22 19.12.2021
4179 Clouds 18 1014 45 6000 8.23 220 12:42 19.12.2021
4180 Clouds 17 1015 48 6000 7.72 210 12:18 19.12.2021
4181 Clouds 17 1016 48 6000 6.69 200 11:19 19.12.2021
4182 Clouds 15 1016 51 6000 6.69 200 10:26 19.12.2021
4183 Clouds 15 1016 51 6000 6.69 200 09:42 19.12.2021
4184 Clouds 13 1017 54 6000 6.69 180 08:35 19.12.2021
4185 Clouds 12 1015 58 10000 5.14 200 04:45 19.12.2021
4186 Clouds 14 1016 51 10000 5.14 210 01:22 19.12.2021
4187 Clouds 14 1016 51 10000 4.63 210 00:52 19.12.2021
4188 Clouds 15 1017 44 10000 4.12 210 22:37 18.12.2021
4189 Clouds 15 1017 47 10000 4.63 220 21:57 18.12.2021
4190 Clouds 15 1017 47 10000 4.63 220 21:35 18.12.2021
4191 Clouds 16 1016 44 10000 5.66 230 20:44 18.12.2021
4192 Clouds 16 1016 44 10000 5.66 230 20:18 18.12.2021
4193 Clouds 16 1016 41 10000 6.17 240 19:20 18.12.2021
4194 Clouds 17 1016 39 10000 6.69 250 18:21 18.12.2021
4195 Clouds 17 1016 39 10000 5.66 240 17:48 18.12.2021
4196 Clouds 18 1015 34 10000 7.2 250 16:26 18.12.2021
4197 Clouds 18 1015 34 10000 7.2 250 16:26 18.12.2021
4198 Clouds 18 1015 34 6000 8.75 240 15:27 18.12.2021
4199 Clouds 19 1015 32 6000 8.75 230 14:48 18.12.2021
4200 Clouds 18 1016 36 6000 8.23 240 13:21 18.12.2021
4201 Clear 17 1017 45 6000 5.66 210 11:22 18.12.2021
4202 Clear 15 1018 51 6000 4.63 200 09:40 18.12.2021
4203 Haze 13 1018 67 4000 4.12 200 08:47 18.12.2021
4204 Haze 13 1018 67 4000 4.12 200 08:23 18.12.2021
4205 Clear 12 1017 71 10000 3.09 200 03:42 18.12.2021
4206 Clouds 14 1018 72 10000 1.54 200 00:29 18.12.2021
4207 Clouds 13 1018 71 10000 2.06 230 23:44 17.12.2021
4208 Clouds 14 1019 72 10000 3.6 260 21:58 17.12.2021
4209 Clouds 15 1019 67 10000 3.6 290 21:19 17.12.2021
4210 Clouds 15 1019 63 10000 4.12 290 20:40 17.12.2021
4211 Clouds 16 1018 59 10000 3.09 280 19:24 17.12.2021
4212 Clouds 16 1018 55 10000 2.57 290 18:38 17.12.2021
4213 Clouds 16 1018 59 10000 2.57 300 17:33 17.12.2021
4214 Clouds 16 1018 59 10000 2.06 290 16:49 17.12.2021
4215 Clouds 16 1018 55 10000 3.6 290 16:22 17.12.2021
4216 Clouds 17 1018 55 10000 5.66 300 15:25 17.12.2021
4217 Clouds 17 1017 55 10000 4.63 310 14:40 17.12.2021
4218 Clouds 17 1017 51 10000 5.66 290 13:21 17.12.2021
4219 Clouds 18 1018 48 10000 2.06 290 11:50 17.12.2021
4220 Clouds 18 1019 52 10000 2.57 300 10:37 17.12.2021
4221 Clouds 16 1020 59 10000 3.09 300 09:34 17.12.2021
4222 Clouds 15 1020 67 6000 3.09 290 08:30 17.12.2021
4223 Clouds 14 1019 77 6000 2.06 220 06:47 17.12.2021
4224 Clouds 14 1019 77 6000 1.54 290 02:54 17.12.2021
4225 Clouds 15 1019 72 6000 2.06 310 23:47 16.12.2021
4226 Clouds 15 1019 77 6000 0 0 22:24 16.12.2021
4227 Clouds 15 1019 77 6000 0 0 22:24 16.12.2021
4228 Clouds 15 1019 72 6000 1.03 280 21:51 16.12.2021
4229 Clouds 15 1019 72 6000 2.06 290 21:30 16.12.2021
4230 Clouds 16 1019 67 6000 2.06 310 20:31 16.12.2021
4231 Clouds 16 1019 67 10000 2.06 310 19:49 16.12.2021
4232 Clouds 16 1019 63 10000 3.09 320 18:40 16.12.2021
4233 Clouds 17 1019 59 10000 4.12 310 17:57 16.12.2021
4234 Clouds 18 1018 45 10000 2.06 280 17:31 16.12.2021
4235 Clouds 19 1017 39 10000 3.09 290 16:22 16.12.2021
4236 Clouds 19 1017 39 10000 4.12 290 14:51 16.12.2021
4237 Clouds 18 1017 45 6000 4.12 230 13:29 16.12.2021
4238 Clouds 17 1018 48 6000 3.6 230 11:20 16.12.2021
4239 Clouds 17 1018 51 6000 4.12 230 10:59 16.12.2021
4240 Clouds 16 1019 51 6000 3.6 230 10:22 16.12.2021
4241 Clouds 14 1019 54 6000 2.06 210 08:25 16.12.2021
4242 Clouds 13 1019 54 10000 2.06 210 06:22 16.12.2021
4243 Clear 14 1018 54 10000 0.51 0 01:25 16.12.2021
4244 Clear 15 1018 47 10000 2.57 240 23:35 15.12.2021
4245 Clear 15 1018 47 10000 3.6 240 22:44 15.12.2021
4246 Clear 16 1018 44 10000 3.09 240 21:56 15.12.2021
4247 Clear 16 1018 44 10000 3.6 250 21:27 15.12.2021
4248 Clear 16 1018 44 10000 3.6 250 21:27 15.12.2021
4249 Clear 17 1018 42 10000 3.09 260 20:19 15.12.2021
4250 Clear 17 1018 42 10000 3.09 270 19:51 15.12.2021
4251 Clear 17 1017 39 10000 3.09 270 18:38 15.12.2021
4252 Clear 18 1017 36 10000 3.6 270 17:55 15.12.2021
4253 Clear 18 1017 36 10000 3.6 270 17:36 15.12.2021
4254 Clouds 18 1016 34 10000 6.17 270 16:34 15.12.2021
4255 Clouds 19 1016 32 10000 6.69 260 15:47 15.12.2021
4256 Clouds 19 1016 34 10000 7.2 230 15:28 15.12.2021
4257 Clouds 19 1016 34 10000 7.2 230 14:42 15.12.2021
4258 Clear 18 1016 36 6000 7.72 250 12:46 15.12.2021
4259 Haze 17 1017 45 3000 4.63 220 10:44 15.12.2021
4260 Haze 16 1017 48 3000 5.14 200 09:28 15.12.2021
4261 Haze 14 1017 54 3000 4.12 230 07:44 15.12.2021
4262 Clouds 14 1015 62 6000 1.54 170 01:39 15.12.2021
4263 Clouds 16 1015 59 10000 1.03 210 23:42 14.12.2021
4264 Clouds 16 1015 59 10000 1.03 200 22:49 14.12.2021
4265 Clouds 16 1015 59 10000 1.03 200 22:49 14.12.2021
4266 Clear 16 1016 59 10000 2.38 264 22:30 14.12.2021
4267 Clouds 16 1015 59 10000 3.09 290 20:57 14.12.2021
4268 Clouds 17 1015 55 6000 3.6 290 19:44 14.12.2021
4269 Clouds 17 1015 55 6000 3.6 290 19:44 14.12.2021
4270 Clouds 18 1015 55 6000 2.06 300 19:20 14.12.2021
4271 Clouds 18 1014 48 6000 3.6 290 18:34 14.12.2021
4272 Clouds 19 1013 45 6000 4.12 290 17:34 14.12.2021
4273 Clouds 20 1013 45 6000 3.6 290 16:43 14.12.2021
4274 Clouds 20 1013 45 10000 3.09 300 15:41 14.12.2021
4275 Clouds 20 1012 52 10000 5.14 290 13:33 14.12.2021
4276 Clouds 20 1012 56 6000 5.14 300 12:27 14.12.2021
4277 Clouds 19 1013 63 6000 5.14 280 11:24 14.12.2021
4278 Haze 18 1014 68 5000 4.63 290 10:27 14.12.2021
4279 Haze 18 1014 68 4000 4.12 300 09:53 14.12.2021
4280 Haze 18 1014 68 4000 0 0 08:29 14.12.2021
4281 Haze 17 1014 72 2000 1.54 320 07:59 14.12.2021
4282 Haze 17 1014 72 2000 1.03 0 05:52 14.12.2021
4283 Haze 18 1015 82 3000 1.54 360 23:39 13.12.2021
4284 Mist 18 1015 77 4000 3.09 20 21:57 13.12.2021
4285 Mist 18 1015 82 4000 2.57 20 21:34 13.12.2021
4286 Mist 18 1015 82 4000 2.57 20 21:34 13.12.2021
4287 Haze 18 1016 82 4000 3.09 10 20:50 13.12.2021
4288 Haze 19 1016 77 4000 2.57 10 19:59 13.12.2021
4289 Haze 19 1016 77 4000 3.09 340 19:20 13.12.2021
4290 Haze 20 1015 68 4000 2.57 360 17:27 13.12.2021
4291 Clouds 21 1015 68 10000 3.41 331 16:23 13.12.2021
4292 Mist 21 1015 60 4000 3.6 10 15:43 13.12.2021
4293 Mist 21 1015 68 4000 2.06 20 13:52 13.12.2021
4294 Mist 21 1015 68 4000 3.09 330 13:18 13.12.2021
4295 Mist 21 1015 68 4000 2.57 10 12:36 13.12.2021
4296 Mist 21 1016 73 4000 2.57 330 11:40 13.12.2021
4297 Mist 21 1016 73 4000 2.57 330 11:19 13.12.2021
4298 Mist 19 1018 82 4000 1.54 360 10:21 13.12.2021
4299 Mist 18 1018 88 2000 1.54 40 08:31 13.12.2021
4300 Fog 16 1017 100 800 0 0 05:37 13.12.2021
4301 Fog 16 1016 100 800 0 0 03:32 13.12.2021
4302 Mist 18 1017 88 3000 1.03 340 23:39 12.12.2021
4303 Mist 18 1017 88 3000 1.54 100 21:52 12.12.2021
4304 Mist 19 1018 82 3000 0 0 20:46 12.12.2021
4305 Mist 19 1017 82 3000 0 0 19:33 12.12.2021
4306 Mist 20 1017 77 3000 1.54 20 17:46 12.12.2021
4307 Mist 20 1017 73 3000 1.54 30 16:28 12.12.2021
4308 Mist 20 1017 73 3000 2.06 350 15:51 12.12.2021
4309 Mist 20 1017 73 3000 3.09 360 15:28 12.12.2021
4310 Mist 20 1017 73 3000 2.06 350 14:37 12.12.2021
4311 Mist 20 1017 73 3000 3.09 340 13:43 12.12.2021
4312 Haze 19 1017 82 3000 2.06 10 12:37 12.12.2021
4313 Mist 19 1017 77 3000 3.09 340 11:45 12.12.2021
4314 Haze 19 1017 77 3000 3.09 320 11:25 12.12.2021
4315 Haze 19 1018 68 3000 2.06 330 10:43 12.12.2021
4316 Mist 18 1018 72 3000 2.57 350 09:45 12.12.2021
4317 Mist 14 1019 88 1000 0 0 08:38 12.12.2021
4318 Haze 14 1018 77 4000 1.03 0 06:38 12.12.2021
4319 Haze 14 1017 72 4000 0 0 05:28 12.12.2021
4320 Haze 15 1017 67 4000 0 0 03:58 12.12.2021
4321 Haze 16 1017 67 4000 1.54 60 00:42 12.12.2021
4322 Haze 17 1018 67 4000 0 0 22:42 11.12.2021
4323 Haze 17 1018 67 4000 0 0 22:20 11.12.2021
4324 Haze 18 1018 63 4000 1.54 80 21:24 11.12.2021
4325 Haze 19 1018 59 4000 1.54 90 19:46 11.12.2021
4326 Haze 19 1018 59 4000 0 0 19:21 11.12.2021
4327 Haze 20 1018 56 4000 1.54 30 18:39 11.12.2021
4328 Haze 20 1018 56 2000 1.54 40 17:41 11.12.2021
4329 Haze 22 1016 46 2000 2.57 330 15:57 11.12.2021
4330 Haze 22 1016 46 2000 2.57 340 15:39 11.12.2021
4331 Haze 23 1016 43 2000 2.57 310 14:33 11.12.2021
4332 Haze 22 1016 53 2000 1.54 330 12:20 11.12.2021
4333 Haze 20 1018 56 2000 2.06 330 10:43 11.12.2021
4334 Haze 19 1018 59 2000 0 0 09:38 11.12.2021
4335 Clear 13 1016 71 6000 0 0 03:57 11.12.2021
4336 Clear 15 1017 67 10000 0 0 00:47 11.12.2021
4337 Clear 14 1017 67 10000 0 0 23:42 10.12.2021
4338 Clear 16 1017 59 10000 1.45 47 22:33 10.12.2021
4339 Clear 17 1017 59 10000 1.03 90 21:40 10.12.2021
4340 Clear 18 1017 55 10000 1.54 50 20:26 10.12.2021
4341 Clear 18 1018 55 10000 1.54 60 19:18 10.12.2021
4342 Clear 21 1017 35 10000 2.06 50 17:46 10.12.2021
4343 Clear 23 1017 27 10000 2.06 40 16:35 10.12.2021
4344 Clear 23 1017 27 10000 4.63 40 15:43 10.12.2021
4345 Clear 24 1016 27 10000 4.12 40 15:25 10.12.2021
4346 Clear 24 1017 27 10000 3.6 50 14:29 10.12.2021
4347 Clear 24 1017 27 10000 4.63 30 13:48 10.12.2021
4348 Clear 23 1017 31 10000 3.09 80 12:55 10.12.2021
4349 Clear 23 1017 31 10000 3.09 80 12:55 10.12.2021
4350 Clear 22 1018 35 10000 4.63 50 11:41 10.12.2021
4351 Clear 21 1018 37 10000 5.66 70 10:57 10.12.2021
4352 Clear 19 1020 48 10000 5.14 60 09:46 10.12.2021
4353 Clear 16 1020 63 10000 3.09 60 07:28 10.12.2021
4354 Clear 14 1020 72 10000 3.09 60 04:57 10.12.2021
4355 Clear 15 1021 72 10000 2.06 50 02:42 10.12.2021
4356 Clear 15 1022 67 10000 2.06 70 23:42 09.12.2021
4357 Clear 16 1022 67 10000 1.03 80 22:43 09.12.2021
4358 Clear 16 1022 67 10000 1.03 80 22:22 09.12.2021
4359 Clouds 16 1023 67 6000 1.54 70 21:40 09.12.2021
4360 Clouds 17 1023 63 6000 1.54 80 20:36 09.12.2021
4361 Clouds 17 1023 63 6000 1.03 80 19:45 09.12.2021
4362 Clouds 18 1023 59 6000 1.03 70 19:20 09.12.2021
4363 Clouds 19 1023 55 6000 1.03 30 18:22 09.12.2021
4364 Clouds 19 1023 55 6000 1.03 30 17:48 09.12.2021
4365 Clouds 19 1023 52 6000 1.54 40 17:24 09.12.2021
4366 Clear 20 1022 49 10000 0.55 81 16:41 09.12.2021
4367 Clouds 20 1022 49 6000 2.06 360 15:19 09.12.2021
4368 Clouds 20 1022 49 6000 1.54 290 14:36 09.12.2021
4369 Clear 20 1023 49 6000 1.54 310 12:49 09.12.2021
4370 Clear 20 1023 49 6000 1.54 310 12:24 09.12.2021
4371 Haze 18 1024 48 4000 3.6 270 10:40 09.12.2021
4372 Clear 14 1024 58 6000 2.06 210 07:53 09.12.2021
4373 Clear 14 1022 58 6000 3.6 170 03:58 09.12.2021
4374 Clear 15 1022 55 6000 3.09 210 01:43 09.12.2021
4375 Clear 16 1022 48 6000 4.63 240 23:38 08.12.2021
4376 Clear 16 1022 48 6000 4.63 240 22:59 08.12.2021
4377 Clear 16 1022 48 6000 4.63 240 22:37 08.12.2021
4378 Clear 16 1022 48 6000 4.12 240 21:39 08.12.2021
4379 Sand 17 1022 45 4000 5.66 250 20:58 08.12.2021
4380 Sand 17 1021 45 4000 5.14 240 19:57 08.12.2021
4381 Sand 18 1021 42 4000 7.2 250 19:29 08.12.2021
4382 Sand 18 1020 42 4000 6.69 250 18:28 08.12.2021
4383 Sand 18 1020 42 4000 7.72 250 17:24 08.12.2021
4384 Clouds 18 1018 42 1000 12.35 250 15:45 08.12.2021
4385 Clouds 18 1018 42 1000 12.35 250 15:23 08.12.2021
4386 Clouds 19 1016 39 1000 11.83 240 13:27 08.12.2021
4387 Clear 18 1017 36 6000 8.23 220 10:45 08.12.2021
4388 Clear 16 1017 41 6000 7.72 210 10:23 08.12.2021
4389 Sand 14 1018 44 4000 8.75 220 08:54 08.12.2021
4390 Sand 12 1017 43 4000 6.69 210 06:52 08.12.2021
4391 Clear 14 1016 35 10000 5.66 210 01:21 08.12.2021
4392 Clear 16 1016 31 10000 7.72 230 23:29 07.12.2021
4393 Clear 17 1016 27 10000 9.77 250 21:26 07.12.2021
4394 Clear 18 1015 32 10000 8.23 250 20:26 07.12.2021
4395 Clear 18 1014 48 10000 7.2 230 19:48 07.12.2021
4396 Clouds 18 1014 48 6000 6.17 220 18:37 07.12.2021
4397 Clouds 19 1013 45 6000 7.2 210 17:27 07.12.2021
4398 Clouds 19 1013 45 6000 7.2 210 16:57 07.12.2021
4399 Clouds 19 1012 45 6000 8.23 200 16:27 07.12.2021
4400 Sand 19 1012 45 4000 6.69 200 14:47 07.12.2021
4401 Sand 19 1012 48 4000 8.75 210 13:46 07.12.2021
4402 Sand 19 1012 48 4000 6.69 200 12:41 07.12.2021
4403 Haze 19 1013 48 3000 4.63 210 11:23 07.12.2021
4404 Haze 19 1014 52 2000 4.12 190 09:43 07.12.2021
4405 Haze 18 1015 59 2000 1.54 210 07:54 07.12.2021
4406 Clouds 17 1014 63 6000 1.03 0 05:55 07.12.2021
4407 Clouds 17 1014 63 6000 1.03 0 05:27 07.12.2021
4408 Haze 16 1015 72 4000 0 0 23:41 06.12.2021
4409 Haze 17 1015 67 4000 1.54 60 22:44 06.12.2021
4410 Haze 17 1016 67 4000 1.54 50 22:18 06.12.2021
4411 Haze 18 1016 63 4000 1.54 40 21:37 06.12.2021
4412 Haze 18 1016 63 4000 0.51 0 20:33 06.12.2021
4413 Haze 19 1017 59 4000 1.54 70 19:27 06.12.2021
4414 Haze 19 1018 59 4000 0.51 0 18:57 06.12.2021
4415 Haze 19 1017 59 4000 2.57 20 17:55 06.12.2021
4416 Haze 19 1017 59 4000 2.57 20 17:36 06.12.2021
4417 Haze 20 1017 56 2000 3.09 350 16:21 06.12.2021
4418 Haze 21 1017 49 2000 1.54 330 14:54 06.12.2021
4419 Haze 21 1017 52 4000 1.54 310 13:45 06.12.2021
4420 Clouds 21 1018 52 6000 1.54 310 12:39 06.12.2021
4421 Clouds 20 1020 56 10000 0 0 10:31 06.12.2021
4422 Dust 19 1020 48 2000 0 0 08:35 06.12.2021
4423 Dust 15 1018 63 2000 0 0 04:28 06.12.2021
4424 Clouds 18 1018 55 6000 2.57 170 22:30 05.12.2021
4425 Clouds 18 1018 55 6000 2.57 190 21:26 05.12.2021
4426 Clouds 18 1019 55 6000 1.54 220 20:59 05.12.2021
4427 Clouds 19 1018 52 6000 0 0 20:19 05.12.2021
4428 Clouds 19 1018 52 6000 1.03 230 19:33 05.12.2021
4429 Clouds 19 1018 52 6000 0 0 18:41 05.12.2021
4430 Clear 19 1018 52 6000 1.03 270 18:19 05.12.2021
4431 Clear 19 1017 48 6000 2.06 240 17:47 05.12.2021
4432 Clear 20 1016 45 6000 3.09 250 16:45 05.12.2021
4433 Clear 20 1016 45 6000 3.09 250 16:24 05.12.2021
4434 Sand 20 1015 45 3000 6.17 240 14:49 05.12.2021
4435 Sand 20 1015 45 3000 5.66 260 14:30 05.12.2021
4436 Sand 20 1015 45 3000 6.17 250 13:50 05.12.2021
4437 Sand 20 1015 45 3000 6.69 260 13:22 05.12.2021
4438 Sand 20 1015 42 3000 8.75 240 12:31 05.12.2021
4439 Sand 20 1015 42 3000 7.2 240 11:57 05.12.2021
4440 Sand 19 1015 45 3000 8.75 240 11:20 05.12.2021
4441 Sand 18 1015 42 3000 7.2 240 09:59 05.12.2021
4442 Clear 16 1015 48 6000 7.72 240 07:55 05.12.2021
4443 Clouds 18 1011 42 6000 6.69 210 03:27 05.12.2021
4444 Clouds 19 1012 45 6000 4.63 200 23:34 04.12.2021
4445 Clouds 18 1012 52 6000 0 0 21:54 04.12.2021
4446 Clouds 18 1013 52 10000 1.54 200 20:57 04.12.2021
4447 Clouds 19 1013 45 10000 1.54 200 19:55 04.12.2021
4448 Clouds 19 1013 45 10000 1.54 200 19:32 04.12.2021
4449 Clouds 20 1013 40 6000 2.57 200 18:20 04.12.2021
4450 Clouds 20 1013 37 6000 2.06 190 17:38 04.12.2021
4451 Clouds 21 1013 32 6000 2.06 210 16:49 04.12.2021
4452 Clouds 21 1013 32 6000 3.09 230 16:30 04.12.2021
4453 Clouds 21 1013 32 6000 4.12 240 15:40 04.12.2021
4454 Clouds 21 1014 37 10000 1.54 260 11:51 04.12.2021
4455 Clouds 21 1014 37 10000 1.54 260 11:32 04.12.2021
4456 Clouds 21 1015 40 10000 0 0 10:53 04.12.2021
4457 Clouds 17 1017 63 10000 0 0 08:48 04.12.2021
4458 Clouds 13 1016 82 10000 1.03 30 06:28 04.12.2021
4459 Clouds 13 1016 82 10000 1.03 40 04:42 04.12.2021
4460 Clouds 15 1017 72 10000 1.54 70 00:24 04.12.2021
4461 Clouds 16 1018 67 10000 0 0 23:26 03.12.2021
4462 Clouds 16 1018 67 10000 0.51 50 22:47 03.12.2021
4463 Clouds 17 1019 63 10000 2.57 70 21:26 03.12.2021
4464 Clouds 17 1019 63 10000 2.57 70 20:54 03.12.2021
4465 Clouds 18 1019 59 10000 2.06 60 20:26 03.12.2021
4466 Clouds 19 1019 55 10000 3.6 30 18:44 03.12.2021
4467 Clouds 19 1019 55 10000 4.63 30 17:59 03.12.2021
4468 Clouds 20 1017 52 10000 4.63 30 16:33 03.12.2021
4469 Clouds 21 1018 43 10000 3.6 90 12:59 03.12.2021
4470 Clouds 22 1018 40 10000 4.12 10 12:20 03.12.2021
4471 Clouds 21 1020 46 10000 3.6 50 10:56 03.12.2021
4472 Clouds 18 1021 55 10000 2.06 40 08:29 03.12.2021
4473 Clouds 17 1020 59 10000 0 0 07:43 03.12.2021
4474 Clouds 17 1021 59 10000 0 0 07:43 03.12.2021
4475 Clouds 14 1020 72 6000 1.54 80 05:42 03.12.2021
4476 Clouds 16 1019 59 6000 2.06 80 00:48 03.12.2021
4477 Clouds 17 1020 59 10000 1.54 330 23:47 02.12.2021
4478 Clouds 17 1020 63 10000 2.06 80 22:38 02.12.2021
4479 Clouds 18 1020 59 10000 2.06 70 21:41 02.12.2021
4480 Clouds 19 1020 55 10000 4.63 30 20:44 02.12.2021
4481 Clouds 19 1020 55 10000 4.63 30 20:22 02.12.2021
4482 Clouds 19 1020 48 10000 3.6 10 18:47 02.12.2021
4483 Clouds 20 1019 40 10000 5.14 40 16:35 02.12.2021
4484 Clouds 20 1019 40 10000 4.12 20 15:41 02.12.2021
4485 Clouds 20 1019 40 10000 4.12 20 15:41 02.12.2021
4486 Clouds 21 1019 37 10000 4.12 10 14:52 02.12.2021
4487 Clouds 21 1019 37 10000 2.06 30 13:39 02.12.2021
4488 Clouds 20 1019 40 10000 2.06 10 12:36 02.12.2021
4489 Clouds 20 1020 42 10000 2.57 340 10:42 02.12.2021
4490 Clouds 19 1021 48 10000 2.06 300 09:26 02.12.2021
4491 Clouds 16 1020 72 10000 1.54 140 07:19 02.12.2021
4492 Clouds 17 1019 67 10000 1.54 300 01:28 02.12.2021
4493 Clouds 17 1019 67 10000 1.54 30 00:35 02.12.2021
4494 Clouds 18 1019 63 10000 2.06 310 22:32 01.12.2021
4495 Clouds 18 1019 63 10000 4.12 290 21:44 01.12.2021
4496 Clouds 18 1019 63 10000 2.06 290 20:24 01.12.2021
4497 Clouds 19 1019 59 10000 2.57 310 19:46 01.12.2021
4498 Clouds 19 1018 59 10000 3.6 310 18:55 01.12.2021
4499 Clouds 20 1018 56 10000 3.6 310 17:31 01.12.2021
4500 Clouds 20 1017 52 10000 4.63 310 16:34 01.12.2021
4501 Clouds 22 1017 49 10000 4.63 290 14:39 01.12.2021
4502 Clouds 22 1017 49 10000 5.66 310 13:37 01.12.2021
4503 Clouds 22 1017 53 10000 5.66 280 11:26 01.12.2021
4504 Clouds 21 1018 56 10000 5.66 300 10:40 01.12.2021
4505 Clear 20 1019 60 10000 3.6 280 08:53 01.12.2021
4506 Clear 19 1019 63 10000 4.12 260 08:26 01.12.2021
4507 Clear 19 1019 72 10000 2.57 230 07:32 01.12.2021
4508 Clear 19 1018 68 10000 4.12 270 04:18 01.12.2021
4509 Clear 19 1018 68 10000 3.6 270 03:32 01.12.2021
4510 Clear 19 1018 68 10000 1.54 310 00:45 01.12.2021
4511 Clouds 19 1019 72 10000 4.12 310 23:33 30.11.2021
4512 Clouds 20 1019 68 10000 4.12 320 22:39 30.11.2021
4513 Clear 21 1019 73 6000 2.57 340 20:48 30.11.2021
4514 Clear 21 1018 68 6000 4.12 350 20:27 30.11.2021
4515 Clear 21 1018 73 6000 3.09 330 19:47 30.11.2021
4516 Clouds 22 1018 68 6000 2.57 340 19:24 30.11.2021
4517 Clouds 23 1018 64 6000 3.6 320 17:57 30.11.2021
4518 Clouds 24 1016 64 6000 4.12 330 16:25 30.11.2021
4519 Clouds 26 1016 57 6000 4.63 330 14:35 30.11.2021
4520 Sand 27 1015 47 4000 4.63 310 13:52 30.11.2021
4521 Sand 27 1015 29 4000 5.66 310 13:23 30.11.2021
4522 Sand 27 1015 28 4000 6.17 300 12:44 30.11.2021
4523 Sand 28 1015 18 4000 5.66 230 11:26 30.11.2021
4524 Sand 28 1016 17 4000 5.14 220 10:47 30.11.2021
4525 Sand 27 1016 17 4000 6.17 220 10:29 30.11.2021
4526 Sand 25 1016 23 4000 5.14 220 08:51 30.11.2021
4527 Haze 25 1016 23 4000 3.6 200 08:20 30.11.2021
4528 Haze 22 1015 30 4000 3.09 220 07:39 30.11.2021
4529 Clouds 21 1014 35 6000 2.57 170 01:52 30.11.2021
4530 Clouds 23 1014 31 6000 1.54 210 01:32 30.11.2021
4531 Clouds 23 1015 31 6000 0 0 23:57 29.11.2021
4532 Clouds 23 1015 31 6000 0 0 23:21 29.11.2021
4533 Clouds 23 1015 33 6000 1.03 0 22:44 29.11.2021
4534 Clouds 22 1015 40 6000 0 0 22:25 29.11.2021
4535 Clouds 22 1016 35 6000 2.06 120 21:22 29.11.2021
4536 Clouds 22 1016 43 6000 1.03 0 20:56 29.11.2021
4537 Clouds 24 1016 41 6000 0.51 0 20:23 29.11.2021
4538 Clouds 24 1016 41 6000 0 0 19:50 29.11.2021
4539 Clouds 25 1016 38 6000 1.03 0 19:27 29.11.2021
4540 Clouds 26 1015 36 10000 0.76 190 18:48 29.11.2021
4541 Clouds 28 1015 17 10000 0.92 198 17:22 29.11.2021
4542 Clouds 28 1015 17 10000 0.92 198 16:59 29.11.2021
4543 Clouds 29 1015 16 10000 1.27 228 16:29 29.11.2021
4544 Clouds 29 1015 16 10000 1.27 228 15:32 29.11.2021
4545 Clouds 31 1014 14 10000 1.41 232 14:42 29.11.2021
4546 Clouds 32 1014 13 10000 1.09 238 13:32 29.11.2021
4547 Clouds 32 1015 13 10000 0.85 90 12:28 29.11.2021
4548 Clouds 32 1015 13 10000 0.85 90 11:35 29.11.2021
4549 Clouds 31 1016 14 10000 1.28 86 10:32 29.11.2021
4550 Haze 26 1018 25 3000 1.54 270 09:25 29.11.2021
4551 Clouds 18 1018 36 6000 0 0 06:20 29.11.2021
4552 Haze 20 1018 37 2000 2.57 70 01:40 29.11.2021
4553 Haze 21 1018 32 2000 1.54 90 00:39 29.11.2021
4554 Haze 21 1018 35 2000 2.06 40 23:43 28.11.2021
4555 Haze 21 1019 37 2000 0 0 22:47 28.11.2021
4556 Haze 22 1019 33 4000 0 0 21:42 28.11.2021
4557 Haze 23 1019 31 4000 0 0 21:19 28.11.2021
4558 Haze 24 1019 29 4000 0 0 20:23 28.11.2021
4559 Haze 25 1018 29 4000 1.03 120 18:46 28.11.2021
4560 Haze 25 1018 29 4000 1.54 110 18:27 28.11.2021
4561 Haze 26 1018 29 3000 1.54 110 17:54 28.11.2021
4562 Haze 26 1018 29 3000 1.54 110 17:31 28.11.2021
4563 Haze 29 1018 24 3000 1.54 330 16:29 28.11.2021
4564 Haze 29 1018 23 4000 1.54 320 15:58 28.11.2021
4565 Haze 30 1017 20 4000 0 0 15:31 28.11.2021
4566 Haze 30 1017 20 4000 0 0 14:44 28.11.2021
4567 Clouds 30 1017 19 6000 1.54 290 13:18 28.11.2021
4568 Clouds 29 1017 20 6000 1.54 290 12:46 28.11.2021
4569 Clouds 28 1018 23 6000 2.57 260 10:58 28.11.2021
4570 Clear 28 1019 23 6000 3.6 270 10:21 28.11.2021
4571 Haze 26 1019 27 4000 1.54 250 09:37 28.11.2021
4572 Clear 20 1018 40 6000 0 0 07:32 28.11.2021
4573 Clouds 20 1018 45 6000 0 0 23:56 27.11.2021
4574 Clear 21 1018 40 10000 0 0 20:57 27.11.2021
4575 Clear 23 1018 33 10000 0 0 19:23 27.11.2021
4576 Clouds 25 1018 29 6000 0 0 17:27 27.11.2021
4577 Clear 27 1017 26 10000 2.06 40 15:58 27.11.2021
4578 Clear 28 1017 21 10000 2.57 30 13:58 27.11.2021
4579 Clear 28 1017 23 10000 3.09 30 12:57 27.11.2021
4580 Clear 25 1018 29 10000 4.12 90 10:52 27.11.2021
4581 Clear 24 1019 35 10000 3.6 80 09:53 27.11.2021
4582 Clear 22 1019 46 10000 2.57 50 08:44 27.11.2021
4583 Clear 16 1019 72 10000 1.03 100 06:34 27.11.2021
4584 Clear 17 1019 77 10000 2.57 80 01:59 27.11.2021
4585 Clear 18 1019 72 10000 1.03 50 23:39 26.11.2021
4586 Clear 19 1020 63 10000 1.54 70 22:25 26.11.2021
4587 Clear 19 1020 63 10000 2.57 90 21:38 26.11.2021
4588 Clear 19 1020 63 10000 2.57 90 21:18 26.11.2021
4589 Clear 20 1020 60 10000 1.03 60 20:40 26.11.2021
4590 Clear 21 1020 56 10000 1.03 70 19:55 26.11.2021
4591 Clear 21 1020 52 10000 1.54 70 18:44 26.11.2021
4592 Clear 23 1019 49 10000 3.09 90 17:24 26.11.2021
4593 Clear 24 1018 46 10000 3.6 70 16:29 26.11.2021
4594 Clear 25 1018 38 10000 2.57 70 14:50 26.11.2021
4595 Clear 25 1018 41 10000 2.57 70 13:34 26.11.2021
4596 Clear 22 1020 60 10000 3.09 50 10:44 26.11.2021
4597 Clear 22 1020 60 10000 3.09 80 09:49 26.11.2021
4598 Clear 20 1020 73 6000 3.6 70 08:50 26.11.2021
4599 Clear 20 1020 77 6000 2 60 08:20 26.11.2021
4600 Clear 16 1019 94 6000 1.54 60 06:30 26.11.2021
4601 Clear 16 1019 94 6000 1.03 60 05:35 26.11.2021
4602 Clear 17 1018 82 6000 0.51 60 03:39 26.11.2021
4603 Clear 18 1018 77 10000 0.51 60 23:43 25.11.2021
4604 Clear 19 1018 72 10000 1.54 70 22:34 25.11.2021
4605 Clear 21 1018 60 10000 2.06 70 20:45 25.11.2021
4606 Clear 22 1017 56 10000 2.06 30 19:22 25.11.2021
4607 Clear 22 1017 56 10000 2.57 20 18:35 25.11.2021
4608 Clear 22 1016 56 10000 3.09 20 17:28 25.11.2021
4609 Clear 23 1016 53 10000 3.6 10 16:47 25.11.2021
4610 Clear 23 1015 53 10000 4.12 20 16:25 25.11.2021
4611 Clear 24 1015 46 10000 4.12 350 14:44 25.11.2021
4612 Clear 25 1014 41 10000 2.06 20 13:20 25.11.2021
4613 Clear 24 1015 43 10000 2.57 50 11:57 25.11.2021
4614 Clear 24 1016 46 10000 1.54 100 10:50 25.11.2021
4615 Clear 20 1017 73 6000 1.54 60 08:30 25.11.2021
4616 Clear 17 1015 82 10000 0 0 03:42 25.11.2021
4617 Clear 17 1016 82 10000 0 0 02:43 25.11.2021
4618 Clear 19 1015 77 10000 1.54 90 22:43 24.11.2021
4619 Clear 19 1016 72 10000 1.03 90 22:20 24.11.2021
4620 Clear 20 1016 73 10000 1.54 70 21:26 24.11.2021
4621 Clear 20 1016 68 10000 1.54 70 20:28 24.11.2021
4622 Clear 21 1016 64 10000 1.54 80 19:46 24.11.2021
4623 Clear 22 1016 56 10000 1.54 10 18:29 24.11.2021
4624 Clouds 23 1015 46 10000 2.57 40 16:53 24.11.2021
4625 Clouds 24 1015 43 10000 2.57 20 15:22 24.11.2021
4626 Clouds 24 1015 43 10000 1.54 40 14:42 24.11.2021
4627 Clouds 24 1015 43 10000 1.54 40 14:19 24.11.2021
4628 Clouds 23 1016 53 10000 1.54 10 11:50 24.11.2021
4629 Clouds 22 1017 60 10000 1.54 50 11:20 24.11.2021
4630 Clouds 22 1017 60 10000 4.12 70 10:39 24.11.2021
4631 Clouds 22 1017 60 10000 4.12 70 10:21 24.11.2021
4632 Mist 18 1019 82 4000 1.03 60 07:46 24.11.2021
4633 Mist 17 1018 82 4000 0.51 90 06:51 24.11.2021
4634 Clear 16 1017 82 6000 1.54 80 03:50 24.11.2021
4635 Clouds 18 1018 72 6000 2.06 90 00:32 24.11.2021
4636 Clouds 19 1019 72 6000 2.06 60 22:39 23.11.2021
4637 Clouds 19 1020 68 6000 3.09 80 21:54 23.11.2021
4638 Clouds 19 1020 68 6000 3.09 80 21:35 23.11.2021
4639 Clouds 21 1020 64 6000 2.06 60 19:37 23.11.2021
4640 Haze 22 1020 56 4000 3.09 360 18:40 23.11.2021
4641 Haze 22 1020 56 4000 3.09 360 18:18 23.11.2021
4642 Clouds 23 1019 53 6000 3.09 360 16:57 23.11.2021
4643 Clouds 24 1019 50 6000 3.09 360 15:59 23.11.2021
4644 Clouds 24 1019 50 6000 3.09 360 15:22 23.11.2021
4645 Clouds 24 1019 43 6000 3.09 10 13:50 23.11.2021
4646 Haze 22 1021 60 4000 2.57 80 11:42 23.11.2021
4647 Haze 21 1022 64 3000 3.6 80 09:59 23.11.2021
4648 Haze 20 1023 73 3000 1.54 80 08:46 23.11.2021
4649 Mist 17 1022 82 2000 0 0 06:41 23.11.2021
4650 Haze 17 1022 77 3000 0 0 03:51 23.11.2021
4651 Haze 18 1021 72 3000 0 0 00:57 23.11.2021
4652 Clear 19 1022 68 10000 0 0 23:21 22.11.2021
4653 Clear 20 1021 64 10000 0 0 22:34 22.11.2021
4654 Clear 19 1021 68 10000 0.51 150 21:49 22.11.2021
4655 Clear 20 1021 64 10000 0.51 190 21:31 22.11.2021
4656 Clear 20 1021 68 10000 0 0 20:52 22.11.2021
4657 Clear 21 1021 64 10000 1.03 280 19:55 22.11.2021
4658 Clear 21 1021 60 10000 1.03 280 19:19 22.11.2021
4659 Clouds 22 1021 56 10000 1.03 280 18:39 22.11.2021
4660 Clouds 22 1020 56 10000 1.03 280 17:20 22.11.2021
4661 Clouds 22 1020 56 10000 1.54 240 16:18 22.11.2021
4662 Clouds 22 1019 56 6000 3.6 230 13:58 22.11.2021
4663 Clouds 21 1019 64 6000 5.14 240 11:59 22.11.2021
4664 Clear 20 1020 64 6000 4.12 230 10:41 22.11.2021
4665 Clear 19 1020 68 6000 4.63 200 09:43 22.11.2021
4666 Haze 18 1020 72 3000 3.6 210 08:40 22.11.2021
4667 Mist 16 1018 77 1000 2.57 190 06:22 22.11.2021
4668 Haze 17 1016 67 3000 3.09 190 23:28 21.11.2021
4669 Haze 17 1016 67 3000 2.57 180 22:49 21.11.2021
4670 Haze 18 1016 63 4000 3.6 190 21:53 21.11.2021
4671 Clear 18 1015 68 6000 2.57 180 20:42 21.11.2021
4672 Clouds 19 1015 63 10000 2.57 180 19:58 21.11.2021
4673 Clouds 19 1015 63 10000 2.06 210 18:25 21.11.2021
4674 Clouds 19 1014 63 10000 3.09 240 17:39 21.11.2021
4675 Clouds 20 1013 56 10000 4.12 240 15:53 21.11.2021
4676 Clouds 20 1012 60 10000 4.12 250 14:45 21.11.2021
4677 Clouds 20 1012 52 6000 4.63 250 13:47 21.11.2021
4678 Clouds 19 1012 63 6000 4.63 220 12:37 21.11.2021
4679 Clouds 19 1012 59 6000 4.63 210 11:54 21.11.2021
4680 Clouds 19 1012 68 6000 4.63 240 11:35 21.11.2021
4681 Haze 18 1013 72 3000 4.63 200 10:19 21.11.2021
4682 Mist 16 1013 77 3000 4.63 200 08:45 21.11.2021
4683 Mist 17 1012 77 3000 5.14 210 08:25 21.11.2021
4684 Mist 15 1011 82 3000 4.12 190 07:48 21.11.2021
4685 Mist 15 1012 82 3000 3.6 210 06:18 21.11.2021
4686 Clouds 15 1011 88 6000 3.6 200 05:26 21.11.2021
4687 Clouds 15 1010 88 10000 5.14 220 03:19 21.11.2021
4688 Clouds 15 1010 88 10000 6.69 240 02:52 21.11.2021
4689 Clouds 15 1011 88 10000 6.17 220 00:59 21.11.2021
4690 Clouds 15 1011 77 10000 5.14 240 23:59 20.11.2021
4691 Clouds 16 1010 82 10000 4.12 230 21:50 20.11.2021
4692 Clouds 16 1010 82 10000 4.12 230 21:30 20.11.2021
4693 Clouds 16 1010 77 8000 2.57 270 19:23 20.11.2021
4694 Clouds 17 1010 77 6000 1.54 260 18:45 20.11.2021
4695 Clouds 17 1009 72 10000 0 0 18:19 20.11.2021
4696 Clouds 16 1009 77 10000 0 0 17:18 20.11.2021
4697 Clouds 22 1008 40 10000 6.17 280 14:49 20.11.2021
4698 Clouds 23 1008 38 10000 7.72 260 14:28 20.11.2021
4699 Clouds 23 1009 38 10000 7.72 230 13:33 20.11.2021
4700 Clouds 22 1010 49 6000 4.63 200 11:24 20.11.2021
4701 Clouds 20 1012 60 6000 5.66 210 09:54 20.11.2021
4702 Haze 19 1012 68 2000 4.63 200 08:26 20.11.2021
4703 Clouds 17 1013 72 6000 2.57 210 05:30 20.11.2021
4704 Clouds 17 1012 72 10000 2.57 210 04:51 20.11.2021
4705 Clouds 18 1013 68 10000 2.57 190 03:25 20.11.2021
4706 Clouds 19 1014 68 10000 1.54 220 00:42 20.11.2021
4707 Clouds 19 1015 68 10000 1.54 220 23:45 19.11.2021
4708 Clouds 19 1016 68 10000 1.54 270 22:53 19.11.2021
4709 Clouds 19 1016 63 10000 1.54 300 21:23 19.11.2021
4710 Clouds 20 1016 60 10000 2.06 350 20:40 19.11.2021
4711 Clouds 20 1016 60 10000 2.06 350 20:22 19.11.2021
4712 Clouds 20 1016 60 10000 2.06 340 19:43 19.11.2021
4713 Clouds 20 1016 60 10000 2.57 340 18:45 19.11.2021
4714 Clouds 21 1016 52 10000 4.12 320 17:44 19.11.2021
4715 Clouds 22 1015 49 10000 4.12 300 16:40 19.11.2021
4716 Clouds 23 1015 38 10000 5.14 320 14:51 19.11.2021
4717 Clouds 22 1018 53 10000 2.57 320 10:57 19.11.2021
4718 Clouds 21 1018 56 10000 3.6 330 10:23 19.11.2021
4719 Clear 19 1019 68 10000 3.6 310 08:32 19.11.2021
4720 Clear 18 1019 77 6000 1.54 310 04:58 19.11.2021
4721 Clear 18 1019 82 6000 1.03 290 03:37 19.11.2021
4722 Clear 19 1020 77 6000 2.57 300 23:54 18.11.2021
4723 Clear 19 1020 77 6000 2.06 310 22:49 18.11.2021
4724 Clear 21 1020 73 6000 3.09 340 20:57 18.11.2021
4725 Clear 21 1020 73 6000 3.6 350 20:39 18.11.2021
4726 Clear 21 1020 73 6000 3.6 350 20:19 18.11.2021
4727 Clear 21 1019 68 6000 3.6 350 19:36 18.11.2021
4728 Clouds 22 1019 60 10000 3.6 350 18:37 18.11.2021
4729 Clouds 22 1019 60 10000 4.12 350 17:52 18.11.2021
4730 Clouds 23 1018 56 10000 3.6 340 17:22 18.11.2021
4731 Clouds 23 1018 56 10000 3.09 330 16:42 18.11.2021
4732 Clouds 24 1018 53 10000 4.63 340 15:23 18.11.2021
4733 Clouds 24 1018 57 10000 3.6 300 12:56 18.11.2021
4734 Clouds 23 1019 60 10000 3.6 350 11:44 18.11.2021
4735 Clouds 23 1019 60 10000 3.6 350 11:26 18.11.2021
4736 Clouds 23 1019 60 10000 3.6 350 11:26 18.11.2021
4737 Clouds 22 1020 68 6000 2.06 330 10:36 18.11.2021
4738 Mist 20 1021 77 4000 3.6 290 08:44 18.11.2021
4739 Mist 19 1020 82 2000 1.54 300 07:19 18.11.2021
4740 Haze 18 1019 88 4000 2.06 310 05:46 18.11.2021
4741 Haze 20 1019 77 4000 0 0 01:27 18.11.2021
4742 Haze 20 1019 77 4000 0 0 01:27 18.11.2021
4743 Haze 21 1019 73 4000 2.06 360 23:46 17.11.2021
4744 Haze 21 1019 73 4000 2.06 350 22:40 17.11.2021
4745 Haze 21 1019 73 4000 2.06 350 22:20 17.11.2021
4746 Haze 21 1019 73 4000 2.57 350 21:36 17.11.2021
4747 Haze 22 1018 64 4000 2.57 330 20:18 17.11.2021
4748 Clouds 24 1017 53 6000 1.54 10 17:36 17.11.2021
4749 Clouds 24 1016 50 6000 1.54 330 16:45 17.11.2021
4750 Haze 25 1016 47 6000 1.54 330 13:59 17.11.2021
4751 Haze 24 1016 53 4000 2.57 310 12:39 17.11.2021
4752 Haze 24 1017 60 1500 3.09 280 11:37 17.11.2021
4753 Mist 23 1017 68 1000 1.54 270 09:58 17.11.2021
4754 Mist 21 1018 73 1000 2.06 240 09:23 17.11.2021
4755 Mist 20 1018 83 1000 2.06 310 07:41 17.11.2021
4756 Clouds 19 1015 72 6000 0 0 03:31 17.11.2021
4757 Clouds 20 1015 73 6000 0 0 00:46 17.11.2021
4758 Clouds 21 1015 68 6000 2.06 90 22:44 16.11.2021
4759 Clouds 22 1015 68 6000 0 0 20:20 16.11.2021
4760 Clouds 23 1015 64 10000 1.03 10 19:59 16.11.2021
4761 Clouds 23 1015 64 10000 1.54 50 18:53 16.11.2021
4762 Clouds 23 1015 64 10000 2.57 30 18:30 16.11.2021
4763 Clouds 23 1015 60 10000 2.57 20 17:34 16.11.2021
4764 Clouds 24 1015 57 6000 3.09 20 16:32 16.11.2021
4765 Haze 24 1015 57 4000 2.57 340 15:49 16.11.2021
4766 Haze 24 1015 57 4000 1.54 340 14:31 16.11.2021
4767 Haze 23 1016 68 4000 2.06 290 11:28 16.11.2021
4768 Mist 22 1016 78 3000 1.03 330 09:46 16.11.2021
4769 Mist 21 1017 83 2000 1.54 310 08:26 16.11.2021
4770 Mist 20 1017 88 2000 1.54 230 07:31 16.11.2021
4771 Mist 21 1015 83 3000 1.03 340 01:38 16.11.2021
4772 Haze 21 1016 78 3000 0 0 22:52 15.11.2021
4773 Haze 22 1016 68 3000 2.06 290 22:30 15.11.2021
4774 Haze 22 1016 64 3000 1.54 290 21:52 15.11.2021
4775 Haze 22 1015 64 3000 0 0 21:28 15.11.2021
4776 Haze 23 1015 60 3000 1.54 360 19:41 15.11.2021
4777 Clouds 24 1014 53 6000 1.03 340 18:30 15.11.2021
4778 Clouds 25 1014 50 6000 2.57 320 16:20 15.11.2021
4779 Clouds 25 1013 50 6000 3.6 310 15:41 15.11.2021
4780 Clouds 25 1013 50 6000 3.6 310 15:23 15.11.2021
4781 Clouds 25 1014 53 6000 2.57 300 13:29 15.11.2021
4782 Mist 22 1016 78 4000 2.06 320 10:57 15.11.2021
4783 Mist 21 1016 83 2000 2.57 340 09:27 15.11.2021
4784 Mist 21 1016 83 2000 1.54 330 07:52 15.11.2021
4785 Mist 20 1015 94 1000 0 0 05:21 15.11.2021
4786 Haze 22 1015 64 4000 2.06 10 23:54 14.11.2021
4787 Haze 22 1016 64 4000 0 0 22:35 14.11.2021
4788 Haze 24 1015 53 4000 2.06 40 19:57 14.11.2021
4789 Haze 25 1015 50 4000 1.03 20 19:18 14.11.2021
4790 Clouds 25 1015 50 6000 1.54 340 18:54 14.11.2021
4791 Clouds 25 1015 50 6000 1.54 350 18:36 14.11.2021
4792 Clouds 25 1015 50 6000 1.54 350 18:18 14.11.2021
4793 Clouds 26 1014 47 6000 2.06 20 17:56 14.11.2021
4794 Clouds 26 1014 47 6000 2.06 20 17:38 14.11.2021
4795 Clouds 26 1014 47 6000 2.06 340 17:20 14.11.2021
4796 Clouds 26 1014 47 6000 2.57 350 16:47 14.11.2021
4797 Clouds 26 1014 47 6000 2.57 350 16:47 14.11.2021
4798 Clouds 27 1013 41 6000 3.09 330 16:20 14.11.2021
4799 Clouds 27 1013 41 6000 3.6 320 15:23 14.11.2021
4800 Haze 27 1013 41 3000 4.12 310 14:49 14.11.2021
4801 Haze 27 1013 44 3000 3.6 290 14:29 14.11.2021
4802 Haze 27 1013 47 3000 2.57 320 13:57 14.11.2021
4803 Haze 27 1013 50 3000 3.09 320 13:39 14.11.2021
4804 Haze 27 1014 44 3000 1.54 350 12:28 14.11.2021
4805 Haze 26 1014 50 2000 1.54 340 11:52 14.11.2021
4806 Haze 25 1015 61 2000 1.03 290 10:45 14.11.2021
4807 Haze 24 1015 64 2000 1.54 340 10:26 14.11.2021
4808 Mist 21 1016 83 1000 1.54 320 08:56 14.11.2021
4809 Mist 20 1016 88 1000 0 0 07:24 14.11.2021
4810 Haze 20 1015 77 4000 1.54 320 01:24 14.11.2021
4811 Haze 22 1015 64 2000 1.54 350 22:27 13.11.2021
4812 Haze 22 1015 64 4000 0 0 21:57 13.11.2021
4813 Haze 23 1015 60 4000 0 0 21:25 13.11.2021
4814 Haze 23 1015 53 4000 0 0 19:48 13.11.2021
4815 Haze 24 1014 50 4000 1.03 360 18:48 13.11.2021
4816 Haze 25 1014 47 4000 1.03 360 18:26 13.11.2021
4817 Clear 27 1013 36 6000 3.09 340 16:40 13.11.2021
4818 Clear 27 1013 39 6000 3.09 340 15:37 13.11.2021
4819 Clear 27 1013 41 6000 2.57 320 14:34 13.11.2021
4820 Clear 27 1013 41 6000 2.57 320 13:45 13.11.2021
4821 Clouds 27 1013 41 6000 2.57 20 12:33 13.11.2021
4822 Clouds 26 1014 41 6000 3.09 330 11:39 13.11.2021
4823 Haze 26 1015 50 4000 2.06 10 10:45 13.11.2021
4824 Haze 24 1015 60 4000 3.09 10 10:23 13.11.2021
4825 Haze 24 1015 60 4000 3.09 10 10:23 13.11.2021
4826 Haze 24 1015 60 4000 3.09 10 09:39 13.11.2021
4827 Haze 21 1016 68 4000 1.03 20 08:59 13.11.2021
4828 Haze 21 1016 64 4000 0 0 08:34 13.11.2021
4829 Haze 17 1015 77 4000 0.51 190 06:27 13.11.2021
4830 Clear 17 1014 77 10000 0 0 04:32 13.11.2021
4831 Clear 18 1014 72 10000 1.03 100 01:54 13.11.2021
4832 Clear 19 1014 68 10000 0 0 23:23 12.11.2021
4833 Clouds 20 1014 64 10000 1.54 70 21:51 12.11.2021
4834 Clouds 21 1014 60 10000 2.57 30 20:19 12.11.2021
4835 Clouds 22 1014 56 10000 3.6 20 19:30 12.11.2021
4836 Clouds 22 1014 56 10000 5.14 20 18:52 12.11.2021
4837 Clouds 24 1012 57 10000 4.63 30 16:40 12.11.2021
4838 Clouds 24 1012 50 10000 5.14 20 15:51 12.11.2021
4839 Clouds 25 1012 44 10000 3.6 40 13:25 12.11.2021
4840 Clouds 24 1013 50 10000 7.72 30 11:21 12.11.2021
4841 Clouds 22 1014 56 10000 7.2 10 09:45 12.11.2021
4842 Clouds 22 1014 56 10000 4.63 20 08:44 12.11.2021
4843 Clouds 17 1014 77 10000 3.6 60 05:54 12.11.2021
4844 Clear 20 1014 64 10000 3.09 40 23:43 11.11.2021
4845 Clear 20 1014 64 10000 3.09 40 23:43 11.11.2021
4846 Clear 20 1014 64 10000 3.6 50 22:46 11.11.2021
4847 Clear 21 1015 60 10000 4.63 50 21:29 11.11.2021
4848 Clear 21 1015 60 10000 4.63 50 20:48 11.11.2021
4849 Clear 21 1015 60 10000 5.14 50 19:30 11.11.2021
4850 Clouds 22 1014 56 10000 5.66 40 18:25 11.11.2021
4851 Clouds 23 1014 49 10000 6.69 30 17:37 11.11.2021
4852 Clouds 25 1013 41 10000 5.66 40 15:20 11.11.2021
4853 Clouds 25 1013 41 10000 6.17 30 14:36 11.11.2021
4854 Clouds 25 1013 41 10000 6.17 30 14:18 11.11.2021
4855 Clouds 25 1013 41 10000 6.17 20 13:34 11.11.2021
4856 Clouds 25 1014 44 10000 5.14 50 11:57 11.11.2021
4857 Clouds 23 1015 49 10000 5.66 50 09:54 11.11.2021
4858 Clouds 21 1016 73 10000 3.6 50 08:28 11.11.2021
4859 Clouds 19 1014 88 6000 2.57 60 06:44 11.11.2021
4860 Clouds 20 1016 83 6000 2.06 10 00:38 11.11.2021
4861 Clouds 21 1016 78 6000 1.54 10 22:41 10.11.2021
4862 Clear 21 1016 78 10000 2.06 10 21:53 10.11.2021
4863 Clear 22 1016 73 10000 3.09 10 20:55 10.11.2021
4864 Clear 23 1016 68 10000 4.63 20 19:55 10.11.2021
4865 Clear 23 1016 68 10000 4.63 20 19:35 10.11.2021
4866 Clear 25 1016 47 10000 4.63 20 17:19 10.11.2021
4867 Clear 27 1015 41 10000 5.14 340 15:46 10.11.2021
4868 Clouds 27 1016 41 6000 4.63 360 14:24 10.11.2021
4869 Clouds 27 1016 41 6000 4.63 360 13:36 10.11.2021
4870 Clouds 26 1016 50 6000 4.12 350 12:23 10.11.2021
4871 Mist 21 1018 88 2000 1.03 60 09:18 10.11.2021
4872 Mist 20 1018 94 1500 1.54 10 08:41 10.11.2021
4873 Mist 18 1018 100 2000 2.06 30 06:45 10.11.2021
4874 Mist 19 1018 94 4000 2.57 50 05:58 10.11.2021
4875 Mist 20 1018 100 2000 3.09 10 01:57 10.11.2021
4876 Clear 22 1018 83 10000 1.03 100 22:29 09.11.2021
4877 Clear 23 1018 73 10000 2.06 60 20:43 09.11.2021
4878 Clear 24 1018 60 10000 2.57 50 19:33 09.11.2021
4879 Clear 25 1018 57 10000 4.63 30 18:49 09.11.2021
4880 Clouds 28 1017 42 6000 4.12 350 16:57 09.11.2021
4881 Clouds 29 1016 32 10000 4.63 20 15:36 09.11.2021
4882 Clear 29 1016 34 6000 4.63 10 13:50 09.11.2021
4883 Clouds 30 1016 37 6000 4.12 20 12:47 09.11.2021
4884 Clouds 28 1016 44 6000 3.6 20 11:18 09.11.2021
4885 Clouds 25 1017 61 6000 3.6 50 10:30 09.11.2021
4886 Clear 24 1017 69 6000 5.14 50 09:21 09.11.2021
4887 Clear 20 1017 64 6000 1.03 0 07:54 09.11.2021
4888 Clear 19 1015 68 10000 1.03 0 02:50 09.11.2021
4889 Clear 20 1015 68 10000 1.03 0 01:58 09.11.2021
4890 Clear 20 1015 73 10000 0.51 0 01:36 09.11.2021
4891 Clear 21 1015 73 10000 1.03 0 23:32 08.11.2021
4892 Clear 21 1015 73 10000 2.06 60 22:47 08.11.2021
4893 Clear 23 1015 64 10000 2.57 50 21:45 08.11.2021
4894 Clear 23 1015 73 10000 2.06 50 20:36 08.11.2021
4895 Clear 24 1015 69 10000 2.57 70 19:43 08.11.2021
4896 Clear 26 1014 57 10000 3.6 10 17:48 08.11.2021
4897 Clear 29 1013 45 10000 4.12 50 15:58 08.11.2021
4898 Clear 29 1013 39 10000 5.14 40 14:57 08.11.2021
4899 Clear 29 1013 39 10000 5.14 40 14:34 08.11.2021
4900 Clouds 28 1013 47 10000 4.12 20 13:22 08.11.2021
4901 Clouds 27 1013 57 10000 3.09 40 11:56 08.11.2021
4902 Clouds 25 1014 69 10000 5.14 10 10:50 08.11.2021
4903 Clouds 23 1015 83 6000 3.09 50 09:37 08.11.2021
4904 Mist 22 1015 88 4000 4.63 40 08:52 08.11.2021
4905 Mist 20 1015 100 4000 3.09 70 07:27 08.11.2021
4906 Mist 20 1013 94 1000 2.06 350 03:42 08.11.2021
4907 Mist 20 1013 94 1000 1.54 340 03:22 08.11.2021
4908 Mist 21 1013 94 4000 2.57 50 23:43 07.11.2021
4909 Clear 22 1014 94 6000 2.06 60 21:42 07.11.2021
4910 Clear 23 1014 83 6000 2.57 50 20:51 07.11.2021
4911 Clear 24 1013 69 10000 5.14 40 19:25 07.11.2021
4912 Clear 27 1013 50 10000 5.14 360 17:49 07.11.2021
4913 Clear 27 1012 47 10000 5.14 10 16:49 07.11.2021
4914 Clear 28 1012 44 10000 6.69 20 15:44 07.11.2021
4915 Clear 29 1012 39 10000 5.14 10 14:28 07.11.2021
4916 Clear 28 1013 44 6000 5.14 10 12:58 07.11.2021
4917 Clear 27 1013 47 6000 4.63 20 11:42 07.11.2021
4918 Mist 22 1015 88 3000 4.63 40 09:26 07.11.2021
4919 Mist 21 1015 94 1000 4.12 40 07:20 07.11.2021
4920 Mist 20 1014 94 2000 4.63 20 02:34 07.11.2021
4921 Clouds 21 1014 88 6000 4.12 20 23:22 06.11.2021
4922 Clouds 21 1014 83 10000 3.6 40 22:42 06.11.2021
4923 Clear 22 1015 78 10000 4.63 40 21:32 06.11.2021
4924 Clear 22 1015 78 10000 4.63 40 20:50 06.11.2021
4925 Clear 23 1015 64 10000 6.17 30 18:56 06.11.2021
4926 Clear 26 1014 50 10000 7.72 20 16:46 06.11.2021
4927 Clear 26 1014 50 10000 7.72 20 16:46 06.11.2021
4928 Clear 28 1013 47 10000 6.69 360 14:38 06.11.2021
4929 Clear 28 1013 44 10000 6.17 40 13:38 06.11.2021
4930 Clear 27 1014 50 10000 5.66 40 11:46 06.11.2021
4931 Clouds 24 1016 64 10000 7.2 30 09:25 06.11.2021
4932 Clouds 20 1015 88 10000 3.6 40 04:59 06.11.2021
4933 Clouds 21 1015 83 10000 4.12 50 01:47 06.11.2021
4934 Clouds 21 1016 83 10000 4.12 30 23:35 05.11.2021
4935 Clouds 22 1016 83 10000 4.12 30 22:34 05.11.2021
4936 Clouds 23 1016 78 10000 5.14 40 21:26 05.11.2021
4937 Clouds 23 1016 73 10000 6.69 20 20:20 05.11.2021
4938 Clouds 23 1016 73 10000 7.2 20 19:48 05.11.2021
4939 Clouds 24 1016 64 10000 7.72 20 18:40 05.11.2021
4940 Clouds 24 1015 64 10000 8.23 10 17:28 05.11.2021
4941 Clouds 26 1015 57 10000 8.23 10 15:38 05.11.2021
4942 Clouds 27 1015 50 10000 7.2 10 13:37 05.11.2021
4943 Clouds 26 1017 57 10000 8.23 50 11:27 05.11.2021
4944 Clouds 23 1018 73 6000 6.17 40 08:40 05.11.2021
4945 Clouds 21 1018 83 6000 4.63 30 07:39 05.11.2021
4946 Clouds 20 1017 83 6000 4.63 40 05:32 05.11.2021
4947 Clouds 21 1018 83 10000 4.63 40 02:26 05.11.2021
4948 Clouds 21 1018 83 10000 5.14 40 00:51 05.11.2021
4949 Clear 21 1018 83 10000 5.14 30 23:23 04.11.2021
4950 Clear 22 1019 78 10000 6.69 30 22:19 04.11.2021
4951 Clear 22 1019 78 10000 7.2 30 21:38 04.11.2021
4952 Clear 22 1019 78 10000 7.2 30 20:50 04.11.2021
4953 Clear 22 1019 78 10000 7.2 30 20:22 04.11.2021
4954 Clouds 22 1019 73 10000 8.23 30 19:47 04.11.2021
4955 Clouds 23 1019 73 10000 8.23 30 18:44 04.11.2021
4956 Clouds 23 1018 68 10000 8.23 20 18:18 04.11.2021
4957 Clouds 25 1018 61 10000 8.75 20 16:48 04.11.2021
4958 Clouds 27 1017 47 10000 7.2 10 14:42 04.11.2021
4959 Clear 27 1018 44 10000 7.72 20 12:53 04.11.2021
4960 Clouds 24 1020 60 10000 9.26 50 09:42 04.11.2021
4961 Clouds 23 1020 68 10000 8.75 40 08:31 04.11.2021
4962 Clear 21 1020 78 10000 6.17 60 07:35 04.11.2021
4963 Clear 20 1019 83 10000 6.69 50 04:47 04.11.2021
4964 Clear 22 1020 73 10000 5.14 60 22:53 03.11.2021
4965 Clear 22 1020 68 10000 4.12 50 21:50 03.11.2021
4966 Clear 23 1020 60 10000 5.66 50 21:30 03.11.2021
4967 Clear 23 1020 56 10000 4.63 50 20:37 03.11.2021
4968 Clear 24 1020 50 10000 5.66 40 19:58 03.11.2021
4969 Clear 24 1020 50 10000 6.17 40 19:19 03.11.2021
4970 Clear 25 1019 47 10000 7.2 30 18:25 03.11.2021
4971 Clear 26 1019 41 10000 6.17 30 17:36 03.11.2021
4972 Clear 28 1018 39 10000 5.14 20 16:26 03.11.2021
4973 Clear 28 1018 36 10000 4.63 10 15:44 03.11.2021
4974 Clear 29 1018 34 10000 4.12 10 14:25 03.11.2021
4975 Clear 29 1018 34 10000 3.6 10 12:33 03.11.2021
4976 Clear 28 1019 36 10000 4.63 360 11:27 03.11.2021
4977 Clear 27 1019 39 10000 3.09 30 10:49 03.11.2021
4978 Clear 26 1020 41 10000 1.54 50 09:31 03.11.2021
4979 Clear 25 1020 50 10000 0 0 08:24 03.11.2021
4980 Clear 23 1019 60 10000 0 0 07:39 03.11.2021
4981 Clear 20 1018 73 10000 0 0 05:35 03.11.2021
4982 Clear 21 1017 68 10000 3.6 110 02:50 03.11.2021
4983 Clear 22 1018 64 10000 2.06 70 23:57 02.11.2021
4984 Clear 22 1018 64 10000 1.54 60 22:48 02.11.2021
4985 Clear 24 1018 53 10000 1.54 20 21:45 02.11.2021
4986 Clear 24 1018 53 10000 2.06 360 20:34 02.11.2021
4987 Clear 25 1018 47 10000 1.54 10 19:55 02.11.2021
4988 Clear 25 1018 47 10000 1.54 20 19:18 02.11.2021
4989 Clear 25 1018 47 10000 3.09 350 18:26 02.11.2021
4990 Clear 25 1017 47 10000 3.09 320 17:43 02.11.2021
4991 Clear 26 1017 44 10000 4.12 330 16:33 02.11.2021
4992 Clear 26 1017 41 10000 4.12 330 15:48 02.11.2021
4993 Clear 27 1016 36 10000 3.6 330 14:31 02.11.2021
4994 Clear 27 1016 39 10000 2.06 290 13:28 02.11.2021
4995 Clear 27 1016 39 10000 4.12 310 12:45 02.11.2021
4996 Clear 26 1017 41 10000 3.09 330 11:38 02.11.2021
4997 Clear 26 1018 38 10000 3.6 320 10:54 02.11.2021
4998 Clear 25 1018 47 10000 3.09 290 10:30 02.11.2021
4999 Clear 24 1018 53 10000 2.06 350 09:23 02.11.2021
5000 Clear 22 1018 73 10000 1.54 80 07:45 02.11.2021
5001 Clear 21 1017 73 10000 1.03 80 04:39 02.11.2021
5002 Clear 21 1016 73 10000 1.03 80 02:49 02.11.2021
5003 Clear 22 1017 68 10000 3.09 360 23:32 01.11.2021
5004 Clear 23 1017 60 10000 3.09 340 21:28 01.11.2021
5005 Clear 24 1017 53 10000 3.09 360 20:42 01.11.2021
5006 Clear 25 1016 44 10000 2.57 290 19:58 01.11.2021
5007 Clear 25 1016 44 10000 2.57 290 19:58 01.11.2021
5008 Clear 25 1016 44 10000 2.57 290 19:38 01.11.2021
5009 Clear 26 1016 41 10000 4.12 280 18:23 01.11.2021
5010 Clear 27 1015 41 10000 5.66 270 17:36 01.11.2021
5011 Clear 27 1015 39 10000 6.69 280 16:51 01.11.2021
5012 Clear 28 1014 34 10000 7.2 270 15:57 01.11.2021
5013 Clear 28 1014 34 10000 7.2 270 15:27 01.11.2021
5014 Clear 29 1013 28 10000 6.17 250 14:45 01.11.2021
5015 Clear 29 1013 26 10000 8.75 240 14:23 01.11.2021
5016 Clear 30 1013 21 10000 7.72 250 13:50 01.11.2021
5017 Clear 30 1014 23 10000 8.23 220 12:34 01.11.2021
5018 Clear 29 1015 24 10000 5.66 240 11:27 01.11.2021
5019 Clear 27 1016 39 10000 5.66 220 09:47 01.11.2021
5020 Clear 25 1016 57 6000 4.63 200 08:18 01.11.2021
5021 Clear 24 1015 64 6000 3.09 170 07:40 01.11.2021
5022 Mist 22 1014 88 3000 2.57 280 03:48 01.11.2021
5023 Mist 23 1014 83 3000 1.54 310 01:43 01.11.2021
5024 Haze 24 1014 73 4000 1.03 330 22:42 31.10.2021
5025 Clear 24 1015 64 10000 4.12 360 20:50 31.10.2021
5026 Clear 25 1015 61 10000 4.63 350 19:22 31.10.2021
5027 Clear 25 1015 61 10000 4.63 350 19:22 31.10.2021
5028 Clear 26 1014 57 10000 5.14 340 18:40 31.10.2021
5029 Clouds 28 1014 44 10000 4.12 300 17:52 31.10.2021
5030 Clouds 30 1013 37 10000 5.14 300 15:50 31.10.2021
5031 Clouds 33 1012 21 10000 9.26 210 14:24 31.10.2021
5032 Clouds 31 1013 27 10000 5.14 230 12:50 31.10.2021
5033 Clouds 31 1013 27 10000 5.14 230 11:41 31.10.2021
5034 Clouds 31 1014 30 10000 2.06 230 10:44 31.10.2021
5035 Clouds 28 1015 39 10000 2.06 80 09:22 31.10.2021
5036 Clouds 25 1015 57 6000 2.06 70 08:29 31.10.2021
5037 Clouds 24 1017 60 10000 5.14 50 01:37 31.10.2021
5038 Clouds 24 1017 60 10000 8.23 50 22:47 30.10.2021
5039 Clouds 25 1017 65 6000 4.63 40 21:35 30.10.2021
5040 Clouds 25 1017 61 6000 4.63 30 20:50 30.10.2021
5041 Clouds 27 1015 54 6000 3.6 350 18:48 30.10.2021
5042 Clouds 29 1015 54 6000 3.09 320 17:25 30.10.2021
5043 Clouds 30 1014 54 6000 2.06 320 15:21 30.10.2021
5044 Clouds 28 1014 42 6000 1.54 280 13:40 30.10.2021
5045 Clouds 28 1014 42 6000 1.54 280 13:40 30.10.2021
5046 Clouds 28 1014 42 6000 1.54 280 13:21 30.10.2021
5047 Clouds 30 1015 41 10000 1.03 290 12:51 30.10.2021
5048 Clouds 29 1015 41 10000 2.06 230 11:44 30.10.2021
5049 Clouds 24 1016 41 6000 4.63 110 10:32 30.10.2021
5050 Clouds 24 1017 45 4000 2.06 30 08:53 30.10.2021
5051 Clouds 23 1016 45 10000 3.6 350 07:29 30.10.2021
5052 Clouds 22 1015 45 10000 3.6 50 05:39 30.10.2021
5053 Clear 22 1015 45 10000 3.6 40 00:56 30.10.2021
5054 Clear 24 1015 57 10000 3.6 40 22:50 29.10.2021
5055 Clear 25 1014 57 10000 4.63 50 22:30 29.10.2021
5056 Clear 27 1014 57 10000 5.66 30 20:46 29.10.2021
5057 Clear 27 1014 57 10000 5.66 30 20:24 29.10.2021
5058 Clouds 29 1013 57 10000 2.57 310 18:36 29.10.2021
5059 Clouds 30 1012 57 10000 2.57 310 16:54 29.10.2021
5060 Clouds 29 1012 57 6000 4.12 300 15:21 29.10.2021
5061 Clouds 27 1013 47 6000 3.09 300 12:26 29.10.2021
5062 Clouds 28 1013 47 6000 1.54 270 10:46 29.10.2021
5063 Mist 24 1013 44 4000 2.57 260 08:47 29.10.2021
5064 Clear 25 1011 44 10000 3.09 50 00:37 29.10.2021
5065 Clear 24 1011 28 10000 3.09 50 23:41 28.10.2021
5066 Clear 27 1012 28 10000 3.09 20 22:19 28.10.2021
5067 Clouds 28 1011 28 6000 5.66 80 20:56 28.10.2021
5068 Clouds 27 1012 36 6000 5.14 60 19:52 28.10.2021
5069 Haze 31 1011 28 4000 4.63 70 18:30 28.10.2021
5070 Haze 32 1011 28 4000 3.6 50 17:19 28.10.2021
5071 Haze 33 1011 28 4000 2.57 20 16:24 28.10.2021
5072 Clouds 32 1011 28 6000 2.06 300 14:40 28.10.2021
5073 Haze 32 1012 28 4000 3.6 310 13:30 28.10.2021
5074 Haze 34 1012 28 4000 3.09 310 12:47 28.10.2021
5075 Haze 28 1013 28 4000 2.06 330 11:20 28.10.2021
5076 Haze 28 1014 27 4000 1.03 0 09:40 28.10.2021
5077 Haze 26 1014 41 4000 0 0 09:22 28.10.2021
5078 Clouds 23 1014 53 6000 0.51 0 08:35 28.10.2021
5079 Clouds 24 1013 27 10000 0 0 07:40 28.10.2021
5080 Clear 23 1014 27 10000 8.23 70 00:40 28.10.2021
5081 Clear 24 1015 34 10000 6.69 60 22:45 27.10.2021
5082 Clear 24 1016 60 10000 7.2 50 21:35 27.10.2021
5083 Clear 25 1015 57 10000 6.69 40 20:58 27.10.2021
5084 Clear 25 1015 57 10000 6.69 40 20:39 27.10.2021
5085 Clear 25 1015 57 10000 5.66 40 19:44 27.10.2021
5086 Clear 27 1015 34 10000 5.14 30 18:55 27.10.2021
5087 Clear 30 1014 34 10000 7.72 50 16:55 27.10.2021
5088 Clear 31 1014 34 10000 7.72 50 16:24 27.10.2021
5089 Clear 32 1014 34 10000 6.17 40 15:24 27.10.2021
5090 Clear 31 1014 39 10000 4.63 50 14:19 27.10.2021
5091 Clear 26 1016 39 10000 6.69 50 11:18 27.10.2021
5092 Clear 25 1017 65 10000 6.17 50 10:36 27.10.2021
5093 Clear 22 1017 38 10000 5.14 60 09:21 27.10.2021
5094 Clear 22 1016 38 6000 3.6 70 07:39 27.10.2021
5095 Clear 20 1015 38 10000 3.6 50 05:38 27.10.2021
5096 Clear 22 1016 40 10000 4.69 49 01:21 27.10.2021
5097 Clear 21 1017 40 10000 5.14 50 00:54 27.10.2021
5098 Clear 22 1017 48 10000 4.12 40 23:52 26.10.2021
5099 Clear 23 1017 48 10000 5.14 40 22:44 26.10.2021
5100 Clear 23 1017 48 10000 5.14 40 22:21 26.10.2021
5101 Clear 24 1017 48 10000 5.66 30 21:32 26.10.2021
5102 Clear 23 1016 64 10000 8.23 30 19:48 26.10.2021
5103 Clear 26 1016 48 10000 7.72 30 19:18 26.10.2021
5104 Clear 27 1015 48 10000 6.69 20 17:58 26.10.2021
5105 Clear 29 1014 48 10000 6.17 10 15:49 26.10.2021
5106 Clear 29 1015 50 10000 5.66 30 12:55 26.10.2021
5107 Clear 26 1016 50 10000 6.69 40 10:54 26.10.2021
5108 Clear 22 1016 50 10000 5.14 40 08:41 26.10.2021
5109 Clear 20 1016 50 10000 3.6 60 07:22 26.10.2021
5110 Clear 21 1016 68 10000 3.09 40 00:19 26.10.2021
5111 Clear 21 1016 68 10000 3.09 30 23:36 25.10.2021
5112 Clouds 23 1017 50 10000 4.63 30 22:33 25.10.2021
5113 Clouds 23 1017 50 10000 7.2 30 21:43 25.10.2021
5114 Clouds 24 1016 50 10000 6.17 20 20:37 25.10.2021
5115 Clear 24 1016 57 10000 6.69 350 19:43 25.10.2021
5116 Clear 25 1015 50 10000 4.12 360 19:22 25.10.2021
5117 Clear 26 1015 50 10000 7.2 340 18:38 25.10.2021
5118 Clear 26 1015 50 10000 4.12 360 17:34 25.10.2021
5119 Clouds 29 1015 49 10000 3.09 360 14:53 25.10.2021
5120 Clouds 25 1016 49 10000 4.63 360 12:33 25.10.2021
5121 Clouds 25 1017 49 6000 3.6 350 10:47 25.10.2021
5122 Haze 21 1017 49 3000 1.54 10 08:58 25.10.2021
5123 Clear 20 1017 49 6000 2.06 70 07:19 25.10.2021
5124 Clear 20 1017 73 6000 2.06 10 04:35 25.10.2021
5125 Clear 20 1018 49 10000 2.57 30 00:52 25.10.2021
5126 Clear 21 1018 49 10000 2.57 30 00:33 25.10.2021
5127 Clear 21 1018 43 10000 3.6 30 23:41 24.10.2021
5128 Clear 23 1018 43 10000 5.14 30 22:39 24.10.2021
5129 Clear 23 1018 43 10000 5.14 30 22:19 24.10.2021
5130 Clear 23 1018 56 10000 5.14 20 21:18 24.10.2021
5131 Clear 24 1018 43 10000 6.17 20 20:34 24.10.2021
5132 Clear 24 1018 43 10000 5.14 360 19:40 24.10.2021
5133 Clear 25 1017 43 10000 5.14 340 18:29 24.10.2021
5134 Clouds 26 1017 43 10000 5.66 350 17:44 24.10.2021
5135 Clouds 28 1017 43 10000 5.14 350 15:56 24.10.2021
5136 Clear 28 1017 47 10000 5.66 340 14:42 24.10.2021
5137 Clear 25 1018 47 10000 6.17 30 13:19 24.10.2021
5138 Clear 26 1019 47 10000 6.17 20 11:56 24.10.2021
5139 Clear 23 1019 47 10000 6.17 20 11:26 24.10.2021
5140 Clear 22 1020 47 10000 4.12 40 10:28 24.10.2021
5141 Clouds 19 1019 47 10000 0 0 07:59 24.10.2021
5142 Clouds 20 1021 47 10000 4.63 350 01:26 24.10.2021
5143 Clouds 20 1021 50 10000 4.63 360 23:51 23.10.2021
5144 Clouds 22 1021 50 6000 5.14 350 22:32 23.10.2021
5145 Clouds 24 1021 50 6000 6.69 360 20:37 23.10.2021
5146 Clouds 25 1020 50 6000 6.17 350 18:59 23.10.2021
5147 Clouds 26 1020 50 6000 4.12 350 18:30 23.10.2021
5148 Clouds 27 1019 50 6000 5.14 340 17:43 23.10.2021
5149 Clouds 26 1019 50 10000 5.14 330 16:38 23.10.2021
5150 Clouds 27 1019 48 10000 5.66 330 14:35 23.10.2021
5151 Clouds 23 1021 49 6000 5.14 20 09:45 23.10.2021
5152 Clouds 22 1021 48 10000 3.6 340 00:28 23.10.2021
5153 Clouds 23 1021 53 10000 3.6 340 23:23 22.10.2021
5154 Clouds 24 1020 53 10000 5.14 360 20:56 22.10.2021
5155 Clouds 25 1019 53 10000 6.17 10 18:57 22.10.2021
5156 Clouds 26 1019 53 10000 5.66 20 17:44 22.10.2021
5157 Clouds 27 1018 53 10000 5.14 20 15:57 22.10.2021
5158 Clouds 26 1018 46 10000 5.66 20 14:31 22.10.2021
5159 Clouds 27 1020 46 6000 3.6 330 12:41 22.10.2021
5160 Clear 25 1021 46 6000 2.06 360 10:50 22.10.2021
5161 Clear 23 1021 46 6000 0 0 09:56 22.10.2021
5162 Clear 23 1021 46 6000 0 0 09:56 22.10.2021
5163 Clear 21 1021 46 6000 0 0 09:32 22.10.2021
5164 Clear 19 1020 46 6000 1.54 290 07:28 22.10.2021
5165 Clear 20 1019 46 6000 0 0 06:19 22.10.2021
5166 Clouds 21 1021 45 10000 4.12 340 00:31 22.10.2021
5167 Clouds 21 1020 44 6000 1.54 360 23:48 21.10.2021
5168 Clouds 22 1021 44 10000 4.12 340 22:22 21.10.2021
5169 Clouds 23 1021 44 10000 5.14 340 21:19 21.10.2021
5170 Clouds 24 1020 44 10000 4.63 350 20:21 21.10.2021
5171 Clouds 25 1020 44 10000 6.69 330 19:31 21.10.2021
5172 Clouds 25 1020 44 10000 6.17 340 18:59 21.10.2021
5173 Clouds 26 1020 44 10000 5.14 340 18:27 21.10.2021
5174 Clouds 25 1019 50 10000 5.66 330 17:47 21.10.2021
5175 Clouds 25 1019 50 10000 5.66 330 17:47 21.10.2021
5176 Clouds 26 1019 44 10000 4.63 330 16:26 21.10.2021
5177 Clouds 27 1019 44 10000 4.12 330 15:21 21.10.2021
5178 Clear 28 1020 45 10000 5.14 340 14:50 21.10.2021
5179 Clear 26 1020 45 10000 4.12 330 13:27 21.10.2021
5180 Clear 26 1021 45 10000 3.6 340 11:47 21.10.2021
5181 Clear 22 1022 45 10000 3.13 355 09:24 21.10.2021
5182 Haze 19 1021 45 3000 0 0 07:32 21.10.2021
5183 Clear 19 1021 45 10000 0 0 05:33 21.10.2021
5184 Clear 21 1022 44 10000 2.57 350 00:22 21.10.2021
5185 Clear 22 1023 48 10000 3.09 360 22:22 20.10.2021
5186 Clear 22 1023 48 10000 3.09 350 21:46 20.10.2021
5187 Clear 23 1022 48 10000 4.12 350 20:57 20.10.2021
5188 Clear 23 1022 48 10000 4.12 350 20:37 20.10.2021
5189 Clouds 23 1022 48 10000 4.63 350 19:59 20.10.2021
5190 Clouds 24 1022 48 10000 4.63 340 19:18 20.10.2021
5191 Clouds 26 1020 48 10000 5.14 340 18:29 20.10.2021
5192 Clouds 27 1020 48 10000 5.14 10 15:57 20.10.2021
5193 Clouds 28 1020 44 10000 3.6 330 13:46 20.10.2021
5194 Clouds 24 1022 44 6000 4.63 360 09:50 20.10.2021
5195 Clear 21 1021 44 10000 1.54 340 05:28 20.10.2021
5196 -273 0 0 0 0 0 01:24 20.10.2021
5197 Clear 23 1022 45 10000 2.57 350 00:28 20.10.2021
5198 Clear 24 1022 45 10000 3.09 360 22:28 19.10.2021
5199 Clear 23 1021 45 10000 3.6 20 21:33 19.10.2021
5200 Clear 25 1021 45 10000 5.14 10 20:26 19.10.2021
5201 Clear 25 1021 45 10000 5.14 10 19:51 19.10.2021
5202 Clear 26 1021 45 10000 4.63 360 19:29 19.10.2021
5203 Clear 27 1020 45 10000 5.66 340 18:23 19.10.2021
5204 Clouds 27 1019 45 10000 5.14 330 17:20 19.10.2021
5205 Clouds 27 1019 45 10000 4.12 330 15:26 19.10.2021
5206 Clouds 27 1019 44 10000 3.6 340 14:31 19.10.2021
5207 Clouds 29 1019 44 10000 4.12 350 13:49 19.10.2021
5208 Clouds 26 1020 44 10000 4.12 330 11:58 19.10.2021
5209 Clouds 25 1020 44 10000 5.14 330 11:23 19.10.2021
5210 Haze 24 1021 44 4000 3.09 20 09:42 19.10.2021
5211 Haze 23 1020 44 2000 1.54 340 08:56 19.10.2021
5212 Clouds 23 1020 44 10000 2.57 10 00:36 19.10.2021
5213 Clouds 22 1020 43 10000 3.6 10 23:56 18.10.2021
5214 Clouds 23 1020 43 10000 3.6 10 23:22 18.10.2021
5215 Clouds 22 1020 43 10000 4.63 10 22:55 18.10.2021
5216 Clouds 23 1020 43 10000 4.63 10 22:18 18.10.2021
5217 Clear 25 1019 43 10000 6.23 16 20:46 18.10.2021
5218 Clouds 25 1018 43 10000 5.66 20 20:21 18.10.2021
5219 Clouds 26 1018 43 10000 6.17 10 19:31 18.10.2021
5220 Clouds 26 1017 43 10000 5.14 20 18:58 18.10.2021
5221 Clouds 27 1016 43 10000 3.6 330 16:33 18.10.2021
5222 Clouds 27 1017 44 10000 4.12 340 14:44 18.10.2021
5223 Clouds 26 1018 44 10000 3.09 20 11:59 18.10.2021
5224 Clouds 24 1019 44 6000 3.6 350 09:48 18.10.2021
5225 Clouds 21 1019 44 6000 2.06 10 08:21 18.10.2021
5226 Clouds 24 1018 44 10000 4.63 50 00:30 18.10.2021
5227 Clouds 24 1019 27 10000 4.63 40 22:48 17.10.2021
5228 Clouds 25 1019 27 10000 4.12 50 21:44 17.10.2021
5229 Clear 25 1018 61 10000 5.14 10 20:57 17.10.2021
5230 Clear 26 1018 47 10000 5.14 10 20:25 17.10.2021
5231 Clear 26 1018 47 10000 5.14 10 19:38 17.10.2021
5232 Clouds 29 1016 27 10000 5.54 326 18:35 17.10.2021
5233 Clear 30 1016 27 10000 3.6 330 16:49 17.10.2021
5234 Clear 31 1016 36 10000 3.6 300 14:40 17.10.2021
5235 Clear 30 1016 36 10000 3.6 300 14:22 17.10.2021
5236 Clear 30 1017 36 10000 3.09 310 13:33 17.10.2021
5237 Clear 30 1018 36 10000 1.54 350 11:54 17.10.2021
5238 Clouds 26 1018 36 10000 3.09 30 10:20 17.10.2021
5239 Clouds 25 1019 36 10000 2.57 60 09:22 17.10.2021
5240 Clouds 23 1018 36 6000 2.06 90 06:55 17.10.2021
5241 Clouds 24 1018 36 6000 1.03 40 00:49 17.10.2021
5242 Clouds 26 1018 53 6000 1.03 50 23:33 16.10.2021
5243 Clouds 28 1017 44 6000 3.09 40 21:29 16.10.2021
5244 Clouds 29 1017 32 6000 3.09 360 20:30 16.10.2021
5245 Clouds 29 1017 26 6000 1.54 340 19:43 16.10.2021
5246 Clouds 30 1016 28 10000 1.03 340 19:21 16.10.2021
5247 Clouds 30 1016 26 10000 1.54 340 18:47 16.10.2021
5248 Clouds 31 1016 26 10000 1.54 350 18:29 16.10.2021
5249 Clouds 32 1016 26 10000 1.54 330 17:53 16.10.2021
5250 Clouds 32 1016 26 10000 3.09 320 17:21 16.10.2021
5251 Clouds 33 1016 26 10000 5.14 290 13:59 16.10.2021
5252 Clouds 30 1016 26 10000 1.54 290 11:31 16.10.2021
5253 Clouds 28 1017 26 10000 1.03 300 10:25 16.10.2021
5254 Clouds 24 1016 26 10000 1.03 10 06:51 16.10.2021
5255 Clear 26 1016 26 10000 3.09 50 01:25 16.10.2021
5256 Clear 26 1016 33 10000 2.57 70 23:50 15.10.2021
5257 Clear 27 1016 33 10000 3.6 60 22:24 15.10.2021
5258 Clear 28 1016 33 10000 2.57 60 21:56 15.10.2021
5259 Clear 28 1016 33 10000 3.6 70 21:25 15.10.2021
5260 Clear 27 1016 36 10000 3.6 40 20:45 15.10.2021
5261 Clear 29 1015 28 10000 4.12 50 19:26 15.10.2021
5262 Clear 30 1014 28 10000 5.66 50 18:40 15.10.2021
5263 Clear 33 1014 33 10000 3.6 10 16:28 15.10.2021
5264 Clear 33 1014 33 10000 3.6 60 15:28 15.10.2021
5265 Clear 34 1015 39 10000 4.63 70 12:42 15.10.2021
5266 Clear 29 1015 39 10000 5.14 50 11:31 15.10.2021
5267 Clear 30 1015 39 10000 4.63 80 10:43 15.10.2021
5268 Clear 28 1015 39 10000 5.14 70 09:46 15.10.2021
5269 Clouds 23 1015 39 10000 3.09 70 05:32 15.10.2021
5270 Clear 24 1015 40 10000 3.09 60 01:45 15.10.2021
5271 Clear 25 1015 40 10000 2.57 70 00:21 15.10.2021
5272 Clear 25 1016 38 10000 5.14 60 22:51 14.10.2021
5273 Clear 24 1016 73 10000 5.66 60 21:44 14.10.2021
5274 Clear 25 1016 65 10000 5.66 60 20:48 14.10.2021
5275 Clear 26 1016 53 10000 5.66 50 20:18 14.10.2021
5276 Clear 28 1015 42 10000 6.69 50 19:33 14.10.2021
5277 Clear 31 1014 29 10000 6.17 40 17:31 14.10.2021
5278 Clouds 32 1014 27 10000 7.2 30 16:49 14.10.2021
5279 Clear 33 1013 38 10000 6.17 20 15:44 14.10.2021
5280 Clear 34 1013 40 10000 5.14 30 14:43 14.10.2021
5281 Clear 34 1014 40 10000 5.14 60 13:39 14.10.2021
5282 Clouds 32 1016 40 10000 6.17 70 11:44 14.10.2021
5283 Clouds 28 1016 39 10000 5.14 60 09:55 14.10.2021
5284 Clouds 28 1016 39 10000 5.14 60 09:55 14.10.2021
5285 Clouds 23 1015 39 10000 5.11 54 06:56 14.10.2021
5286 Clouds 23 1014 83 10000 5.48 33 00:59 14.10.2021
5287 Clouds 24 1014 40 10000 5.71 39 00:25 14.10.2021
5288 Clear 25 1015 69 10000 5.66 50 21:58 13.10.2021
5289 Clear 25 1015 69 10000 5.66 50 21:32 13.10.2021
5290 Clear 28 1014 42 10000 5.66 50 19:59 13.10.2021
5291 Clear 29 1013 34 10000 5.66 40 18:54 13.10.2021
5292 Clear 29 1013 39 10000 5.66 40 18:34 13.10.2021
5293 Clouds 33 1011 34 10000 6.17 20 15:32 13.10.2021
5294 Clouds 34 1011 37 10000 6.69 30 14:45 13.10.2021
5295 Clouds 33 1011 37 10000 6.69 30 14:21 13.10.2021
5296 Clouds 31 1012 37 10000 5.66 40 12:22 13.10.2021
5297 Clouds 30 1013 37 10000 5.66 40 11:35 13.10.2021
5298 Clear 26 1013 37 10000 3.6 60 08:42 13.10.2021
5299 Clouds 24 1013 37 6000 2.06 50 06:51 13.10.2021
5300 Clear 23 1012 83 10000 3.6 40 02:28 13.10.2021
5301 Clear 24 1012 38 10000 3.09 40 01:43 13.10.2021
5302 Clear 26 1012 43 10000 4.63 20 23:30 12.10.2021
5303 Clear 26 1012 43 10000 4.63 20 23:30 12.10.2021
5304 Clear 26 1012 43 10000 5.66 20 22:46 12.10.2021
5305 Clear 27 1012 43 10000 4.63 360 21:50 12.10.2021
5306 Clouds 29 1010 43 10000 3.6 10 20:34 12.10.2021
5307 Clouds 29 1010 43 10000 3.6 10 19:57 12.10.2021
5308 Clouds 29 1009 28 10000 4.63 30 18:36 12.10.2021
5309 Clear 31 1008 30 10000 8.75 40 17:57 12.10.2021
5310 Clear 33 1007 43 10000 8.23 10 16:39 12.10.2021
5311 Clear 34 1007 43 10000 8.23 10 15:58 12.10.2021
5312 Clear 35 1007 44 10000 6.17 360 14:45 12.10.2021
5313 Clear 34 1008 43 10000 5.66 360 13:43 12.10.2021
5314 Clear 33 1009 43 10000 6.17 20 12:39 12.10.2021
5315 Clouds 28 1011 42 10000 4.63 360 09:46 12.10.2021
5316 Clouds 26 1011 42 10000 2.57 50 08:44 12.10.2021
5317 Clear 22 1011 94 10000 4.22 32 07:36 12.10.2021
5318 Clouds 23 1010 83 8000 2.06 350 05:31 12.10.2021
5319 Clouds 23 1010 42 8000 4.12 10 04:32 12.10.2021
5320 Clouds 23 1011 83 6000 6.17 40 00:28 12.10.2021
5321 Clouds 24 1011 73 10000 6.17 10 23:41 11.10.2021
5322 Clouds 23 1011 78 10000 7.2 30 22:57 11.10.2021
5323 Clouds 24 1012 69 10000 7.2 40 21:46 11.10.2021
5324 Clouds 25 1012 65 10000 6.17 40 21:18 11.10.2021
5325 Clouds 26 1012 61 10000 7.72 30 19:46 11.10.2021
5326 Clouds 29 1011 39 10000 7.2 20 18:43 11.10.2021
5327 Clear 30 1011 37 10000 7.2 20 17:54 11.10.2021
5328 Clear 33 1011 39 10000 8.23 30 16:39 11.10.2021
5329 Clear 34 1011 39 10000 7.72 30 15:51 11.10.2021
5330 Clear 34 1011 38 10000 7.72 30 14:55 11.10.2021
5331 Clear 32 1011 40 10000 7.72 30 14:33 11.10.2021
5332 Clear 31 1011 40 10000 5.66 30 13:37 11.10.2021
5333 Clear 31 1013 40 10000 5.66 50 11:51 11.10.2021
5334 Clouds 26 1014 40 10000 7.72 40 10:34 11.10.2021
5335 Clouds 25 1014 41 10000 9.77 50 09:37 11.10.2021
5336 Mist 22 1014 41 4000 4.63 50 07:27 11.10.2021
5337 Clear 23 1015 39 10000 4.63 40 01:40 11.10.2021
5338 Clear 24 1015 39 10000 5.66 40 00:48 11.10.2021
5339 Clear 24 1015 39 10000 5.66 40 00:23 11.10.2021
5340 Clear 25 1016 41 10000 7.2 40 21:54 10.10.2021
5341 Clear 24 1016 73 10000 6.69 30 21:32 10.10.2021
5342 Clear 24 1015 73 10000 8.23 30 20:47 10.10.2021
5343 Clear 25 1015 65 10000 7.72 30 20:21 10.10.2021
5344 Clear 25 1015 65 10000 8.75 30 19:59 10.10.2021
5345 Clear 28 1015 41 10000 8.75 30 19:35 10.10.2021
5346 Clear 30 1014 41 10000 9.26 30 18:36 10.10.2021
5347 Clear 32 1014 41 10000 9.26 20 16:46 10.10.2021
5348 Clear 33 1014 41 10000 8.75 20 15:46 10.10.2021
5349 Clear 33 1014 41 10000 8.23 20 13:57 10.10.2021
5350 Clear 30 1014 41 10000 8.75 30 13:33 10.10.2021
5351 Clear 29 1015 41 10000 7.72 30 12:35 10.10.2021
5352 Clear 29 1015 41 10000 6.69 30 10:44 10.10.2021
5353 Clear 24 1016 41 10000 8.23 50 09:30 10.10.2021
5354 Clouds 25 1016 41 10000 8.75 40 08:53 10.10.2021
5355 Clouds 21 1016 41 10000 4.63 30 07:28 10.10.2021
5356 Clear 22 1016 41 10000 3.6 50 02:45 10.10.2021
5357 Clear 23 1016 41 10000 4.12 40 00:58 10.10.2021
5358 Clear 23 1016 41 10000 4.63 40 00:29 10.10.2021
5359 Clear 24 1017 50 10000 6.17 20 22:53 09.10.2021
5360 Clear 25 1017 50 10000 6.69 30 21:47 09.10.2021
5361 Clear 25 1017 50 10000 6.69 30 21:28 09.10.2021
5362 Clear 25 1016 61 10000 8.75 30 19:44 09.10.2021
5363 Clear 28 1016 50 10000 8.75 20 19:19 09.10.2021
5364 Clear 26 1015 57 10000 9.26 30 18:33 09.10.2021
5365 Clear 31 1014 50 10000 7.2 10 17:20 09.10.2021
5366 Clear 30 1014 50 10000 6.69 360 15:33 09.10.2021
5367 Clear 32 1014 45 10000 6.17 10 13:45 09.10.2021
5368 Clear 31 1015 45 10000 6.17 20 12:40 09.10.2021
5369 Clear 29 1015 45 10000 6.69 30 11:48 09.10.2021
5370 Clouds 28 1016 45 10000 6.17 30 10:42 09.10.2021
5371 Clear 26 1016 45 10000 6.69 40 09:40 09.10.2021
5372 Clear 21 1015 45 10000 5.14 30 08:30 09.10.2021
5373 Clear 22 1015 45 10000 4.12 50 07:48 09.10.2021
5374 Clear 21 1014 45 10000 3.6 50 05:29 09.10.2021
5375 Clear 21 1015 45 10000 4.12 30 02:59 09.10.2021
5376 Clear 21 1015 45 10000 3.6 20 02:40 09.10.2021
5377 Clear 23 1015 46 10000 5.66 360 23:51 08.10.2021
5378 Clear 24 1015 46 10000 5.14 10 22:55 08.10.2021
5379 Clear 25 1015 46 10000 6.17 20 22:24 08.10.2021
5380 Clear 24 1015 64 10000 7.72 30 20:55 08.10.2021
5381 Clear 26 1013 53 10000 8.75 30 18:54 08.10.2021
5382 Clear 30 1013 46 10000 7.2 10 17:36 08.10.2021
5383 Clear 31 1012 46 10000 6.17 360 16:51 08.10.2021
5384 Clear 30 1012 46 10000 6.17 360 16:23 08.10.2021
5385 Clear 31 1013 44 10000 6.17 10 13:57 08.10.2021
5386 Clouds 30 1014 44 10000 5.14 10 12:56 08.10.2021
5387 Clouds 27 1015 44 10000 6.17 20 11:33 08.10.2021
5388 Clouds 27 1015 44 10000 6.17 10 10:41 08.10.2021
5389 Clouds 23 1015 44 10000 6.17 20 09:18 08.10.2021
5390 Clear 23 1014 43 10000 4.63 30 23:59 07.10.2021
5391 Clear 24 1014 43 10000 5.14 40 23:19 07.10.2021
5392 Clear 25 1014 43 10000 7.2 20 21:46 07.10.2021
5393 Clear 26 1014 43 10000 7.72 30 21:23 07.10.2021
5394 Clear 25 1014 57 10000 8.75 30 20:20 07.10.2021
5395 Clear 28 1013 43 10000 8.75 20 19:29 07.10.2021
5396 Clear 27 1012 57 10000 8.23 20 18:22 07.10.2021
5397 Clear 30 1012 43 10000 6.69 10 17:18 07.10.2021
5398 Clear 31 1011 43 10000 5.14 10 15:50 07.10.2021
5399 Clear 31 1012 43 10000 6.17 360 13:52 07.10.2021
5400 Clear 28 1012 43 10000 6.17 20 13:34 07.10.2021
5401 Clear 30 1013 43 10000 6.17 30 12:40 07.10.2021
5402 Clear 27 1014 43 10000 6.17 30 10:52 07.10.2021
5403 Clear 27 1014 43 10000 6.17 30 10:52 07.10.2021
5404 Clear 24 1014 43 10000 7.2 40 10:19 07.10.2021
5405 Clear 23 1014 43 10000 6.17 30 09:33 07.10.2021
5406 Clouds 24 1014 43 10000 5.66 10 08:41 07.10.2021
5407 Clouds 23 1014 43 10000 2.57 30 07:42 07.10.2021
5408 Clouds 20 1014 43 10000 2.57 50 07:19 07.10.2021
5409 Clear 22 1013 44 10000 3.6 360 02:26 07.10.2021
5410 Clear 23 1014 47 10000 4.12 360 23:55 06.10.2021
5411 Clear 23 1014 47 10000 5.66 360 22:51 06.10.2021
5412 Clear 24 1014 47 10000 6.69 360 21:53 06.10.2021
5413 Clear 26 1013 47 10000 7.2 20 20:38 06.10.2021
5414 Clear 26 1013 47 10000 6.17 20 19:53 06.10.2021
5415 Clear 28 1013 47 10000 5.66 360 18:40 06.10.2021
5416 Clear 30 1012 47 10000 6.17 10 16:56 06.10.2021
5417 Clouds 29 1012 47 10000 5.14 340 15:27 06.10.2021
5418 Clouds 28 1012 44 10000 5.66 360 14:22 06.10.2021
5419 Clouds 29 1014 44 10000 5.66 340 12:59 06.10.2021
5420 Clouds 29 1014 44 10000 5.66 340 12:41 06.10.2021
5421 Clouds 27 1014 44 10000 5.66 340 12:21 06.10.2021
5422 Clouds 24 1014 44 6000 5.14 10 10:18 06.10.2021
5423 Clouds 22 1014 44 6000 4.63 340 09:39 06.10.2021
5424 Mist 24 1014 44 3000 4.12 350 08:42 06.10.2021
5425 Mist 22 1014 44 3000 3.09 340 07:48 06.10.2021
5426 Clear 20 1014 77 10000 2.06 350 05:26 06.10.2021
5427 Clear 23 1015 44 10000 3.6 340 00:28 06.10.2021
5428 Clear 22 1015 48 10000 4.12 350 23:58 05.10.2021
5429 Clear 23 1015 48 10000 4.12 350 23:39 05.10.2021
5430 Clear 23 1015 48 10000 4.12 360 23:20 05.10.2021
5431 Clear 24 1015 48 10000 5.14 350 22:27 05.10.2021
5432 Clear 24 1015 48 10000 5.14 350 21:49 05.10.2021
5433 Clear 25 1014 48 10000 6.69 350 20:42 05.10.2021
5434 Clear 26 1014 48 10000 7.72 360 20:24 05.10.2021
5435 Clear 26 1014 48 10000 6.17 350 19:43 05.10.2021
5436 Clear 27 1013 48 10000 6.69 350 18:54 05.10.2021
5437 Clear 29 1013 48 10000 5.14 360 16:38 05.10.2021
5438 Clear 28 1013 44 10000 4.12 330 14:36 05.10.2021
5439 Clouds 27 1013 44 6000 3.09 360 13:35 05.10.2021
5440 Clouds 29 1014 44 6000 4.63 10 12:47 05.10.2021
5441 Clouds 26 1014 44 6000 3.09 20 12:18 05.10.2021
5442 Clouds 26 1015 44 6000 4.12 10 10:59 05.10.2021
5443 Clouds 22 1015 64 6000 2.57 340 09:26 05.10.2021
5444 Haze 20 1014 44 4000 3.09 330 04:47 05.10.2021
5445 Clouds 23 1016 49 6000 5.14 340 23:53 04.10.2021
5446 Clouds 24 1016 49 6000 4.63 350 22:38 04.10.2021
5447 Clouds 24 1015 60 6000 7.72 350 19:59 04.10.2021
5448 Clouds 28 1014 49 6000 7.2 340 18:34 04.10.2021
5449 Clouds 28 1014 49 6000 7.2 340 18:34 04.10.2021
5450 Clouds 29 1014 49 10000 6.17 330 16:24 04.10.2021
5451 Clouds 29 1014 49 10000 7.2 330 15:31 04.10.2021
5452 Clouds 31 1014 44 10000 2.57 360 14:43 04.10.2021
5453 Clouds 31 1015 45 10000 4.63 340 13:57 04.10.2021
5454 Clouds 27 1015 45 10000 4.63 340 13:25 04.10.2021
5455 Clouds 27 1015 45 10000 2.57 10 12:27 04.10.2021
5456 Clouds 25 1016 45 10000 5.14 360 11:31 04.10.2021
5457 Clouds 24 1016 45 10000 6.17 20 10:18 04.10.2021
5458 Mist 24 1016 45 4000 4.63 340 08:42 04.10.2021
5459 Mist 21 1016 45 4000 2.06 30 07:36 04.10.2021
5460 Clear 23 1016 45 10000 3.6 360 00:40 04.10.2021
5461 Clear 24 1016 51 10000 5.66 350 22:37 03.10.2021
5462 Clear 24 1016 60 10000 6.17 350 21:41 03.10.2021
5463 Clear 25 1016 51 10000 6.17 350 21:22 03.10.2021
5464 Clear 25 1016 53 10000 7.2 350 19:59 03.10.2021
5465 Clear 27 1015 51 10000 6.17 340 19:30 03.10.2021
5466 Clouds 29 1014 51 10000 6.17 340 18:27 03.10.2021
5467 Clouds 29 1014 51 10000 4.63 340 17:24 03.10.2021
5468 Clouds 31 1014 45 10000 3.6 340 14:47 03.10.2021
5469 Clouds 28 1014 45 10000 5.14 340 14:18 03.10.2021
5470 Clouds 28 1015 45 10000 4.12 320 13:34 03.10.2021
5471 Clouds 26 1015 45 10000 3.09 310 12:29 03.10.2021
5472 Clouds 27 1015 45 10000 3.09 300 10:43 03.10.2021
5473 Clouds 25 1015 45 10000 4.12 320 08:43 03.10.2021
5474 Clouds 24 1014 48 10000 3.6 320 01:51 03.10.2021
5475 Clouds 25 1014 49 10000 5.66 320 22:40 02.10.2021
5476 Clouds 25 1014 65 10000 7.2 330 20:57 02.10.2021
5477 Clouds 26 1013 57 10000 6.69 330 19:50 02.10.2021
5478 Clear 27 1012 54 10000 6.17 310 18:54 02.10.2021
5479 Clear 28 1011 44 10000 4.63 320 17:57 02.10.2021
5480 Clear 29 1011 49 10000 4.63 300 17:21 02.10.2021
5481 Clouds 29 1011 49 10000 3.09 310 15:29 02.10.2021
5482 Clouds 33 1010 47 10000 5.14 340 16:50 30.09.2021
5483 Clear 32 1010 47 10000 4.63 330 15:36 30.09.2021
5484 Clear 31 1011 44 10000 4.63 320 13:20 30.09.2021
5485 Clouds 28 1012 44 6000 4.63 330 11:37 30.09.2021
5486 Haze 30 1013 44 4000 2.06 320 10:43 30.09.2021
5487 Mist 26 1013 44 4000 2.57 20 09:32 30.09.2021
5488 Mist 25 1012 44 4000 1.03 10 08:29 30.09.2021
5489 Mist 24 1012 44 4000 2.06 330 07:23 30.09.2021
5490 Clouds 23 1012 44 6000 3.09 340 04:52 30.09.2021
5491 Clouds 25 1013 45 6000 3.6 350 01:19 30.09.2021
5492 Clear 24 1013 73 10000 4.12 340 23:55 29.09.2021
5493 Clear 25 1013 69 10000 4.63 340 22:28 29.09.2021
5494 Clear 26 1013 61 10000 5.14 320 21:24 29.09.2021
5495 Clear 29 1013 45 10000 6.17 330 20:24 29.09.2021
5496 Clear 28 1013 47 10000 4.63 320 19:43 29.09.2021
5497 Clear 31 1011 45 10000 4.12 350 18:28 29.09.2021
5498 Clear 32 1011 45 10000 5.66 310 17:34 29.09.2021
5499 Clear 33 1011 45 10000 3.09 310 16:46 29.09.2021
5500 Clear 34 1011 45 10000 4.12 350 15:49 29.09.2021
5501 Clear 30 1012 43 10000 2.06 330 14:39 29.09.2021
5502 Clear 33 1012 43 10000 3.09 290 13:42 29.09.2021
5503 Clear 32 1013 43 10000 1.54 200 12:50 29.09.2021
5504 Clouds 31 1013 43 10000 2.06 290 11:54 29.09.2021
5505 Clouds 29 1013 43 10000 2.06 340 10:44 29.09.2021
5506 Clouds 27 1014 43 10000 3.6 350 09:49 29.09.2021
5507 Clouds 26 1014 43 10000 3.6 10 08:49 29.09.2021
5508 Haze 24 1013 43 4000 0.51 80 07:31 29.09.2021
5509 Clear 24 1013 43 10000 2.06 10 03:39 29.09.2021
5510 Clear 26 1014 48 10000 4.12 350 23:26 28.09.2021
5511 Clouds 27 1014 48 6000 4.63 360 22:23 28.09.2021
5512 Clear 26 1014 61 10000 5.14 350 21:35 28.09.2021
5513 Clear 29 1013 48 10000 6.17 350 20:36 28.09.2021
5514 Clear 30 1013 48 10000 4.63 320 19:43 28.09.2021
5515 Clear 30 1012 48 10000 4.12 310 18:46 28.09.2021
5516 Clear 32 1012 48 10000 4.63 300 17:54 28.09.2021
5517 Clear 33 1012 48 10000 4.63 320 15:56 28.09.2021
5518 Clear 32 1012 44 10000 5.14 290 13:44 28.09.2021
5519 Clear 31 1013 44 10000 3.6 330 12:47 28.09.2021
5520 Clouds 28 1013 44 10000 3.6 290 12:19 28.09.2021
5521 Clouds 30 1014 44 10000 2.57 280 11:45 28.09.2021
5522 Clouds 29 1014 44 10000 3.6 310 10:55 28.09.2021
5523 Clouds 27 1014 44 6000 2.57 310 09:53 28.09.2021
5524 Clouds 26 1014 44 6000 2.06 340 08:58 28.09.2021
5525 Clouds 24 1014 44 6000 2.06 340 08:38 28.09.2021
5526 Clear 24 1014 44 10000 2.82 322 07:47 28.09.2021
5527 Clear 21 1013 44 10000 2.88 332 05:28 28.09.2021
5528 Clear 24 1013 45 10000 3.74 333 01:23 28.09.2021
5529 Clouds 25 1014 45 10000 2.57 320 00:25 28.09.2021
5530 Clouds 25 1014 48 10000 3.09 300 23:41 27.09.2021
5531 Clouds 25 1014 48 10000 3.6 330 22:56 27.09.2021
5532 Clouds 26 1014 48 10000 5.14 310 21:54 27.09.2021
5533 Clouds 25 1014 57 10000 5.14 330 20:45 27.09.2021
5534 Clouds 28 1013 48 10000 5.66 310 19:56 27.09.2021
5535 Clouds 29 1013 48 10000 5.66 310 19:28 27.09.2021
5536 Clouds 29 1013 48 10000 4.12 330 18:50 27.09.2021
5537 Clouds 29 1012 48 10000 6.17 290 17:30 27.09.2021
5538 Clouds 31 1012 48 10000 6.17 290 16:50 27.09.2021
5539 Clouds 30 1012 48 10000 3.6 340 15:45 27.09.2021
5540 Clear 30 1010 48 10000 4.27 308 15:19 27.09.2021
5541 Clouds 28 1013 44 10000 3.6 320 13:32 27.09.2021
5542 Clouds 29 1014 44 10000 3.6 300 11:49 27.09.2021
5543 Clouds 25 1015 44 10000 3.6 320 10:37 27.09.2021
5544 Clouds 24 1015 44 10000 3.6 270 09:28 27.09.2021
5545 Clear 23 1014 44 6000 1.54 160 06:30 27.09.2021
5546 Clear 24 1014 44 6000 2.06 360 03:25 27.09.2021
5547 Clear 25 1015 61 10000 4.63 360 22:39 26.09.2021
5548 Clear 25 1014 61 10000 5.66 360 21:53 26.09.2021
5549 Clear 27 1014 50 10000 5.14 10 21:26 26.09.2021
5550 Clear 28 1014 50 10000 7.2 30 20:23 26.09.2021
5551 Clear 27 1014 54 10000 6.17 20 19:52 26.09.2021
5552 Clouds 28 1013 47 10000 6.17 340 18:48 26.09.2021
5553 Clouds 31 1013 50 10000 5.66 340 17:57 26.09.2021
5554 Clouds 31 1013 50 10000 5.66 340 17:36 26.09.2021
5555 Clouds 31 1013 50 10000 5.66 340 17:18 26.09.2021
5556 Clouds 31 1013 50 10000 4.12 340 16:21 26.09.2021
5557 Clear 30 1013 50 10000 5.14 360 15:22 26.09.2021
5558 Clear 33 1014 43 10000 3.6 360 13:57 26.09.2021
5559 Clear 29 1014 43 10000 3.6 30 13:31 26.09.2021
5560 Clouds 28 1015 43 10000 4.63 20 12:25 26.09.2021
5561 Clouds 31 1015 43 10000 5.14 10 11:52 26.09.2021
5562 Clouds 26 1016 43 10000 5.66 10 10:38 26.09.2021
5563 Clouds 24 1016 44 10000 7.2 30 09:37 26.09.2021
5564 Clouds 22 1016 44 10000 4.12 40 08:20 26.09.2021
5565 Clear 24 1015 44 10000 5.73 12 00:28 26.09.2021
5566 Clear 24 1016 43 10000 5.14 20 23:41 25.09.2021
5567 Clear 25 1016 43 10000 6.17 30 22:39 25.09.2021
5568 Clear 25 1016 43 10000 6.69 20 22:18 25.09.2021
5569 Clear 25 1016 43 10000 7.72 20 21:36 25.09.2021
5570 Clear 24 1016 60 10000 7.72 20 20:52 25.09.2021
5571 Clouds 28 1015 43 10000 9.26 30 19:33 25.09.2021
5572 Clouds 29 1014 43 10000 8.23 20 18:27 25.09.2021
5573 Clouds 29 1014 43 10000 7.72 40 17:19 25.09.2021
5574 Clouds 30 1014 40 10000 5.14 10 14:30 25.09.2021
5575 Clouds 31 1015 40 10000 6.17 40 13:54 25.09.2021
5576 Clouds 28 1015 40 10000 6.17 40 12:37 25.09.2021
5577 Clouds 25 1016 40 6000 13 10 10:42 25.09.2021
5578 Clouds 26 1016 40 6000 7 20 09:59 25.09.2021
5579 Clouds 24 1016 40 6000 1.03 360 08:52 25.09.2021
5580 Clouds 23 1016 40 6000 5 340 07:47 25.09.2021
5581 Clear 22 1016 41 10000 2.57 360 00:52 25.09.2021
5582 Clear 24 1016 47 10000 4.63 330 22:18 24.09.2021
5583 Clear 25 1016 47 10000 4.63 340 21:32 24.09.2021
5584 Clear 26 1015 47 10000 5.66 330 20:32 24.09.2021
5585 Clouds 27 1014 47 10000 6.17 320 19:29 24.09.2021
5586 Clouds 28 1013 47 10000 7.2 300 18:18 24.09.2021
5587 Clouds 29 1013 47 10000 5.66 290 17:42 24.09.2021
5588 Clouds 29 1013 47 10000 5.66 290 17:23 24.09.2021
5589 Clouds 29 1012 47 10000 5.66 290 15:39 24.09.2021
5590 Clouds 29 1012 42 10000 5.14 300 13:21 24.09.2021
5591 Clouds 29 1012 42 10000 5.14 300 13:21 24.09.2021
5592 Clouds 27 1013 42 10000 5.14 290 12:43 24.09.2021
5593 Clouds 27 1013 42 10000 5.14 290 12:25 24.09.2021
5594 Clouds 26 1014 50 10000 5.66 290 10:49 24.09.2021
5595 Clouds 24 1013 60 10000 3.09 300 09:37 24.09.2021
5596 Clouds 24 1013 64 10000 4.63 330 07:57 24.09.2021
5597 Clouds 24 1012 69 10000 4.12 310 06:59 24.09.2021
5598 Clouds 24 1012 69 10000 1.54 10 05:57 24.09.2021
5599 Clouds 25 1011 73 10000 4.12 300 02:29 24.09.2021
5600 Clear 27 1012 65 10000 4.63 290 22:37 23.09.2021
5601 Clear 27 1012 61 10000 5.14 300 21:58 23.09.2021
5602 Clear 27 1011 61 10000 5.66 310 20:52 23.09.2021
5603 Clear 28 1011 57 10000 5.14 300 20:27 23.09.2021
5604 Clear 32 1010 33 10000 5.14 310 18:32 23.09.2021
5605 Clear 33 1010 38 10000 5.66 290 15:53 23.09.2021
5606 Clear 33 1010 35 10000 5.14 300 15:19 23.09.2021
5607 Clear 33 1010 33 10000 4.63 280 14:25 23.09.2021
5608 Clear 32 1011 37 10000 4.63 260 13:27 23.09.2021
5609 Clear 31 1011 37 10000 4.63 270 12:55 23.09.2021
5610 Clear 31 1011 40 10000 4.63 240 12:26 23.09.2021
5611 Clear 30 1012 42 10000 3.6 280 11:57 23.09.2021
5612 Clear 28 1012 47 10000 2.06 290 10:30 23.09.2021
5613 Clear 27 1012 61 10000 2.06 270 09:54 23.09.2021
5614 Clear 25 1012 73 10000 2.06 230 08:56 23.09.2021
5615 Clear 24 1011 78 6000 1.54 300 05:32 23.09.2021
5616 Clear 26 1012 57 6000 2.06 330 23:50 22.09.2021
5617 Clear 26 1012 57 6000 3.6 350 22:50 22.09.2021
5618 Clear 27 1012 54 10000 4.12 350 22:20 22.09.2021
5619 Clear 27 1012 54 10000 5.14 340 21:42 22.09.2021
5620 Clear 29 1011 45 10000 4.63 340 20:57 22.09.2021
5621 Clear 30 1011 39 10000 6.17 340 19:48 22.09.2021
5622 Clear 30 1011 37 10000 5.14 340 19:26 22.09.2021
5623 Clear 32 1010 33 10000 7.2 350 18:30 22.09.2021
5624 Clear 35 1008 19 10000 9 343 17:18 22.09.2021
5625 Clear 34 1009 31 10000 7.2 330 15:38 22.09.2021
5626 Clear 34 1010 29 10000 5.66 300 14:27 22.09.2021
5627 Clouds 33 1011 35 10000 4.63 310 12:55 22.09.2021
5628 Clouds 30 1012 51 10000 4.12 320 11:18 22.09.2021
5629 Clouds 26 1012 73 6000 4.12 320 09:30 22.09.2021
5630 Mist 24 1012 83 3000 3.09 320 08:44 22.09.2021
5631 Mist 24 1012 88 4000 2.57 330 07:33 22.09.2021
5632 Mist 23 1012 83 4000 1.03 70 06:31 22.09.2021
5633 Mist 23 1012 83 4000 1.03 50 05:48 22.09.2021
5634 Clear 25 1012 78 10000 3.09 340 03:59 22.09.2021
5635 Clear 25 1012 78 10000 2.57 330 02:56 22.09.2021
5636 Clear 26 1013 69 10000 4.12 340 23:42 21.09.2021
5637 Clear 28 1014 54 10000 3.6 360 22:26 21.09.2021
5638 Clear 29 1013 39 10000 5.87 16 20:43 21.09.2021
5639 Clear 31 1013 32 10000 6.8 25 19:36 21.09.2021
5640 Clear 33 1012 31 10000 5.66 350 19:18 21.09.2021
5641 Clear 36 1012 28 6000 6.69 360 16:48 21.09.2021
5642 Clear 36 1012 24 6000 6.69 350 15:56 21.09.2021
5643 Clear 36 1012 26 6000 6.17 10 14:59 21.09.2021
5644 Clear 36 1012 26 6000 6.69 30 14:40 21.09.2021
5645 Clear 35 1012 28 6000 6.17 10 13:39 21.09.2021
5646 Clear 34 1013 29 6000 5.14 20 12:44 21.09.2021
5647 Clear 29 1015 58 6000 5.14 30 10:43 21.09.2021
5648 Clouds 27 1015 74 6000 4.63 30 09:28 21.09.2021
5649 Clouds 25 1015 83 6000 4.63 40 07:40 21.09.2021
5650 Clouds 24 1014 88 10000 3.6 10 05:18 21.09.2021
5651 Clear 28 1015 65 10000 2.57 50 23:19 20.09.2021
5652 Clear 29 1015 58 10000 3.09 20 21:51 20.09.2021
5653 Clear 29 1015 61 10000 5.66 10 21:30 20.09.2021
5654 Clear 32 1014 35 10000 5.14 20 19:49 20.09.2021
5655 Clear 34 1013 31 10000 7.2 10 18:36 20.09.2021
5656 Clear 35 1012 29 10000 6.17 360 17:25 20.09.2021
5657 Clear 36 1012 23 10000 7.72 360 16:26 20.09.2021
5658 Clear 36 1012 26 10000 6.17 20 15:43 20.09.2021
5659 Clear 35 1013 31 10000 5.14 40 14:42 20.09.2021
5660 Clear 32 1015 45 10000 6.17 360 12:46 20.09.2021
5661 Clear 32 1015 45 10000 6.17 360 12:26 20.09.2021
5662 Clear 29 1015 61 10000 4.63 20 10:57 20.09.2021
5663 Clear 27 1015 69 10000 6.17 80 09:52 20.09.2021
5664 Clear 27 1015 69 10000 6.17 80 09:33 20.09.2021
5665 Clear 27 1015 69 10000 6.17 80 09:33 20.09.2021
5666 Clear 26 1015 78 10000 5.14 30 08:55 20.09.2021
5667 Clear 24 1014 69 10000 2.06 60 06:34 20.09.2021
5668 Clear 27 1015 54 10000 4.12 50 23:28 19.09.2021
5669 Clear 28 1015 44 10000 4.12 40 21:51 19.09.2021
5670 Clear 29 1015 37 10000 4.12 40 21:21 19.09.2021
5671 Clear 30 1014 35 10000 4.63 60 20:32 19.09.2021
5672 Clear 31 1013 30 10000 5.14 40 18:54 19.09.2021
5673 Clear 32 1013 29 10000 6.69 20 17:57 19.09.2021
5674 Clear 33 1013 27 10000 7.2 20 16:52 19.09.2021
5675 Clear 34 1012 29 10000 6.69 360 15:44 19.09.2021
5676 Clear 34 1013 27 10000 7.2 10 14:49 19.09.2021
5677 Clear 34 1013 29 10000 6.17 30 14:24 19.09.2021
5678 Clear 33 1014 33 10000 7.72 10 12:56 19.09.2021
5679 Clear 31 1014 35 10000 8.23 20 12:35 19.09.2021
5680 Clear 30 1015 42 10000 7.72 50 11:25 19.09.2021
5681 Clouds 27 1015 61 10000 7.72 60 09:58 19.09.2021
5682 Clouds 27 1015 61 10000 7.2 50 09:26 19.09.2021
5683 Clear 23 1014 83 10000 4.63 50 07:18 19.09.2021
5684 Clear 23 1014 78 10000 5.66 30 01:39 19.09.2021
5685 Clear 24 1014 73 10000 6.17 30 23:25 18.09.2021
5686 Clear 26 1014 61 10000 8.23 20 21:58 18.09.2021
5687 Clear 26 1014 57 10000 8.23 20 20:48 18.09.2021
5688 Clear 27 1013 50 10000 8.75 30 20:26 18.09.2021
5689 Clear 28 1012 44 10000 8.23 30 19:37 18.09.2021
5690 Clear 28 1012 44 10000 8.23 30 19:19 18.09.2021
5691 Clear 30 1012 37 10000 7.72 20 18:31 18.09.2021
5692 Clear 31 1011 37 10000 7.2 360 17:22 18.09.2021
5693 Clear 31 1011 37 10000 6.69 360 15:45 18.09.2021
5694 Clear 31 1012 35 10000 6.69 20 13:46 18.09.2021
5695 Clear 31 1012 35 10000 5.14 20 13:24 18.09.2021
5696 Clear 29 1013 39 10000 5.66 40 12:24 18.09.2021
5697 Clouds 29 1013 42 10000 6.17 50 11:34 18.09.2021
5698 Clouds 28 1013 51 10000 6.17 40 10:31 18.09.2021
5699 Clouds 26 1013 57 10000 6.69 40 09:25 18.09.2021
5700 Clouds 25 1013 65 10000 5.14 30 08:29 18.09.2021
5701 Clear 24 1012 64 10000 4.36 6 00:55 18.09.2021
5702 Clear 24 1012 64 10000 4.36 6 00:35 18.09.2021
5703 Clear 25 1012 62 10000 4.58 10 23:44 17.09.2021
5704 Clear 25 1012 59 10000 5.22 13 22:32 17.09.2021
5705 Clear 26 1012 57 10000 6.17 360 21:47 17.09.2021
5706 Clear 27 1012 54 10000 6.17 10 20:18 17.09.2021
5707 Clouds 28 1011 44 10000 6.69 350 18:45 17.09.2021
5708 Clouds 31 1009 35 10000 6.17 10 16:47 17.09.2021
5709 Clouds 31 1009 35 10000 6.17 350 15:32 17.09.2021
5710 Clouds 30 1012 42 10000 5.14 30 12:31 17.09.2021
5711 Clear 30 1012 42 10000 4.12 350 10:40 17.09.2021
5712 Clear 28 1012 54 10000 1.03 330 07:50 17.09.2021
5713 Clear 23 1012 68 10000 3.09 320 06:29 17.09.2021
5714 Clouds 25 1013 65 10000 4.12 330 00:34 17.09.2021
5715 Clouds 25 1013 65 10000 6.17 330 22:46 16.09.2021
5716 Clouds 25 1013 65 10000 5.14 320 22:24 16.09.2021
5717 Clear 26 1013 61 10000 5.14 320 21:36 16.09.2021
5718 Clear 26 1013 53 10000 6.17 310 20:36 16.09.2021
5719 Clear 27 1012 50 10000 8.23 310 19:18 16.09.2021
5720 Clouds 28 1011 47 10000 7.72 310 18:19 16.09.2021
5721 Clouds 31 1011 40 10000 6.69 320 17:22 16.09.2021
5722 Clouds 30 1011 51 10000 4.12 330 14:51 16.09.2021
5723 Clouds 31 1012 40 10000 5.66 290 13:47 16.09.2021
5724 Clouds 29 1013 39 10000 4.63 290 12:47 16.09.2021
5725 Clouds 29 1013 42 10000 3.6 280 12:26 16.09.2021
5726 Clouds 29 1014 61 10000 3.09 340 11:24 16.09.2021
5727 Clouds 27 1014 50 10000 4.63 310 10:29 16.09.2021
5728 Clouds 26 1015 57 10000 3.09 350 09:39 16.09.2021
5729 Clouds 25 1014 65 10000 2.57 350 08:28 16.09.2021
5730 Clouds 24 1014 69 10000 2.06 300 06:59 16.09.2021
5731 Clouds 24 1014 69 10000 2.57 320 06:39 16.09.2021
5732 Clear 24 1014 69 10000 1.54 10 04:18 16.09.2021
5733 Clear 25 1014 65 10000 2.06 10 00:59 16.09.2021
5734 Clear 25 1014 65 10000 3.09 20 23:32 15.09.2021
5735 Clear 25 1014 65 10000 3.09 20 23:32 15.09.2021
5736 Clear 25 1015 65 10000 4.63 20 22:45 15.09.2021
5737 Clear 26 1015 57 10000 4.63 360 21:37 15.09.2021
5738 Clear 27 1014 54 10000 4.63 350 20:54 15.09.2021
5739 Clear 29 1013 45 10000 4.63 320 19:35 15.09.2021
5740 Clouds 31 1011 35 10000 6.17 310 18:59 15.09.2021
5741 Clouds 32 1011 33 10000 6.17 300 17:48 15.09.2021
5742 Clouds 32 1011 31 10000 5.14 290 16:48 15.09.2021
5743 Clouds 32 1011 35 10000 4.63 290 15:30 15.09.2021
5744 Clouds 31 1012 33 10000 5.14 250 14:44 15.09.2021
5745 Clouds 31 1013 37 10000 5.14 260 13:51 15.09.2021
5746 Clouds 31 1013 37 10000 5.14 260 13:29 15.09.2021
5747 Clouds 31 1013 42 10000 4.63 250 12:42 15.09.2021
5748 Clouds 30 1013 48 10000 4.63 280 11:51 15.09.2021
5749 Clouds 30 1013 48 10000 3.6 290 11:19 15.09.2021
5750 Clouds 30 1014 51 10000 3.09 290 10:50 15.09.2021
5751 Clouds 27 1014 61 10000 4.12 260 09:26 15.09.2021
5752 Clear 25 1013 73 10000 4.12 280 07:37 15.09.2021
5753 Clear 25 1012 78 10000 2.57 320 04:24 15.09.2021
5754 Clouds 27 1011 65 10000 5.66 10 22:56 14.09.2021
5755 Clouds 28 1012 57 10000 7.72 30 21:38 14.09.2021
5756 Clouds 29 1011 45 10000 8.23 10 20:38 14.09.2021
5757 Clouds 31 1010 40 10000 6.69 40 19:41 14.09.2021
5758 Clouds 34 1009 36 10000 4.12 300 17:34 14.09.2021
5759 Clouds 35 1009 34 10000 3.6 310 16:56 14.09.2021
5760 Clouds 36 1009 32 10000 2.06 240 15:28 14.09.2021
5761 Clouds 36 1010 28 10000 2.57 240 14:31 14.09.2021
5762 Clear 34 1011 33 10000 4.12 320 11:52 14.09.2021
5763 Clear 34 1011 33 10000 2.06 300 10:54 14.09.2021
5764 Clear 33 1011 38 10000 1.03 360 09:50 14.09.2021
5765 Clear 29 1011 61 10000 0 0 08:39 14.09.2021
5766 Clear 24 1010 88 10000 0 0 06:23 14.09.2021
5767 Clear 28 1011 69 10000 2.57 20 23:57 13.09.2021
5768 Clear 29 1011 61 10000 3.6 30 22:46 13.09.2021
5769 Clear 29 1011 61 10000 3.09 360 22:23 13.09.2021
5770 Clear 31 1011 42 10000 4.12 360 21:45 13.09.2021
5771 Clear 31 1010 42 10000 5.14 350 20:48 13.09.2021
5772 Clear 33 1008 46 10000 6.17 310 18:46 13.09.2021
5773 Clear 35 1008 41 10000 6.17 330 17:42 13.09.2021
5774 Clear 36 1007 28 10000 7.2 300 16:50 13.09.2021
5775 Clear 36 1007 28 10000 7.2 300 16:50 13.09.2021
5776 Clear 37 1007 25 10000 7.72 280 15:22 13.09.2021
5777 Clear 34 1009 29 10000 8.75 200 11:55 13.09.2021
5778 Clear 33 1009 29 10000 7.72 190 10:58 13.09.2021
5779 Clear 31 1009 33 10000 6.69 190 09:31 13.09.2021
5780 Clear 27 1008 41 10000 4.12 160 04:38 13.09.2021
5781 Clear 28 1010 47 10000 3.09 120 22:59 12.09.2021
5782 Clear 28 1011 44 10000 2.06 110 22:25 12.09.2021
5783 Clear 29 1011 42 10000 2.57 90 21:34 12.09.2021
5784 Clear 30 1011 42 10000 3.6 50 20:28 12.09.2021
5785 Clear 30 1011 42 10000 3.6 50 20:28 12.09.2021
5786 Clear 30 1011 39 10000 3.6 50 19:49 12.09.2021
5787 Clear 31 1010 40 10000 3.09 20 19:19 12.09.2021
5788 Clear 31 1010 40 10000 3.09 20 19:19 12.09.2021
5789 Clear 32 1010 37 10000 3.09 10 18:20 12.09.2021
5790 Clear 33 1010 33 10000 3.09 340 16:30 12.09.2021
5791 Clear 33 1010 33 10000 3.09 340 16:30 12.09.2021
5792 Clear 32 1011 35 10000 3.6 310 14:52 12.09.2021
5793 Clear 30 1012 42 10000 3.6 300 12:48 12.09.2021
5794 Clear 28 1012 47 10000 2.06 10 10:44 12.09.2021
5795 Clear 25 1013 61 10000 2.06 350 08:59 12.09.2021
5796 Clear 24 1013 64 10000 2.06 20 08:37 12.09.2021
5797 Clear 24 1013 69 10000 1.54 350 01:49 12.09.2021
5798 Clear 24 1014 64 10000 3.09 350 23:20 11.09.2021
5799 Clear 25 1014 61 10000 5.14 350 21:41 11.09.2021
5800 Clear 26 1013 57 10000 5.66 350 20:21 11.09.2021
5801 Clouds 27 1013 54 10000 5.14 350 19:20 11.09.2021
5802 Clouds 31 1012 37 10000 7.2 360 17:29 11.09.2021
5803 Clouds 30 1012 42 10000 6.17 330 15:44 11.09.2021
5804 Clouds 30 1013 39 10000 6.17 360 13:30 11.09.2021
5805 Clouds 30 1013 42 10000 5.14 330 12:48 11.09.2021
5806 Clouds 29 1014 48 10000 6.17 360 11:18 11.09.2021
5807 Clouds 26 1015 61 10000 3.6 320 09:38 11.09.2021
5808 Clouds 24 1015 73 10000 2.57 360 07:45 11.09.2021
5809 Clouds 24 1015 73 10000 2.06 350 06:48 11.09.2021
5810 Clear 25 1016 65 10000 4.63 360 23:23 10.09.2021
5811 Clear 26 1016 61 10000 5.14 10 22:24 10.09.2021
5812 Clouds 27 1016 54 10000 5.14 360 21:53 10.09.2021
5813 Clouds 29 1015 51 10000 7.2 360 19:58 10.09.2021
5814 Clouds 30 1013 48 10000 6.69 360 18:26 10.09.2021
5815 Clouds 31 1013 37 10000 5.14 360 16:51 10.09.2021
5816 Clouds 31 1013 45 10000 5.62 329 14:41 10.09.2021
5817 Clouds 29 1015 54 10000 3.6 340 11:56 10.09.2021
5818 Clouds 26 1015 69 10000 3.6 30 08:36 10.09.2021
5819 Clouds 25 1015 73 10000 4.12 20 07:49 10.09.2021
5820 Clouds 25 1015 73 10000 3.09 10 02:27 10.09.2021
5821 Clouds 27 1015 69 10000 4.63 360 22:31 09.09.2021
5822 Clouds 27 1015 65 10000 5.14 350 21:45 09.09.2021
5823 Clouds 27 1015 65 10000 5.14 350 21:45 09.09.2021
5824 Clouds 30 1013 62 10000 8.75 350 20:46 09.09.2021
5825 Clouds 30 1012 58 10000 6.69 350 19:33 09.09.2021
5826 Clouds 31 1012 58 10000 7.2 330 18:31 09.09.2021
5827 Clouds 34 1011 43 10000 6.17 290 16:40 09.09.2021
5828 Clouds 34 1011 43 10000 5.14 310 15:36 09.09.2021
5829 Clear 33 1012 49 6000 4.63 290 12:48 09.09.2021
5830 Clear 31 1013 51 6000 3.6 280 11:41 09.09.2021
5831 Clear 30 1012 51 6000 3.6 290 09:50 09.09.2021
5832 Clear 30 1012 51 6000 4.63 290 08:47 09.09.2021
5833 Clear 29 1011 42 6000 3.09 240 06:26 09.09.2021
5834 Clear 31 1011 45 10000 0 0 02:19 09.09.2021
5835 Clear 33 1011 33 10000 5.14 80 22:42 08.09.2021
5836 Clear 34 1011 31 10000 5.66 90 21:31 08.09.2021
5837 Clear 36 1011 26 10000 5.14 60 19:56 08.09.2021
5838 Clear 37 1011 25 10000 4.12 50 18:58 08.09.2021
5839 Clear 37 1011 25 10000 4.12 50 18:29 08.09.2021
5840 Clear 38 1011 20 10000 3.6 50 17:56 08.09.2021
5841 Clear 38 1011 23 10000 2.57 50 16:32 08.09.2021
5842 Clear 38 1012 25 10000 3.09 360 14:25 08.09.2021
5843 Clear 35 1013 31 10000 3.09 80 12:47 08.09.2021
5844 Clear 35 1013 31 10000 3.09 80 12:27 08.09.2021
5845 Clear 34 1014 33 10000 3.6 50 11:30 08.09.2021
5846 Clear 33 1014 35 10000 4.12 60 10:38 08.09.2021
5847 Clear 32 1014 37 10000 4.12 70 10:20 08.09.2021
5848 Clear 28 1013 57 10000 3.6 40 08:36 08.09.2021
5849 Clear 24 1013 69 10000 3.6 40 07:35 08.09.2021
5850 Clear 25 1013 65 10000 3.09 30 05:28 08.09.2021
5851 Clear 28 1014 61 10000 6.17 40 22:46 07.09.2021
5852 Clear 28 1014 61 10000 7.2 50 21:59 07.09.2021
5853 Clear 32 1012 40 10000 5.66 20 19:54 07.09.2021
5854 Clear 32 1012 40 10000 5.66 20 18:45 07.09.2021
5855 Clear 32 1012 40 10000 5.14 10 17:49 07.09.2021
5856 Clear 32 1012 40 10000 5.14 350 16:42 07.09.2021
5857 Clear 34 1013 33 10000 4.12 10 15:37 07.09.2021
5858 Clear 33 1013 35 10000 5.14 350 14:42 07.09.2021
5859 Clear 32 1014 37 10000 2.06 40 12:43 07.09.2021
5860 Clear 30 1014 45 10000 1.54 100 11:45 07.09.2021
5861 Clear 29 1014 51 10000 2.57 360 10:41 07.09.2021
5862 Clear 26 1013 65 10000 2.06 40 08:34 07.09.2021
5863 Clear 25 1013 69 10000 2.06 50 07:44 07.09.2021
5864 Clear 24 1013 73 10000 1.54 70 05:41 07.09.2021
5865 Clear 25 1013 69 10000 1.54 70 02:36 07.09.2021
5866 Clear 25 1014 65 10000 2.57 10 00:46 07.09.2021
5867 Clear 26 1014 73 10000 3.09 20 23:34 06.09.2021
5868 Clear 27 1014 69 10000 2.06 10 22:54 06.09.2021
5869 Clear 27 1014 69 10000 3.09 20 22:33 06.09.2021
5870 Clear 28 1014 44 10000 4.12 350 21:25 06.09.2021
5871 Clear 30 1012 39 10000 4.63 350 19:31 06.09.2021
5872 Clear 32 1012 35 10000 6.17 350 18:50 06.09.2021
5873 Clear 32 1012 35 10000 6.17 350 18:23 06.09.2021
5874 Clear 32 1011 35 10000 6.69 320 17:36 06.09.2021
5875 Clear 33 1011 35 10000 6.69 290 15:52 06.09.2021
5876 Clear 32 1011 35 10000 4.12 320 13:48 06.09.2021
5877 Clear 31 1011 40 10000 4.63 350 12:47 06.09.2021
5878 Clouds 28 1012 54 10000 3.09 360 10:48 06.09.2021
5879 Clouds 25 1012 73 10000 3.09 330 08:35 06.09.2021
5880 Clear 24 1012 73 10000 1.54 350 06:47 06.09.2021
5881 Clear 25 1012 65 10000 5.14 350 23:37 05.09.2021
5882 Clear 25 1012 69 10000 5.66 350 22:50 05.09.2021
5883 Clear 26 1012 61 10000 5.14 350 22:28 05.09.2021
5884 Clear 27 1012 57 10000 5.14 330 21:49 05.09.2021
5885 Clear 27 1012 61 10000 5.14 330 20:50 05.09.2021
5886 Clear 31 1009 40 10000 6.17 320 18:56 05.09.2021
5887 Clear 32 1010 37 10000 5.66 330 17:34 05.09.2021
5888 Clear 32 1010 43 10000 4.12 280 15:31 05.09.2021
5889 Clear 33 1009 40 10000 3.09 340 14:23 05.09.2021
5890 Clouds 32 1011 55 10000 2.57 340 12:30 05.09.2021
5891 Clouds 29 1011 58 10000 3.6 10 10:55 05.09.2021
5892 Clouds 29 1012 58 10000 3.09 350 10:31 05.09.2021
5893 Clouds 28 1012 61 10000 3.6 360 09:22 05.09.2021
5894 Mist 24 1011 78 3000 4.12 340 08:21 05.09.2021
5895 Clouds 25 1010 73 10000 4.12 360 02:36 05.09.2021
5896 Clear 26 1010 73 10000 4.63 10 00:30 05.09.2021
5897 Clear 26 1010 73 10000 4.63 10 00:30 05.09.2021
5898 Clear 27 1011 65 10000 5.14 360 23:42 04.09.2021
5899 Clear 27 1010 65 10000 5.66 30 22:36 04.09.2021
5900 Clear 28 1010 65 10000 6.17 30 21:58 04.09.2021
5901 Clear 30 1009 54 10000 5.66 10 19:53 04.09.2021
5902 Clear 31 1009 51 10000 5.14 360 19:27 04.09.2021
5903 Clear 34 1008 43 10000 4.63 320 16:26 04.09.2021
5904 Clear 33 1009 40 10000 3.09 10 13:30 04.09.2021
5905 Clear 30 1010 48 10000 3.09 360 11:20 04.09.2021
5906 Clouds 26 1010 73 6000 2.06 10 09:26 04.09.2021
5907 Clouds 24 1009 78 10000 2.57 350 06:55 04.09.2021
5908 Clear 26 1009 73 10000 3.09 360 00:28 04.09.2021
5909 Clear 26 1010 73 10000 4.63 10 23:32 03.09.2021
5910 Clear 27 1010 65 10000 5.14 10 22:40 03.09.2021
5911 Clear 28 1010 61 10000 5.66 360 21:36 03.09.2021
5912 Clear 29 1009 54 10000 7.2 360 20:49 03.09.2021
5913 Clear 30 1008 51 10000 5.66 340 19:56 03.09.2021
5914 Clear 31 1008 48 10000 5.14 360 19:23 03.09.2021
5915 Clear 33 1007 40 10000 4.63 340 17:56 03.09.2021
5916 Clear 33 1007 40 10000 4.63 340 17:56 03.09.2021
5917 Clear 34 1007 40 10000 5.14 10 16:38 03.09.2021
5918 Clear 33 1008 43 10000 5.14 340 14:59 03.09.2021
5919 Clouds 32 1009 45 10000 3.09 350 12:26 03.09.2021
5920 Clouds 28 1010 61 10000 5.14 350 10:32 03.09.2021
5921 Clouds 28 1010 61 10000 5.14 350 10:32 03.09.2021
5922 Clouds 27 1010 69 10000 5.14 360 09:18 03.09.2021
5923 Clouds 27 1010 69 10000 5.14 360 09:18 03.09.2021
5924 Clouds 25 1009 78 6000 2.06 340 07:47 03.09.2021
5925 Clear 25 1008 78 6000 2.06 350 05:30 03.09.2021
5926 Clear 26 1010 73 6000 5.14 340 23:25 02.09.2021
5927 Clear 27 1010 65 6000 6.17 340 21:41 02.09.2021
5928 Clear 29 1010 54 10000 6.69 340 20:24 02.09.2021
5929 Clear 32 1008 43 10000 6.69 350 17:33 02.09.2021
5930 Clear 33 1008 38 10000 6.69 360 16:20 02.09.2021
5931 Clear 32 1008 40 10000 6.17 360 14:36 02.09.2021
5932 Clouds 31 1010 42 10000 6.17 10 12:58 02.09.2021
5933 Clouds 31 1010 45 10000 5.66 10 11:40 02.09.2021
5934 Clouds 30 1010 51 10000 5.66 360 10:37 02.09.2021
5935 Clouds 26 1011 73 10000 6.17 10 08:40 02.09.2021
5936 Clear 25 1010 69 10000 5.31 19 07:20 02.09.2021
5937 Clear 25 1010 69 10000 5.31 19 07:20 02.09.2021
5938 Clouds 24 1011 83 10000 4.63 10 05:31 02.09.2021
5939 Clear 25 1010 73 10000 5.14 360 02:35 02.09.2021
5940 Clear 25 1010 73 10000 5.14 360 01:34 02.09.2021
5941 Clear 27 1011 61 10000 5.14 30 23:40 01.09.2021
5942 Clear 27 1011 61 10000 5.14 30 22:42 01.09.2021
5943 Clear 28 1011 57 10000 6.69 10 21:41 01.09.2021
5944 Clear 30 1010 48 10000 6.17 10 20:54 01.09.2021
5945 Clear 30 1009 48 10000 7.72 360 19:23 01.09.2021
5946 Clear 32 1009 40 10000 7.72 20 17:50 01.09.2021
5947 Clear 34 1009 36 10000 6.69 360 16:48 01.09.2021
5948 Clear 34 1008 36 10000 6.69 20 16:21 01.09.2021
5949 Clouds 33 1010 33 10000 8.23 10 13:57 01.09.2021
5950 Clouds 31 1011 45 10000 6.17 360 11:47 01.09.2021
5951 Clouds 27 1011 65 10000 5.14 40 09:35 01.09.2021
5952 Clouds 26 1011 73 6000 4.63 10 07:57 01.09.2021
5953 Clouds 24 1011 83 6000 4.12 10 06:42 01.09.2021
5954 Clear 28 1012 69 10000 5.14 30 23:20 31.08.2021
5955 Clear 29 1012 65 10000 6.69 30 21:45 31.08.2021
5956 Clear 32 1010 48 10000 5.66 20 19:49 31.08.2021
5957 Clear 32 1010 45 10000 6.69 20 18:56 31.08.2021
5958 Clear 34 1009 40 10000 6.17 10 17:39 31.08.2021
5959 Clear 34 1009 40 10000 6.17 10 17:21 31.08.2021
5960 Clear 34 1010 43 10000 6.69 360 16:24 31.08.2021
5961 Clear 34 1010 40 10000 6.17 360 14:28 31.08.2021
5962 Clear 32 1011 45 10000 5.14 10 11:41 31.08.2021
5963 Clear 32 1011 45 10000 5.14 10 11:18 31.08.2021
5964 Clear 31 1012 48 10000 5.14 10 10:22 31.08.2021
5965 Clear 29 1012 61 10000 4.63 20 09:40 31.08.2021
5966 Clear 26 1012 83 6000 4.12 10 07:39 31.08.2021
5967 Clear 26 1012 78 6000 2.57 10 05:56 31.08.2021
5968 Clear 28 1012 69 10000 5.14 10 23:36 30.08.2021
5969 Clear 29 1012 61 10000 5.14 10 22:30 30.08.2021
5970 Clear 30 1012 58 10000 5.14 10 21:35 30.08.2021
5971 Clear 31 1012 48 10000 5.66 10 20:35 30.08.2021
5972 Clear 31 1011 48 10000 6.69 10 19:32 30.08.2021
5973 Clear 32 1011 48 10000 6.69 360 18:57 30.08.2021
5974 Clear 34 1010 38 10000 6.17 360 17:49 30.08.2021
5975 Clear 35 1009 34 10000 5.14 350 16:26 30.08.2021
5976 Clear 35 1009 41 10000 4.63 330 15:40 30.08.2021
5977 Clear 35 1010 43 10000 4.12 20 13:51 30.08.2021
5978 Clear 34 1010 49 10000 1.54 330 12:54 30.08.2021
5979 Clouds 32 1011 55 10000 4.63 340 10:42 30.08.2021
5980 Clear 28 1008 83 10000 4.63 350 03:24 30.08.2021
5981 Clear 34 1009 38 10000 2.57 50 21:33 29.08.2021
5982 Clear 34 1009 38 10000 3.09 60 20:45 29.08.2021
5983 Clear 35 1008 46 10000 4.63 20 19:26 29.08.2021
5984 Clear 36 1007 36 10000 4.63 340 17:58 29.08.2021
5985 Clear 37 1007 36 10000 5.14 360 15:54 29.08.2021
5986 Clear 37 1008 26 10000 4.63 320 14:27 29.08.2021
5987 Clear 37 1008 26 10000 5.66 310 13:47 29.08.2021
5988 Clear 36 1009 30 6000 3.6 30 12:42 29.08.2021
5989 Clear 34 1009 43 6000 2.57 350 11:54 29.08.2021
5990 Clear 34 1009 43 6000 2.57 350 11:32 29.08.2021
5991 Haze 32 1010 58 4000 3.09 10 10:46 29.08.2021
5992 Haze 31 1010 58 4000 3.09 350 10:27 29.08.2021
5993 Mist 29 1009 74 4000 1.54 360 09:21 29.08.2021
5994 Clouds 27 1009 83 6000 1.03 20 02:37 29.08.2021
5995 Clear 30 1010 66 10000 4.63 10 22:29 28.08.2021
5996 Clear 33 1009 46 10000 5.66 10 20:30 28.08.2021
5997 Clear 34 1008 46 10000 5.66 10 18:53 28.08.2021
5998 Clear 35 1008 38 10000 5.14 360 18:21 28.08.2021
5999 Clear 36 1008 36 10000 4.63 340 17:45 28.08.2021
6000 Clear 37 1008 28 10000 5.14 350 16:21 28.08.2021
6001 Clear 37 1008 26 10000 6.17 20 14:43 28.08.2021
6002 Clear 36 1009 30 10000 4.12 340 13:47 28.08.2021
6003 Clear 35 1009 36 10000 4.12 330 12:46 28.08.2021
6004 Clear 34 1010 38 10000 3.09 330 11:58 28.08.2021
6005 Clear 32 1010 45 10000 3.09 360 10:44 28.08.2021
6006 Clear 30 1011 54 6000 2.57 350 09:33 28.08.2021
6007 Clear 27 1011 78 6000 2.06 360 07:25 28.08.2021
6008 Clear 29 1011 54 10000 2.57 10 22:50 27.08.2021
6009 Clear 31 1011 45 10000 3.09 360 21:26 27.08.2021
6010 Clear 33 1011 31 10000 4.63 360 20:33 27.08.2021
6011 Clear 34 1010 26 10000 4.63 10 19:29 27.08.2021
6012 Clear 35 1010 26 10000 7.72 360 18:38 27.08.2021
6013 Clear 36 1009 23 10000 8.23 10 17:30 27.08.2021
6014 Clear 36 1009 26 10000 7.72 360 16:28 27.08.2021
6015 Clear 36 1010 34 10000 8.23 360 14:44 27.08.2021
6016 Clear 35 1011 43 10000 6.17 20 12:55 27.08.2021
6017 Clear 34 1011 46 10000 3.09 360 11:38 27.08.2021
6018 Clouds 31 1011 66 10000 3.09 360 10:45 27.08.2021
6019 Clouds 29 1011 74 6000 2.57 360 09:52 27.08.2021
6020 Mist 28 1011 78 4000 2.06 340 08:48 27.08.2021
6021 Mist 27 1010 89 4000 3.09 340 07:39 27.08.2021
6022 Clouds 27 1011 83 10000 2.57 10 05:33 27.08.2021
6023 Clear 28 1010 78 10000 2.57 10 00:39 27.08.2021
6024 Clear 29 1011 74 10000 4.12 360 23:28 26.08.2021
6025 Clear 29 1010 74 10000 5.66 360 22:23 26.08.2021
6026 Clear 31 1010 66 10000 5.66 10 21:32 26.08.2021
6027 Clouds 33 1009 55 6000 6.69 10 19:30 26.08.2021
6028 Clear 35 1008 41 10000 4.12 350 17:47 26.08.2021
6029 Clear 35 1008 36 10000 5.14 360 17:24 26.08.2021
6030 Clear 36 1008 34 10000 4.63 340 16:26 26.08.2021
6031 Clear 36 1009 32 10000 4.63 350 13:59 26.08.2021
6032 Clear 34 1010 40 10000 4.12 330 12:58 26.08.2021
6033 Clear 34 1010 43 10000 3.6 330 12:32 26.08.2021
6034 Clouds 30 1011 62 6000 3.09 320 10:33 26.08.2021
6035 Clouds 27 1011 78 6000 3.6 350 08:35 26.08.2021
6036 Clouds 27 1011 83 6000 3.6 340 07:52 26.08.2021
6037 Clear 29 1011 74 10000 4.12 350 22:56 25.08.2021
6038 Clear 29 1011 74 10000 4.12 350 22:36 25.08.2021
6039 Clear 30 1011 66 10000 3.6 350 22:18 25.08.2021
6040 Clear 31 1011 55 10000 5.14 340 20:57 25.08.2021
6041 Clear 32 1010 51 10000 5.14 350 20:29 25.08.2021
6042 Clear 34 1009 40 10000 4.63 360 18:46 25.08.2021
6043 Clear 33 1009 35 10000 5.14 360 17:52 25.08.2021
6044 Clear 35 1009 34 10000 6.17 350 15:51 25.08.2021
6045 Clear 35 1009 34 10000 5.66 360 15:24 25.08.2021
6046 Clear 35 1009 31 10000 4.12 340 14:43 25.08.2021
6047 Clouds 34 1010 38 10000 3.6 360 13:31 25.08.2021
6048 Clouds 34 1010 38 10000 3.6 360 13:31 25.08.2021
6049 Clouds 32 1010 45 10000 2.06 340 11:34 25.08.2021
6050 Clouds 31 1011 51 6000 3.09 340 10:56 25.08.2021
6051 Clouds 29 1011 61 6000 2.06 330 09:59 25.08.2021
6052 Mist 29 1011 65 4000 2.57 10 09:30 25.08.2021
6053 Mist 28 1010 74 4000 3.09 10 08:33 25.08.2021
6054 Mist 27 1010 78 4000 1.54 330 06:19 25.08.2021
6055 Haze 28 1010 78 4000 2.57 360 00:55 25.08.2021
6056 Clear 29 1010 70 6000 4.63 10 22:51 24.08.2021
6057 Clear 31 1010 62 10000 5.66 340 20:54 24.08.2021
6058 Clear 33 1009 43 10000 2.57 340 19:54 24.08.2021
6059 Clear 33 1008 40 10000 2.57 350 18:54 24.08.2021
6060 Clear 34 1008 38 10000 4.12 350 17:52 24.08.2021
6061 Clear 34 1008 33 10000 3.09 340 17:21 24.08.2021
6062 Clear 34 1008 40 10000 3.09 10 14:45 24.08.2021
6063 Clear 33 1008 43 10000 2.57 340 13:38 24.08.2021
6064 Clear 32 1009 48 10000 2.06 320 12:41 24.08.2021
6065 Clouds 31 1010 51 10000 1.54 280 11:19 24.08.2021
6066 Clouds 31 1010 48 10000 1.54 30 10:46 24.08.2021
6067 Clouds 28 1010 61 10000 2.06 10 09:24 24.08.2021
6068 Clouds 26 1009 73 10000 2.57 310 07:35 24.08.2021
6069 Clouds 26 1009 73 10000 2.06 350 05:37 24.08.2021
6070 Clouds 26 1009 73 10000 2.06 350 05:37 24.08.2021
6071 Clear 27 1009 74 10000 1.54 20 02:40 24.08.2021
6072 Clear 28 1009 69 10000 2.57 10 23:31 23.08.2021
6073 Clear 29 1009 61 10000 3.6 350 22:43 23.08.2021
6074 Clear 31 1009 51 10000 4.12 340 20:59 23.08.2021
6075 Clear 33 1008 43 10000 3.6 340 19:30 23.08.2021
6076 Clear 34 1007 38 10000 4.63 340 17:45 23.08.2021
6077 Clear 34 1007 33 10000 4.12 280 15:37 23.08.2021
6078 Clear 34 1008 36 10000 4.63 310 13:53 23.08.2021
6079 Clear 33 1009 40 10000 3.09 290 12:31 23.08.2021
6080 Clouds 31 1009 51 10000 2.57 320 10:47 23.08.2021
6081 Clouds 29 1009 58 10000 3.09 330 09:52 23.08.2021
6082 Clouds 27 1009 74 10000 2.57 10 08:35 23.08.2021
6083 Clouds 26 1009 78 10000 1.54 20 06:59 23.08.2021
6084 Clouds 26 1010 78 10000 1.54 40 06:39 23.08.2021
6085 Clear 27 1009 74 10000 3.09 10 01:36 23.08.2021
6086 Clear 27 1010 74 10000 3.6 20 00:45 23.08.2021
6087 Clear 29 1011 61 10000 3.09 20 22:42 22.08.2021
6088 Clear 30 1010 58 10000 4.63 10 20:58 22.08.2021
6089 Clear 32 1009 48 10000 5.66 360 20:19 22.08.2021
6090 Clear 32 1009 48 10000 5.66 360 20:19 22.08.2021
6091 Clear 34 1008 33 10000 8.87 347 18:32 22.08.2021
6092 Clear 36 1008 28 10000 4.63 340 15:49 22.08.2021
6093 Clear 36 1008 32 10000 4.63 330 14:54 22.08.2021
6094 Clear 36 1009 34 10000 3.09 300 13:40 22.08.2021
6095 Clear 36 1009 34 10000 3.09 300 13:19 22.08.2021
6096 Clear 36 1009 34 10000 3.6 340 12:41 22.08.2021
6097 Clear 34 1009 40 10000 3.6 340 11:45 22.08.2021
6098 Clear 34 1009 38 10000 3.09 340 11:20 22.08.2021
6099 Clouds 29 1010 74 6000 3.09 330 08:42 22.08.2021
6100 Clouds 27 1010 78 6000 3.09 350 07:51 22.08.2021
6101 Clouds 27 1009 83 6000 2.57 330 03:38 22.08.2021
6102 Clear 29 1010 79 10000 4.12 340 22:37 21.08.2021
6103 Clear 29 1010 79 10000 4.12 340 22:37 21.08.2021
6104 Clear 30 1010 70 10000 4.12 340 21:35 21.08.2021
6105 Clear 35 1007 43 10000 6.17 350 18:55 21.08.2021
6106 Clear 35 1007 43 10000 6.17 350 18:37 21.08.2021
6107 Clear 37 1007 34 10000 4.63 330 16:58 21.08.2021
6108 Clouds 37 1007 34 6000 4.63 340 16:32 21.08.2021
6109 Clouds 37 1007 34 6000 4.12 340 15:39 21.08.2021
6110 Clouds 37 1007 34 6000 3.09 10 15:20 21.08.2021
6111 Clouds 36 1007 38 6000 4.63 320 13:36 21.08.2021
6112 Clouds 35 1008 41 6000 4.63 360 12:39 21.08.2021
6113 Haze 31 1008 58 4000 2.57 350 10:43 21.08.2021
6114 Mist 27 1008 83 2000 1.54 340 07:53 21.08.2021
6115 Clear 29 1008 74 10000 2.06 50 00:44 21.08.2021
6116 Clear 31 1008 70 10000 4.63 20 22:28 20.08.2021
6117 Clear 35 1006 34 10000 4.63 20 19:31 20.08.2021
6118 Clear 37 1006 28 10000 5.14 350 17:35 20.08.2021
6119 Clear 36 1006 32 10000 2.57 360 14:34 20.08.2021
6120 Clear 34 1007 46 10000 1.54 300 11:59 20.08.2021
6121 Clear 32 1008 48 10000 1.03 280 11:29 20.08.2021
6122 Clouds 30 1008 58 10000 3.09 10 10:21 20.08.2021
6123 Clouds 28 1008 69 6000 2.06 20 09:18 20.08.2021
6124 Clouds 27 1007 74 6000 3.09 360 08:36 20.08.2021
6125 Clear 26 1006 83 10000 2.57 360 04:42 20.08.2021
6126 Clear 26 1006 83 10000 2.57 360 04:20 20.08.2021
6127 Clear 29 1007 70 10000 4.12 30 23:27 19.08.2021
6128 Clear 29 1007 65 10000 5.14 30 22:38 19.08.2021
6129 Clear 31 1007 58 10000 4.63 10 21:50 19.08.2021
6130 Clear 33 1006 38 10000 4.12 340 20:19 19.08.2021
6131 Clear 35 1005 38 10000 4.63 350 17:52 19.08.2021
6132 Clear 36 1005 32 10000 5.14 310 16:51 19.08.2021
6133 Clear 35 1006 36 10000 4.12 330 14:36 19.08.2021
6134 Clear 34 1006 33 10000 3.6 340 12:46 19.08.2021
6135 Clear 33 1007 40 10000 3.09 340 12:27 19.08.2021
6136 Clear 31 1007 45 10000 3.09 300 10:47 19.08.2021
6137 Clear 29 1008 58 10000 2.57 300 09:48 19.08.2021
6138 Clear 28 1008 61 10000 2.06 340 09:27 19.08.2021
6139 Clear 27 1007 65 10000 2.06 350 08:33 19.08.2021
6140 Clouds 26 1007 78 6000 2.57 340 03:37 19.08.2021
6141 Clear 27 1007 74 6000 2.57 350 02:20 19.08.2021
6142 Clear 28 1008 61 10000 4.12 10 23:29 18.08.2021
6143 Clear 29 1008 58 10000 4.63 360 22:36 18.08.2021
6144 Clear 31 1008 45 10000 5.14 10 20:50 18.08.2021
6145 Clear 31 1007 42 10000 5.14 10 20:20 18.08.2021
6146 Clear 32 1007 43 10000 5.66 360 19:26 18.08.2021
6147 Clear 33 1007 38 10000 5.14 350 18:34 18.08.2021
6148 Clear 34 1006 36 10000 5.14 330 16:56 18.08.2021
6149 Clear 34 1006 36 10000 4.12 320 15:40 18.08.2021
6150 Clouds 34 1006 36 10000 4.12 330 15:21 18.08.2021
6151 Clouds 33 1008 40 10000 2.57 350 12:51 18.08.2021
6152 Clouds 32 1009 43 10000 2.57 290 12:27 18.08.2021
6153 Clouds 32 1008 40 10000 3.09 320 11:49 18.08.2021
6154 Clouds 27 1010 69 6000 2.57 320 08:43 18.08.2021
6155 Clouds 27 1009 78 10000 3.09 350 02:29 18.08.2021
6156 Clear 29 1011 65 10000 5.66 20 22:40 17.08.2021
6157 Clear 29 1011 70 10000 5.66 10 21:59 17.08.2021
6158 Clear 30 1011 66 10000 6.17 360 21:22 17.08.2021
6159 Clear 30 1011 66 10000 6.17 360 21:22 17.08.2021
6160 Clear 32 1010 51 10000 5.66 10 20:24 17.08.2021
6161 Clear 35 1009 36 10000 3.6 350 17:47 17.08.2021
6162 Clear 34 1010 38 10000 4.63 350 17:26 17.08.2021
6163 Clear 35 1010 36 10000 4.63 360 15:46 17.08.2021
6164 Clear 35 1010 36 10000 3.6 330 14:56 17.08.2021
6165 Clear 33 1011 40 6000 4.12 330 12:45 17.08.2021
6166 Clouds 32 1012 48 6000 2.57 340 10:40 17.08.2021
6167 Clouds 28 1012 69 10000 2.57 350 09:19 17.08.2021
6168 Clear 26 1011 83 10000 2.06 360 07:24 17.08.2021
6169 Clear 28 1012 69 10000 4.12 340 23:28 16.08.2021
6170 Clear 29 1012 65 10000 4.12 340 22:54 16.08.2021
6171 Clear 29 1012 65 10000 4.12 350 22:35 16.08.2021
6172 Clear 30 1012 62 10000 4.63 340 21:47 16.08.2021
6173 Clear 32 1011 45 10000 5.14 340 20:52 16.08.2021
6174 Clear 34 1010 38 10000 5.14 320 19:29 16.08.2021
6175 Clear 35 1010 34 10000 5.14 350 18:46 16.08.2021
6176 Clear 36 1010 32 10000 4.63 350 17:55 16.08.2021
6177 Clear 36 1010 28 10000 4.63 330 16:51 16.08.2021
6178 Clear 36 1010 28 10000 3.09 360 15:26 16.08.2021
6179 Clear 37 1011 19 10000 3.09 330 14:27 16.08.2021
6180 Clear 36 1011 30 10000 4.12 300 13:21 16.08.2021
6181 Clear 35 1011 34 10000 3.09 310 12:28 16.08.2021
6182 Clear 32 1012 48 10000 2.57 350 10:36 16.08.2021
6183 Mist 28 1012 69 4000 2.06 340 08:43 16.08.2021
6184 Mist 27 1011 78 4000 2.06 330 07:30 16.08.2021
6185 Mist 26 1011 83 4000 1.54 360 06:21 16.08.2021
6186 Clear 28 1010 78 10000 3.09 360 01:28 16.08.2021
6187 Clear 32 1010 40 10000 4.63 360 21:34 15.08.2021
6188 Clear 33 1010 33 10000 5.14 10 20:27 15.08.2021
6189 Clear 34 1009 38 10000 6.69 360 18:42 15.08.2021
6190 Clear 36 1009 28 10000 5.14 340 17:50 15.08.2021
6191 Clear 36 1009 28 10000 5.14 340 17:22 15.08.2021
6192 Clear 37 1008 26 10000 4.63 350 15:49 15.08.2021
6193 Clear 36 1008 28 10000 4.12 340 14:42 15.08.2021
6194 Clear 37 1009 26 10000 5.14 340 13:35 15.08.2021
6195 Clear 34 1010 43 6000 3.09 330 10:54 15.08.2021
6196 Clear 28 1010 83 6000 2.57 300 08:45 15.08.2021
6197 Clear 29 1009 70 10000 2.06 20 01:23 15.08.2021
6198 Clear 29 1009 70 10000 1.54 40 00:33 15.08.2021
6199 Clear 31 1010 55 10000 5.66 30 21:38 14.08.2021
6200 Clear 33 1009 52 10000 5.66 20 20:29 14.08.2021
6201 Clear 34 1009 46 10000 6.69 360 19:34 14.08.2021
6202 Clear 34 1008 49 10000 5.66 350 18:37 14.08.2021
6203 Clear 36 1008 34 10000 6.69 360 16:50 14.08.2021
6204 Clear 36 1008 36 10000 5.66 350 15:36 14.08.2021
6205 Clear 36 1009 38 10000 4.63 340 14:22 14.08.2021
6206 Clear 33 1010 43 10000 3.09 360 11:45 14.08.2021
6207 Clear 30 1011 62 10000 1.54 340 09:54 14.08.2021
6208 Clear 26 1010 83 10000 2.57 10 05:35 14.08.2021
6209 Clear 30 1010 62 10000 2.06 60 23:52 13.08.2021
6210 Clear 31 1011 62 10000 4.12 360 22:18 13.08.2021
6211 Clear 33 1010 55 10000 4.12 350 20:24 13.08.2021
6212 Clear 35 1009 43 10000 4.63 350 18:46 13.08.2021
6213 Clear 36 1009 34 10000 5.14 320 17:23 13.08.2021
6214 Clear 37 1010 30 10000 4.63 300 15:57 13.08.2021
6215 Clear 36 1011 38 6000 3.6 270 11:59 13.08.2021
6216 Clear 33 1011 58 6000 3.09 330 11:18 13.08.2021
6217 Haze 31 1011 66 4000 1.03 270 08:43 13.08.2021
6218 Haze 30 1011 70 4000 1.54 320 08:21 13.08.2021
6219 Haze 28 1010 78 4000 2.57 290 06:40 13.08.2021
6220 Haze 30 1010 62 4000 3.09 10 02:29 13.08.2021
6221 Clear 33 1010 46 6000 3.6 10 21:54 12.08.2021
6222 Clear 35 1009 43 10000 3.6 360 20:43 12.08.2021
6223 Clear 35 1009 41 10000 4.63 360 19:54 12.08.2021
6224 Clear 35 1009 41 10000 4.63 360 19:25 12.08.2021
6225 Clear 37 1008 28 10000 4.12 340 17:26 12.08.2021
6226 Clear 38 1008 23 10000 3.6 320 16:28 12.08.2021
6227 Clear 36 1009 30 10000 4.12 360 13:54 12.08.2021
6228 Clear 36 1009 30 10000 3.6 330 12:23 12.08.2021
6229 Clear 33 1009 46 6000 1.54 40 09:58 12.08.2021
6230 Mist 29 1009 79 4000 1.03 360 07:53 12.08.2021
6231 Clear 30 1008 66 10000 3.6 350 00:48 12.08.2021
6232 Clear 32 1008 51 10000 3.6 360 21:56 11.08.2021
6233 Clear 35 1007 41 10000 4.12 350 19:36 11.08.2021
6234 Clear 36 1006 36 10000 4.63 350 18:28 11.08.2021
6235 Clear 37 1006 28 10000 6.17 340 15:38 11.08.2021
6236 Clear 37 1006 28 10000 6.17 340 15:20 11.08.2021
6237 Clear 37 1006 23 10000 4.63 350 14:20 11.08.2021
6238 Clear 36 1007 32 10000 3.6 290 12:30 11.08.2021
6239 Clear 35 1007 41 10000 2.06 360 11:46 11.08.2021
6240 Clear 33 1008 46 10000 2.06 350 11:22 11.08.2021
6241 Clouds 31 1008 62 6000 3.09 340 09:45 11.08.2021
6242 Clouds 28 1008 78 6000 3.09 310 07:50 11.08.2021
6243 Clear 30 1008 66 10000 3.09 350 23:34 10.08.2021
6244 Clear 31 1008 62 10000 5.14 10 22:29 10.08.2021
6245 Clear 33 1008 49 10000 5.66 20 20:58 10.08.2021
6246 Clear 35 1007 41 10000 4.63 360 19:51 10.08.2021
6247 Clear 35 1007 38 10000 4.63 10 18:32 10.08.2021
6248 Clear 36 1007 34 10000 5.14 10 16:37 10.08.2021
6249 Clear 36 1007 36 10000 4.12 320 14:52 10.08.2021
6250 Clear 35 1009 43 10000 2.06 320 12:22 10.08.2021
6251 Clouds 32 1010 51 10000 1.54 300 10:38 10.08.2021
6252 Clear 26 1010 89 10000 2.57 330 06:55 10.08.2021
6253 Clouds 27 1010 78 10000 2.57 310 04:58 10.08.2021
6254 Clouds 30 1011 66 10000 4.12 360 23:42 09.08.2021
6255 Clear 31 1011 66 10000 6.17 20 21:55 09.08.2021
6256 Clear 32 1011 58 10000 6.69 360 21:36 09.08.2021
6257 Clear 34 1010 40 10000 4.63 360 19:37 09.08.2021
6258 Clear 36 1010 34 10000 4.12 350 17:53 09.08.2021
6259 Clear 36 1010 32 10000 3.6 310 15:35 09.08.2021
6260 Clear 35 1011 38 10000 2.57 340 14:25 09.08.2021
6261 Clear 34 1011 40 10000 3.09 300 13:27 09.08.2021
6262 Clear 32 1012 51 10000 2.57 360 11:47 09.08.2021
6263 Clouds 28 1012 69 10000 1.54 110 08:31 09.08.2021
6264 Clear 27 1011 83 6000 2.06 40 03:37 09.08.2021
6265 Clear 32 1011 45 10000 3.6 320 21:28 08.08.2021
6266 Clear 33 1010 46 10000 4.63 330 19:51 08.08.2021
6267 Clear 36 1009 38 10000 4.12 360 16:55 08.08.2021
6268 Clear 37 1007 32 10000 2.06 350 15:43 08.08.2021
6269 Clear 36 1009 30 10000 2.57 340 13:53 08.08.2021
6270 Clear 34 1010 40 10000 3.09 280 11:41 08.08.2021
6271 Clouds 28 1009 78 6000 3.09 330 08:21 08.08.2021
6272 Clear 28 1009 83 6000 2.57 320 06:40 08.08.2021
6273 Clear 29 1009 74 10000 1.03 10 00:43 08.08.2021
6274 Clear 29 1009 74 10000 1.03 10 00:24 08.08.2021
6275 Clear 31 1008 62 10000 3.6 310 21:43 07.08.2021
6276 Clear 33 1007 52 10000 4.12 320 20:55 07.08.2021
6277 Clear 37 1005 41 10000 5.66 320 18:18 07.08.2021
6278 Clear 40 1004 29 10000 5.66 320 16:50 07.08.2021
6279 Clear 41 1005 22 10000 7.72 280 15:28 07.08.2021
6280 Clear 40 1005 24 10000 5.14 270 13:34 07.08.2021
6281 Clear 35 1007 38 10000 3.6 240 10:28 07.08.2021
6282 Clear 30 1006 66 10000 1.54 300 06:31 07.08.2021
6283 Clear 31 1006 25 10000 0 0 02:18 07.08.2021
6284 Clear 35 1006 46 10000 2.06 340 22:23 06.08.2021
6285 Clear 36 1005 38 10000 3.09 350 20:35 06.08.2021
6286 Clear 37 1005 36 10000 3.6 350 19:57 06.08.2021
6287 Clear 38 1004 32 10000 3.6 360 19:18 06.08.2021
6288 Clear 41 1004 28 10000 5.14 350 17:34 06.08.2021
6289 Clear 39 1006 21 10000 1.03 290 11:22 06.08.2021
6290 Clear 38 1006 21 6000 1.54 290 09:56 06.08.2021
6291 Clear 32 1006 21 10000 2.45 344 08:22 06.08.2021
6292 Clear 34 1006 43 10000 3.6 60 23:35 05.08.2021
6293 Clear 34 1007 43 10000 5.14 60 22:30 05.08.2021
6294 Clear 35 1006 46 10000 4.63 50 20:47 05.08.2021
6295 Clear 38 1006 23 10000 5.66 20 19:29 05.08.2021
6296 Clear 41 1005 17 10000 5.14 330 17:43 05.08.2021
6297 Clear 43 1005 17 10000 5.14 330 15:31 05.08.2021
6298 Clear 39 1007 15 10000 3.09 50 11:39 05.08.2021
6299 Clear 36 1008 15 6000 1.03 80 08:51 05.08.2021
6300 Clear 31 1008 15 10000 2.06 10 05:35 05.08.2021
6301 Clear 32 1009 16 10000 3.09 50 00:55 05.08.2021
6302 Clear 35 1009 31 10000 4.63 50 21:53 04.08.2021
6303 Clear 35 1009 31 10000 3.6 70 21:22 04.08.2021
6304 Clear 40 1007 18 10000 5.14 20 18:56 04.08.2021
6305 Clear 42 1007 18 10000 6.69 360 16:43 04.08.2021
6306 Clear 43 1007 17 10000 7.2 330 14:45 04.08.2021
6307 Clear 40 1008 17 10000 3.6 20 11:49 04.08.2021
6308 Clear 29 1008 17 10000 1.03 100 04:55 04.08.2021
6309 Clear 37 1007 29 10000 3.09 10 20:41 03.08.2021
6310 Clear 36 1006 26 10000 4.63 10 19:59 03.08.2021
6311 Clear 40 1006 29 10000 4.63 350 18:33 03.08.2021
6312 Clear 41 1005 29 10000 4.12 340 16:47 03.08.2021
6313 Clear 41 1005 22 10000 4.12 340 13:31 03.08.2021
6314 Haze 38 1007 22 4000 1.03 330 10:40 03.08.2021
6315 Mist 31 1007 22 3000 2.57 360 07:51 03.08.2021
6316 Clear 41 1003 31 6000 4.63 10 17:59 02.08.2021
6317 Clear 41 1004 31 6000 5.14 360 16:39 02.08.2021
6318 Clear 40 1004 20 6000 3.6 330 15:30 02.08.2021
6319 Clear 39 1005 25 6000 2.57 230 11:59 02.08.2021
6320 Clear 37 1005 25 6000 2.57 230 11:39 02.08.2021
6321 Haze 32 1006 24 4000 1.54 240 09:49 02.08.2021
6322 Haze 28 1005 78 4000 3.09 310 04:22 02.08.2021
6323 Clear 40 1004 38 10000 4.12 350 18:20 01.08.2021
6324 Clouds 41 1005 38 10000 3.6 320 15:30 01.08.2021
6325 Clouds 41 1005 38 10000 3.6 320 15:30 01.08.2021
6326 Haze 34 1006 24 4000 1.54 290 11:38 01.08.2021
6327 Mist 28 1006 78 3000 2.62 355 09:28 01.08.2021
6328 Clear 29 1005 79 6000 0 0 03:48 01.08.2021
6329 Clear 33 1005 42 10000 3.09 60 22:52 31.07.2021
6330 Clear 34 1005 49 10000 4.12 360 20:54 31.07.2021
6331 Clear 40 1003 42 6000 3.6 340 17:49 31.07.2021
6332 Clear 41 1003 42 6000 3.6 340 16:36 31.07.2021
6333 Haze 40 1004 31 3000 2.57 310 12:50 31.07.2021
6334 Mist 31 1005 31 3000 0 0 08:53 31.07.2021
6335 Clouds 29 1004 70 6000 2.06 330 02:29 31.07.2021
6336 Clear 34 1004 40 10000 4.63 10 20:31 30.07.2021
6337 Clear 35 1004 43 10000 4.12 360 19:58 30.07.2021
6338 Clouds 29 1006 70 6000 3.09 300 08:31 30.07.2021
6339 Clear 37 1005 23 10000 3.6 330 17:34 29.07.2021
6340 Mist 26 1007 83 4000 2.57 270 06:38 29.07.2021
6341 Clear 27 1007 78 10000 3.09 280 04:29 29.07.2021
6342 Clear 31 1008 58 10000 3.09 350 21:22 28.07.2021
6343 Clear 38 1006 44 10000 6.17 10 17:47 28.07.2021
6344 Clear 37 1006 23 10000 5.66 340 15:52 28.07.2021
6345 Clouds 28 1009 30 6000 2.06 300 08:24 28.07.2021
6346 Clear 29 1009 61 10000 5.14 10 23:31 27.07.2021
6347 Clear 31 1010 48 10000 5.14 10 21:29 27.07.2021
6348 Clear 35 1010 34 6000 5.14 360 14:53 27.07.2021
6349 Clear 33 1011 34 10000 3.09 330 11:41 27.07.2021
6350 Clear 32 1011 34 10000 3.09 360 09:49 27.07.2021
6351 Clear 37 1009 47 10000 5.14 350 18:48 26.07.2021
6352 Clouds 37 1009 47 10000 2.06 300 15:32 26.07.2021
6353 Clouds 25 1009 38 6000 3.09 350 04:52 26.07.2021
6354 Clear 29 1008 65 10000 6.17 350 20:56 25.07.2021
6355 Clouds 35 1007 48 10000 5.14 350 18:31 25.07.2021
6356 Clouds 37 1006 48 10000 4.63 340 15:47 25.07.2021
6357 Clouds 32 1008 40 10000 2.06 320 10:57 25.07.2021
6358 Clouds 27 1008 41 10000 2.06 300 08:20 25.07.2021
6359 Clear 28 1008 65 10000 4.12 330 22:35 24.07.2021
6360 Clear 31 1007 51 10000 5.14 350 20:19 24.07.2021
6361 Clouds 37 1006 42 10000 4.12 300 15:44 24.07.2021
6362 Clear 26 1006 69 10000 4.12 300 04:20 24.07.2021
6363 Clear 37 1005 36 10000 5.66 280 14:40 23.07.2021
6364 Clear 35 1006 36 10000 5.14 290 12:42 23.07.2021
6365 Clouds 28 1007 74 10000 6.17 260 06:18 23.07.2021
6366 Clear 32 1007 51 10000 5.14 320 20:33 22.07.2021
6367 Clouds 32 1009 40 10000 2.57 270 11:28 22.07.2021
6368 Clouds 30 1009 39 10000 1.54 350 09:23 22.07.2021
6369 Clear 27 1008 39 10000 3.09 10 03:42 22.07.2021
6370 Clear 31 1010 51 10000 5.14 360 21:46 21.07.2021
6371 Clear 32 1010 45 10000 4.63 360 21:28 21.07.2021
6372 Clear 39 1009 32 10000 5.66 340 14:42 21.07.2021
6373 Clear 34 1010 32 10000 4.63 50 09:49 21.07.2021
6374 Clear 31 1010 32 10000 4.63 50 08:21 21.07.2021
6375 Clear 31 1009 40 10000 5.66 60 23:47 20.07.2021
6376 Clear 39 1008 25 10000 8.23 30 17:43 20.07.2021
6377 Clear 41 1008 25 10000 8.23 20 16:25 20.07.2021
6378 Clear 41 1008 25 10000 5.14 50 15:26 20.07.2021
6379 Clear 35 1010 27 10000 5.66 60 10:22 20.07.2021
6380 Clear 27 1008 28 10000 4.63 20 04:48 20.07.2021
6381 Clear 32 1009 43 10000 7.2 70 22:25 19.07.2021
6382 Clear 32 1009 43 10000 7.2 70 22:25 19.07.2021
6383 Clear 39 1008 25 10000 5.14 360 13:36 19.07.2021
6384 Clear 34 1009 25 10000 3.6 50 10:29 19.07.2021
6385 Clear 35 1005 38 10000 4.63 350 19:44 18.07.2021
6386 Clear 38 1004 29 10000 4.63 350 15:20 18.07.2021
6387 Clear 33 1005 28 6000 2.06 60 10:18 18.07.2021
6388 Clear 31 1005 58 10000 4.63 20 22:25 17.07.2021
6389 Clear 31 1006 58 10000 5.66 360 21:54 17.07.2021
6390 Clear 32 1005 55 10000 5.66 10 21:35 17.07.2021
6391 Clear 38 1005 28 10000 3.6 330 12:34 17.07.2021
6392 Clear 34 1006 28 10000 1.54 20 10:20 17.07.2021
6393 Clear 27 1005 28 10000 2.57 20 04:46 17.07.2021
6394 Clear 40 1005 31 10000 4.63 320 14:23 16.07.2021
6395 Clear 34 1007 31 6000 1.54 30 09:44 16.07.2021
6396 Mist 27 1006 31 3000 2.06 320 05:46 16.07.2021
6397 Clear 36 1004 31 6000 3.6 340 14:20 15.07.2021
6398 Clear 36 1004 31 6000 3.09 320 13:48 15.07.2021
6399 Mist 27 1006 31 4000 1.54 30 07:44 15.07.2021
6400 Clear 30 1007 58 10000 3.09 360 21:47 14.07.2021
6401 Clear 38 1006 37 10000 3.6 360 16:48 14.07.2021
6402 Clouds 31 1008 35 10000 2.06 10 09:56 14.07.2021
6403 Clear 27 1009 57 10000 5.14 340 23:20 13.07.2021
6404 Clear 34 1008 38 10000 6.69 340 19:59 13.07.2021
6405 Clear 34 1008 38 10000 6.69 340 19:40 13.07.2021
6406 Clear 35 1008 38 10000 7.72 340 19:20 13.07.2021
6407 Clear 36 1007 38 10000 5.66 340 18:43 13.07.2021
6408 Clear 36 1007 38 10000 4.63 340 18:23 13.07.2021
6409 Clear 34 1008 32 10000 3.6 350 13:22 13.07.2021
6410 Haze 28 1010 33 4000 2.06 330 09:27 13.07.2021
6411 Clear 29 1009 54 10000 5.14 340 21:45 12.07.2021
6412 Clear 36 1007 38 10000 5.14 330 17:28 12.07.2021
6413 Clear 36 1008 32 10000 2.57 340 14:37 12.07.2021
6414 Clear 28 1008 65 10000 4.12 10 23:23 11.07.2021
6415 Clear 30 1007 66 10000 5.66 350 20:53 11.07.2021
6416 Clear 36 1006 36 10000 3.09 310 14:29 11.07.2021
6417 Clear 28 1006 35 10000 3.6 320 01:26 11.07.2021
6418 Clouds 38 1004 47 10000 6.69 310 16:54 10.07.2021
6419 Clouds 28 1006 38 10000 3.09 320 07:52 10.07.2021
6420 Clear 28 1007 38 10000 3.6 320 02:18 10.07.2021
6421 Clear 35 1006 34 10000 5.66 340 19:27 09.07.2021
6422 Clear 39 1007 34 10000 4.12 340 14:50 09.07.2021
6423 Clear 37 1008 33 10000 2.57 340 12:46 09.07.2021
6424 Clear 30 1010 41 10000 4.12 30 23:53 08.07.2021
6425 Clear 31 1010 41 10000 6.69 30 22:49 08.07.2021
6426 Clear 33 1009 43 10000 4.63 350 19:49 08.07.2021
6427 Clear 37 1008 41 10000 4.63 360 17:47 08.07.2021
6428 Clear 38 1009 35 10000 3.6 360 13:49 08.07.2021
6429 Clear 34 1009 35 10000 3.6 300 13:29 08.07.2021
6430 Clear 33 1010 35 10000 3.09 20 12:33 08.07.2021
6431 Haze 34 1010 35 3000 2.57 350 10:54 08.07.2021
6432 Mist 27 1009 35 3000 2.06 340 06:20 08.07.2021
6433 Clear 27 1009 35 10000 3.09 10 02:53 08.07.2021
6434 Clear 28 1010 57 10000 5.66 360 22:58 07.07.2021
6435 Clear 31 1010 30 10000 5.14 340 22:19 07.07.2021
6436 Clear 29 1010 48 10000 5.14 350 21:44 07.07.2021
6437 Clear 30 1009 48 10000 6.17 360 21:24 07.07.2021
6438 Clear 31 1009 51 10000 7.72 360 19:58 07.07.2021
6439 Clear 32 1008 48 10000 5.66 350 19:29 07.07.2021
6440 Clear 37 1007 30 10000 5.66 320 17:36 07.07.2021
6441 Clear 39 1007 30 10000 5.14 300 15:47 07.07.2021
6442 Clear 38 1008 29 10000 4.12 330 14:33 07.07.2021
6443 Clear 31 1008 29 10000 2.57 40 10:23 07.07.2021
6444 Clear 27 1008 29 10000 1.54 50 06:53 07.07.2021
6445 Clear 26 1008 29 10000 3.09 50 05:49 07.07.2021
6446 Clear 26 1007 29 10000 2.57 30 02:52 07.07.2021
6447 Clear 34 1007 35 10000 6.17 350 19:31 06.07.2021
6448 Clear 36 1007 35 10000 6.17 360 18:54 06.07.2021
6449 Clear 35 1007 35 10000 6.17 360 18:33 06.07.2021
6450 Clear 36 1006 35 10000 6.69 350 17:32 06.07.2021
6451 Clear 34 1007 33 10000 4.12 330 13:33 06.07.2021
6452 Clear 28 1008 33 10000 1.54 340 09:43 06.07.2021
6453 Clear 27 1008 33 10000 2.57 340 08:35 06.07.2021
6454 Clear 27 1008 33 10000 2.57 340 08:35 06.07.2021
6455 Clear 26 1008 33 10000 2.57 320 07:39 06.07.2021
6456 Clear 27 1007 33 10000 3.09 350 01:55 06.07.2021
6457 Clear 28 1008 38 10000 4.63 350 23:57 05.07.2021
6458 Clear 29 1009 42 10000 5.14 310 21:58 05.07.2021
6459 Clear 35 1007 38 10000 5.14 320 17:21 05.07.2021
6460 Clouds 28 1009 51 10000 4.63 340 09:22 05.07.2021
6461 Clear 25 1009 33 10000 3.09 310 05:49 05.07.2021
6462 Clear 24 1009 33 10000 3.6 320 04:41 05.07.2021
6463 Clear 28 1010 40 10000 5.66 330 23:22 04.07.2021
6464 Clear 28 1009 47 10000 6.69 320 20:47 04.07.2021
6465 Clear 35 1007 40 10000 6.69 330 17:35 04.07.2021
6466 Clouds 35 1008 31 10000 4.12 300 14:36 04.07.2021
6467 Clouds 34 1009 32 10000 4.12 360 10:47 04.07.2021
6468 Clouds 26 1009 32 10000 2.57 330 06:47 04.07.2021
6469 Clear 27 1009 69 10000 5.66 310 23:26 03.07.2021
6470 Clear 32 1008 40 10000 6.17 310 19:46 03.07.2021
6471 Clear 41 1008 23 10000 6.17 300 12:43 03.07.2021
6472 Clear 39 1009 23 10000 4.63 270 11:52 03.07.2021
6473 Clear 32 1009 23 10000 4.12 250 09:27 03.07.2021
6474 Clear 31 1009 40 10000 3.6 250 08:45 03.07.2021
6475 Clear 34 1010 24 10000 3.6 280 22:55 02.07.2021
6476 Clear 36 1011 26 10000 3.09 260 10:25 02.07.2021
6477 Clear 28 1011 21 10000 0 0 07:28 02.07.2021
6478 Clear 27 1010 54 10000 2.06 280 02:28 02.07.2021
6479 Clear 31 1011 45 10000 3.09 340 22:31 01.07.2021
6480 Clear 34 1011 31 10000 5.14 340 21:36 01.07.2021
6481 Clear 33 1010 38 10000 5.14 320 20:22 01.07.2021
6482 Clear 37 1010 31 10000 6.69 320 19:20 01.07.2021
6483 Clear 38 1009 31 10000 6.17 340 18:47 01.07.2021
6484 Clear 39 1009 31 10000 6.17 320 17:43 01.07.2021
6485 Clear 39 1009 31 10000 6.17 350 16:39 01.07.2021
6486 Clear 38 1009 18 10000 5.14 330 15:24 01.07.2021
6487 Clear 38 1009 22 10000 6.17 310 14:20 01.07.2021
6488 Haze 34 1011 24 3000 2.57 300 10:30 01.07.2021
6489 Haze 27 1010 23 3000 2.57 310 03:58 01.07.2021
6490 Clear 30 1010 51 10000 3.09 20 23:18 30.06.2021
6491 Clear 33 1010 35 10000 5.14 350 21:59 30.06.2021
6492 Clear 32 1010 35 10000 5.66 360 21:21 30.06.2021
6493 Clear 33 1009 33 10000 7.2 360 20:25 30.06.2021
6494 Clear 39 1008 35 10000 5.14 340 17:20 30.06.2021
6495 Clear 37 1008 23 10000 4.63 340 14:23 30.06.2021
6496 Clear 36 1009 29 6000 3.09 330 12:31 30.06.2021
6497 Clear 26 1008 78 10000 3.09 320 03:26 30.06.2021
6498 Clear 32 1008 51 10000 6.17 360 21:18 29.06.2021
6499 Clear 38 1007 39 10000 5.66 340 18:22 29.06.2021
6500 Clear 38 1007 39 10000 6.17 340 17:29 29.06.2021
6501 Clear 38 1007 27 10000 5.66 320 15:52 29.06.2021
6502 Clear 37 1007 28 10000 5.66 330 14:57 29.06.2021
6503 Clear 36 1008 33 10000 4.12 360 13:29 29.06.2021
6504 Clouds 29 1010 33 6000 1.54 300 08:46 29.06.2021
6505 Clear 30 1009 33 10000 3.6 320 00:32 29.06.2021
6506 Clear 34 1010 34 10000 4.12 340 21:32 28.06.2021
6507 Clear 37 1008 34 10000 5.66 340 19:40 28.06.2021
6508 Clear 38 1008 34 10000 6.17 330 17:21 28.06.2021
6509 Clear 38 1008 34 10000 6.17 330 17:21 28.06.2021
6510 Clear 37 1008 25 10000 6.17 340 15:21 28.06.2021
6511 Clear 40 1009 27 10000 5.14 360 12:58 28.06.2021
6512 Clear 27 1009 69 10000 3.09 40 03:27 28.06.2021
6513 Clear 31 1009 32 10000 4.12 20 23:44 27.06.2021
6514 Clear 33 1008 55 10000 6.17 360 21:24 27.06.2021
6515 Clear 34 1007 40 10000 6.17 340 19:40 27.06.2021
6516 Clear 41 1006 32 10000 5.66 340 15:57 27.06.2021
6517 Clear 36 1007 31 10000 4.12 290 13:21 27.06.2021
6518 Clear 27 1007 31 10000 1.03 300 05:25 27.06.2021
6519 Clear 31 1008 39 10000 5.14 350 22:46 26.06.2021
6520 Clear 32 1007 37 10000 4.63 350 20:59 26.06.2021
6521 Clear 32 1007 37 10000 4.63 350 20:40 26.06.2021
6522 Clear 36 1006 39 10000 6.69 330 18:22 26.06.2021
6523 Clear 35 1006 31 10000 6.17 340 15:22 26.06.2021
6524 Clear 32 1008 34 10000 5.14 10 12:28 26.06.2021
6525 Clear 32 1008 34 10000 5.14 10 12:28 26.06.2021
6526 Clouds 27 1009 61 6000 3.6 350 08:54 26.06.2021
6527 Clear 25 1009 34 6000 4.63 340 04:35 26.06.2021
6528 Clear 30 1008 45 10000 5.14 330 20:40 25.06.2021
6529 Clear 35 1008 37 10000 6.17 320 19:37 25.06.2021
6530 Clouds 37 1007 37 10000 6.17 300 17:48 25.06.2021
6531 Clear 38 1007 37 10000 5.14 310 16:49 25.06.2021
6532 Clear 35 1007 29 10000 4.63 260 14:58 25.06.2021
6533 Clear 36 1009 36 10000 4.12 280 11:46 25.06.2021
6534 Clouds 30 1010 36 10000 2.57 280 08:48 25.06.2021
6535 Clear 26 1010 36 10000 3.6 280 07:20 25.06.2021
6536 Clear 25 1010 36 10000 4.63 280 03:49 25.06.2021
6537 Clear 30 1011 38 10000 4.63 320 22:41 24.06.2021
6538 Clear 30 1011 45 10000 4.63 320 21:41 24.06.2021
6539 Clear 31 1010 48 10000 6.69 320 20:41 24.06.2021
6540 Clear 35 1010 38 10000 6.17 310 18:47 24.06.2021
6541 Clear 36 1010 38 10000 5.66 330 16:30 24.06.2021
6542 Clear 36 1010 38 10000 6.17 310 15:22 24.06.2021
6543 Clear 35 1010 29 10000 5.14 330 14:48 24.06.2021
6544 Clear 34 1012 33 10000 2.57 340 11:26 24.06.2021
6545 Clear 28 1012 33 10000 1.03 10 09:34 24.06.2021
6546 Clear 26 1012 33 10000 2.06 10 08:24 24.06.2021
6547 Clear 25 1012 33 10000 3.09 30 04:36 24.06.2021
6548 Clear 29 1013 38 10000 5.14 30 23:28 23.06.2021
6549 Clear 28 1013 54 10000 6.17 360 21:46 23.06.2021
6550 Clear 32 1013 38 10000 7.2 360 20:47 23.06.2021
6551 Clear 34 1011 38 10000 5.66 350 18:38 23.06.2021
6552 Clear 34 1011 38 10000 6.17 340 17:39 23.06.2021
6553 Clear 35 1011 38 10000 6.17 350 16:34 23.06.2021
6554 Clear 34 1012 33 10000 5.66 340 14:29 23.06.2021
6555 Clear 34 1013 34 10000 4.12 10 11:59 23.06.2021
6556 Clear 29 1014 34 10000 3.6 10 10:39 23.06.2021
6557 Clear 29 1014 34 10000 2.06 40 08:52 23.06.2021
6558 Clear 27 1014 34 10000 2.06 50 08:25 23.06.2021
6559 Clear 27 1014 34 10000 2.57 40 07:47 23.06.2021
6560 Clear 25 1013 34 10000 3.09 60 04:34 23.06.2021
6561 Clear 26 1014 34 10000 4.63 30 00:46 23.06.2021
6562 Clear 27 1014 34 10000 5.14 40 23:57 22.06.2021
6563 Clear 28 1014 34 10000 5.66 30 22:47 22.06.2021
6564 Clear 29 1014 34 10000 5.66 30 22:25 22.06.2021
6565 Clear 30 1014 34 10000 6.69 40 21:39 22.06.2021
6566 Clear 31 1013 34 10000 7.2 340 19:47 22.06.2021
6567 Clear 33 1012 34 10000 6.69 340 18:57 22.06.2021
6568 Clear 34 1012 34 10000 6.17 340 18:26 22.06.2021
6569 Clear 34 1012 34 10000 5.66 330 17:22 22.06.2021
6570 Clear 35 1012 34 10000 5.66 320 16:32 22.06.2021
6571 Clear 37 1012 30 10000 5.66 340 14:44 22.06.2021
6572 Clear 37 1012 30 10000 5.14 330 14:21 22.06.2021
6573 Clear 36 1013 30 10000 4.63 320 12:56 22.06.2021
6574 Clear 35 1013 30 10000 4.63 330 11:51 22.06.2021
6575 Clear 30 1013 30 6000 3.6 350 10:31 22.06.2021
6576 Clear 27 1012 30 10000 1.03 40 06:52 22.06.2021
6577 Clear 27 1013 31 10000 4.63 40 00:50 22.06.2021
6578 Clear 27 1013 65 10000 5.66 40 23:29 21.06.2021
6579 Clear 28 1013 61 10000 6.17 40 22:27 21.06.2021
6580 Clear 29 1012 58 10000 7.2 360 21:23 21.06.2021
6581 Clear 29 1012 61 10000 6.69 360 20:46 21.06.2021
6582 Clear 31 1011 51 10000 8.75 350 19:55 21.06.2021
6583 Clear 33 1011 31 10000 4.63 360 18:57 21.06.2021
6584 Clear 36 1011 25 10000 5.66 340 17:36 21.06.2021
6585 Clear 37 1010 25 10000 1.54 330 16:46 21.06.2021
6586 Clear 37 1010 25 10000 1.54 330 16:25 21.06.2021
6587 Clear 37 1011 25 10000 5.66 330 15:45 21.06.2021
6588 Clear 34 1011 27 10000 3.09 290 14:18 21.06.2021
6589 Clear 34 1011 27 10000 4.12 360 13:34 21.06.2021
6590 Clear 34 1012 27 10000 3.09 330 12:38 21.06.2021
6591 Clear 35 1012 27 10000 1.54 30 11:52 21.06.2021
6592 Clear 31 1012 27 10000 3.09 20 10:31 21.06.2021
6593 Clear 29 1012 27 10000 4.12 20 09:29 21.06.2021
6594 Clear 27 1012 27 10000 4.12 60 08:22 21.06.2021
6595 Clear 25 1012 27 10000 4.12 70 07:28 21.06.2021
6596 Clear 26 1011 26 10000 4.63 30 00:43 21.06.2021
6597 Clear 28 1011 26 10000 6.17 30 23:35 20.06.2021
6598 Clear 28 1011 26 10000 7.2 30 22:58 20.06.2021
6599 Clear 29 1011 26 10000 7.72 30 22:18 20.06.2021
6600 Clear 27 1011 54 10000 7.72 30 21:32 20.06.2021
6601 Clear 31 1010 30 10000 5.14 350 19:47 20.06.2021
6602 Clear 32 1010 26 10000 5.14 350 19:24 20.06.2021
6603 Clear 33 1010 26 10000 4.63 340 18:21 20.06.2021
6604 Clear 36 1010 26 10000 5.14 350 16:52 20.06.2021
6605 Clear 37 1010 26 10000 3.6 340 15:58 20.06.2021
6606 Clear 33 1010 26 10000 3.6 340 15:34 20.06.2021
6607 Clear 37 1010 24 10000 4.12 350 14:54 20.06.2021
6608 Clear 36 1010 25 10000 5.14 320 13:52 20.06.2021
6609 Clear 35 1011 25 10000 4.12 350 12:58 20.06.2021
6610 Clear 34 1011 25 10000 4.12 30 11:47 20.06.2021
6611 Clear 32 1011 25 10000 4.12 360 10:48 20.06.2021
6612 Clear 31 1011 25 10000 2.06 40 09:47 20.06.2021
6613 Clear 26 1011 25 10000 2.06 90 08:22 20.06.2021
6614 Clear 25 1012 25 10000 3.6 40 00:31 20.06.2021
6615 Clear 26 1012 30 10000 5.14 40 23:23 19.06.2021
6616 Clear 27 1012 30 10000 5.14 30 22:20 19.06.2021
6617 Clear 27 1012 30 10000 5.14 360 21:43 19.06.2021
6618 Clear 31 1012 30 10000 5.66 350 19:22 19.06.2021
6619 Clear 33 1011 30 10000 6.69 340 18:39 19.06.2021
6620 Clear 33 1011 30 10000 7.2 330 17:45 19.06.2021
6621 Clear 34 1011 30 10000 6.17 330 16:58 19.06.2021
6622 Clear 35 1011 30 10000 6.17 330 15:46 19.06.2021
6623 Clear 31 1012 29 10000 4.12 330 13:47 19.06.2021
6624 Clear 34 1012 29 10000 5.14 330 12:43 19.06.2021
6625 Clear 30 1013 29 10000 4.63 340 11:22 19.06.2021
6626 Clear 28 1013 29 10000 3.6 340 10:37 19.06.2021
6627 Clear 28 1013 29 10000 3.6 340 10:18 19.06.2021
6628 Clear 24 1013 29 10000 2.57 20 08:33 19.06.2021
6629 Clear 25 1013 29 10000 3.09 30 07:41 19.06.2021
6630 Clear 22 1012 29 10000 4.12 90 05:44 19.06.2021
6631 Clear 25 1014 30 10000 5.66 350 00:26 19.06.2021
6632 Clear 25 1014 39 10000 4.63 360 23:58 18.06.2021
6633 Clear 26 1014 39 10000 6.69 360 23:18 18.06.2021
6634 Clear 26 1014 39 10000 7.2 340 22:41 18.06.2021
6635 Clear 26 1014 53 10000 7.2 350 21:53 18.06.2021
6636 Clear 28 1014 39 10000 7.72 350 21:28 18.06.2021
6637 Clear 27 1014 47 10000 7.2 350 20:37 18.06.2021
6638 Clear 31 1013 39 10000 8.23 360 18:58 18.06.2021
6639 Clear 33 1012 39 10000 7.2 360 18:20 18.06.2021
6640 Clear 35 1012 39 10000 7.2 20 16:59 18.06.2021
6641 Clear 35 1012 39 10000 6.17 350 15:54 18.06.2021
6642 Clear 31 1013 33 10000 6.17 360 14:55 18.06.2021
6643 Clear 32 1013 33 10000 6.17 360 14:25 18.06.2021
6644 Clear 31 1013 36 10000 5.66 360 13:30 18.06.2021
6645 Clear 33 1014 36 10000 5.14 350 12:44 18.06.2021
6646 Clear 31 1014 36 10000 5.66 10 11:56 18.06.2021
6647 Clear 29 1015 36 10000 4.63 350 11:20 18.06.2021
6648 Clouds 29 1015 36 10000 5.14 350 10:51 18.06.2021
6649 Clouds 26 1015 36 10000 5.14 20 10:20 18.06.2021
6650 Clouds 25 1015 36 10000 5.14 20 09:29 18.06.2021
6651 Clouds 26 1015 36 10000 4.63 360 08:44 18.06.2021
6652 Clouds 24 1015 36 10000 5.14 30 07:52 18.06.2021
6653 Clouds 23 1015 36 10000 5.66 10 07:21 18.06.2021
6654 Clear 23 1016 36 10000 5.66 20 00:41 18.06.2021
6655 Clear 24 1016 35 10000 7.2 30 23:41 17.06.2021
6656 Clear 25 1016 35 10000 6.69 20 22:49 17.06.2021
6657 Clear 25 1017 35 10000 6.69 20 22:23 17.06.2021
6658 Clear 24 1017 60 10000 8.23 20 21:38 17.06.2021
6659 Clear 25 1016 53 10000 7.2 10 20:49 17.06.2021
6660 Clear 28 1016 35 10000 7.72 360 20:23 17.06.2021
6661 Clear 28 1016 35 10000 7.72 360 19:46 17.06.2021
6662 Clear 30 1015 35 10000 8.75 360 18:40 17.06.2021
6663 Clear 32 1015 35 10000 7.2 360 17:43 17.06.2021
6664 Clear 31 1015 35 10000 7.72 20 17:19 17.06.2021
6665 Clear 31 1015 35 10000 6.69 350 16:25 17.06.2021
6666 Clear 33 1015 33</